<?xml version="1.0" encoding="UTF-8" standalone="no" ?>
<gpx xmlns="http://www.topografix.com/GPX/1/1" xmlns:xsi="http://www.w3.org/2001/XMLSchema-instance" xsi:schemaLocation="http://www.topografix.com/GPX/1/1 http://www.topografix.com/GPX/1/1/gpx.xsd" version="1.1" creator="VisuGPX - https://www.visugpx.com">
  <metadata>
    <name>141105ROBMinots</name>
    <desc><![CDATA[18km et 230m de denivelé]]></desc>
  </metadata>
  <trk>
    <name><![CDATA[141105ROBMinots]]></name>
    <trkseg>
      <trkpt lat="43.41575" lon="6.07044">
        <ele>218.27857971191</ele>
        <time>2014-11-05T13:04:12Z</time>
      </trkpt>
      <trkpt lat="43.41575" lon="6.07043">
        <ele>218.27685546875</ele>
        <time>2014-11-05T13:04:17Z</time>
      </trkpt>
      <trkpt lat="43.41575" lon="6.07042">
        <ele>218.29002380371</ele>
        <time>2014-11-05T13:04:21Z</time>
      </trkpt>
      <trkpt lat="43.41575" lon="6.07042">
        <ele>218.30319213867</ele>
        <time>2014-11-05T13:04:23Z</time>
      </trkpt>
      <trkpt lat="43.41575" lon="6.07042">
        <ele>218.30261230469</ele>
        <time>2014-11-05T13:04:25Z</time>
      </trkpt>
      <trkpt lat="43.41576" lon="6.07041">
        <ele>218.31977844238</ele>
        <time>2014-11-05T13:04:27Z</time>
      </trkpt>
      <trkpt lat="43.41576" lon="6.07041">
        <ele>218.32034301758</ele>
        <time>2014-11-05T13:04:29Z</time>
      </trkpt>
      <trkpt lat="43.41576" lon="6.07042">
        <ele>218.32664489746</ele>
        <time>2014-11-05T13:04:33Z</time>
      </trkpt>
      <trkpt lat="43.41577" lon="6.07042">
        <ele>218.33694458008</ele>
        <time>2014-11-05T13:04:37Z</time>
      </trkpt>
      <trkpt lat="43.41577" lon="6.07043">
        <ele>218.34094238281</ele>
        <time>2014-11-05T13:04:39Z</time>
      </trkpt>
      <trkpt lat="43.41577" lon="6.07042">
        <ele>218.33407592773</ele>
        <time>2014-11-05T13:04:41Z</time>
      </trkpt>
      <trkpt lat="43.41577" lon="6.07043">
        <ele>218.33981323242</ele>
        <time>2014-11-05T13:04:43Z</time>
      </trkpt>
      <trkpt lat="43.41577" lon="6.07042">
        <ele>218.34323120117</ele>
        <time>2014-11-05T13:04:45Z</time>
      </trkpt>
      <trkpt lat="43.41577" lon="6.07042">
        <ele>218.33407592773</ele>
        <time>2014-11-05T13:04:46Z</time>
      </trkpt>
      <trkpt lat="43.41577" lon="6.07043">
        <ele>218.33122253418</ele>
        <time>2014-11-05T13:04:49Z</time>
      </trkpt>
      <trkpt lat="43.41576" lon="6.07042">
        <ele>218.31692504883</ele>
        <time>2014-11-05T13:04:55Z</time>
      </trkpt>
      <trkpt lat="43.41576" lon="6.07042">
        <ele>218.30889892578</ele>
        <time>2014-11-05T13:04:59Z</time>
      </trkpt>
      <trkpt lat="43.41575" lon="6.07042">
        <ele>218.30548095703</ele>
        <time>2014-11-05T13:05:02Z</time>
      </trkpt>
      <trkpt lat="43.41576" lon="6.07042">
        <ele>218.31520080566</ele>
        <time>2014-11-05T13:05:03Z</time>
      </trkpt>
      <trkpt lat="43.41576" lon="6.07042">
        <ele>218.31692504883</ele>
        <time>2014-11-05T13:05:05Z</time>
      </trkpt>
      <trkpt lat="43.41575" lon="6.07041">
        <ele>218.30889892578</ele>
        <time>2014-11-05T13:05:07Z</time>
      </trkpt>
      <trkpt lat="43.41575" lon="6.07041">
        <ele>218.31005859375</ele>
        <time>2014-11-05T13:05:09Z</time>
      </trkpt>
      <trkpt lat="43.41575" lon="6.07041">
        <ele>218.30261230469</ele>
        <time>2014-11-05T13:05:11Z</time>
      </trkpt>
      <trkpt lat="43.41575" lon="6.07041">
        <ele>218.3020324707</ele>
        <time>2014-11-05T13:05:13Z</time>
      </trkpt>
      <trkpt lat="43.41575" lon="6.07042">
        <ele>218.30604553223</ele>
        <time>2014-11-05T13:05:17Z</time>
      </trkpt>
      <trkpt lat="43.41575" lon="6.07042">
        <ele>218.30604553223</ele>
        <time>2014-11-05T13:05:19Z</time>
      </trkpt>
      <trkpt lat="43.41576" lon="6.07043">
        <ele>218.31291198731</ele>
        <time>2014-11-05T13:05:23Z</time>
      </trkpt>
      <trkpt lat="43.41576" lon="6.07043">
        <ele>218.3020324707</ele>
        <time>2014-11-05T13:05:25Z</time>
      </trkpt>
      <trkpt lat="43.41576" lon="6.07043">
        <ele>218.30889892578</ele>
        <time>2014-11-05T13:05:27Z</time>
      </trkpt>
      <trkpt lat="43.41576" lon="6.07043">
        <ele>218.30432128906</ele>
        <time>2014-11-05T13:05:29Z</time>
      </trkpt>
      <trkpt lat="43.41576" lon="6.07049">
        <ele>218.240234375</ele>
        <time>2014-11-05T13:05:31Z</time>
      </trkpt>
      <trkpt lat="43.41577" lon="6.07051">
        <ele>218.22593688965</ele>
        <time>2014-11-05T13:05:33Z</time>
      </trkpt>
      <trkpt lat="43.41577" lon="6.07052">
        <ele>218.22250366211</ele>
        <time>2014-11-05T13:05:35Z</time>
      </trkpt>
      <trkpt lat="43.41577" lon="6.07053">
        <ele>218.22079467773</ele>
        <time>2014-11-05T13:05:37Z</time>
      </trkpt>
      <trkpt lat="43.41578" lon="6.07059">
        <ele>218.16642761231</ele>
        <time>2014-11-05T13:05:41Z</time>
      </trkpt>
      <trkpt lat="43.41578" lon="6.07061">
        <ele>218.14811706543</ele>
        <time>2014-11-05T13:05:42Z</time>
      </trkpt>
      <trkpt lat="43.41578" lon="6.07064">
        <ele>218.11663818359</ele>
        <time>2014-11-05T13:05:43Z</time>
      </trkpt>
      <trkpt lat="43.41579" lon="6.07069">
        <ele>218.06457519531</ele>
        <time>2014-11-05T13:05:45Z</time>
      </trkpt>
      <trkpt lat="43.41579" lon="6.07074">
        <ele>218.01307678223</ele>
        <time>2014-11-05T13:05:47Z</time>
      </trkpt>
      <trkpt lat="43.41579" lon="6.07078">
        <ele>217.97131347656</ele>
        <time>2014-11-05T13:05:48Z</time>
      </trkpt>
      <trkpt lat="43.4158" lon="6.07083">
        <ele>217.93296813965</ele>
        <time>2014-11-05T13:05:49Z</time>
      </trkpt>
      <trkpt lat="43.41581" lon="6.07092">
        <ele>217.95227050781</ele>
        <time>2014-11-05T13:05:51Z</time>
      </trkpt>
      <trkpt lat="43.4158" lon="6.071">
        <ele>217.9248046875</ele>
        <time>2014-11-05T13:05:53Z</time>
      </trkpt>
      <trkpt lat="43.41579" lon="6.07103">
        <ele>217.88818359375</ele>
        <time>2014-11-05T13:05:54Z</time>
      </trkpt>
      <trkpt lat="43.41578" lon="6.07105">
        <ele>217.86071777344</ele>
        <time>2014-11-05T13:05:55Z</time>
      </trkpt>
      <trkpt lat="43.41574" lon="6.07106">
        <ele>217.78747558594</ele>
        <time>2014-11-05T13:05:57Z</time>
      </trkpt>
      <trkpt lat="43.41571" lon="6.07109">
        <ele>217.71423339844</ele>
        <time>2014-11-05T13:05:59Z</time>
      </trkpt>
      <trkpt lat="43.41568" lon="6.07112">
        <ele>217.6318359375</ele>
        <time>2014-11-05T13:06:01Z</time>
      </trkpt>
      <trkpt lat="43.41565" lon="6.07114">
        <ele>217.55859375</ele>
        <time>2014-11-05T13:06:03Z</time>
      </trkpt>
      <trkpt lat="43.4156" lon="6.07116">
        <ele>217.43041992188</ele>
        <time>2014-11-05T13:06:05Z</time>
      </trkpt>
      <trkpt lat="43.41553" lon="6.07116">
        <ele>217.265625</ele>
        <time>2014-11-05T13:06:07Z</time>
      </trkpt>
      <trkpt lat="43.41547" lon="6.07113">
        <ele>217.13745117188</ele>
        <time>2014-11-05T13:06:09Z</time>
      </trkpt>
      <trkpt lat="43.41546" lon="6.0711">
        <ele>217.10998535156</ele>
        <time>2014-11-05T13:06:10Z</time>
      </trkpt>
      <trkpt lat="43.41546" lon="6.07107">
        <ele>217.10083007812</ele>
        <time>2014-11-05T13:06:11Z</time>
      </trkpt>
      <trkpt lat="43.41545" lon="6.07098">
        <ele>217.09167480469</ele>
        <time>2014-11-05T13:06:13Z</time>
      </trkpt>
      <trkpt lat="43.41545" lon="6.07094">
        <ele>217.07336425781</ele>
        <time>2014-11-05T13:06:14Z</time>
      </trkpt>
      <trkpt lat="43.41543" lon="6.0709">
        <ele>217.03674316406</ele>
        <time>2014-11-05T13:06:15Z</time>
      </trkpt>
      <trkpt lat="43.41542" lon="6.07086">
        <ele>217.00012207031</ele>
        <time>2014-11-05T13:06:16Z</time>
      </trkpt>
      <trkpt lat="43.41541" lon="6.07083">
        <ele>216.97509765625</ele>
        <time>2014-11-05T13:06:17Z</time>
      </trkpt>
      <trkpt lat="43.41537" lon="6.07079">
        <ele>216.95736694336</ele>
        <time>2014-11-05T13:06:19Z</time>
      </trkpt>
      <trkpt lat="43.41534" lon="6.07079">
        <ele>216.87896728516</ele>
        <time>2014-11-05T13:06:21Z</time>
      </trkpt>
      <trkpt lat="43.4153" lon="6.07078">
        <ele>216.78398132324</ele>
        <time>2014-11-05T13:06:23Z</time>
      </trkpt>
      <trkpt lat="43.41528" lon="6.07079">
        <ele>216.71932983398</ele>
        <time>2014-11-05T13:06:24Z</time>
      </trkpt>
      <trkpt lat="43.41525" lon="6.0708">
        <ele>216.62376403809</ele>
        <time>2014-11-05T13:06:25Z</time>
      </trkpt>
      <trkpt lat="43.41518" lon="6.07082">
        <ele>216.43551635742</ele>
        <time>2014-11-05T13:06:27Z</time>
      </trkpt>
      <trkpt lat="43.4151" lon="6.07084">
        <ele>216.24938964844</ele>
        <time>2014-11-05T13:06:29Z</time>
      </trkpt>
      <trkpt lat="43.41503" lon="6.07086">
        <ele>216.07543945312</ele>
        <time>2014-11-05T13:06:31Z</time>
      </trkpt>
      <trkpt lat="43.41496" lon="6.07085">
        <ele>215.89233398438</ele>
        <time>2014-11-05T13:06:33Z</time>
      </trkpt>
      <trkpt lat="43.41491" lon="6.07083">
        <ele>215.79162597656</ele>
        <time>2014-11-05T13:06:34Z</time>
      </trkpt>
      <trkpt lat="43.41488" lon="6.07082">
        <ele>215.73944091797</ele>
        <time>2014-11-05T13:06:35Z</time>
      </trkpt>
      <trkpt lat="43.41482" lon="6.07079">
        <ele>215.63195800781</ele>
        <time>2014-11-05T13:06:37Z</time>
      </trkpt>
      <trkpt lat="43.41475" lon="6.07077">
        <ele>215.50448608398</ele>
        <time>2014-11-05T13:06:39Z</time>
      </trkpt>
      <trkpt lat="43.4147" lon="6.07076">
        <ele>215.39747619629</ele>
        <time>2014-11-05T13:06:41Z</time>
      </trkpt>
      <trkpt lat="43.41467" lon="6.07076">
        <ele>215.33537292481</ele>
        <time>2014-11-05T13:06:43Z</time>
      </trkpt>
      <trkpt lat="43.41467" lon="6.07076">
        <ele>215.32502746582</ele>
        <time>2014-11-05T13:06:44Z</time>
      </trkpt>
      <trkpt lat="43.41467" lon="6.07076">
        <ele>215.32261657715</ele>
        <time>2014-11-05T13:06:45Z</time>
      </trkpt>
      <trkpt lat="43.41467" lon="6.07077">
        <ele>215.31782531738</ele>
        <time>2014-11-05T13:06:47Z</time>
      </trkpt>
      <trkpt lat="43.41467" lon="6.07077">
        <ele>215.31782531738</ele>
        <time>2014-11-05T13:06:51Z</time>
      </trkpt>
      <trkpt lat="43.41467" lon="6.07077">
        <ele>215.31703186035</ele>
        <time>2014-11-05T13:06:55Z</time>
      </trkpt>
      <trkpt lat="43.41467" lon="6.07077">
        <ele>215.31622314453</ele>
        <time>2014-11-05T13:06:57Z</time>
      </trkpt>
      <trkpt lat="43.41465" lon="6.07077">
        <ele>215.28430175781</ele>
        <time>2014-11-05T13:06:59Z</time>
      </trkpt>
      <trkpt lat="43.41461" lon="6.07077">
        <ele>215.17427062988</ele>
        <time>2014-11-05T13:07:01Z</time>
      </trkpt>
      <trkpt lat="43.41457" lon="6.07082">
        <ele>214.99391174316</ele>
        <time>2014-11-05T13:07:03Z</time>
      </trkpt>
      <trkpt lat="43.41452" lon="6.07091">
        <ele>214.83947753906</ele>
        <time>2014-11-05T13:07:05Z</time>
      </trkpt>
      <trkpt lat="43.41447" lon="6.07103">
        <ele>214.72961425781</ele>
        <time>2014-11-05T13:07:07Z</time>
      </trkpt>
      <trkpt lat="43.41442" lon="6.07116">
        <ele>214.61059570312</ele>
        <time>2014-11-05T13:07:09Z</time>
      </trkpt>
      <trkpt lat="43.4144" lon="6.07122">
        <ele>214.5556640625</ele>
        <time>2014-11-05T13:07:10Z</time>
      </trkpt>
      <trkpt lat="43.41438" lon="6.07128">
        <ele>214.50988769531</ele>
        <time>2014-11-05T13:07:11Z</time>
      </trkpt>
      <trkpt lat="43.41434" lon="6.0714">
        <ele>214.41833496094</ele>
        <time>2014-11-05T13:07:13Z</time>
      </trkpt>
      <trkpt lat="43.41431" lon="6.0715">
        <ele>214.3359375</ele>
        <time>2014-11-05T13:07:15Z</time>
      </trkpt>
      <trkpt lat="43.41427" lon="6.0716">
        <ele>214.24438476562</ele>
        <time>2014-11-05T13:07:17Z</time>
      </trkpt>
      <trkpt lat="43.41423" lon="6.07172">
        <ele>214.15283203125</ele>
        <time>2014-11-05T13:07:19Z</time>
      </trkpt>
      <trkpt lat="43.41419" lon="6.07184">
        <ele>214.05212402344</ele>
        <time>2014-11-05T13:07:21Z</time>
      </trkpt>
      <trkpt lat="43.41415" lon="6.07198">
        <ele>213.98028564453</ele>
        <time>2014-11-05T13:07:23Z</time>
      </trkpt>
      <trkpt lat="43.41413" lon="6.07205">
        <ele>213.95281982422</ele>
        <time>2014-11-05T13:07:24Z</time>
      </trkpt>
      <trkpt lat="43.4141" lon="6.07212">
        <ele>213.92535400391</ele>
        <time>2014-11-05T13:07:25Z</time>
      </trkpt>
      <trkpt lat="43.41406" lon="6.07226">
        <ele>213.87042236328</ele>
        <time>2014-11-05T13:07:27Z</time>
      </trkpt>
      <trkpt lat="43.41401" lon="6.0724">
        <ele>213.81091308594</ele>
        <time>2014-11-05T13:07:29Z</time>
      </trkpt>
      <trkpt lat="43.41396" lon="6.07255">
        <ele>213.75140380859</ele>
        <time>2014-11-05T13:07:31Z</time>
      </trkpt>
      <trkpt lat="43.41392" lon="6.07268">
        <ele>213.70562744141</ele>
        <time>2014-11-05T13:07:33Z</time>
      </trkpt>
      <trkpt lat="43.41386" lon="6.07291">
        <ele>213.62780761719</ele>
        <time>2014-11-05T13:07:37Z</time>
      </trkpt>
      <trkpt lat="43.41383" lon="6.07301">
        <ele>213.59118652344</ele>
        <time>2014-11-05T13:07:39Z</time>
      </trkpt>
      <trkpt lat="43.4138" lon="6.07311">
        <ele>213.55456542969</ele>
        <time>2014-11-05T13:07:41Z</time>
      </trkpt>
      <trkpt lat="43.41377" lon="6.07322">
        <ele>213.52709960938</ele>
        <time>2014-11-05T13:07:43Z</time>
      </trkpt>
      <trkpt lat="43.41377" lon="6.07327">
        <ele>213.52252197266</ele>
        <time>2014-11-05T13:07:44Z</time>
      </trkpt>
      <trkpt lat="43.41378" lon="6.07332">
        <ele>213.53167724609</ele>
        <time>2014-11-05T13:07:45Z</time>
      </trkpt>
      <trkpt lat="43.41383" lon="6.07339">
        <ele>213.59576416016</ele>
        <time>2014-11-05T13:07:47Z</time>
      </trkpt>
      <trkpt lat="43.41391" lon="6.0734">
        <ele>213.69647216797</ele>
        <time>2014-11-05T13:07:49Z</time>
      </trkpt>
      <trkpt lat="43.41396" lon="6.0734">
        <ele>213.75140380859</ele>
        <time>2014-11-05T13:07:50Z</time>
      </trkpt>
      <trkpt lat="43.41401" lon="6.0734">
        <ele>213.80633544922</ele>
        <time>2014-11-05T13:07:51Z</time>
      </trkpt>
      <trkpt lat="43.41411" lon="6.07339">
        <ele>213.93450927734</ele>
        <time>2014-11-05T13:07:53Z</time>
      </trkpt>
      <trkpt lat="43.41423" lon="6.07339">
        <ele>214.21551513672</ele>
        <time>2014-11-05T13:07:55Z</time>
      </trkpt>
      <trkpt lat="43.41433" lon="6.07338">
        <ele>214.60003662109</ele>
        <time>2014-11-05T13:07:57Z</time>
      </trkpt>
      <trkpt lat="43.41439" lon="6.07338">
        <ele>214.79229736328</ele>
        <time>2014-11-05T13:07:58Z</time>
      </trkpt>
      <trkpt lat="43.41444" lon="6.07338">
        <ele>214.98455810547</ele>
        <time>2014-11-05T13:07:59Z</time>
      </trkpt>
      <trkpt lat="43.41454" lon="6.07339">
        <ele>215.34161376953</ele>
        <time>2014-11-05T13:08:01Z</time>
      </trkpt>
      <trkpt lat="43.41463" lon="6.0734">
        <ele>215.65747070312</ele>
        <time>2014-11-05T13:08:03Z</time>
      </trkpt>
      <trkpt lat="43.41467" lon="6.07341">
        <ele>215.822265625</ele>
        <time>2014-11-05T13:08:04Z</time>
      </trkpt>
      <trkpt lat="43.41471" lon="6.07343">
        <ele>215.95959472656</ele>
        <time>2014-11-05T13:08:05Z</time>
      </trkpt>
      <trkpt lat="43.41479" lon="6.07348">
        <ele>216.26171875</ele>
        <time>2014-11-05T13:08:07Z</time>
      </trkpt>
      <trkpt lat="43.41483" lon="6.07352">
        <ele>216.39904785156</ele>
        <time>2014-11-05T13:08:08Z</time>
      </trkpt>
      <trkpt lat="43.41495" lon="6.07363">
        <ele>216.81103515625</ele>
        <time>2014-11-05T13:08:11Z</time>
      </trkpt>
      <trkpt lat="43.41502" lon="6.07371">
        <ele>217.05891418457</ele>
        <time>2014-11-05T13:08:13Z</time>
      </trkpt>
      <trkpt lat="43.41515" lon="6.07389">
        <ele>217.49128723144</ele>
        <time>2014-11-05T13:08:17Z</time>
      </trkpt>
      <trkpt lat="43.41521" lon="6.07399">
        <ele>217.71669006348</ele>
        <time>2014-11-05T13:08:19Z</time>
      </trkpt>
      <trkpt lat="43.41527" lon="6.07409">
        <ele>217.94721984863</ele>
        <time>2014-11-05T13:08:21Z</time>
      </trkpt>
      <trkpt lat="43.41531" lon="6.07419">
        <ele>218.13479614258</ele>
        <time>2014-11-05T13:08:23Z</time>
      </trkpt>
      <trkpt lat="43.41535" lon="6.0743">
        <ele>218.34269714356</ele>
        <time>2014-11-05T13:08:25Z</time>
      </trkpt>
      <trkpt lat="43.41538" lon="6.07438">
        <ele>218.51815795898</ele>
        <time>2014-11-05T13:08:27Z</time>
      </trkpt>
      <trkpt lat="43.41544" lon="6.07445">
        <ele>218.74160766602</ele>
        <time>2014-11-05T13:08:29Z</time>
      </trkpt>
      <trkpt lat="43.4155" lon="6.07446">
        <ele>218.94467163086</ele>
        <time>2014-11-05T13:08:31Z</time>
      </trkpt>
      <trkpt lat="43.41553" lon="6.07446">
        <ele>219.04127502441</ele>
        <time>2014-11-05T13:08:32Z</time>
      </trkpt>
      <trkpt lat="43.41556" lon="6.07446">
        <ele>219.13697814941</ele>
        <time>2014-11-05T13:08:33Z</time>
      </trkpt>
      <trkpt lat="43.41563" lon="6.07445">
        <ele>219.34016418457</ele>
        <time>2014-11-05T13:08:35Z</time>
      </trkpt>
      <trkpt lat="43.41569" lon="6.07444">
        <ele>219.53298950195</ele>
        <time>2014-11-05T13:08:37Z</time>
      </trkpt>
      <trkpt lat="43.41574" lon="6.07443">
        <ele>219.71514892578</ele>
        <time>2014-11-05T13:08:39Z</time>
      </trkpt>
      <trkpt lat="43.4158" lon="6.07443">
        <ele>219.88670349121</ele>
        <time>2014-11-05T13:08:41Z</time>
      </trkpt>
      <trkpt lat="43.41584" lon="6.07442">
        <ele>220.02940368652</ele>
        <time>2014-11-05T13:08:43Z</time>
      </trkpt>
      <trkpt lat="43.41589" lon="6.07441">
        <ele>220.14492797852</ele>
        <time>2014-11-05T13:08:45Z</time>
      </trkpt>
      <trkpt lat="43.4159" lon="6.07441">
        <ele>220.18656921387</ele>
        <time>2014-11-05T13:08:46Z</time>
      </trkpt>
      <trkpt lat="43.41592" lon="6.0744">
        <ele>220.2384185791</ele>
        <time>2014-11-05T13:08:47Z</time>
      </trkpt>
      <trkpt lat="43.41597" lon="6.0744">
        <ele>220.38296508789</ele>
        <time>2014-11-05T13:08:49Z</time>
      </trkpt>
      <trkpt lat="43.41603" lon="6.07438">
        <ele>220.54594421387</ele>
        <time>2014-11-05T13:08:51Z</time>
      </trkpt>
      <trkpt lat="43.4161" lon="6.07438">
        <ele>220.72932434082</ele>
        <time>2014-11-05T13:08:53Z</time>
      </trkpt>
      <trkpt lat="43.41618" lon="6.07437">
        <ele>220.9344329834</ele>
        <time>2014-11-05T13:08:55Z</time>
      </trkpt>
      <trkpt lat="43.41622" lon="6.07437">
        <ele>221.04658508301</ele>
        <time>2014-11-05T13:08:56Z</time>
      </trkpt>
      <trkpt lat="43.41626" lon="6.07437">
        <ele>221.14823913574</ele>
        <time>2014-11-05T13:08:57Z</time>
      </trkpt>
      <trkpt lat="43.4163" lon="6.07437">
        <ele>221.24967956543</ele>
        <time>2014-11-05T13:08:58Z</time>
      </trkpt>
      <trkpt lat="43.41634" lon="6.07437">
        <ele>221.35160827637</ele>
        <time>2014-11-05T13:08:59Z</time>
      </trkpt>
      <trkpt lat="43.4164" lon="6.07436">
        <ele>221.53228759766</ele>
        <time>2014-11-05T13:09:01Z</time>
      </trkpt>
      <trkpt lat="43.41646" lon="6.07436">
        <ele>221.67636108398</ele>
        <time>2014-11-05T13:09:03Z</time>
      </trkpt>
      <trkpt lat="43.41651" lon="6.07436">
        <ele>221.81034851074</ele>
        <time>2014-11-05T13:09:05Z</time>
      </trkpt>
      <trkpt lat="43.41656" lon="6.07435">
        <ele>221.93353271484</ele>
        <time>2014-11-05T13:09:07Z</time>
      </trkpt>
      <trkpt lat="43.41661" lon="6.07435">
        <ele>222.06011962891</ele>
        <time>2014-11-05T13:09:09Z</time>
      </trkpt>
      <trkpt lat="43.41667" lon="6.07434">
        <ele>222.21853637695</ele>
        <time>2014-11-05T13:09:11Z</time>
      </trkpt>
      <trkpt lat="43.41674" lon="6.07432">
        <ele>222.38116455078</ele>
        <time>2014-11-05T13:09:13Z</time>
      </trkpt>
      <trkpt lat="43.41677" lon="6.07431">
        <ele>222.46574401856</ele>
        <time>2014-11-05T13:09:14Z</time>
      </trkpt>
      <trkpt lat="43.41687" lon="6.0743">
        <ele>222.71714782715</ele>
        <time>2014-11-05T13:09:17Z</time>
      </trkpt>
      <trkpt lat="43.41693" lon="6.07429">
        <ele>222.88777160644</ele>
        <time>2014-11-05T13:09:19Z</time>
      </trkpt>
      <trkpt lat="43.41697" lon="6.07429">
        <ele>222.9640045166</ele>
        <time>2014-11-05T13:09:20Z</time>
      </trkpt>
      <trkpt lat="43.41699" lon="6.07428">
        <ele>223.0158996582</ele>
        <time>2014-11-05T13:09:21Z</time>
      </trkpt>
      <trkpt lat="43.41705" lon="6.07426">
        <ele>223.1139831543</ele>
        <time>2014-11-05T13:09:23Z</time>
      </trkpt>
      <trkpt lat="43.4171" lon="6.07425">
        <ele>223.23139953613</ele>
        <time>2014-11-05T13:09:25Z</time>
      </trkpt>
      <trkpt lat="43.41714" lon="6.07424">
        <ele>223.3332824707</ele>
        <time>2014-11-05T13:09:27Z</time>
      </trkpt>
      <trkpt lat="43.41717" lon="6.07423">
        <ele>223.38037109375</ele>
        <time>2014-11-05T13:09:28Z</time>
      </trkpt>
      <trkpt lat="43.41719" lon="6.07423">
        <ele>223.42758178711</ele>
        <time>2014-11-05T13:09:29Z</time>
      </trkpt>
      <trkpt lat="43.41724" lon="6.07421">
        <ele>223.50024414062</ele>
        <time>2014-11-05T13:09:31Z</time>
      </trkpt>
      <trkpt lat="43.41728" lon="6.07422">
        <ele>223.62194824219</ele>
        <time>2014-11-05T13:09:33Z</time>
      </trkpt>
      <trkpt lat="43.41733" lon="6.07421">
        <ele>223.71307373047</ele>
        <time>2014-11-05T13:09:35Z</time>
      </trkpt>
      <trkpt lat="43.4174" lon="6.07419">
        <ele>223.83853149414</ele>
        <time>2014-11-05T13:09:39Z</time>
      </trkpt>
      <trkpt lat="43.41744" lon="6.07418">
        <ele>223.92416381836</ele>
        <time>2014-11-05T13:09:41Z</time>
      </trkpt>
      <trkpt lat="43.41748" lon="6.07417">
        <ele>223.98223876953</ele>
        <time>2014-11-05T13:09:43Z</time>
      </trkpt>
      <trkpt lat="43.4175" lon="6.07417">
        <ele>224.01301574707</ele>
        <time>2014-11-05T13:09:44Z</time>
      </trkpt>
      <trkpt lat="43.41751" lon="6.07416">
        <ele>224.06321716309</ele>
        <time>2014-11-05T13:09:45Z</time>
      </trkpt>
      <trkpt lat="43.41756" lon="6.07415">
        <ele>224.24122619629</ele>
        <time>2014-11-05T13:09:47Z</time>
      </trkpt>
      <trkpt lat="43.41758" lon="6.07414">
        <ele>224.33961486816</ele>
        <time>2014-11-05T13:09:48Z</time>
      </trkpt>
      <trkpt lat="43.4176" lon="6.07414">
        <ele>224.42443847656</ele>
        <time>2014-11-05T13:09:49Z</time>
      </trkpt>
      <trkpt lat="43.41764" lon="6.07413">
        <ele>224.60931396484</ele>
        <time>2014-11-05T13:09:51Z</time>
      </trkpt>
      <trkpt lat="43.41769" lon="6.07413">
        <ele>224.80778503418</ele>
        <time>2014-11-05T13:09:53Z</time>
      </trkpt>
      <trkpt lat="43.41774" lon="6.07412">
        <ele>225.01054382324</ele>
        <time>2014-11-05T13:09:55Z</time>
      </trkpt>
      <trkpt lat="43.41776" lon="6.07412">
        <ele>225.10350036621</ele>
        <time>2014-11-05T13:09:56Z</time>
      </trkpt>
      <trkpt lat="43.41777" lon="6.07412">
        <ele>225.1731262207</ele>
        <time>2014-11-05T13:09:57Z</time>
      </trkpt>
      <trkpt lat="43.4178" lon="6.07412">
        <ele>225.33164978027</ele>
        <time>2014-11-05T13:09:59Z</time>
      </trkpt>
      <trkpt lat="43.41787" lon="6.07413">
        <ele>225.68188476562</ele>
        <time>2014-11-05T13:10:03Z</time>
      </trkpt>
      <trkpt lat="43.41791" lon="6.07415">
        <ele>225.92572021484</ele>
        <time>2014-11-05T13:10:05Z</time>
      </trkpt>
      <trkpt lat="43.41793" lon="6.07416">
        <ele>226.01728820801</ele>
        <time>2014-11-05T13:10:06Z</time>
      </trkpt>
      <trkpt lat="43.41795" lon="6.07417">
        <ele>226.14567565918</ele>
        <time>2014-11-05T13:10:07Z</time>
      </trkpt>
      <trkpt lat="43.41798" lon="6.07421">
        <ele>226.48327636719</ele>
        <time>2014-11-05T13:10:09Z</time>
      </trkpt>
      <trkpt lat="43.41801" lon="6.07426">
        <ele>226.78654479981</ele>
        <time>2014-11-05T13:10:11Z</time>
      </trkpt>
      <trkpt lat="43.41803" lon="6.07429">
        <ele>226.96792602539</ele>
        <time>2014-11-05T13:10:12Z</time>
      </trkpt>
      <trkpt lat="43.41806" lon="6.07435">
        <ele>227.34558105469</ele>
        <time>2014-11-05T13:10:15Z</time>
      </trkpt>
      <trkpt lat="43.41808" lon="6.07438">
        <ele>227.57904052734</ele>
        <time>2014-11-05T13:10:17Z</time>
      </trkpt>
      <trkpt lat="43.4181" lon="6.0744">
        <ele>227.69692993164</ele>
        <time>2014-11-05T13:10:18Z</time>
      </trkpt>
      <trkpt lat="43.41811" lon="6.07441">
        <ele>227.77130126953</ele>
        <time>2014-11-05T13:10:19Z</time>
      </trkpt>
      <trkpt lat="43.41813" lon="6.07442">
        <ele>227.91950988769</ele>
        <time>2014-11-05T13:10:21Z</time>
      </trkpt>
      <trkpt lat="43.41814" lon="6.07443">
        <ele>227.99331665039</ele>
        <time>2014-11-05T13:10:22Z</time>
      </trkpt>
      <trkpt lat="43.41814" lon="6.07443">
        <ele>228.04196166992</ele>
        <time>2014-11-05T13:10:23Z</time>
      </trkpt>
      <trkpt lat="43.41817" lon="6.07443">
        <ele>228.17184448242</ele>
        <time>2014-11-05T13:10:25Z</time>
      </trkpt>
      <trkpt lat="43.41818" lon="6.07444">
        <ele>228.25253295898</ele>
        <time>2014-11-05T13:10:27Z</time>
      </trkpt>
      <trkpt lat="43.41819" lon="6.07444">
        <ele>228.27770996094</ele>
        <time>2014-11-05T13:10:29Z</time>
      </trkpt>
      <trkpt lat="43.41819" lon="6.07444">
        <ele>228.27600097656</ele>
        <time>2014-11-05T13:10:31Z</time>
      </trkpt>
      <trkpt lat="43.41819" lon="6.07444">
        <ele>228.27084350586</ele>
        <time>2014-11-05T13:10:33Z</time>
      </trkpt>
      <trkpt lat="43.41819" lon="6.07444">
        <ele>228.26913452148</ele>
        <time>2014-11-05T13:10:35Z</time>
      </trkpt>
      <trkpt lat="43.41819" lon="6.07443">
        <ele>228.2571105957</ele>
        <time>2014-11-05T13:10:37Z</time>
      </trkpt>
      <trkpt lat="43.41819" lon="6.07443">
        <ele>228.25367736816</ele>
        <time>2014-11-05T13:10:47Z</time>
      </trkpt>
      <trkpt lat="43.41819" lon="6.07443">
        <ele>228.251953125</ele>
        <time>2014-11-05T13:10:51Z</time>
      </trkpt>
      <trkpt lat="43.41819" lon="6.07443">
        <ele>228.25024414062</ele>
        <time>2014-11-05T13:10:53Z</time>
      </trkpt>
      <trkpt lat="43.41821" lon="6.07444">
        <ele>228.37612915039</ele>
        <time>2014-11-05T13:10:55Z</time>
      </trkpt>
      <trkpt lat="43.41825" lon="6.07445">
        <ele>228.59643554688</ele>
        <time>2014-11-05T13:10:57Z</time>
      </trkpt>
      <trkpt lat="43.4183" lon="6.07445">
        <ele>228.8544921875</ele>
        <time>2014-11-05T13:10:59Z</time>
      </trkpt>
      <trkpt lat="43.41835" lon="6.07444">
        <ele>229.13821411133</ele>
        <time>2014-11-05T13:11:01Z</time>
      </trkpt>
      <trkpt lat="43.41841" lon="6.07443">
        <ele>229.49868774414</ele>
        <time>2014-11-05T13:11:03Z</time>
      </trkpt>
      <trkpt lat="43.41847" lon="6.07443">
        <ele>229.91412353516</ele>
        <time>2014-11-05T13:11:05Z</time>
      </trkpt>
      <trkpt lat="43.41852" lon="6.07442">
        <ele>230.25744628906</ele>
        <time>2014-11-05T13:11:07Z</time>
      </trkpt>
      <trkpt lat="43.41856" lon="6.07443">
        <ele>230.59217834473</ele>
        <time>2014-11-05T13:11:09Z</time>
      </trkpt>
      <trkpt lat="43.41866" lon="6.07442">
        <ele>231.27195739746</ele>
        <time>2014-11-05T13:11:13Z</time>
      </trkpt>
      <trkpt lat="43.41871" lon="6.07441">
        <ele>231.58953857422</ele>
        <time>2014-11-05T13:11:15Z</time>
      </trkpt>
      <trkpt lat="43.41875" lon="6.07441">
        <ele>231.91397094727</ele>
        <time>2014-11-05T13:11:17Z</time>
      </trkpt>
      <trkpt lat="43.4188" lon="6.07441">
        <ele>232.20751953125</ele>
        <time>2014-11-05T13:11:19Z</time>
      </trkpt>
      <trkpt lat="43.41884" lon="6.0744">
        <ele>232.49418640137</ele>
        <time>2014-11-05T13:11:21Z</time>
      </trkpt>
      <trkpt lat="43.41888" lon="6.0744">
        <ele>232.8134765625</ele>
        <time>2014-11-05T13:11:23Z</time>
      </trkpt>
      <trkpt lat="43.41893" lon="6.07441">
        <ele>233.18255615234</ele>
        <time>2014-11-05T13:11:25Z</time>
      </trkpt>
      <trkpt lat="43.41898" lon="6.07441">
        <ele>233.48468017578</ele>
        <time>2014-11-05T13:11:27Z</time>
      </trkpt>
      <trkpt lat="43.41903" lon="6.0744">
        <ele>233.83657836914</ele>
        <time>2014-11-05T13:11:29Z</time>
      </trkpt>
      <trkpt lat="43.41907" lon="6.0744">
        <ele>234.16445922852</ele>
        <time>2014-11-05T13:11:31Z</time>
      </trkpt>
      <trkpt lat="43.41912" lon="6.07441">
        <ele>234.52838134766</ele>
        <time>2014-11-05T13:11:33Z</time>
      </trkpt>
      <trkpt lat="43.41917" lon="6.07441">
        <ele>234.87841796875</ele>
        <time>2014-11-05T13:11:35Z</time>
      </trkpt>
      <trkpt lat="43.41927" lon="6.07441">
        <ele>235.43507385254</ele>
        <time>2014-11-05T13:11:39Z</time>
      </trkpt>
      <trkpt lat="43.4193" lon="6.07441">
        <ele>235.5690612793</ele>
        <time>2014-11-05T13:11:40Z</time>
      </trkpt>
      <trkpt lat="43.41933" lon="6.0744">
        <ele>235.70191955566</ele>
        <time>2014-11-05T13:11:41Z</time>
      </trkpt>
      <trkpt lat="43.41938" lon="6.07439">
        <ele>235.96661376953</ele>
        <time>2014-11-05T13:11:43Z</time>
      </trkpt>
      <trkpt lat="43.41944" lon="6.07437">
        <ele>236.19764709473</ele>
        <time>2014-11-05T13:11:45Z</time>
      </trkpt>
      <trkpt lat="43.41949" lon="6.07435">
        <ele>236.42706298828</ele>
        <time>2014-11-05T13:11:47Z</time>
      </trkpt>
      <trkpt lat="43.41954" lon="6.07433">
        <ele>236.68014526367</ele>
        <time>2014-11-05T13:11:49Z</time>
      </trkpt>
      <trkpt lat="43.4196" lon="6.07432">
        <ele>236.94480895996</ele>
        <time>2014-11-05T13:11:51Z</time>
      </trkpt>
      <trkpt lat="43.41965" lon="6.07431">
        <ele>237.24630737305</ele>
        <time>2014-11-05T13:11:53Z</time>
      </trkpt>
      <trkpt lat="43.4197" lon="6.0743">
        <ele>237.4977722168</ele>
        <time>2014-11-05T13:11:55Z</time>
      </trkpt>
      <trkpt lat="43.41973" lon="6.0743">
        <ele>237.64123535156</ele>
        <time>2014-11-05T13:11:56Z</time>
      </trkpt>
      <trkpt lat="43.4198" lon="6.07429">
        <ele>238.017578125</ele>
        <time>2014-11-05T13:11:59Z</time>
      </trkpt>
      <trkpt lat="43.41984" lon="6.07429">
        <ele>238.25288391113</ele>
        <time>2014-11-05T13:12:01Z</time>
      </trkpt>
      <trkpt lat="43.41987" lon="6.07429">
        <ele>238.42825317383</ele>
        <time>2014-11-05T13:12:03Z</time>
      </trkpt>
      <trkpt lat="43.41988" lon="6.07429">
        <ele>238.49282836914</ele>
        <time>2014-11-05T13:12:04Z</time>
      </trkpt>
      <trkpt lat="43.41989" lon="6.07429">
        <ele>238.53515625</ele>
        <time>2014-11-05T13:12:05Z</time>
      </trkpt>
      <trkpt lat="43.4199" lon="6.07429">
        <ele>238.55525207519</ele>
        <time>2014-11-05T13:12:07Z</time>
      </trkpt>
      <trkpt lat="43.4199" lon="6.07429">
        <ele>238.57963562012</ele>
        <time>2014-11-05T13:12:09Z</time>
      </trkpt>
      <trkpt lat="43.4199" lon="6.07429">
        <ele>238.57252502441</ele>
        <time>2014-11-05T13:12:11Z</time>
      </trkpt>
      <trkpt lat="43.41989" lon="6.07429">
        <ele>238.53153991699</ele>
        <time>2014-11-05T13:12:17Z</time>
      </trkpt>
      <trkpt lat="43.41989" lon="6.07429">
        <ele>238.53082275391</ele>
        <time>2014-11-05T13:12:21Z</time>
      </trkpt>
      <trkpt lat="43.41989" lon="6.07429">
        <ele>238.53082275391</ele>
        <time>2014-11-05T13:12:23Z</time>
      </trkpt>
      <trkpt lat="43.41989" lon="6.07429">
        <ele>238.53082275391</ele>
        <time>2014-11-05T13:12:27Z</time>
      </trkpt>
      <trkpt lat="43.41989" lon="6.07429">
        <ele>238.52722167969</ele>
        <time>2014-11-05T13:12:31Z</time>
      </trkpt>
      <trkpt lat="43.4199" lon="6.07428">
        <ele>238.54808044434</ele>
        <time>2014-11-05T13:12:33Z</time>
      </trkpt>
      <trkpt lat="43.4199" lon="6.07429">
        <ele>238.55166625977</ele>
        <time>2014-11-05T13:12:35Z</time>
      </trkpt>
      <trkpt lat="43.4199" lon="6.07429">
        <ele>238.55094909668</ele>
        <time>2014-11-05T13:12:39Z</time>
      </trkpt>
      <trkpt lat="43.4199" lon="6.07429">
        <ele>238.55094909668</ele>
        <time>2014-11-05T13:12:43Z</time>
      </trkpt>
      <trkpt lat="43.4199" lon="6.07429">
        <ele>238.55166625977</ele>
        <time>2014-11-05T13:12:45Z</time>
      </trkpt>
      <trkpt lat="43.4199" lon="6.07429">
        <ele>238.55238342285</ele>
        <time>2014-11-05T13:12:47Z</time>
      </trkpt>
      <trkpt lat="43.4199" lon="6.07429">
        <ele>238.57180786133</ele>
        <time>2014-11-05T13:12:49Z</time>
      </trkpt>
      <trkpt lat="43.4199" lon="6.07429">
        <ele>238.60115051269</ele>
        <time>2014-11-05T13:12:50Z</time>
      </trkpt>
      <trkpt lat="43.41991" lon="6.0743">
        <ele>238.68089294434</ele>
        <time>2014-11-05T13:12:51Z</time>
      </trkpt>
      <trkpt lat="43.41992" lon="6.0743">
        <ele>238.72506713867</ele>
        <time>2014-11-05T13:12:53Z</time>
      </trkpt>
      <trkpt lat="43.41994" lon="6.07431">
        <ele>238.83660888672</ele>
        <time>2014-11-05T13:12:55Z</time>
      </trkpt>
      <trkpt lat="43.41995" lon="6.07431">
        <ele>238.89939880371</ele>
        <time>2014-11-05T13:12:56Z</time>
      </trkpt>
      <trkpt lat="43.41996" lon="6.07431">
        <ele>238.94966125488</ele>
        <time>2014-11-05T13:12:57Z</time>
      </trkpt>
      <trkpt lat="43.41998" lon="6.07435">
        <ele>239.11026000977</ele>
        <time>2014-11-05T13:12:59Z</time>
      </trkpt>
      <trkpt lat="43.41999" lon="6.07441">
        <ele>239.22277832031</ele>
        <time>2014-11-05T13:13:01Z</time>
      </trkpt>
      <trkpt lat="43.41998" lon="6.07445">
        <ele>239.24963378906</ele>
        <time>2014-11-05T13:13:03Z</time>
      </trkpt>
      <trkpt lat="43.41999" lon="6.07446">
        <ele>239.28596496582</ele>
        <time>2014-11-05T13:13:05Z</time>
      </trkpt>
      <trkpt lat="43.41998" lon="6.07446">
        <ele>239.26452636719</ele>
        <time>2014-11-05T13:13:07Z</time>
      </trkpt>
      <trkpt lat="43.41999" lon="6.07446">
        <ele>239.28419494629</ele>
        <time>2014-11-05T13:13:09Z</time>
      </trkpt>
      <trkpt lat="43.41999" lon="6.07446">
        <ele>239.28005981445</ele>
        <time>2014-11-05T13:13:15Z</time>
      </trkpt>
      <trkpt lat="43.41999" lon="6.07446">
        <ele>239.28005981445</ele>
        <time>2014-11-05T13:13:19Z</time>
      </trkpt>
      <trkpt lat="43.41999" lon="6.07446">
        <ele>239.28477478027</ele>
        <time>2014-11-05T13:13:23Z</time>
      </trkpt>
      <trkpt lat="43.41999" lon="6.07446">
        <ele>239.28477478027</ele>
        <time>2014-11-05T13:13:27Z</time>
      </trkpt>
      <trkpt lat="43.41999" lon="6.07446">
        <ele>239.28596496582</ele>
        <time>2014-11-05T13:13:29Z</time>
      </trkpt>
      <trkpt lat="43.41999" lon="6.07447">
        <ele>239.29010009766</ele>
        <time>2014-11-05T13:13:31Z</time>
      </trkpt>
      <trkpt lat="43.41999" lon="6.07446">
        <ele>239.28950500488</ele>
        <time>2014-11-05T13:13:33Z</time>
      </trkpt>
      <trkpt lat="43.41999" lon="6.07449">
        <ele>239.34306335449</ele>
        <time>2014-11-05T13:13:35Z</time>
      </trkpt>
      <trkpt lat="43.42" lon="6.07453">
        <ele>239.42880249023</ele>
        <time>2014-11-05T13:13:37Z</time>
      </trkpt>
      <trkpt lat="43.42001" lon="6.07461">
        <ele>239.5057220459</ele>
        <time>2014-11-05T13:13:39Z</time>
      </trkpt>
      <trkpt lat="43.42003" lon="6.07469">
        <ele>239.58026123047</ele>
        <time>2014-11-05T13:13:41Z</time>
      </trkpt>
      <trkpt lat="43.42006" lon="6.07478">
        <ele>239.64556884766</ele>
        <time>2014-11-05T13:13:43Z</time>
      </trkpt>
      <trkpt lat="43.42009" lon="6.07486">
        <ele>239.70666503906</ele>
        <time>2014-11-05T13:13:45Z</time>
      </trkpt>
      <trkpt lat="43.42012" lon="6.07492">
        <ele>239.74742126465</ele>
        <time>2014-11-05T13:13:47Z</time>
      </trkpt>
      <trkpt lat="43.42014" lon="6.07495">
        <ele>239.75958251953</ele>
        <time>2014-11-05T13:13:48Z</time>
      </trkpt>
      <trkpt lat="43.42017" lon="6.07497">
        <ele>239.75598144531</ele>
        <time>2014-11-05T13:13:49Z</time>
      </trkpt>
      <trkpt lat="43.42022" lon="6.07498">
        <ele>239.71255493164</ele>
        <time>2014-11-05T13:13:51Z</time>
      </trkpt>
      <trkpt lat="43.42029" lon="6.07499">
        <ele>239.63473510742</ele>
        <time>2014-11-05T13:13:53Z</time>
      </trkpt>
      <trkpt lat="43.42036" lon="6.07499">
        <ele>239.54020690918</ele>
        <time>2014-11-05T13:13:55Z</time>
      </trkpt>
      <trkpt lat="43.42044" lon="6.07499">
        <ele>239.44635009766</ele>
        <time>2014-11-05T13:13:57Z</time>
      </trkpt>
      <trkpt lat="43.42052" lon="6.07498">
        <ele>239.33940124512</ele>
        <time>2014-11-05T13:13:59Z</time>
      </trkpt>
      <trkpt lat="43.42065" lon="6.07497">
        <ele>239.16465759277</ele>
        <time>2014-11-05T13:14:03Z</time>
      </trkpt>
      <trkpt lat="43.42071" lon="6.07497">
        <ele>239.08741760254</ele>
        <time>2014-11-05T13:14:05Z</time>
      </trkpt>
      <trkpt lat="43.42077" lon="6.07498">
        <ele>239.02647399902</ele>
        <time>2014-11-05T13:14:07Z</time>
      </trkpt>
      <trkpt lat="43.42083" lon="6.07497">
        <ele>238.93872070312</ele>
        <time>2014-11-05T13:14:09Z</time>
      </trkpt>
      <trkpt lat="43.4209" lon="6.07497">
        <ele>238.84443664551</ele>
        <time>2014-11-05T13:14:11Z</time>
      </trkpt>
      <trkpt lat="43.42094" lon="6.07496">
        <ele>238.7742767334</ele>
        <time>2014-11-05T13:14:13Z</time>
      </trkpt>
      <trkpt lat="43.42099" lon="6.07495">
        <ele>238.71528625488</ele>
        <time>2014-11-05T13:14:15Z</time>
      </trkpt>
      <trkpt lat="43.42101" lon="6.07495">
        <ele>238.68542480469</ele>
        <time>2014-11-05T13:14:16Z</time>
      </trkpt>
      <trkpt lat="43.42104" lon="6.07494">
        <ele>238.6423034668</ele>
        <time>2014-11-05T13:14:17Z</time>
      </trkpt>
      <trkpt lat="43.42109" lon="6.07493">
        <ele>238.58070373535</ele>
        <time>2014-11-05T13:14:18Z</time>
      </trkpt>
      <trkpt lat="43.42112" lon="6.0749">
        <ele>238.50659179688</ele>
        <time>2014-11-05T13:14:19Z</time>
      </trkpt>
      <trkpt lat="43.42117" lon="6.07485">
        <ele>238.38917541504</ele>
        <time>2014-11-05T13:14:21Z</time>
      </trkpt>
      <trkpt lat="43.4212" lon="6.0748">
        <ele>238.29760742188</ele>
        <time>2014-11-05T13:14:23Z</time>
      </trkpt>
      <trkpt lat="43.42121" lon="6.07476">
        <ele>238.22729492188</ele>
        <time>2014-11-05T13:14:25Z</time>
      </trkpt>
      <trkpt lat="43.42121" lon="6.07471">
        <ele>238.16297912598</ele>
        <time>2014-11-05T13:14:27Z</time>
      </trkpt>
      <trkpt lat="43.42119" lon="6.07467">
        <ele>238.11915588379</ele>
        <time>2014-11-05T13:14:29Z</time>
      </trkpt>
      <trkpt lat="43.42116" lon="6.07465">
        <ele>238.09252929688</ele>
        <time>2014-11-05T13:14:31Z</time>
      </trkpt>
      <trkpt lat="43.42115" lon="6.07463">
        <ele>238.06837463379</ele>
        <time>2014-11-05T13:14:32Z</time>
      </trkpt>
      <trkpt lat="43.42115" lon="6.07461">
        <ele>238.041015625</ele>
        <time>2014-11-05T13:14:33Z</time>
      </trkpt>
      <trkpt lat="43.42114" lon="6.07456">
        <ele>237.95751953125</ele>
        <time>2014-11-05T13:14:35Z</time>
      </trkpt>
      <trkpt lat="43.42116" lon="6.07447">
        <ele>237.8346862793</ele>
        <time>2014-11-05T13:14:37Z</time>
      </trkpt>
      <trkpt lat="43.42118" lon="6.07436">
        <ele>237.69239807129</ele>
        <time>2014-11-05T13:14:39Z</time>
      </trkpt>
      <trkpt lat="43.42119" lon="6.0743">
        <ele>237.61386108398</ele>
        <time>2014-11-05T13:14:40Z</time>
      </trkpt>
      <trkpt lat="43.42118" lon="6.07425">
        <ele>237.53614807129</ele>
        <time>2014-11-05T13:14:41Z</time>
      </trkpt>
      <trkpt lat="43.42115" lon="6.07415">
        <ele>237.3572845459</ele>
        <time>2014-11-05T13:14:43Z</time>
      </trkpt>
      <trkpt lat="43.42113" lon="6.07411">
        <ele>237.24366760254</ele>
        <time>2014-11-05T13:14:44Z</time>
      </trkpt>
      <trkpt lat="43.42112" lon="6.07407">
        <ele>237.15393066406</ele>
        <time>2014-11-05T13:14:45Z</time>
      </trkpt>
      <trkpt lat="43.42111" lon="6.07404">
        <ele>237.08213806152</ele>
        <time>2014-11-05T13:14:46Z</time>
      </trkpt>
      <trkpt lat="43.42112" lon="6.07401">
        <ele>237.03608703613</ele>
        <time>2014-11-05T13:14:47Z</time>
      </trkpt>
      <trkpt lat="43.42112" lon="6.07397">
        <ele>236.9609375</ele>
        <time>2014-11-05T13:14:49Z</time>
      </trkpt>
      <trkpt lat="43.42112" lon="6.07397">
        <ele>236.95051574707</ele>
        <time>2014-11-05T13:14:50Z</time>
      </trkpt>
      <trkpt lat="43.42112" lon="6.07397">
        <ele>236.94671630859</ele>
        <time>2014-11-05T13:14:51Z</time>
      </trkpt>
      <trkpt lat="43.42112" lon="6.07396">
        <ele>236.93724060059</ele>
        <time>2014-11-05T13:14:53Z</time>
      </trkpt>
      <trkpt lat="43.42112" lon="6.07396">
        <ele>236.93440246582</ele>
        <time>2014-11-05T13:14:55Z</time>
      </trkpt>
      <trkpt lat="43.42112" lon="6.07396">
        <ele>236.92965698242</ele>
        <time>2014-11-05T13:14:57Z</time>
      </trkpt>
      <trkpt lat="43.42112" lon="6.07395">
        <ele>236.91253662109</ele>
        <time>2014-11-05T13:14:59Z</time>
      </trkpt>
      <trkpt lat="43.42112" lon="6.07395">
        <ele>236.91348266602</ele>
        <time>2014-11-05T13:15:01Z</time>
      </trkpt>
      <trkpt lat="43.42111" lon="6.07395">
        <ele>236.90773010254</ele>
        <time>2014-11-05T13:15:03Z</time>
      </trkpt>
      <trkpt lat="43.4211" lon="6.07395">
        <ele>236.89431762695</ele>
        <time>2014-11-05T13:15:05Z</time>
      </trkpt>
      <trkpt lat="43.4211" lon="6.07397">
        <ele>236.92593383789</ele>
        <time>2014-11-05T13:15:07Z</time>
      </trkpt>
      <trkpt lat="43.4211" lon="6.07397">
        <ele>236.92988586426</ele>
        <time>2014-11-05T13:15:09Z</time>
      </trkpt>
      <trkpt lat="43.4211" lon="6.07398">
        <ele>236.93852233887</ele>
        <time>2014-11-05T13:15:11Z</time>
      </trkpt>
      <trkpt lat="43.4211" lon="6.07398">
        <ele>236.94044494629</ele>
        <time>2014-11-05T13:15:13Z</time>
      </trkpt>
      <trkpt lat="43.4211" lon="6.074">
        <ele>236.97241210938</ele>
        <time>2014-11-05T13:15:15Z</time>
      </trkpt>
      <trkpt lat="43.4211" lon="6.07404">
        <ele>237.0735168457</ele>
        <time>2014-11-05T13:15:17Z</time>
      </trkpt>
      <trkpt lat="43.42113" lon="6.0741">
        <ele>237.21821594238</ele>
        <time>2014-11-05T13:15:19Z</time>
      </trkpt>
      <trkpt lat="43.42116" lon="6.07416">
        <ele>237.37855529785</ele>
        <time>2014-11-05T13:15:21Z</time>
      </trkpt>
      <trkpt lat="43.42118" lon="6.07423">
        <ele>237.50511169434</ele>
        <time>2014-11-05T13:15:23Z</time>
      </trkpt>
      <trkpt lat="43.42118" lon="6.07431">
        <ele>237.62022399902</ele>
        <time>2014-11-05T13:15:25Z</time>
      </trkpt>
      <trkpt lat="43.42117" lon="6.07438">
        <ele>237.70588684082</ele>
        <time>2014-11-05T13:15:27Z</time>
      </trkpt>
      <trkpt lat="43.42115" lon="6.07446">
        <ele>237.8172454834</ele>
        <time>2014-11-05T13:15:29Z</time>
      </trkpt>
      <trkpt lat="43.42116" lon="6.07455">
        <ele>237.94718933106</ele>
        <time>2014-11-05T13:15:31Z</time>
      </trkpt>
      <trkpt lat="43.42117" lon="6.07458">
        <ele>237.99621582031</ele>
        <time>2014-11-05T13:15:32Z</time>
      </trkpt>
      <trkpt lat="43.4212" lon="6.0746">
        <ele>238.02159118652</ele>
        <time>2014-11-05T13:15:33Z</time>
      </trkpt>
      <trkpt lat="43.42124" lon="6.07461">
        <ele>238.03524780273</ele>
        <time>2014-11-05T13:15:35Z</time>
      </trkpt>
      <trkpt lat="43.42126" lon="6.0746">
        <ele>238.02009582519</ele>
        <time>2014-11-05T13:15:36Z</time>
      </trkpt>
      <trkpt lat="43.42128" lon="6.07457">
        <ele>237.98338317871</ele>
        <time>2014-11-05T13:15:37Z</time>
      </trkpt>
      <trkpt lat="43.42131" lon="6.07448">
        <ele>237.89033508301</ele>
        <time>2014-11-05T13:15:39Z</time>
      </trkpt>
      <trkpt lat="43.42134" lon="6.07437">
        <ele>237.79754638672</ele>
        <time>2014-11-05T13:15:41Z</time>
      </trkpt>
      <trkpt lat="43.42136" lon="6.07431">
        <ele>237.75544738769</ele>
        <time>2014-11-05T13:15:42Z</time>
      </trkpt>
      <trkpt lat="43.42137" lon="6.07425">
        <ele>237.71231079102</ele>
        <time>2014-11-05T13:15:43Z</time>
      </trkpt>
      <trkpt lat="43.42139" lon="6.07413">
        <ele>237.62023925781</ele>
        <time>2014-11-05T13:15:45Z</time>
      </trkpt>
      <trkpt lat="43.42141" lon="6.07407">
        <ele>237.53384399414</ele>
        <time>2014-11-05T13:15:46Z</time>
      </trkpt>
      <trkpt lat="43.42143" lon="6.07388">
        <ele>237.27395629883</ele>
        <time>2014-11-05T13:15:49Z</time>
      </trkpt>
      <trkpt lat="43.42144" lon="6.07375">
        <ele>237.0915222168</ele>
        <time>2014-11-05T13:15:51Z</time>
      </trkpt>
      <trkpt lat="43.42146" lon="6.07363">
        <ele>236.93179321289</ele>
        <time>2014-11-05T13:15:53Z</time>
      </trkpt>
      <trkpt lat="43.42147" lon="6.0735">
        <ele>236.77116394043</ele>
        <time>2014-11-05T13:15:55Z</time>
      </trkpt>
      <trkpt lat="43.42149" lon="6.07337">
        <ele>236.62315368652</ele>
        <time>2014-11-05T13:15:57Z</time>
      </trkpt>
      <trkpt lat="43.4215" lon="6.07324">
        <ele>236.56860351562</ele>
        <time>2014-11-05T13:15:59Z</time>
      </trkpt>
      <trkpt lat="43.42152" lon="6.07317">
        <ele>236.56860351562</ele>
        <time>2014-11-05T13:16:00Z</time>
      </trkpt>
      <trkpt lat="43.42153" lon="6.0731">
        <ele>236.57400512695</ele>
        <time>2014-11-05T13:16:01Z</time>
      </trkpt>
      <trkpt lat="43.42155" lon="6.07298">
        <ele>236.58963012695</ele>
        <time>2014-11-05T13:16:03Z</time>
      </trkpt>
      <trkpt lat="43.42157" lon="6.07286">
        <ele>236.63496398926</ele>
        <time>2014-11-05T13:16:05Z</time>
      </trkpt>
      <trkpt lat="43.4216" lon="6.07274">
        <ele>236.71260070801</ele>
        <time>2014-11-05T13:16:07Z</time>
      </trkpt>
      <trkpt lat="43.42161" lon="6.07269">
        <ele>236.75030517578</ele>
        <time>2014-11-05T13:16:08Z</time>
      </trkpt>
      <trkpt lat="43.42162" lon="6.07264">
        <ele>236.79177856445</ele>
        <time>2014-11-05T13:16:09Z</time>
      </trkpt>
      <trkpt lat="43.42164" lon="6.07252">
        <ele>236.86631774902</ele>
        <time>2014-11-05T13:16:11Z</time>
      </trkpt>
      <trkpt lat="43.42166" lon="6.07239">
        <ele>237.08706665039</ele>
        <time>2014-11-05T13:16:13Z</time>
      </trkpt>
      <trkpt lat="43.42169" lon="6.07217">
        <ele>237.50923156738</ele>
        <time>2014-11-05T13:16:17Z</time>
      </trkpt>
      <trkpt lat="43.42171" lon="6.07205">
        <ele>237.75744628906</ele>
        <time>2014-11-05T13:16:19Z</time>
      </trkpt>
      <trkpt lat="43.42172" lon="6.07194">
        <ele>237.98887634277</ele>
        <time>2014-11-05T13:16:21Z</time>
      </trkpt>
      <trkpt lat="43.42174" lon="6.07181">
        <ele>238.24588012695</ele>
        <time>2014-11-05T13:16:23Z</time>
      </trkpt>
      <trkpt lat="43.42175" lon="6.07173">
        <ele>238.4084777832</ele>
        <time>2014-11-05T13:16:24Z</time>
      </trkpt>
      <trkpt lat="43.42175" lon="6.07166">
        <ele>238.53077697754</ele>
        <time>2014-11-05T13:16:25Z</time>
      </trkpt>
      <trkpt lat="43.42176" lon="6.07158">
        <ele>238.66213989258</ele>
        <time>2014-11-05T13:16:26Z</time>
      </trkpt>
      <trkpt lat="43.42175" lon="6.0715">
        <ele>238.69653320312</ele>
        <time>2014-11-05T13:16:27Z</time>
      </trkpt>
      <trkpt lat="43.42173" lon="6.07141">
        <ele>238.68775939941</ele>
        <time>2014-11-05T13:16:28Z</time>
      </trkpt>
      <trkpt lat="43.4217" lon="6.07134">
        <ele>238.63037109375</ele>
        <time>2014-11-05T13:16:29Z</time>
      </trkpt>
      <trkpt lat="43.42167" lon="6.07118">
        <ele>238.59410095215</ele>
        <time>2014-11-05T13:16:31Z</time>
      </trkpt>
      <trkpt lat="43.42165" lon="6.07103">
        <ele>238.67875671387</ele>
        <time>2014-11-05T13:16:33Z</time>
      </trkpt>
      <trkpt lat="43.42162" lon="6.0709">
        <ele>238.7399597168</ele>
        <time>2014-11-05T13:16:35Z</time>
      </trkpt>
      <trkpt lat="43.4216" lon="6.07079">
        <ele>238.85423278809</ele>
        <time>2014-11-05T13:16:37Z</time>
      </trkpt>
      <trkpt lat="43.42159" lon="6.07071">
        <ele>239.02474975586</ele>
        <time>2014-11-05T13:16:39Z</time>
      </trkpt>
      <trkpt lat="43.42162" lon="6.07065">
        <ele>239.28453063965</ele>
        <time>2014-11-05T13:16:41Z</time>
      </trkpt>
      <trkpt lat="43.42168" lon="6.07062">
        <ele>239.58134460449</ele>
        <time>2014-11-05T13:16:43Z</time>
      </trkpt>
      <trkpt lat="43.42177" lon="6.07061">
        <ele>240.28515625</ele>
        <time>2014-11-05T13:16:46Z</time>
      </trkpt>
      <trkpt lat="43.4218" lon="6.07062">
        <ele>240.46711730957</ele>
        <time>2014-11-05T13:16:47Z</time>
      </trkpt>
      <trkpt lat="43.42186" lon="6.07063">
        <ele>240.88139343262</ele>
        <time>2014-11-05T13:16:49Z</time>
      </trkpt>
      <trkpt lat="43.42192" lon="6.07065">
        <ele>241.23501586914</ele>
        <time>2014-11-05T13:16:51Z</time>
      </trkpt>
      <trkpt lat="43.42199" lon="6.07068">
        <ele>241.69735717773</ele>
        <time>2014-11-05T13:16:53Z</time>
      </trkpt>
      <trkpt lat="43.42205" lon="6.07069">
        <ele>242.11392211914</ele>
        <time>2014-11-05T13:16:55Z</time>
      </trkpt>
      <trkpt lat="43.42209" lon="6.0707">
        <ele>242.35195922852</ele>
        <time>2014-11-05T13:16:56Z</time>
      </trkpt>
      <trkpt lat="43.42212" lon="6.07072">
        <ele>242.51332092285</ele>
        <time>2014-11-05T13:16:57Z</time>
      </trkpt>
      <trkpt lat="43.42216" lon="6.07069">
        <ele>242.92416381836</ele>
        <time>2014-11-05T13:16:59Z</time>
      </trkpt>
      <trkpt lat="43.42221" lon="6.07068">
        <ele>243.25375366211</ele>
        <time>2014-11-05T13:17:01Z</time>
      </trkpt>
      <trkpt lat="43.42225" lon="6.07067">
        <ele>243.54443359375</ele>
        <time>2014-11-05T13:17:03Z</time>
      </trkpt>
      <trkpt lat="43.42227" lon="6.07068">
        <ele>243.70579528809</ele>
        <time>2014-11-05T13:17:04Z</time>
      </trkpt>
      <trkpt lat="43.42234" lon="6.07074">
        <ele>244.11091613769</ele>
        <time>2014-11-05T13:17:07Z</time>
      </trkpt>
      <trkpt lat="43.42237" lon="6.07082">
        <ele>244.09375</ele>
        <time>2014-11-05T13:17:09Z</time>
      </trkpt>
      <trkpt lat="43.42237" lon="6.07092">
        <ele>243.89614868164</ele>
        <time>2014-11-05T13:17:11Z</time>
      </trkpt>
      <trkpt lat="43.42237" lon="6.07098">
        <ele>243.76385498047</ele>
        <time>2014-11-05T13:17:13Z</time>
      </trkpt>
      <trkpt lat="43.42238" lon="6.071">
        <ele>243.75866699219</ele>
        <time>2014-11-05T13:17:15Z</time>
      </trkpt>
      <trkpt lat="43.42237" lon="6.07101">
        <ele>243.69505310059</ele>
        <time>2014-11-05T13:17:17Z</time>
      </trkpt>
      <trkpt lat="43.42237" lon="6.07106">
        <ele>243.53259277344</ele>
        <time>2014-11-05T13:17:19Z</time>
      </trkpt>
      <trkpt lat="43.42236" lon="6.07114">
        <ele>243.28257751465</ele>
        <time>2014-11-05T13:17:21Z</time>
      </trkpt>
      <trkpt lat="43.42234" lon="6.07123">
        <ele>243.01127624512</ele>
        <time>2014-11-05T13:17:23Z</time>
      </trkpt>
      <trkpt lat="43.42233" lon="6.07134">
        <ele>242.70173645019</ele>
        <time>2014-11-05T13:17:25Z</time>
      </trkpt>
      <trkpt lat="43.42232" lon="6.07146">
        <ele>242.35536193848</ele>
        <time>2014-11-05T13:17:27Z</time>
      </trkpt>
      <trkpt lat="43.42231" lon="6.07152">
        <ele>242.17141723633</ele>
        <time>2014-11-05T13:17:28Z</time>
      </trkpt>
      <trkpt lat="43.4223" lon="6.07158">
        <ele>241.99896240234</ele>
        <time>2014-11-05T13:17:29Z</time>
      </trkpt>
      <trkpt lat="43.42228" lon="6.0717">
        <ele>241.58879089356</ele>
        <time>2014-11-05T13:17:31Z</time>
      </trkpt>
      <trkpt lat="43.42225" lon="6.07189">
        <ele>241.05387878418</ele>
        <time>2014-11-05T13:17:34Z</time>
      </trkpt>
      <trkpt lat="43.42222" lon="6.07208">
        <ele>240.51071166992</ele>
        <time>2014-11-05T13:17:37Z</time>
      </trkpt>
      <trkpt lat="43.42221" lon="6.07221">
        <ele>240.18116760254</ele>
        <time>2014-11-05T13:17:39Z</time>
      </trkpt>
      <trkpt lat="43.4222" lon="6.07235">
        <ele>239.84201049805</ele>
        <time>2014-11-05T13:17:41Z</time>
      </trkpt>
      <trkpt lat="43.42218" lon="6.07251">
        <ele>239.47729492188</ele>
        <time>2014-11-05T13:17:43Z</time>
      </trkpt>
      <trkpt lat="43.42217" lon="6.07266">
        <ele>239.2970123291</ele>
        <time>2014-11-05T13:17:45Z</time>
      </trkpt>
      <trkpt lat="43.42215" lon="6.0728">
        <ele>239.10760498047</ele>
        <time>2014-11-05T13:17:47Z</time>
      </trkpt>
      <trkpt lat="43.42212" lon="6.07294">
        <ele>238.89865112305</ele>
        <time>2014-11-05T13:17:49Z</time>
      </trkpt>
      <trkpt lat="43.42208" lon="6.07321">
        <ele>238.57827758789</ele>
        <time>2014-11-05T13:17:53Z</time>
      </trkpt>
      <trkpt lat="43.42207" lon="6.07334">
        <ele>238.44226074219</ele>
        <time>2014-11-05T13:17:55Z</time>
      </trkpt>
      <trkpt lat="43.42205" lon="6.07347">
        <ele>238.48262023926</ele>
        <time>2014-11-05T13:17:57Z</time>
      </trkpt>
      <trkpt lat="43.42204" lon="6.0736">
        <ele>238.50608825684</ele>
        <time>2014-11-05T13:17:59Z</time>
      </trkpt>
      <trkpt lat="43.42203" lon="6.07367">
        <ele>238.5295715332</ele>
        <time>2014-11-05T13:18:00Z</time>
      </trkpt>
      <trkpt lat="43.422" lon="6.07387">
        <ele>238.5910949707</ele>
        <time>2014-11-05T13:18:03Z</time>
      </trkpt>
      <trkpt lat="43.42198" lon="6.07402">
        <ele>238.64399719238</ele>
        <time>2014-11-05T13:18:05Z</time>
      </trkpt>
      <trkpt lat="43.42196" lon="6.07416">
        <ele>238.69555664062</ele>
        <time>2014-11-05T13:18:07Z</time>
      </trkpt>
      <trkpt lat="43.42195" lon="6.07423">
        <ele>238.68310546875</ele>
        <time>2014-11-05T13:18:08Z</time>
      </trkpt>
      <trkpt lat="43.42194" lon="6.07429">
        <ele>238.65563964844</ele>
        <time>2014-11-05T13:18:09Z</time>
      </trkpt>
      <trkpt lat="43.42192" lon="6.07443">
        <ele>238.60986328125</ele>
        <time>2014-11-05T13:18:11Z</time>
      </trkpt>
      <trkpt lat="43.4219" lon="6.07456">
        <ele>238.55493164062</ele>
        <time>2014-11-05T13:18:13Z</time>
      </trkpt>
      <trkpt lat="43.42189" lon="6.07462">
        <ele>238.52746582031</ele>
        <time>2014-11-05T13:18:14Z</time>
      </trkpt>
      <trkpt lat="43.42187" lon="6.07467">
        <ele>238.49084472656</ele>
        <time>2014-11-05T13:18:15Z</time>
      </trkpt>
      <trkpt lat="43.42184" lon="6.07479">
        <ele>238.4267578125</ele>
        <time>2014-11-05T13:18:17Z</time>
      </trkpt>
      <trkpt lat="43.42181" lon="6.07491">
        <ele>238.353515625</ele>
        <time>2014-11-05T13:18:19Z</time>
      </trkpt>
      <trkpt lat="43.42179" lon="6.07503">
        <ele>238.33930969238</ele>
        <time>2014-11-05T13:18:21Z</time>
      </trkpt>
      <trkpt lat="43.42176" lon="6.07515">
        <ele>238.4588470459</ele>
        <time>2014-11-05T13:18:23Z</time>
      </trkpt>
      <trkpt lat="43.42174" lon="6.07527">
        <ele>238.55592346191</ele>
        <time>2014-11-05T13:18:25Z</time>
      </trkpt>
      <trkpt lat="43.42173" lon="6.07532">
        <ele>238.61283874512</ele>
        <time>2014-11-05T13:18:26Z</time>
      </trkpt>
      <trkpt lat="43.42172" lon="6.07544">
        <ele>238.71319580078</ele>
        <time>2014-11-05T13:18:28Z</time>
      </trkpt>
      <trkpt lat="43.42169" lon="6.07561">
        <ele>238.81759643555</ele>
        <time>2014-11-05T13:18:31Z</time>
      </trkpt>
      <trkpt lat="43.42167" lon="6.07571">
        <ele>238.86735534668</ele>
        <time>2014-11-05T13:18:33Z</time>
      </trkpt>
      <trkpt lat="43.42164" lon="6.07588">
        <ele>239.08692932129</ele>
        <time>2014-11-05T13:18:36Z</time>
      </trkpt>
      <trkpt lat="43.42163" lon="6.07593">
        <ele>239.16374206543</ele>
        <time>2014-11-05T13:18:37Z</time>
      </trkpt>
      <trkpt lat="43.42162" lon="6.07604">
        <ele>239.31874084473</ele>
        <time>2014-11-05T13:18:39Z</time>
      </trkpt>
      <trkpt lat="43.42159" lon="6.07614">
        <ele>239.49557495117</ele>
        <time>2014-11-05T13:18:41Z</time>
      </trkpt>
      <trkpt lat="43.42156" lon="6.07625">
        <ele>239.68171691894</ele>
        <time>2014-11-05T13:18:43Z</time>
      </trkpt>
      <trkpt lat="43.42154" lon="6.07634">
        <ele>239.85205078125</ele>
        <time>2014-11-05T13:18:45Z</time>
      </trkpt>
      <trkpt lat="43.42152" lon="6.07643">
        <ele>240.02787780762</ele>
        <time>2014-11-05T13:18:47Z</time>
      </trkpt>
      <trkpt lat="43.42149" lon="6.07653">
        <ele>240.2188873291</ele>
        <time>2014-11-05T13:18:49Z</time>
      </trkpt>
      <trkpt lat="43.42146" lon="6.07665">
        <ele>240.48867797852</ele>
        <time>2014-11-05T13:18:52Z</time>
      </trkpt>
      <trkpt lat="43.42144" lon="6.07669">
        <ele>240.64825439453</ele>
        <time>2014-11-05T13:18:53Z</time>
      </trkpt>
      <trkpt lat="43.42142" lon="6.07678">
        <ele>241.04695129394</ele>
        <time>2014-11-05T13:18:55Z</time>
      </trkpt>
      <trkpt lat="43.42139" lon="6.07685">
        <ele>241.40867614746</ele>
        <time>2014-11-05T13:18:57Z</time>
      </trkpt>
      <trkpt lat="43.42135" lon="6.07701">
        <ele>242.11045837402</ele>
        <time>2014-11-05T13:19:01Z</time>
      </trkpt>
      <trkpt lat="43.42134" lon="6.07705">
        <ele>242.28440856934</ele>
        <time>2014-11-05T13:19:02Z</time>
      </trkpt>
      <trkpt lat="43.42133" lon="6.07709">
        <ele>242.44291687012</ele>
        <time>2014-11-05T13:19:03Z</time>
      </trkpt>
      <trkpt lat="43.42131" lon="6.07717">
        <ele>242.75242614746</ele>
        <time>2014-11-05T13:19:05Z</time>
      </trkpt>
      <trkpt lat="43.42127" lon="6.0773">
        <ele>243.27485656738</ele>
        <time>2014-11-05T13:19:09Z</time>
      </trkpt>
      <trkpt lat="43.42125" lon="6.07736">
        <ele>243.51373291016</ele>
        <time>2014-11-05T13:19:11Z</time>
      </trkpt>
      <trkpt lat="43.42123" lon="6.07743">
        <ele>243.74440002441</ele>
        <time>2014-11-05T13:19:13Z</time>
      </trkpt>
      <trkpt lat="43.42121" lon="6.07749">
        <ele>243.96127319336</ele>
        <time>2014-11-05T13:19:15Z</time>
      </trkpt>
      <trkpt lat="43.42119" lon="6.07755">
        <ele>244.17742919922</ele>
        <time>2014-11-05T13:19:17Z</time>
      </trkpt>
      <trkpt lat="43.42117" lon="6.07762">
        <ele>244.41569519043</ele>
        <time>2014-11-05T13:19:19Z</time>
      </trkpt>
      <trkpt lat="43.42114" lon="6.07769">
        <ele>244.6350402832</ele>
        <time>2014-11-05T13:19:21Z</time>
      </trkpt>
      <trkpt lat="43.42112" lon="6.07783">
        <ele>245.05847167969</ele>
        <time>2014-11-05T13:19:25Z</time>
      </trkpt>
      <trkpt lat="43.4211" lon="6.07789">
        <ele>245.24372863769</ele>
        <time>2014-11-05T13:19:27Z</time>
      </trkpt>
      <trkpt lat="43.42108" lon="6.07796">
        <ele>245.42692565918</ele>
        <time>2014-11-05T13:19:29Z</time>
      </trkpt>
      <trkpt lat="43.42106" lon="6.07803">
        <ele>245.61917114258</ele>
        <time>2014-11-05T13:19:31Z</time>
      </trkpt>
      <trkpt lat="43.42105" lon="6.07809">
        <ele>245.79150390625</ele>
        <time>2014-11-05T13:19:33Z</time>
      </trkpt>
      <trkpt lat="43.42103" lon="6.07815">
        <ele>245.94255065918</ele>
        <time>2014-11-05T13:19:35Z</time>
      </trkpt>
      <trkpt lat="43.42102" lon="6.07821">
        <ele>246.08276367188</ele>
        <time>2014-11-05T13:19:37Z</time>
      </trkpt>
      <trkpt lat="43.42098" lon="6.07835">
        <ele>246.3653717041</ele>
        <time>2014-11-05T13:19:42Z</time>
      </trkpt>
      <trkpt lat="43.42097" lon="6.07837">
        <ele>246.38426208496</ele>
        <time>2014-11-05T13:19:43Z</time>
      </trkpt>
      <trkpt lat="43.42096" lon="6.07842">
        <ele>246.43498229981</ele>
        <time>2014-11-05T13:19:45Z</time>
      </trkpt>
      <trkpt lat="43.42095" lon="6.07846">
        <ele>246.46421813965</ele>
        <time>2014-11-05T13:19:47Z</time>
      </trkpt>
      <trkpt lat="43.42095" lon="6.0785">
        <ele>246.49990844727</ele>
        <time>2014-11-05T13:19:49Z</time>
      </trkpt>
      <trkpt lat="43.42094" lon="6.07853">
        <ele>246.53004455566</ele>
        <time>2014-11-05T13:19:51Z</time>
      </trkpt>
      <trkpt lat="43.42094" lon="6.07855">
        <ele>246.5546875</ele>
        <time>2014-11-05T13:19:53Z</time>
      </trkpt>
      <trkpt lat="43.42094" lon="6.07855">
        <ele>246.5657043457</ele>
        <time>2014-11-05T13:19:55Z</time>
      </trkpt>
      <trkpt lat="43.42095" lon="6.07855">
        <ele>246.57542419434</ele>
        <time>2014-11-05T13:19:56Z</time>
      </trkpt>
      <trkpt lat="43.42095" lon="6.07855">
        <ele>246.57672119141</ele>
        <time>2014-11-05T13:19:59Z</time>
      </trkpt>
      <trkpt lat="43.42094" lon="6.07855">
        <ele>246.56506347656</ele>
        <time>2014-11-05T13:20:03Z</time>
      </trkpt>
      <trkpt lat="43.42094" lon="6.07855">
        <ele>246.56506347656</ele>
        <time>2014-11-05T13:20:05Z</time>
      </trkpt>
      <trkpt lat="43.42095" lon="6.07855">
        <ele>246.57737731934</ele>
        <time>2014-11-05T13:20:07Z</time>
      </trkpt>
      <trkpt lat="43.42095" lon="6.07856">
        <ele>246.58387756348</ele>
        <time>2014-11-05T13:20:09Z</time>
      </trkpt>
      <trkpt lat="43.42094" lon="6.07856">
        <ele>246.57608032227</ele>
        <time>2014-11-05T13:20:15Z</time>
      </trkpt>
      <trkpt lat="43.42095" lon="6.07856">
        <ele>246.58583068848</ele>
        <time>2014-11-05T13:20:17Z</time>
      </trkpt>
      <trkpt lat="43.42095" lon="6.07856">
        <ele>246.58843994141</ele>
        <time>2014-11-05T13:20:19Z</time>
      </trkpt>
      <trkpt lat="43.42094" lon="6.07859">
        <ele>246.60054016113</ele>
        <time>2014-11-05T13:20:21Z</time>
      </trkpt>
      <trkpt lat="43.42094" lon="6.07863">
        <ele>246.66059875488</ele>
        <time>2014-11-05T13:20:23Z</time>
      </trkpt>
      <trkpt lat="43.42094" lon="6.07866">
        <ele>246.70449829102</ele>
        <time>2014-11-05T13:20:24Z</time>
      </trkpt>
      <trkpt lat="43.42094" lon="6.0787">
        <ele>246.76086425781</ele>
        <time>2014-11-05T13:20:25Z</time>
      </trkpt>
      <trkpt lat="43.42099" lon="6.07885">
        <ele>247.11698913574</ele>
        <time>2014-11-05T13:20:29Z</time>
      </trkpt>
      <trkpt lat="43.42101" lon="6.07889">
        <ele>247.24955749512</ele>
        <time>2014-11-05T13:20:30Z</time>
      </trkpt>
      <trkpt lat="43.42105" lon="6.07893">
        <ele>247.43923950195</ele>
        <time>2014-11-05T13:20:31Z</time>
      </trkpt>
      <trkpt lat="43.4211" lon="6.07895">
        <ele>247.61643981934</ele>
        <time>2014-11-05T13:20:32Z</time>
      </trkpt>
      <trkpt lat="43.42115" lon="6.07895">
        <ele>247.77630615234</ele>
        <time>2014-11-05T13:20:33Z</time>
      </trkpt>
      <trkpt lat="43.4212" lon="6.07895">
        <ele>247.93473815918</ele>
        <time>2014-11-05T13:20:34Z</time>
      </trkpt>
      <trkpt lat="43.42125" lon="6.07895">
        <ele>248.11352539062</ele>
        <time>2014-11-05T13:20:35Z</time>
      </trkpt>
      <trkpt lat="43.42132" lon="6.07894">
        <ele>248.31190490723</ele>
        <time>2014-11-05T13:20:36Z</time>
      </trkpt>
      <trkpt lat="43.42138" lon="6.07893">
        <ele>248.48020935059</ele>
        <time>2014-11-05T13:20:37Z</time>
      </trkpt>
      <trkpt lat="43.42143" lon="6.07893">
        <ele>248.66366577148</ele>
        <time>2014-11-05T13:20:38Z</time>
      </trkpt>
      <trkpt lat="43.42149" lon="6.07892">
        <ele>248.82835388184</ele>
        <time>2014-11-05T13:20:39Z</time>
      </trkpt>
      <trkpt lat="43.4216" lon="6.07892">
        <ele>249.17356872559</ele>
        <time>2014-11-05T13:20:41Z</time>
      </trkpt>
      <trkpt lat="43.42166" lon="6.07891">
        <ele>249.36204528809</ele>
        <time>2014-11-05T13:20:42Z</time>
      </trkpt>
      <trkpt lat="43.42172" lon="6.07891">
        <ele>249.69413757324</ele>
        <time>2014-11-05T13:20:43Z</time>
      </trkpt>
      <trkpt lat="43.42184" lon="6.07891">
        <ele>250.40023803711</ele>
        <time>2014-11-05T13:20:45Z</time>
      </trkpt>
      <trkpt lat="43.42195" lon="6.07892">
        <ele>251.12579345703</ele>
        <time>2014-11-05T13:20:47Z</time>
      </trkpt>
      <trkpt lat="43.42203" lon="6.07895">
        <ele>251.66023254394</ele>
        <time>2014-11-05T13:20:49Z</time>
      </trkpt>
      <trkpt lat="43.4221" lon="6.07898">
        <ele>252.13172912598</ele>
        <time>2014-11-05T13:20:51Z</time>
      </trkpt>
      <trkpt lat="43.42213" lon="6.07899">
        <ele>252.34230041504</ele>
        <time>2014-11-05T13:20:52Z</time>
      </trkpt>
      <trkpt lat="43.42218" lon="6.07902">
        <ele>252.74398803711</ele>
        <time>2014-11-05T13:20:54Z</time>
      </trkpt>
      <trkpt lat="43.42221" lon="6.07903">
        <ele>252.93510437012</ele>
        <time>2014-11-05T13:20:55Z</time>
      </trkpt>
      <trkpt lat="43.42224" lon="6.07904">
        <ele>253.14224243164</ele>
        <time>2014-11-05T13:20:57Z</time>
      </trkpt>
      <trkpt lat="43.42225" lon="6.07904">
        <ele>253.2120513916</ele>
        <time>2014-11-05T13:20:59Z</time>
      </trkpt>
      <trkpt lat="43.42227" lon="6.07904">
        <ele>253.29216003418</ele>
        <time>2014-11-05T13:21:01Z</time>
      </trkpt>
      <trkpt lat="43.42226" lon="6.07904">
        <ele>253.25096130371</ele>
        <time>2014-11-05T13:21:03Z</time>
      </trkpt>
      <trkpt lat="43.42226" lon="6.07904">
        <ele>253.27728271484</ele>
        <time>2014-11-05T13:21:05Z</time>
      </trkpt>
      <trkpt lat="43.42226" lon="6.07904">
        <ele>253.27842712402</ele>
        <time>2014-11-05T13:21:07Z</time>
      </trkpt>
      <trkpt lat="43.42226" lon="6.07904">
        <ele>253.2795715332</ele>
        <time>2014-11-05T13:21:09Z</time>
      </trkpt>
      <trkpt lat="43.42227" lon="6.07904">
        <ele>253.31275939941</ele>
        <time>2014-11-05T13:21:13Z</time>
      </trkpt>
      <trkpt lat="43.42227" lon="6.07904">
        <ele>253.31390380859</ele>
        <time>2014-11-05T13:21:17Z</time>
      </trkpt>
      <trkpt lat="43.42227" lon="6.07904">
        <ele>253.31275939941</ele>
        <time>2014-11-05T13:21:18Z</time>
      </trkpt>
      <trkpt lat="43.42227" lon="6.07904">
        <ele>253.31275939941</ele>
        <time>2014-11-05T13:21:21Z</time>
      </trkpt>
      <trkpt lat="43.42227" lon="6.07904">
        <ele>253.31275939941</ele>
        <time>2014-11-05T13:21:23Z</time>
      </trkpt>
      <trkpt lat="43.42227" lon="6.07905">
        <ele>253.34136962891</ele>
        <time>2014-11-05T13:21:25Z</time>
      </trkpt>
      <trkpt lat="43.42227" lon="6.07905">
        <ele>253.34136962891</ele>
        <time>2014-11-05T13:21:29Z</time>
      </trkpt>
      <trkpt lat="43.42227" lon="6.07904">
        <ele>253.33679199219</ele>
        <time>2014-11-05T13:21:45Z</time>
      </trkpt>
      <trkpt lat="43.42227" lon="6.07904">
        <ele>253.33335876465</ele>
        <time>2014-11-05T13:21:51Z</time>
      </trkpt>
      <trkpt lat="43.42227" lon="6.07904">
        <ele>253.33221435547</ele>
        <time>2014-11-05T13:21:53Z</time>
      </trkpt>
      <trkpt lat="43.42227" lon="6.07904">
        <ele>253.33221435547</ele>
        <time>2014-11-05T13:21:57Z</time>
      </trkpt>
      <trkpt lat="43.42227" lon="6.07904">
        <ele>253.33221435547</ele>
        <time>2014-11-05T13:22:01Z</time>
      </trkpt>
      <trkpt lat="43.42227" lon="6.07904">
        <ele>253.33335876465</ele>
        <time>2014-11-05T13:22:05Z</time>
      </trkpt>
      <trkpt lat="43.42228" lon="6.07905">
        <ele>253.3642578125</ele>
        <time>2014-11-05T13:22:07Z</time>
      </trkpt>
      <trkpt lat="43.42228" lon="6.07905">
        <ele>253.36654663086</ele>
        <time>2014-11-05T13:22:09Z</time>
      </trkpt>
      <trkpt lat="43.42228" lon="6.07906">
        <ele>253.45008850098</ele>
        <time>2014-11-05T13:22:11Z</time>
      </trkpt>
      <trkpt lat="43.42231" lon="6.07916">
        <ele>253.87580871582</ele>
        <time>2014-11-05T13:22:15Z</time>
      </trkpt>
      <trkpt lat="43.42234" lon="6.07923">
        <ele>253.76040649414</ele>
        <time>2014-11-05T13:22:17Z</time>
      </trkpt>
      <trkpt lat="43.42235" lon="6.07928">
        <ele>253.65019226074</ele>
        <time>2014-11-05T13:22:18Z</time>
      </trkpt>
      <trkpt lat="43.42236" lon="6.07932">
        <ele>253.56202697754</ele>
        <time>2014-11-05T13:22:19Z</time>
      </trkpt>
      <trkpt lat="43.42238" lon="6.0794">
        <ele>253.36918640137</ele>
        <time>2014-11-05T13:22:21Z</time>
      </trkpt>
      <trkpt lat="43.4224" lon="6.07945">
        <ele>253.28720092773</ele>
        <time>2014-11-05T13:22:22Z</time>
      </trkpt>
      <trkpt lat="43.42241" lon="6.07949">
        <ele>253.21485900879</ele>
        <time>2014-11-05T13:22:23Z</time>
      </trkpt>
      <trkpt lat="43.42242" lon="6.07955">
        <ele>253.08860778809</ele>
        <time>2014-11-05T13:22:24Z</time>
      </trkpt>
      <trkpt lat="43.42244" lon="6.0796">
        <ele>252.96951293945</ele>
        <time>2014-11-05T13:22:25Z</time>
      </trkpt>
      <trkpt lat="43.42247" lon="6.0797">
        <ele>252.87812805176</ele>
        <time>2014-11-05T13:22:27Z</time>
      </trkpt>
      <trkpt lat="43.4225" lon="6.07974">
        <ele>252.97998046875</ele>
        <time>2014-11-05T13:22:28Z</time>
      </trkpt>
      <trkpt lat="43.42254" lon="6.07976">
        <ele>253.15075683594</ele>
        <time>2014-11-05T13:22:29Z</time>
      </trkpt>
      <trkpt lat="43.42262" lon="6.07974">
        <ele>253.7626953125</ele>
        <time>2014-11-05T13:22:31Z</time>
      </trkpt>
      <trkpt lat="43.42268" lon="6.07972">
        <ele>254.30149841309</ele>
        <time>2014-11-05T13:22:33Z</time>
      </trkpt>
      <trkpt lat="43.42274" lon="6.0797">
        <ele>254.80017089844</ele>
        <time>2014-11-05T13:22:35Z</time>
      </trkpt>
      <trkpt lat="43.42278" lon="6.07969">
        <ele>255.07632446289</ele>
        <time>2014-11-05T13:22:36Z</time>
      </trkpt>
      <trkpt lat="43.42281" lon="6.0797">
        <ele>255.28588867188</ele>
        <time>2014-11-05T13:22:37Z</time>
      </trkpt>
      <trkpt lat="43.42284" lon="6.07971">
        <ele>255.51121520996</ele>
        <time>2014-11-05T13:22:38Z</time>
      </trkpt>
      <trkpt lat="43.42288" lon="6.07972">
        <ele>255.72784423828</ele>
        <time>2014-11-05T13:22:39Z</time>
      </trkpt>
      <trkpt lat="43.42291" lon="6.07975">
        <ele>255.9149017334</ele>
        <time>2014-11-05T13:22:40Z</time>
      </trkpt>
      <trkpt lat="43.42295" lon="6.0798">
        <ele>256.09579467773</ele>
        <time>2014-11-05T13:22:41Z</time>
      </trkpt>
      <trkpt lat="43.42298" lon="6.07985">
        <ele>256.27624511719</ele>
        <time>2014-11-05T13:22:42Z</time>
      </trkpt>
      <trkpt lat="43.42302" lon="6.07989">
        <ele>256.47640991211</ele>
        <time>2014-11-05T13:22:43Z</time>
      </trkpt>
      <trkpt lat="43.42306" lon="6.07994">
        <ele>256.75399780273</ele>
        <time>2014-11-05T13:22:44Z</time>
      </trkpt>
      <trkpt lat="43.4231" lon="6.07998">
        <ele>257.02600097656</ele>
        <time>2014-11-05T13:22:45Z</time>
      </trkpt>
      <trkpt lat="43.42316" lon="6.08004">
        <ele>257.52850341797</ele>
        <time>2014-11-05T13:22:47Z</time>
      </trkpt>
      <trkpt lat="43.42319" lon="6.08007">
        <ele>257.80950927734</ele>
        <time>2014-11-05T13:22:48Z</time>
      </trkpt>
      <trkpt lat="43.42322" lon="6.08009">
        <ele>258.03189086914</ele>
        <time>2014-11-05T13:22:49Z</time>
      </trkpt>
      <trkpt lat="43.42328" lon="6.0801">
        <ele>258.52560424805</ele>
        <time>2014-11-05T13:22:51Z</time>
      </trkpt>
      <trkpt lat="43.42331" lon="6.08008">
        <ele>258.79275512695</ele>
        <time>2014-11-05T13:22:52Z</time>
      </trkpt>
      <trkpt lat="43.42333" lon="6.08006">
        <ele>258.95776367188</ele>
        <time>2014-11-05T13:22:53Z</time>
      </trkpt>
      <trkpt lat="43.42336" lon="6.08001">
        <ele>259.0361328125</ele>
        <time>2014-11-05T13:22:55Z</time>
      </trkpt>
      <trkpt lat="43.42337" lon="6.07998">
        <ele>259.04901123047</ele>
        <time>2014-11-05T13:22:56Z</time>
      </trkpt>
      <trkpt lat="43.42338" lon="6.07995">
        <ele>259.05816650391</ele>
        <time>2014-11-05T13:22:57Z</time>
      </trkpt>
      <trkpt lat="43.42342" lon="6.07989">
        <ele>259.10852050781</ele>
        <time>2014-11-05T13:23:00Z</time>
      </trkpt>
      <trkpt lat="43.42344" lon="6.07987">
        <ele>259.13140869141</ele>
        <time>2014-11-05T13:23:01Z</time>
      </trkpt>
      <trkpt lat="43.42348" lon="6.07983">
        <ele>259.17260742188</ele>
        <time>2014-11-05T13:23:03Z</time>
      </trkpt>
      <trkpt lat="43.42352" lon="6.07979">
        <ele>259.21838378906</ele>
        <time>2014-11-05T13:23:05Z</time>
      </trkpt>
      <trkpt lat="43.42355" lon="6.07975">
        <ele>259.25958251953</ele>
        <time>2014-11-05T13:23:07Z</time>
      </trkpt>
      <trkpt lat="43.42358" lon="6.0797">
        <ele>259.30078125</ele>
        <time>2014-11-05T13:23:09Z</time>
      </trkpt>
      <trkpt lat="43.42362" lon="6.07965">
        <ele>259.34197998047</ele>
        <time>2014-11-05T13:23:11Z</time>
      </trkpt>
      <trkpt lat="43.42366" lon="6.07959">
        <ele>259.39691162109</ele>
        <time>2014-11-05T13:23:13Z</time>
      </trkpt>
      <trkpt lat="43.42371" lon="6.07955">
        <ele>259.45642089844</ele>
        <time>2014-11-05T13:23:15Z</time>
      </trkpt>
      <trkpt lat="43.42376" lon="6.07949">
        <ele>259.51593017578</ele>
        <time>2014-11-05T13:23:17Z</time>
      </trkpt>
      <trkpt lat="43.42381" lon="6.07942">
        <ele>259.57086181641</ele>
        <time>2014-11-05T13:23:19Z</time>
      </trkpt>
      <trkpt lat="43.42385" lon="6.07937">
        <ele>259.62121582031</ele>
        <time>2014-11-05T13:23:21Z</time>
      </trkpt>
      <trkpt lat="43.42387" lon="6.07934">
        <ele>259.64868164062</ele>
        <time>2014-11-05T13:23:22Z</time>
      </trkpt>
      <trkpt lat="43.4239" lon="6.07932">
        <ele>259.67614746094</ele>
        <time>2014-11-05T13:23:23Z</time>
      </trkpt>
      <trkpt lat="43.42395" lon="6.07928">
        <ele>259.740234375</ele>
        <time>2014-11-05T13:23:25Z</time>
      </trkpt>
      <trkpt lat="43.42398" lon="6.07926">
        <ele>259.77685546875</ele>
        <time>2014-11-05T13:23:26Z</time>
      </trkpt>
      <trkpt lat="43.42402" lon="6.07924">
        <ele>259.81805419922</ele>
        <time>2014-11-05T13:23:27Z</time>
      </trkpt>
      <trkpt lat="43.42406" lon="6.07923">
        <ele>259.87298583984</ele>
        <time>2014-11-05T13:23:29Z</time>
      </trkpt>
      <trkpt lat="43.42408" lon="6.07923">
        <ele>259.90045166016</ele>
        <time>2014-11-05T13:23:30Z</time>
      </trkpt>
      <trkpt lat="43.42411" lon="6.07922">
        <ele>259.92791748047</ele>
        <time>2014-11-05T13:23:31Z</time>
      </trkpt>
      <trkpt lat="43.42416" lon="6.07922">
        <ele>259.98742675781</ele>
        <time>2014-11-05T13:23:33Z</time>
      </trkpt>
      <trkpt lat="43.42421" lon="6.07923">
        <ele>260.01083374023</ele>
        <time>2014-11-05T13:23:35Z</time>
      </trkpt>
      <trkpt lat="43.42428" lon="6.07924">
        <ele>260.03482055664</ele>
        <time>2014-11-05T13:23:37Z</time>
      </trkpt>
      <trkpt lat="43.42434" lon="6.07923">
        <ele>260.04467773438</ele>
        <time>2014-11-05T13:23:39Z</time>
      </trkpt>
      <trkpt lat="43.42448" lon="6.07925">
        <ele>260.11776733398</ele>
        <time>2014-11-05T13:23:43Z</time>
      </trkpt>
      <trkpt lat="43.42451" lon="6.07926">
        <ele>260.13357543945</ele>
        <time>2014-11-05T13:23:44Z</time>
      </trkpt>
      <trkpt lat="43.42454" lon="6.07925">
        <ele>260.13409423828</ele>
        <time>2014-11-05T13:23:45Z</time>
      </trkpt>
      <trkpt lat="43.42456" lon="6.07924">
        <ele>260.12451171875</ele>
        <time>2014-11-05T13:23:46Z</time>
      </trkpt>
      <trkpt lat="43.42458" lon="6.07922">
        <ele>260.09652709961</ele>
        <time>2014-11-05T13:23:47Z</time>
      </trkpt>
      <trkpt lat="43.4246" lon="6.0792">
        <ele>260.06805419922</ele>
        <time>2014-11-05T13:23:48Z</time>
      </trkpt>
      <trkpt lat="43.42461" lon="6.07919">
        <ele>260.03820800781</ele>
        <time>2014-11-05T13:23:49Z</time>
      </trkpt>
      <trkpt lat="43.42465" lon="6.07915">
        <ele>260.03265380859</ele>
        <time>2014-11-05T13:23:51Z</time>
      </trkpt>
      <trkpt lat="43.42467" lon="6.07912">
        <ele>260.10705566406</ele>
        <time>2014-11-05T13:23:53Z</time>
      </trkpt>
      <trkpt lat="43.42469" lon="6.07911">
        <ele>260.12536621094</ele>
        <time>2014-11-05T13:23:54Z</time>
      </trkpt>
      <trkpt lat="43.42469" lon="6.07911">
        <ele>260.13565063477</ele>
        <time>2014-11-05T13:23:55Z</time>
      </trkpt>
      <trkpt lat="43.4247" lon="6.07911">
        <ele>260.12536621094</ele>
        <time>2014-11-05T13:23:57Z</time>
      </trkpt>
      <trkpt lat="43.4247" lon="6.07911">
        <ele>260.13452148438</ele>
        <time>2014-11-05T13:23:59Z</time>
      </trkpt>
      <trkpt lat="43.42471" lon="6.07911">
        <ele>260.13220214844</ele>
        <time>2014-11-05T13:24:02Z</time>
      </trkpt>
      <trkpt lat="43.42471" lon="6.07911">
        <ele>260.13220214844</ele>
        <time>2014-11-05T13:24:03Z</time>
      </trkpt>
      <trkpt lat="43.42471" lon="6.07911">
        <ele>260.13220214844</ele>
        <time>2014-11-05T13:24:05Z</time>
      </trkpt>
      <trkpt lat="43.42471" lon="6.07911">
        <ele>260.12878417969</ele>
        <time>2014-11-05T13:24:07Z</time>
      </trkpt>
      <trkpt lat="43.42471" lon="6.07911">
        <ele>260.12762451172</ele>
        <time>2014-11-05T13:24:09Z</time>
      </trkpt>
      <trkpt lat="43.42471" lon="6.07911">
        <ele>260.12649536133</ele>
        <time>2014-11-05T13:24:11Z</time>
      </trkpt>
      <trkpt lat="43.42471" lon="6.07911">
        <ele>260.12649536133</ele>
        <time>2014-11-05T13:24:15Z</time>
      </trkpt>
      <trkpt lat="43.42471" lon="6.07911">
        <ele>260.12536621094</ele>
        <time>2014-11-05T13:24:19Z</time>
      </trkpt>
      <trkpt lat="43.42471" lon="6.07911">
        <ele>260.12649536133</ele>
        <time>2014-11-05T13:24:23Z</time>
      </trkpt>
      <trkpt lat="43.42471" lon="6.07911">
        <ele>260.12536621094</ele>
        <time>2014-11-05T13:24:25Z</time>
      </trkpt>
      <trkpt lat="43.42471" lon="6.07911">
        <ele>260.12536621094</ele>
        <time>2014-11-05T13:24:29Z</time>
      </trkpt>
      <trkpt lat="43.42471" lon="6.07911">
        <ele>260.12762451172</ele>
        <time>2014-11-05T13:24:33Z</time>
      </trkpt>
      <trkpt lat="43.42471" lon="6.07911">
        <ele>260.12420654297</ele>
        <time>2014-11-05T13:24:35Z</time>
      </trkpt>
      <trkpt lat="43.42471" lon="6.07911">
        <ele>260.13565063477</ele>
        <time>2014-11-05T13:24:37Z</time>
      </trkpt>
      <trkpt lat="43.42471" lon="6.07911">
        <ele>260.13793945312</ele>
        <time>2014-11-05T13:24:39Z</time>
      </trkpt>
      <trkpt lat="43.42471" lon="6.07911">
        <ele>260.13565063477</ele>
        <time>2014-11-05T13:24:43Z</time>
      </trkpt>
      <trkpt lat="43.42471" lon="6.07911">
        <ele>260.13336181641</ele>
        <time>2014-11-05T13:24:45Z</time>
      </trkpt>
      <trkpt lat="43.42471" lon="6.07911">
        <ele>260.13336181641</ele>
        <time>2014-11-05T13:24:47Z</time>
      </trkpt>
      <trkpt lat="43.42471" lon="6.07911">
        <ele>260.13107299805</ele>
        <time>2014-11-05T13:24:49Z</time>
      </trkpt>
      <trkpt lat="43.42472" lon="6.07911">
        <ele>260.12649536133</ele>
        <time>2014-11-05T13:24:51Z</time>
      </trkpt>
      <trkpt lat="43.42472" lon="6.07911">
        <ele>260.12536621094</ele>
        <time>2014-11-05T13:24:53Z</time>
      </trkpt>
      <trkpt lat="43.42472" lon="6.07912">
        <ele>260.12078857422</ele>
        <time>2014-11-05T13:24:55Z</time>
      </trkpt>
      <trkpt lat="43.42472" lon="6.07912">
        <ele>260.12191772461</ele>
        <time>2014-11-05T13:25:01Z</time>
      </trkpt>
      <trkpt lat="43.42472" lon="6.07912">
        <ele>260.11962890625</ele>
        <time>2014-11-05T13:25:05Z</time>
      </trkpt>
      <trkpt lat="43.42472" lon="6.07912">
        <ele>260.11734008789</ele>
        <time>2014-11-05T13:25:07Z</time>
      </trkpt>
      <trkpt lat="43.42473" lon="6.07911">
        <ele>260.13107299805</ele>
        <time>2014-11-05T13:25:09Z</time>
      </trkpt>
      <trkpt lat="43.42475" lon="6.07911">
        <ele>260.14593505859</ele>
        <time>2014-11-05T13:25:11Z</time>
      </trkpt>
      <trkpt lat="43.42478" lon="6.07909">
        <ele>260.18713378906</ele>
        <time>2014-11-05T13:25:13Z</time>
      </trkpt>
      <trkpt lat="43.4248" lon="6.07908">
        <ele>260.21459960938</ele>
        <time>2014-11-05T13:25:14Z</time>
      </trkpt>
      <trkpt lat="43.42482" lon="6.07907">
        <ele>260.24206542969</ele>
        <time>2014-11-05T13:25:15Z</time>
      </trkpt>
      <trkpt lat="43.42484" lon="6.07906">
        <ele>260.26495361328</ele>
        <time>2014-11-05T13:25:16Z</time>
      </trkpt>
      <trkpt lat="43.42487" lon="6.07905">
        <ele>260.27755737305</ele>
        <time>2014-11-05T13:25:17Z</time>
      </trkpt>
      <trkpt lat="43.42494" lon="6.07904">
        <ele>260.302734375</ele>
        <time>2014-11-05T13:25:19Z</time>
      </trkpt>
      <trkpt lat="43.42499" lon="6.07904">
        <ele>260.30044555664</ele>
        <time>2014-11-05T13:25:21Z</time>
      </trkpt>
      <trkpt lat="43.42504" lon="6.07903">
        <ele>260.53314208984</ele>
        <time>2014-11-05T13:25:23Z</time>
      </trkpt>
      <trkpt lat="43.42509" lon="6.07902">
        <ele>260.85629272461</ele>
        <time>2014-11-05T13:25:25Z</time>
      </trkpt>
      <trkpt lat="43.42514" lon="6.07902">
        <ele>261.15905761719</ele>
        <time>2014-11-05T13:25:27Z</time>
      </trkpt>
      <trkpt lat="43.42524" lon="6.07901">
        <ele>261.67834472656</ele>
        <time>2014-11-05T13:25:31Z</time>
      </trkpt>
      <trkpt lat="43.42528" lon="6.07903">
        <ele>261.88488769531</ele>
        <time>2014-11-05T13:25:33Z</time>
      </trkpt>
      <trkpt lat="43.42533" lon="6.07905">
        <ele>262.12817382812</ele>
        <time>2014-11-05T13:25:35Z</time>
      </trkpt>
      <trkpt lat="43.42539" lon="6.0791">
        <ele>262.42077636719</ele>
        <time>2014-11-05T13:25:37Z</time>
      </trkpt>
      <trkpt lat="43.42542" lon="6.07912">
        <ele>262.56466674805</ele>
        <time>2014-11-05T13:25:38Z</time>
      </trkpt>
      <trkpt lat="43.42547" lon="6.07919">
        <ele>262.88665771484</ele>
        <time>2014-11-05T13:25:40Z</time>
      </trkpt>
      <trkpt lat="43.42551" lon="6.07933">
        <ele>263.51104736328</ele>
        <time>2014-11-05T13:25:43Z</time>
      </trkpt>
      <trkpt lat="43.42554" lon="6.07943">
        <ele>263.98602294922</ele>
        <time>2014-11-05T13:25:45Z</time>
      </trkpt>
      <trkpt lat="43.42559" lon="6.0795">
        <ele>264.45758056641</ele>
        <time>2014-11-05T13:25:47Z</time>
      </trkpt>
      <trkpt lat="43.42565" lon="6.07954">
        <ele>264.9075012207</ele>
        <time>2014-11-05T13:25:49Z</time>
      </trkpt>
      <trkpt lat="43.42569" lon="6.07957">
        <ele>265.15600585938</ele>
        <time>2014-11-05T13:25:50Z</time>
      </trkpt>
      <trkpt lat="43.42571" lon="6.07959">
        <ele>265.3659362793</ele>
        <time>2014-11-05T13:25:51Z</time>
      </trkpt>
      <trkpt lat="43.42574" lon="6.07962">
        <ele>265.55474853516</ele>
        <time>2014-11-05T13:25:52Z</time>
      </trkpt>
      <trkpt lat="43.42575" lon="6.07964">
        <ele>265.70956420898</ele>
        <time>2014-11-05T13:25:53Z</time>
      </trkpt>
      <trkpt lat="43.4258" lon="6.07968">
        <ele>266.04403686523</ele>
        <time>2014-11-05T13:25:55Z</time>
      </trkpt>
      <trkpt lat="43.42586" lon="6.07975">
        <ele>266.78146362305</ele>
        <time>2014-11-05T13:25:58Z</time>
      </trkpt>
      <trkpt lat="43.42588" lon="6.07978">
        <ele>267.1452331543</ele>
        <time>2014-11-05T13:25:59Z</time>
      </trkpt>
      <trkpt lat="43.42592" lon="6.07983">
        <ele>267.95388793945</ele>
        <time>2014-11-05T13:26:01Z</time>
      </trkpt>
      <trkpt lat="43.42596" lon="6.07987">
        <ele>268.67242431641</ele>
        <time>2014-11-05T13:26:03Z</time>
      </trkpt>
      <trkpt lat="43.42601" lon="6.07992">
        <ele>269.42916870117</ele>
        <time>2014-11-05T13:26:05Z</time>
      </trkpt>
      <trkpt lat="43.42607" lon="6.07999">
        <ele>270.47341918945</ele>
        <time>2014-11-05T13:26:08Z</time>
      </trkpt>
      <trkpt lat="43.42609" lon="6.08002">
        <ele>270.81121826172</ele>
        <time>2014-11-05T13:26:09Z</time>
      </trkpt>
      <trkpt lat="43.42611" lon="6.08008">
        <ele>271.63656616211</ele>
        <time>2014-11-05T13:26:11Z</time>
      </trkpt>
      <trkpt lat="43.42613" lon="6.08013">
        <ele>272.30865478516</ele>
        <time>2014-11-05T13:26:13Z</time>
      </trkpt>
      <trkpt lat="43.42614" lon="6.08018">
        <ele>272.85775756836</ele>
        <time>2014-11-05T13:26:15Z</time>
      </trkpt>
      <trkpt lat="43.42616" lon="6.08025">
        <ele>273.46286010742</ele>
        <time>2014-11-05T13:26:17Z</time>
      </trkpt>
      <trkpt lat="43.42619" lon="6.08037">
        <ele>274.60906982422</ele>
        <time>2014-11-05T13:26:21Z</time>
      </trkpt>
      <trkpt lat="43.4262" lon="6.08044">
        <ele>275.21209716797</ele>
        <time>2014-11-05T13:26:23Z</time>
      </trkpt>
      <trkpt lat="43.42621" lon="6.08051">
        <ele>275.76806640625</ele>
        <time>2014-11-05T13:26:25Z</time>
      </trkpt>
      <trkpt lat="43.4262" lon="6.08058">
        <ele>276.20431518555</ele>
        <time>2014-11-05T13:26:27Z</time>
      </trkpt>
      <trkpt lat="43.4262" lon="6.08064">
        <ele>276.59701538086</ele>
        <time>2014-11-05T13:26:29Z</time>
      </trkpt>
      <trkpt lat="43.4262" lon="6.08067">
        <ele>276.75146484375</ele>
        <time>2014-11-05T13:26:30Z</time>
      </trkpt>
      <trkpt lat="43.42619" lon="6.08069">
        <ele>276.90872192383</ele>
        <time>2014-11-05T13:26:31Z</time>
      </trkpt>
      <trkpt lat="43.42622" lon="6.08076">
        <ele>277.41201782227</ele>
        <time>2014-11-05T13:26:33Z</time>
      </trkpt>
      <trkpt lat="43.42623" lon="6.08079">
        <ele>277.66943359375</ele>
        <time>2014-11-05T13:26:34Z</time>
      </trkpt>
      <trkpt lat="43.42624" lon="6.08082">
        <ele>277.88323974609</ele>
        <time>2014-11-05T13:26:35Z</time>
      </trkpt>
      <trkpt lat="43.42627" lon="6.08087">
        <ele>278.28610229492</ele>
        <time>2014-11-05T13:26:37Z</time>
      </trkpt>
      <trkpt lat="43.42631" lon="6.08091">
        <ele>278.57708740234</ele>
        <time>2014-11-05T13:26:39Z</time>
      </trkpt>
      <trkpt lat="43.42633" lon="6.08092">
        <ele>278.65420532227</ele>
        <time>2014-11-05T13:26:40Z</time>
      </trkpt>
      <trkpt lat="43.42636" lon="6.08092">
        <ele>278.69583129883</ele>
        <time>2014-11-05T13:26:41Z</time>
      </trkpt>
      <trkpt lat="43.42641" lon="6.0809">
        <ele>278.69143676758</ele>
        <time>2014-11-05T13:26:43Z</time>
      </trkpt>
      <trkpt lat="43.42645" lon="6.08086">
        <ele>278.59414672852</ele>
        <time>2014-11-05T13:26:45Z</time>
      </trkpt>
      <trkpt lat="43.42656" lon="6.08077">
        <ele>278.63458251953</ele>
        <time>2014-11-05T13:26:49Z</time>
      </trkpt>
      <trkpt lat="43.42661" lon="6.08076">
        <ele>278.80282592773</ele>
        <time>2014-11-05T13:26:51Z</time>
      </trkpt>
      <trkpt lat="43.42667" lon="6.08079">
        <ele>279.00454711914</ele>
        <time>2014-11-05T13:26:53Z</time>
      </trkpt>
      <trkpt lat="43.42673" lon="6.08083">
        <ele>279.0729675293</ele>
        <time>2014-11-05T13:26:55Z</time>
      </trkpt>
      <trkpt lat="43.42677" lon="6.08089">
        <ele>279.24172973633</ele>
        <time>2014-11-05T13:26:57Z</time>
      </trkpt>
      <trkpt lat="43.42686" lon="6.08099">
        <ele>279.52703857422</ele>
        <time>2014-11-05T13:27:01Z</time>
      </trkpt>
      <trkpt lat="43.42688" lon="6.08102">
        <ele>279.58474731445</ele>
        <time>2014-11-05T13:27:02Z</time>
      </trkpt>
      <trkpt lat="43.4269" lon="6.08103">
        <ele>279.6296081543</ele>
        <time>2014-11-05T13:27:03Z</time>
      </trkpt>
      <trkpt lat="43.42694" lon="6.08106">
        <ele>279.69833374023</ele>
        <time>2014-11-05T13:27:05Z</time>
      </trkpt>
      <trkpt lat="43.42699" lon="6.08109">
        <ele>279.76483154297</ele>
        <time>2014-11-05T13:27:07Z</time>
      </trkpt>
      <trkpt lat="43.42703" lon="6.08114">
        <ele>279.84750366211</ele>
        <time>2014-11-05T13:27:09Z</time>
      </trkpt>
      <trkpt lat="43.42708" lon="6.08119">
        <ele>279.92276000977</ele>
        <time>2014-11-05T13:27:11Z</time>
      </trkpt>
      <trkpt lat="43.42711" lon="6.0812">
        <ele>279.94702148438</ele>
        <time>2014-11-05T13:27:12Z</time>
      </trkpt>
      <trkpt lat="43.42715" lon="6.08121">
        <ele>279.96383666992</ele>
        <time>2014-11-05T13:27:13Z</time>
      </trkpt>
      <trkpt lat="43.42721" lon="6.08125">
        <ele>280.00216674805</ele>
        <time>2014-11-05T13:27:15Z</time>
      </trkpt>
      <trkpt lat="43.42725" lon="6.08131">
        <ele>280.04476928711</ele>
        <time>2014-11-05T13:27:17Z</time>
      </trkpt>
      <trkpt lat="43.4273" lon="6.08138">
        <ele>280.07720947266</ele>
        <time>2014-11-05T13:27:19Z</time>
      </trkpt>
      <trkpt lat="43.42735" lon="6.08145">
        <ele>280.08911132812</ele>
        <time>2014-11-05T13:27:21Z</time>
      </trkpt>
      <trkpt lat="43.42741" lon="6.08149">
        <ele>280.06335449219</ele>
        <time>2014-11-05T13:27:23Z</time>
      </trkpt>
      <trkpt lat="43.42748" lon="6.0815">
        <ele>280.0153503418</ele>
        <time>2014-11-05T13:27:25Z</time>
      </trkpt>
      <trkpt lat="43.42754" lon="6.08153">
        <ele>280</ele>
        <time>2014-11-05T13:27:27Z</time>
      </trkpt>
      <trkpt lat="43.42756" lon="6.08156">
        <ele>280</ele>
        <time>2014-11-05T13:27:28Z</time>
      </trkpt>
      <trkpt lat="43.42758" lon="6.08159">
        <ele>280</ele>
        <time>2014-11-05T13:27:29Z</time>
      </trkpt>
      <trkpt lat="43.42764" lon="6.08169">
        <ele>280.03988647461</ele>
        <time>2014-11-05T13:27:32Z</time>
      </trkpt>
      <trkpt lat="43.42765" lon="6.08171">
        <ele>280.08355712891</ele>
        <time>2014-11-05T13:27:33Z</time>
      </trkpt>
      <trkpt lat="43.4277" lon="6.08176">
        <ele>280.16500854492</ele>
        <time>2014-11-05T13:27:35Z</time>
      </trkpt>
      <trkpt lat="43.42774" lon="6.0818">
        <ele>280.22525024414</ele>
        <time>2014-11-05T13:27:37Z</time>
      </trkpt>
      <trkpt lat="43.42778" lon="6.08185">
        <ele>280.29187011719</ele>
        <time>2014-11-05T13:27:39Z</time>
      </trkpt>
      <trkpt lat="43.4278" lon="6.08191">
        <ele>280.37182617188</ele>
        <time>2014-11-05T13:27:41Z</time>
      </trkpt>
      <trkpt lat="43.42782" lon="6.08198">
        <ele>280.46438598633</ele>
        <time>2014-11-05T13:27:43Z</time>
      </trkpt>
      <trkpt lat="43.42783" lon="6.08204">
        <ele>280.5481262207</ele>
        <time>2014-11-05T13:27:45Z</time>
      </trkpt>
      <trkpt lat="43.42783" lon="6.08212">
        <ele>280.65255737305</ele>
        <time>2014-11-05T13:27:47Z</time>
      </trkpt>
      <trkpt lat="43.42784" lon="6.08223">
        <ele>280.80545043945</ele>
        <time>2014-11-05T13:27:50Z</time>
      </trkpt>
      <trkpt lat="43.42784" lon="6.08227">
        <ele>280.85995483398</ele>
        <time>2014-11-05T13:27:51Z</time>
      </trkpt>
      <trkpt lat="43.42785" lon="6.08234">
        <ele>280.93780517578</ele>
        <time>2014-11-05T13:27:53Z</time>
      </trkpt>
      <trkpt lat="43.42787" lon="6.08241">
        <ele>280.98678588867</ele>
        <time>2014-11-05T13:27:55Z</time>
      </trkpt>
      <trkpt lat="43.42791" lon="6.08255">
        <ele>281.28155517578</ele>
        <time>2014-11-05T13:27:59Z</time>
      </trkpt>
      <trkpt lat="43.42794" lon="6.08261">
        <ele>281.51150512695</ele>
        <time>2014-11-05T13:28:01Z</time>
      </trkpt>
      <trkpt lat="43.42796" lon="6.08263">
        <ele>281.51110839844</ele>
        <time>2014-11-05T13:28:02Z</time>
      </trkpt>
      <trkpt lat="43.42799" lon="6.08263">
        <ele>281.44717407227</ele>
        <time>2014-11-05T13:28:03Z</time>
      </trkpt>
      <trkpt lat="43.42807" lon="6.08262">
        <ele>281.1178894043</ele>
        <time>2014-11-05T13:28:06Z</time>
      </trkpt>
      <trkpt lat="43.42811" lon="6.08262">
        <ele>280.9416809082</ele>
        <time>2014-11-05T13:28:08Z</time>
      </trkpt>
      <trkpt lat="43.42813" lon="6.08262">
        <ele>280.87133789062</ele>
        <time>2014-11-05T13:28:09Z</time>
      </trkpt>
      <trkpt lat="43.42815" lon="6.08263">
        <ele>280.82333374023</ele>
        <time>2014-11-05T13:28:10Z</time>
      </trkpt>
      <trkpt lat="43.42818" lon="6.08264">
        <ele>280.77667236328</ele>
        <time>2014-11-05T13:28:11Z</time>
      </trkpt>
      <trkpt lat="43.42821" lon="6.08267">
        <ele>280.71786499023</ele>
        <time>2014-11-05T13:28:12Z</time>
      </trkpt>
      <trkpt lat="43.42823" lon="6.0827">
        <ele>280.67248535156</ele>
        <time>2014-11-05T13:28:13Z</time>
      </trkpt>
      <trkpt lat="43.42828" lon="6.08277">
        <ele>280.5788269043</ele>
        <time>2014-11-05T13:28:15Z</time>
      </trkpt>
      <trkpt lat="43.42833" lon="6.08285">
        <ele>280.47036743164</ele>
        <time>2014-11-05T13:28:17Z</time>
      </trkpt>
      <trkpt lat="43.42834" lon="6.08291">
        <ele>280.50427246094</ele>
        <time>2014-11-05T13:28:18Z</time>
      </trkpt>
      <trkpt lat="43.42835" lon="6.08296">
        <ele>280.58602905273</ele>
        <time>2014-11-05T13:28:19Z</time>
      </trkpt>
      <trkpt lat="43.42836" lon="6.08307">
        <ele>280.71792602539</ele>
        <time>2014-11-05T13:28:21Z</time>
      </trkpt>
      <trkpt lat="43.42838" lon="6.08312">
        <ele>280.78540039062</ele>
        <time>2014-11-05T13:28:22Z</time>
      </trkpt>
      <trkpt lat="43.4284" lon="6.08326">
        <ele>280.93478393555</ele>
        <time>2014-11-05T13:28:25Z</time>
      </trkpt>
      <trkpt lat="43.42842" lon="6.08334">
        <ele>281.06121826172</ele>
        <time>2014-11-05T13:28:27Z</time>
      </trkpt>
      <trkpt lat="43.42842" lon="6.08339">
        <ele>281.3063659668</ele>
        <time>2014-11-05T13:28:28Z</time>
      </trkpt>
      <trkpt lat="43.42844" lon="6.08344">
        <ele>281.53448486328</ele>
        <time>2014-11-05T13:28:29Z</time>
      </trkpt>
      <trkpt lat="43.42846" lon="6.08359">
        <ele>282.23168945312</ele>
        <time>2014-11-05T13:28:32Z</time>
      </trkpt>
      <trkpt lat="43.4285" lon="6.08375">
        <ele>282.87753295898</ele>
        <time>2014-11-05T13:28:35Z</time>
      </trkpt>
      <trkpt lat="43.42854" lon="6.08386">
        <ele>283.25207519531</ele>
        <time>2014-11-05T13:28:37Z</time>
      </trkpt>
      <trkpt lat="43.42857" lon="6.08397">
        <ele>283.55575561523</ele>
        <time>2014-11-05T13:28:39Z</time>
      </trkpt>
      <trkpt lat="43.42859" lon="6.08408">
        <ele>283.81607055664</ele>
        <time>2014-11-05T13:28:41Z</time>
      </trkpt>
      <trkpt lat="43.42863" lon="6.08418">
        <ele>283.92932128906</ele>
        <time>2014-11-05T13:28:43Z</time>
      </trkpt>
      <trkpt lat="43.42865" lon="6.08422">
        <ele>283.97769165039</ele>
        <time>2014-11-05T13:28:44Z</time>
      </trkpt>
      <trkpt lat="43.42868" lon="6.08427">
        <ele>283.95184326172</ele>
        <time>2014-11-05T13:28:45Z</time>
      </trkpt>
      <trkpt lat="43.42875" lon="6.08435">
        <ele>283.69674682617</ele>
        <time>2014-11-05T13:28:47Z</time>
      </trkpt>
      <trkpt lat="43.42878" lon="6.08439">
        <ele>283.53747558594</ele>
        <time>2014-11-05T13:28:48Z</time>
      </trkpt>
      <trkpt lat="43.42881" lon="6.08443">
        <ele>283.39077758789</ele>
        <time>2014-11-05T13:28:49Z</time>
      </trkpt>
      <trkpt lat="43.42884" lon="6.08448">
        <ele>283.22277832031</ele>
        <time>2014-11-05T13:28:50Z</time>
      </trkpt>
      <trkpt lat="43.42886" lon="6.08452">
        <ele>283.11767578125</ele>
        <time>2014-11-05T13:28:51Z</time>
      </trkpt>
      <trkpt lat="43.42891" lon="6.08461">
        <ele>282.78942871094</ele>
        <time>2014-11-05T13:28:53Z</time>
      </trkpt>
      <trkpt lat="43.42894" lon="6.08465">
        <ele>282.58163452148</ele>
        <time>2014-11-05T13:28:54Z</time>
      </trkpt>
      <trkpt lat="43.42897" lon="6.08469">
        <ele>282.35443115234</ele>
        <time>2014-11-05T13:28:55Z</time>
      </trkpt>
      <trkpt lat="43.42907" lon="6.08487">
        <ele>281.29330444336</ele>
        <time>2014-11-05T13:28:59Z</time>
      </trkpt>
      <trkpt lat="43.4291" lon="6.08492">
        <ele>280.91201782227</ele>
        <time>2014-11-05T13:29:00Z</time>
      </trkpt>
      <trkpt lat="43.42913" lon="6.08496">
        <ele>280.4528503418</ele>
        <time>2014-11-05T13:29:01Z</time>
      </trkpt>
      <trkpt lat="43.42929" lon="6.08511">
        <ele>280.53894042969</ele>
        <time>2014-11-05T13:29:05Z</time>
      </trkpt>
      <trkpt lat="43.42937" lon="6.08521">
        <ele>280.78189086914</ele>
        <time>2014-11-05T13:29:07Z</time>
      </trkpt>
      <trkpt lat="43.42942" lon="6.08533">
        <ele>280.84356689453</ele>
        <time>2014-11-05T13:29:09Z</time>
      </trkpt>
      <trkpt lat="43.42946" lon="6.08546">
        <ele>280.82577514648</ele>
        <time>2014-11-05T13:29:11Z</time>
      </trkpt>
      <trkpt lat="43.4295" lon="6.08557">
        <ele>280.78619384766</ele>
        <time>2014-11-05T13:29:13Z</time>
      </trkpt>
      <trkpt lat="43.42953" lon="6.08569">
        <ele>280.67138671875</ele>
        <time>2014-11-05T13:29:15Z</time>
      </trkpt>
      <trkpt lat="43.42958" lon="6.08592">
        <ele>280.60302734375</ele>
        <time>2014-11-05T13:29:19Z</time>
      </trkpt>
      <trkpt lat="43.4296" lon="6.08597">
        <ele>280.67962646484</ele>
        <time>2014-11-05T13:29:20Z</time>
      </trkpt>
      <trkpt lat="43.42965" lon="6.08613">
        <ele>280.87619018555</ele>
        <time>2014-11-05T13:29:23Z</time>
      </trkpt>
      <trkpt lat="43.42966" lon="6.08618">
        <ele>280.93600463867</ele>
        <time>2014-11-05T13:29:24Z</time>
      </trkpt>
      <trkpt lat="43.42967" lon="6.08624">
        <ele>280.98858642578</ele>
        <time>2014-11-05T13:29:25Z</time>
      </trkpt>
      <trkpt lat="43.4297" lon="6.08634">
        <ele>281.08316040039</ele>
        <time>2014-11-05T13:29:27Z</time>
      </trkpt>
      <trkpt lat="43.42975" lon="6.08658">
        <ele>281.24194335938</ele>
        <time>2014-11-05T13:29:31Z</time>
      </trkpt>
      <trkpt lat="43.42976" lon="6.08665">
        <ele>281.26943969727</ele>
        <time>2014-11-05T13:29:32Z</time>
      </trkpt>
      <trkpt lat="43.42978" lon="6.08671">
        <ele>281.42175292969</ele>
        <time>2014-11-05T13:29:33Z</time>
      </trkpt>
      <trkpt lat="43.42984" lon="6.08695">
        <ele>282.29724121094</ele>
        <time>2014-11-05T13:29:37Z</time>
      </trkpt>
      <trkpt lat="43.42987" lon="6.08707">
        <ele>282.68960571289</ele>
        <time>2014-11-05T13:29:39Z</time>
      </trkpt>
      <trkpt lat="43.42989" lon="6.08713">
        <ele>282.8635559082</ele>
        <time>2014-11-05T13:29:40Z</time>
      </trkpt>
      <trkpt lat="43.42992" lon="6.08718">
        <ele>283.01065063477</ele>
        <time>2014-11-05T13:29:41Z</time>
      </trkpt>
      <trkpt lat="43.42994" lon="6.08723">
        <ele>283.14498901367</ele>
        <time>2014-11-05T13:29:42Z</time>
      </trkpt>
      <trkpt lat="43.42997" lon="6.08728">
        <ele>283.27020263672</ele>
        <time>2014-11-05T13:29:43Z</time>
      </trkpt>
      <trkpt lat="43.42999" lon="6.08733">
        <ele>283.41189575195</ele>
        <time>2014-11-05T13:29:44Z</time>
      </trkpt>
      <trkpt lat="43.43003" lon="6.08743">
        <ele>284.17446899414</ele>
        <time>2014-11-05T13:29:46Z</time>
      </trkpt>
      <trkpt lat="43.43004" lon="6.08748">
        <ele>284.48361206055</ele>
        <time>2014-11-05T13:29:47Z</time>
      </trkpt>
      <trkpt lat="43.43007" lon="6.08757">
        <ele>285.42614746094</ele>
        <time>2014-11-05T13:29:49Z</time>
      </trkpt>
      <trkpt lat="43.4301" lon="6.08765">
        <ele>286.35241699219</ele>
        <time>2014-11-05T13:29:51Z</time>
      </trkpt>
      <trkpt lat="43.43012" lon="6.08774">
        <ele>287.1526184082</ele>
        <time>2014-11-05T13:29:53Z</time>
      </trkpt>
      <trkpt lat="43.43013" lon="6.08784">
        <ele>287.77828979492</ele>
        <time>2014-11-05T13:29:55Z</time>
      </trkpt>
      <trkpt lat="43.43013" lon="6.08804">
        <ele>289.1452331543</ele>
        <time>2014-11-05T13:29:59Z</time>
      </trkpt>
      <trkpt lat="43.43015" lon="6.08815">
        <ele>289.95028686523</ele>
        <time>2014-11-05T13:30:01Z</time>
      </trkpt>
      <trkpt lat="43.43019" lon="6.08834">
        <ele>291.45779418945</ele>
        <time>2014-11-05T13:30:05Z</time>
      </trkpt>
      <trkpt lat="43.43021" lon="6.08844">
        <ele>292.03942871094</ele>
        <time>2014-11-05T13:30:07Z</time>
      </trkpt>
      <trkpt lat="43.43022" lon="6.0885">
        <ele>292.34976196289</ele>
        <time>2014-11-05T13:30:08Z</time>
      </trkpt>
      <trkpt lat="43.43022" lon="6.08855">
        <ele>292.59869384766</ele>
        <time>2014-11-05T13:30:09Z</time>
      </trkpt>
      <trkpt lat="43.43021" lon="6.08865">
        <ele>293.05349731445</ele>
        <time>2014-11-05T13:30:11Z</time>
      </trkpt>
      <trkpt lat="43.43019" lon="6.08871">
        <ele>293.22543334961</ele>
        <time>2014-11-05T13:30:12Z</time>
      </trkpt>
      <trkpt lat="43.43019" lon="6.08876">
        <ele>293.43096923828</ele>
        <time>2014-11-05T13:30:13Z</time>
      </trkpt>
      <trkpt lat="43.43018" lon="6.08884">
        <ele>293.82556152344</ele>
        <time>2014-11-05T13:30:15Z</time>
      </trkpt>
      <trkpt lat="43.43019" lon="6.08899">
        <ele>294.58459472656</ele>
        <time>2014-11-05T13:30:18Z</time>
      </trkpt>
      <trkpt lat="43.43018" lon="6.08904">
        <ele>294.79180908203</ele>
        <time>2014-11-05T13:30:19Z</time>
      </trkpt>
      <trkpt lat="43.43016" lon="6.08911">
        <ele>295.09713745117</ele>
        <time>2014-11-05T13:30:21Z</time>
      </trkpt>
      <trkpt lat="43.43014" lon="6.08918">
        <ele>295.38330078125</ele>
        <time>2014-11-05T13:30:23Z</time>
      </trkpt>
      <trkpt lat="43.43014" lon="6.08925">
        <ele>295.67514038086</ele>
        <time>2014-11-05T13:30:25Z</time>
      </trkpt>
      <trkpt lat="43.43018" lon="6.08935">
        <ele>296.18695068359</ele>
        <time>2014-11-05T13:30:29Z</time>
      </trkpt>
      <trkpt lat="43.4302" lon="6.08941">
        <ele>296.44091796875</ele>
        <time>2014-11-05T13:30:31Z</time>
      </trkpt>
      <trkpt lat="43.43022" lon="6.08946">
        <ele>296.65979003906</ele>
        <time>2014-11-05T13:30:33Z</time>
      </trkpt>
      <trkpt lat="43.43023" lon="6.08948">
        <ele>296.73590087891</ele>
        <time>2014-11-05T13:30:34Z</time>
      </trkpt>
      <trkpt lat="43.43023" lon="6.08949">
        <ele>296.79244995117</ele>
        <time>2014-11-05T13:30:35Z</time>
      </trkpt>
      <trkpt lat="43.43023" lon="6.08952">
        <ele>296.90921020508</ele>
        <time>2014-11-05T13:30:37Z</time>
      </trkpt>
      <trkpt lat="43.43023" lon="6.08959">
        <ele>297.15954589844</ele>
        <time>2014-11-05T13:30:41Z</time>
      </trkpt>
      <trkpt lat="43.43023" lon="6.0896">
        <ele>297.21768188477</ele>
        <time>2014-11-05T13:30:42Z</time>
      </trkpt>
      <trkpt lat="43.43024" lon="6.08963">
        <ele>297.31701660156</ele>
        <time>2014-11-05T13:30:44Z</time>
      </trkpt>
      <trkpt lat="43.43024" lon="6.08963">
        <ele>297.33435058594</ele>
        <time>2014-11-05T13:30:45Z</time>
      </trkpt>
      <trkpt lat="43.43025" lon="6.08962">
        <ele>297.29483032227</ele>
        <time>2014-11-05T13:30:47Z</time>
      </trkpt>
      <trkpt lat="43.43025" lon="6.08959">
        <ele>297.19039916992</ele>
        <time>2014-11-05T13:30:49Z</time>
      </trkpt>
      <trkpt lat="43.43024" lon="6.08959">
        <ele>297.16296386719</ele>
        <time>2014-11-05T13:30:51Z</time>
      </trkpt>
      <trkpt lat="43.43024" lon="6.08959">
        <ele>297.1647644043</ele>
        <time>2014-11-05T13:30:52Z</time>
      </trkpt>
      <trkpt lat="43.43024" lon="6.08959">
        <ele>297.1647644043</ele>
        <time>2014-11-05T13:30:55Z</time>
      </trkpt>
      <trkpt lat="43.43024" lon="6.08959">
        <ele>297.16296386719</ele>
        <time>2014-11-05T13:30:57Z</time>
      </trkpt>
      <trkpt lat="43.43024" lon="6.08959">
        <ele>297.16296386719</ele>
        <time>2014-11-05T13:31:01Z</time>
      </trkpt>
      <trkpt lat="43.43025" lon="6.08959">
        <ele>297.16162109375</ele>
        <time>2014-11-05T13:31:03Z</time>
      </trkpt>
      <trkpt lat="43.43024" lon="6.08959">
        <ele>297.15762329102</ele>
        <time>2014-11-05T13:31:05Z</time>
      </trkpt>
      <trkpt lat="43.43025" lon="6.08959">
        <ele>297.15985107422</ele>
        <time>2014-11-05T13:31:07Z</time>
      </trkpt>
      <trkpt lat="43.43024" lon="6.08959">
        <ele>297.15762329102</ele>
        <time>2014-11-05T13:31:09Z</time>
      </trkpt>
      <trkpt lat="43.43024" lon="6.08959">
        <ele>297.15762329102</ele>
        <time>2014-11-05T13:31:17Z</time>
      </trkpt>
      <trkpt lat="43.43024" lon="6.08959">
        <ele>297.15582275391</ele>
        <time>2014-11-05T13:31:25Z</time>
      </trkpt>
      <trkpt lat="43.43024" lon="6.08959">
        <ele>297.15762329102</ele>
        <time>2014-11-05T13:31:27Z</time>
      </trkpt>
      <trkpt lat="43.43024" lon="6.08959">
        <ele>297.15762329102</ele>
        <time>2014-11-05T13:31:33Z</time>
      </trkpt>
      <trkpt lat="43.43024" lon="6.08958">
        <ele>297.15225219727</ele>
        <time>2014-11-05T13:32:31Z</time>
      </trkpt>
      <trkpt lat="43.43024" lon="6.08958">
        <ele>297.15048217773</ele>
        <time>2014-11-05T13:32:39Z</time>
      </trkpt>
      <trkpt lat="43.43024" lon="6.08958">
        <ele>297.14154052734</ele>
        <time>2014-11-05T13:34:05Z</time>
      </trkpt>
      <trkpt lat="43.43024" lon="6.08958">
        <ele>297.13439941406</ele>
        <time>2014-11-05T13:34:31Z</time>
      </trkpt>
      <trkpt lat="43.43024" lon="6.08958">
        <ele>297.13262939453</ele>
        <time>2014-11-05T13:34:43Z</time>
      </trkpt>
      <trkpt lat="43.43024" lon="6.08958">
        <ele>297.13439941406</ele>
        <time>2014-11-05T13:34:45Z</time>
      </trkpt>
      <trkpt lat="43.43024" lon="6.08958">
        <ele>297.13439941406</ele>
        <time>2014-11-05T13:34:51Z</time>
      </trkpt>
      <trkpt lat="43.43024" lon="6.08958">
        <ele>297.13439941406</ele>
        <time>2014-11-05T13:34:55Z</time>
      </trkpt>
      <trkpt lat="43.43024" lon="6.08958">
        <ele>297.13619995117</ele>
        <time>2014-11-05T13:34:57Z</time>
      </trkpt>
      <trkpt lat="43.43024" lon="6.08958">
        <ele>297.13619995117</ele>
        <time>2014-11-05T13:35:01Z</time>
      </trkpt>
      <trkpt lat="43.43024" lon="6.08958">
        <ele>297.1379699707</ele>
        <time>2014-11-05T13:35:07Z</time>
      </trkpt>
      <trkpt lat="43.43024" lon="6.08958">
        <ele>297.1379699707</ele>
        <time>2014-11-05T13:35:13Z</time>
      </trkpt>
      <trkpt lat="43.43024" lon="6.08958">
        <ele>297.13619995117</ele>
        <time>2014-11-05T13:35:19Z</time>
      </trkpt>
      <trkpt lat="43.43024" lon="6.08958">
        <ele>297.14642333984</ele>
        <time>2014-11-05T13:35:21Z</time>
      </trkpt>
      <trkpt lat="43.43024" lon="6.08961">
        <ele>297.24499511719</ele>
        <time>2014-11-05T13:35:23Z</time>
      </trkpt>
      <trkpt lat="43.43024" lon="6.08966">
        <ele>297.44766235352</ele>
        <time>2014-11-05T13:35:25Z</time>
      </trkpt>
      <trkpt lat="43.43024" lon="6.08974">
        <ele>297.72201538086</ele>
        <time>2014-11-05T13:35:27Z</time>
      </trkpt>
      <trkpt lat="43.43025" lon="6.08982">
        <ele>298.02014160156</ele>
        <time>2014-11-05T13:35:29Z</time>
      </trkpt>
      <trkpt lat="43.43026" lon="6.08987">
        <ele>298.19845581055</ele>
        <time>2014-11-05T13:35:30Z</time>
      </trkpt>
      <trkpt lat="43.43026" lon="6.08997">
        <ele>298.56088256836</ele>
        <time>2014-11-05T13:35:32Z</time>
      </trkpt>
      <trkpt lat="43.43026" lon="6.09001">
        <ele>298.70364379883</ele>
        <time>2014-11-05T13:35:33Z</time>
      </trkpt>
      <trkpt lat="43.43026" lon="6.09011">
        <ele>298.80834960938</ele>
        <time>2014-11-05T13:35:35Z</time>
      </trkpt>
      <trkpt lat="43.43026" lon="6.09016">
        <ele>298.86651611328</ele>
        <time>2014-11-05T13:35:36Z</time>
      </trkpt>
      <trkpt lat="43.43025" lon="6.0902">
        <ele>298.9162902832</ele>
        <time>2014-11-05T13:35:37Z</time>
      </trkpt>
      <trkpt lat="43.43024" lon="6.09028">
        <ele>299.00335693359</ele>
        <time>2014-11-05T13:35:39Z</time>
      </trkpt>
      <trkpt lat="43.43023" lon="6.09038">
        <ele>299.10693359375</ele>
        <time>2014-11-05T13:35:42Z</time>
      </trkpt>
      <trkpt lat="43.43023" lon="6.09041">
        <ele>299.13034057617</ele>
        <time>2014-11-05T13:35:43Z</time>
      </trkpt>
      <trkpt lat="43.43021" lon="6.09046">
        <ele>299.1708984375</ele>
        <time>2014-11-05T13:35:45Z</time>
      </trkpt>
      <trkpt lat="43.43019" lon="6.09062">
        <ele>299.28890991211</ele>
        <time>2014-11-05T13:35:49Z</time>
      </trkpt>
      <trkpt lat="43.43019" lon="6.09066">
        <ele>299.31866455078</ele>
        <time>2014-11-05T13:35:50Z</time>
      </trkpt>
      <trkpt lat="43.43019" lon="6.09071">
        <ele>299.34701538086</ele>
        <time>2014-11-05T13:35:51Z</time>
      </trkpt>
      <trkpt lat="43.43018" lon="6.09078">
        <ele>299.37976074219</ele>
        <time>2014-11-05T13:35:53Z</time>
      </trkpt>
      <trkpt lat="43.43016" lon="6.09082">
        <ele>299.36987304688</ele>
        <time>2014-11-05T13:35:55Z</time>
      </trkpt>
      <trkpt lat="43.43013" lon="6.09086">
        <ele>299.28219604492</ele>
        <time>2014-11-05T13:35:57Z</time>
      </trkpt>
      <trkpt lat="43.43011" lon="6.09093">
        <ele>299.11315917969</ele>
        <time>2014-11-05T13:35:59Z</time>
      </trkpt>
      <trkpt lat="43.43008" lon="6.09101">
        <ele>298.89938354492</ele>
        <time>2014-11-05T13:36:01Z</time>
      </trkpt>
      <trkpt lat="43.43008" lon="6.09108">
        <ele>298.75723266602</ele>
        <time>2014-11-05T13:36:03Z</time>
      </trkpt>
      <trkpt lat="43.43007" lon="6.09111">
        <ele>298.67749023438</ele>
        <time>2014-11-05T13:36:04Z</time>
      </trkpt>
      <trkpt lat="43.43007" lon="6.09115">
        <ele>298.58374023438</ele>
        <time>2014-11-05T13:36:05Z</time>
      </trkpt>
      <trkpt lat="43.43005" lon="6.0912">
        <ele>298.42483520508</ele>
        <time>2014-11-05T13:36:07Z</time>
      </trkpt>
      <trkpt lat="43.43005" lon="6.09124">
        <ele>298.31921386719</ele>
        <time>2014-11-05T13:36:09Z</time>
      </trkpt>
      <trkpt lat="43.43006" lon="6.09127">
        <ele>298.31442260742</ele>
        <time>2014-11-05T13:36:10Z</time>
      </trkpt>
      <trkpt lat="43.43007" lon="6.09129">
        <ele>298.31219482422</ele>
        <time>2014-11-05T13:36:11Z</time>
      </trkpt>
      <trkpt lat="43.43008" lon="6.09135">
        <ele>298.31344604492</ele>
        <time>2014-11-05T13:36:13Z</time>
      </trkpt>
      <trkpt lat="43.43008" lon="6.09143">
        <ele>298.20483398438</ele>
        <time>2014-11-05T13:36:15Z</time>
      </trkpt>
      <trkpt lat="43.43007" lon="6.09151">
        <ele>297.94506835938</ele>
        <time>2014-11-05T13:36:17Z</time>
      </trkpt>
      <trkpt lat="43.43006" lon="6.09154">
        <ele>297.78540039062</ele>
        <time>2014-11-05T13:36:18Z</time>
      </trkpt>
      <trkpt lat="43.43005" lon="6.09157">
        <ele>297.7048034668</ele>
        <time>2014-11-05T13:36:19Z</time>
      </trkpt>
      <trkpt lat="43.43005" lon="6.09159">
        <ele>297.63479614258</ele>
        <time>2014-11-05T13:36:20Z</time>
      </trkpt>
      <trkpt lat="43.43005" lon="6.0916">
        <ele>297.57119750977</ele>
        <time>2014-11-05T13:36:21Z</time>
      </trkpt>
      <trkpt lat="43.43005" lon="6.09161">
        <ele>297.59628295898</ele>
        <time>2014-11-05T13:36:23Z</time>
      </trkpt>
      <trkpt lat="43.43005" lon="6.09161">
        <ele>297.59442138672</ele>
        <time>2014-11-05T13:36:24Z</time>
      </trkpt>
      <trkpt lat="43.43005" lon="6.09161">
        <ele>297.59161376953</ele>
        <time>2014-11-05T13:36:25Z</time>
      </trkpt>
      <trkpt lat="43.43005" lon="6.09161">
        <ele>297.58786010742</ele>
        <time>2014-11-05T13:36:27Z</time>
      </trkpt>
      <trkpt lat="43.43005" lon="6.09161">
        <ele>297.58596801758</ele>
        <time>2014-11-05T13:36:29Z</time>
      </trkpt>
      <trkpt lat="43.43005" lon="6.09161">
        <ele>297.58502197266</ele>
        <time>2014-11-05T13:36:31Z</time>
      </trkpt>
      <trkpt lat="43.43005" lon="6.09161">
        <ele>297.54733276367</ele>
        <time>2014-11-05T13:36:35Z</time>
      </trkpt>
      <trkpt lat="43.43005" lon="6.09162">
        <ele>297.54541015625</ele>
        <time>2014-11-05T13:36:36Z</time>
      </trkpt>
      <trkpt lat="43.43005" lon="6.09162">
        <ele>297.53872680664</ele>
        <time>2014-11-05T13:36:39Z</time>
      </trkpt>
      <trkpt lat="43.43005" lon="6.09162">
        <ele>297.56625366211</ele>
        <time>2014-11-05T13:36:43Z</time>
      </trkpt>
      <trkpt lat="43.43005" lon="6.09162">
        <ele>297.59771728516</ele>
        <time>2014-11-05T13:36:45Z</time>
      </trkpt>
      <trkpt lat="43.43005" lon="6.09163">
        <ele>297.59588623047</ele>
        <time>2014-11-05T13:36:47Z</time>
      </trkpt>
      <trkpt lat="43.43005" lon="6.09163">
        <ele>297.59588623047</ele>
        <time>2014-11-05T13:36:49Z</time>
      </trkpt>
      <trkpt lat="43.43005" lon="6.09162">
        <ele>297.59680175781</ele>
        <time>2014-11-05T13:36:51Z</time>
      </trkpt>
      <trkpt lat="43.43005" lon="6.09162">
        <ele>297.59771728516</ele>
        <time>2014-11-05T13:36:53Z</time>
      </trkpt>
      <trkpt lat="43.43005" lon="6.09162">
        <ele>297.59771728516</ele>
        <time>2014-11-05T13:36:55Z</time>
      </trkpt>
      <trkpt lat="43.43005" lon="6.09162">
        <ele>297.53015136719</ele>
        <time>2014-11-05T13:36:57Z</time>
      </trkpt>
      <trkpt lat="43.43004" lon="6.09165">
        <ele>297.4299621582</ele>
        <time>2014-11-05T13:36:59Z</time>
      </trkpt>
      <trkpt lat="43.43003" lon="6.0917">
        <ele>297.08508300781</ele>
        <time>2014-11-05T13:37:01Z</time>
      </trkpt>
      <trkpt lat="43.43003" lon="6.09174">
        <ele>296.71661376953</ele>
        <time>2014-11-05T13:37:03Z</time>
      </trkpt>
      <trkpt lat="43.43003" lon="6.09177">
        <ele>296.578125</ele>
        <time>2014-11-05T13:37:04Z</time>
      </trkpt>
      <trkpt lat="43.43004" lon="6.09178">
        <ele>296.52090454102</ele>
        <time>2014-11-05T13:37:05Z</time>
      </trkpt>
      <trkpt lat="43.43005" lon="6.0918">
        <ele>296.54034423828</ele>
        <time>2014-11-05T13:37:07Z</time>
      </trkpt>
      <trkpt lat="43.43005" lon="6.0918">
        <ele>296.54837036133</ele>
        <time>2014-11-05T13:37:09Z</time>
      </trkpt>
      <trkpt lat="43.43005" lon="6.0918">
        <ele>296.48083496094</ele>
        <time>2014-11-05T13:37:11Z</time>
      </trkpt>
      <trkpt lat="43.43004" lon="6.09181">
        <ele>296.35498046875</ele>
        <time>2014-11-05T13:37:15Z</time>
      </trkpt>
      <trkpt lat="43.43003" lon="6.09184">
        <ele>296.09976196289</ele>
        <time>2014-11-05T13:37:18Z</time>
      </trkpt>
      <trkpt lat="43.43004" lon="6.09185">
        <ele>296.03338623047</ele>
        <time>2014-11-05T13:37:21Z</time>
      </trkpt>
      <trkpt lat="43.43004" lon="6.09186">
        <ele>295.99102783203</ele>
        <time>2014-11-05T13:37:23Z</time>
      </trkpt>
      <trkpt lat="43.43004" lon="6.09187">
        <ele>295.93954467773</ele>
        <time>2014-11-05T13:37:25Z</time>
      </trkpt>
      <trkpt lat="43.43005" lon="6.09188">
        <ele>295.93841552734</ele>
        <time>2014-11-05T13:37:27Z</time>
      </trkpt>
      <trkpt lat="43.43003" lon="6.09188">
        <ele>295.79193115234</ele>
        <time>2014-11-05T13:37:29Z</time>
      </trkpt>
      <trkpt lat="43.43003" lon="6.09188">
        <ele>295.77130126953</ele>
        <time>2014-11-05T13:37:30Z</time>
      </trkpt>
      <trkpt lat="43.43003" lon="6.09188">
        <ele>295.75073242188</ele>
        <time>2014-11-05T13:37:31Z</time>
      </trkpt>
      <trkpt lat="43.43003" lon="6.09188">
        <ele>295.77703857422</ele>
        <time>2014-11-05T13:37:33Z</time>
      </trkpt>
      <trkpt lat="43.43003" lon="6.09188">
        <ele>295.77017211914</ele>
        <time>2014-11-05T13:37:35Z</time>
      </trkpt>
      <trkpt lat="43.43003" lon="6.09188">
        <ele>295.76672363281</ele>
        <time>2014-11-05T13:37:39Z</time>
      </trkpt>
      <trkpt lat="43.43003" lon="6.09189">
        <ele>295.7392578125</ele>
        <time>2014-11-05T13:37:45Z</time>
      </trkpt>
      <trkpt lat="43.43004" lon="6.09191">
        <ele>295.62826538086</ele>
        <time>2014-11-05T13:37:47Z</time>
      </trkpt>
      <trkpt lat="43.43004" lon="6.09194">
        <ele>295.46917724609</ele>
        <time>2014-11-05T13:37:49Z</time>
      </trkpt>
      <trkpt lat="43.43004" lon="6.09196">
        <ele>295.24029541016</ele>
        <time>2014-11-05T13:37:51Z</time>
      </trkpt>
      <trkpt lat="43.43003" lon="6.09199">
        <ele>294.98510742188</ele>
        <time>2014-11-05T13:37:52Z</time>
      </trkpt>
      <trkpt lat="43.43002" lon="6.09201">
        <ele>294.74020385742</ele>
        <time>2014-11-05T13:37:53Z</time>
      </trkpt>
      <trkpt lat="43.43002" lon="6.09204">
        <ele>294.48498535156</ele>
        <time>2014-11-05T13:37:54Z</time>
      </trkpt>
      <trkpt lat="43.43001" lon="6.09207">
        <ele>294.24237060547</ele>
        <time>2014-11-05T13:37:55Z</time>
      </trkpt>
      <trkpt lat="43.43" lon="6.0921">
        <ele>293.93566894531</ele>
        <time>2014-11-05T13:37:56Z</time>
      </trkpt>
      <trkpt lat="43.42999" lon="6.09217">
        <ele>293.37426757812</ele>
        <time>2014-11-05T13:37:58Z</time>
      </trkpt>
      <trkpt lat="43.42999" lon="6.09221">
        <ele>293.099609375</ele>
        <time>2014-11-05T13:37:59Z</time>
      </trkpt>
      <trkpt lat="43.43" lon="6.09226">
        <ele>292.75286865234</ele>
        <time>2014-11-05T13:38:00Z</time>
      </trkpt>
      <trkpt lat="43.43" lon="6.0924">
        <ele>291.70181274414</ele>
        <time>2014-11-05T13:38:03Z</time>
      </trkpt>
      <trkpt lat="43.42999" lon="6.09246">
        <ele>291.26971435547</ele>
        <time>2014-11-05T13:38:04Z</time>
      </trkpt>
      <trkpt lat="43.42999" lon="6.09252">
        <ele>290.82632446289</ele>
        <time>2014-11-05T13:38:05Z</time>
      </trkpt>
      <trkpt lat="43.42997" lon="6.09265">
        <ele>289.7741394043</ele>
        <time>2014-11-05T13:38:07Z</time>
      </trkpt>
      <trkpt lat="43.42997" lon="6.09271">
        <ele>289.24896240234</ele>
        <time>2014-11-05T13:38:08Z</time>
      </trkpt>
      <trkpt lat="43.42996" lon="6.09277">
        <ele>288.74984741211</ele>
        <time>2014-11-05T13:38:09Z</time>
      </trkpt>
      <trkpt lat="43.42996" lon="6.09291">
        <ele>287.60998535156</ele>
        <time>2014-11-05T13:38:11Z</time>
      </trkpt>
      <trkpt lat="43.42996" lon="6.09298">
        <ele>286.9856262207</ele>
        <time>2014-11-05T13:38:12Z</time>
      </trkpt>
      <trkpt lat="43.42995" lon="6.09305">
        <ele>286.43981933594</ele>
        <time>2014-11-05T13:38:13Z</time>
      </trkpt>
      <trkpt lat="43.42995" lon="6.09315">
        <ele>285.54885864258</ele>
        <time>2014-11-05T13:38:15Z</time>
      </trkpt>
      <trkpt lat="43.42994" lon="6.0932">
        <ele>285.15582275391</ele>
        <time>2014-11-05T13:38:16Z</time>
      </trkpt>
      <trkpt lat="43.42994" lon="6.09324">
        <ele>284.89022827148</ele>
        <time>2014-11-05T13:38:17Z</time>
      </trkpt>
      <trkpt lat="43.42994" lon="6.09331">
        <ele>284.27575683594</ele>
        <time>2014-11-05T13:38:19Z</time>
      </trkpt>
      <trkpt lat="43.42994" lon="6.09335">
        <ele>283.9748840332</ele>
        <time>2014-11-05T13:38:20Z</time>
      </trkpt>
      <trkpt lat="43.42995" lon="6.0934">
        <ele>283.73913574219</ele>
        <time>2014-11-05T13:38:21Z</time>
      </trkpt>
      <trkpt lat="43.42994" lon="6.0935">
        <ele>283.29968261719</ele>
        <time>2014-11-05T13:38:23Z</time>
      </trkpt>
      <trkpt lat="43.42991" lon="6.09353">
        <ele>283.17837524414</ele>
        <time>2014-11-05T13:38:24Z</time>
      </trkpt>
      <trkpt lat="43.42986" lon="6.09356">
        <ele>283.07537841797</ele>
        <time>2014-11-05T13:38:27Z</time>
      </trkpt>
      <trkpt lat="43.42985" lon="6.09361">
        <ele>282.82818603516</ele>
        <time>2014-11-05T13:38:29Z</time>
      </trkpt>
      <trkpt lat="43.42986" lon="6.09366">
        <ele>282.58099365234</ele>
        <time>2014-11-05T13:38:31Z</time>
      </trkpt>
      <trkpt lat="43.42986" lon="6.09366">
        <ele>282.59014892578</ele>
        <time>2014-11-05T13:38:33Z</time>
      </trkpt>
      <trkpt lat="43.42985" lon="6.09364">
        <ele>282.69543457031</ele>
        <time>2014-11-05T13:38:35Z</time>
      </trkpt>
      <trkpt lat="43.42985" lon="6.09363">
        <ele>282.75952148438</ele>
        <time>2014-11-05T13:38:37Z</time>
      </trkpt>
      <trkpt lat="43.42985" lon="6.0936">
        <ele>282.89227294922</ele>
        <time>2014-11-05T13:38:39Z</time>
      </trkpt>
      <trkpt lat="43.42985" lon="6.09358">
        <ele>282.9723815918</ele>
        <time>2014-11-05T13:38:41Z</time>
      </trkpt>
      <trkpt lat="43.42986" lon="6.09358">
        <ele>282.98611450195</ele>
        <time>2014-11-05T13:38:43Z</time>
      </trkpt>
      <trkpt lat="43.42986" lon="6.09358">
        <ele>282.99755859375</ele>
        <time>2014-11-05T13:38:45Z</time>
      </trkpt>
      <trkpt lat="43.42986" lon="6.09358">
        <ele>282.99298095703</ele>
        <time>2014-11-05T13:38:47Z</time>
      </trkpt>
      <trkpt lat="43.42986" lon="6.09359">
        <ele>282.95635986328</ele>
        <time>2014-11-05T13:38:49Z</time>
      </trkpt>
      <trkpt lat="43.42986" lon="6.09359">
        <ele>282.95407104492</ele>
        <time>2014-11-05T13:38:51Z</time>
      </trkpt>
      <trkpt lat="43.42986" lon="6.09359">
        <ele>282.95178222656</ele>
        <time>2014-11-05T13:38:53Z</time>
      </trkpt>
      <trkpt lat="43.42986" lon="6.09359">
        <ele>282.95407104492</ele>
        <time>2014-11-05T13:38:55Z</time>
      </trkpt>
      <trkpt lat="43.42986" lon="6.09359">
        <ele>282.95407104492</ele>
        <time>2014-11-05T13:38:59Z</time>
      </trkpt>
      <trkpt lat="43.42986" lon="6.09359">
        <ele>282.95178222656</ele>
        <time>2014-11-05T13:39:01Z</time>
      </trkpt>
      <trkpt lat="43.42986" lon="6.09359">
        <ele>282.93576049805</ele>
        <time>2014-11-05T13:39:03Z</time>
      </trkpt>
      <trkpt lat="43.42986" lon="6.09359">
        <ele>282.93118286133</ele>
        <time>2014-11-05T13:39:05Z</time>
      </trkpt>
      <trkpt lat="43.42986" lon="6.09359">
        <ele>282.93576049805</ele>
        <time>2014-11-05T13:39:07Z</time>
      </trkpt>
      <trkpt lat="43.42986" lon="6.09359">
        <ele>282.93804931641</ele>
        <time>2014-11-05T13:39:09Z</time>
      </trkpt>
      <trkpt lat="43.42986" lon="6.09359">
        <ele>282.93804931641</ele>
        <time>2014-11-05T13:39:13Z</time>
      </trkpt>
      <trkpt lat="43.42986" lon="6.09359">
        <ele>282.93804931641</ele>
        <time>2014-11-05T13:39:15Z</time>
      </trkpt>
      <trkpt lat="43.42986" lon="6.09359">
        <ele>282.93118286133</ele>
        <time>2014-11-05T13:39:17Z</time>
      </trkpt>
      <trkpt lat="43.42987" lon="6.09362">
        <ele>282.77325439453</ele>
        <time>2014-11-05T13:39:19Z</time>
      </trkpt>
      <trkpt lat="43.42987" lon="6.09367">
        <ele>282.54666137695</ele>
        <time>2014-11-05T13:39:21Z</time>
      </trkpt>
      <trkpt lat="43.42987" lon="6.09373">
        <ele>282.26284790039</ele>
        <time>2014-11-05T13:39:23Z</time>
      </trkpt>
      <trkpt lat="43.42989" lon="6.0938">
        <ele>281.90121459961</ele>
        <time>2014-11-05T13:39:25Z</time>
      </trkpt>
      <trkpt lat="43.42989" lon="6.0939">
        <ele>281.39309692383</ele>
        <time>2014-11-05T13:39:27Z</time>
      </trkpt>
      <trkpt lat="43.42989" lon="6.09401">
        <ele>280.86209106445</ele>
        <time>2014-11-05T13:39:29Z</time>
      </trkpt>
      <trkpt lat="43.42989" lon="6.09412">
        <ele>280.34481811523</ele>
        <time>2014-11-05T13:39:31Z</time>
      </trkpt>
      <trkpt lat="43.42989" lon="6.09422">
        <ele>280.12832641602</ele>
        <time>2014-11-05T13:39:33Z</time>
      </trkpt>
      <trkpt lat="43.42989" lon="6.09427">
        <ele>280.12048339844</ele>
        <time>2014-11-05T13:39:34Z</time>
      </trkpt>
      <trkpt lat="43.42988" lon="6.0943">
        <ele>280.11883544922</ele>
        <time>2014-11-05T13:39:35Z</time>
      </trkpt>
      <trkpt lat="43.42988" lon="6.09434">
        <ele>280.11294555664</ele>
        <time>2014-11-05T13:39:37Z</time>
      </trkpt>
      <trkpt lat="43.42988" lon="6.09434">
        <ele>280.11251831055</ele>
        <time>2014-11-05T13:39:39Z</time>
      </trkpt>
      <trkpt lat="43.42988" lon="6.09434">
        <ele>280.1120300293</ele>
        <time>2014-11-05T13:39:41Z</time>
      </trkpt>
      <trkpt lat="43.42988" lon="6.09434">
        <ele>280.11541748047</ele>
        <time>2014-11-05T13:39:43Z</time>
      </trkpt>
      <trkpt lat="43.42988" lon="6.09434">
        <ele>280.11526489258</ele>
        <time>2014-11-05T13:39:45Z</time>
      </trkpt>
      <trkpt lat="43.42988" lon="6.09434">
        <ele>280.11517333984</ele>
        <time>2014-11-05T13:39:47Z</time>
      </trkpt>
      <trkpt lat="43.42988" lon="6.09434">
        <ele>280.11517333984</ele>
        <time>2014-11-05T13:39:51Z</time>
      </trkpt>
      <trkpt lat="43.42988" lon="6.09434">
        <ele>280.11532592773</ele>
        <time>2014-11-05T13:40:03Z</time>
      </trkpt>
      <trkpt lat="43.42988" lon="6.09434">
        <ele>280.1155090332</ele>
        <time>2014-11-05T13:40:05Z</time>
      </trkpt>
      <trkpt lat="43.42988" lon="6.09434">
        <ele>280.11526489258</ele>
        <time>2014-11-05T13:40:07Z</time>
      </trkpt>
      <trkpt lat="43.42987" lon="6.09435">
        <ele>280.11825561523</ele>
        <time>2014-11-05T13:40:08Z</time>
      </trkpt>
      <trkpt lat="43.42987" lon="6.09435">
        <ele>280.12435913086</ele>
        <time>2014-11-05T13:40:09Z</time>
      </trkpt>
      <trkpt lat="43.42984" lon="6.09435">
        <ele>280.15383911133</ele>
        <time>2014-11-05T13:40:11Z</time>
      </trkpt>
      <trkpt lat="43.42982" lon="6.09434">
        <ele>280.17251586914</ele>
        <time>2014-11-05T13:40:12Z</time>
      </trkpt>
      <trkpt lat="43.42979" lon="6.09434">
        <ele>280.19439697266</ele>
        <time>2014-11-05T13:40:13Z</time>
      </trkpt>
      <trkpt lat="43.42974" lon="6.09436">
        <ele>280.2395324707</ele>
        <time>2014-11-05T13:40:15Z</time>
      </trkpt>
      <trkpt lat="43.4297" lon="6.0944">
        <ele>280.26553344727</ele>
        <time>2014-11-05T13:40:17Z</time>
      </trkpt>
      <trkpt lat="43.42958" lon="6.09446">
        <ele>280.32461547852</ele>
        <time>2014-11-05T13:40:21Z</time>
      </trkpt>
      <trkpt lat="43.42952" lon="6.09447">
        <ele>280.36529541016</ele>
        <time>2014-11-05T13:40:23Z</time>
      </trkpt>
      <trkpt lat="43.42946" lon="6.09446">
        <ele>280.41799926758</ele>
        <time>2014-11-05T13:40:25Z</time>
      </trkpt>
      <trkpt lat="43.4294" lon="6.09444">
        <ele>280.48910522461</ele>
        <time>2014-11-05T13:40:27Z</time>
      </trkpt>
      <trkpt lat="43.42936" lon="6.09441">
        <ele>280.53927612305</ele>
        <time>2014-11-05T13:40:28Z</time>
      </trkpt>
      <trkpt lat="43.42933" lon="6.09439">
        <ele>280.59231567383</ele>
        <time>2014-11-05T13:40:29Z</time>
      </trkpt>
      <trkpt lat="43.42926" lon="6.09434">
        <ele>280.7063293457</ele>
        <time>2014-11-05T13:40:31Z</time>
      </trkpt>
      <trkpt lat="43.42919" lon="6.0943">
        <ele>280.81954956055</ele>
        <time>2014-11-05T13:40:33Z</time>
      </trkpt>
      <trkpt lat="43.42915" lon="6.09424">
        <ele>281.58792114258</ele>
        <time>2014-11-05T13:40:35Z</time>
      </trkpt>
      <trkpt lat="43.4291" lon="6.0942">
        <ele>283.18041992188</ele>
        <time>2014-11-05T13:40:37Z</time>
      </trkpt>
      <trkpt lat="43.42903" lon="6.09412">
        <ele>285.70944213867</ele>
        <time>2014-11-05T13:40:40Z</time>
      </trkpt>
      <trkpt lat="43.42898" lon="6.0941">
        <ele>287.39392089844</ele>
        <time>2014-11-05T13:40:42Z</time>
      </trkpt>
      <trkpt lat="43.42896" lon="6.09412">
        <ele>288.09963989258</ele>
        <time>2014-11-05T13:40:43Z</time>
      </trkpt>
      <trkpt lat="43.42894" lon="6.09415">
        <ele>288.53140258789</ele>
        <time>2014-11-05T13:40:44Z</time>
      </trkpt>
      <trkpt lat="43.42892" lon="6.09423">
        <ele>289.01449584961</ele>
        <time>2014-11-05T13:40:46Z</time>
      </trkpt>
      <trkpt lat="43.42891" lon="6.09427">
        <ele>289.10037231445</ele>
        <time>2014-11-05T13:40:47Z</time>
      </trkpt>
      <trkpt lat="43.42891" lon="6.09445">
        <ele>288.59118652344</ele>
        <time>2014-11-05T13:40:51Z</time>
      </trkpt>
      <trkpt lat="43.42892" lon="6.09449">
        <ele>288.05712890625</ele>
        <time>2014-11-05T13:40:52Z</time>
      </trkpt>
      <trkpt lat="43.42893" lon="6.09454">
        <ele>287.43081665039</ele>
        <time>2014-11-05T13:40:53Z</time>
      </trkpt>
      <trkpt lat="43.42896" lon="6.09463">
        <ele>286.21090698242</ele>
        <time>2014-11-05T13:40:55Z</time>
      </trkpt>
      <trkpt lat="43.42898" lon="6.09468">
        <ele>285.50338745117</ele>
        <time>2014-11-05T13:40:56Z</time>
      </trkpt>
      <trkpt lat="43.42902" lon="6.09479">
        <ele>284.23095703125</ele>
        <time>2014-11-05T13:40:58Z</time>
      </trkpt>
      <trkpt lat="43.42902" lon="6.09484">
        <ele>283.87731933594</ele>
        <time>2014-11-05T13:40:59Z</time>
      </trkpt>
      <trkpt lat="43.42902" lon="6.09495">
        <ele>283.66015625</ele>
        <time>2014-11-05T13:41:01Z</time>
      </trkpt>
      <trkpt lat="43.42899" lon="6.09506">
        <ele>283.94509887695</ele>
        <time>2014-11-05T13:41:03Z</time>
      </trkpt>
      <trkpt lat="43.42896" lon="6.09516">
        <ele>284.28723144531</ele>
        <time>2014-11-05T13:41:05Z</time>
      </trkpt>
      <trkpt lat="43.42894" lon="6.09526">
        <ele>284.26397705078</ele>
        <time>2014-11-05T13:41:07Z</time>
      </trkpt>
      <trkpt lat="43.42892" lon="6.09536">
        <ele>284.04690551758</ele>
        <time>2014-11-05T13:41:09Z</time>
      </trkpt>
      <trkpt lat="43.42892" lon="6.09547">
        <ele>283.56576538086</ele>
        <time>2014-11-05T13:41:11Z</time>
      </trkpt>
      <trkpt lat="43.42893" lon="6.09558">
        <ele>282.78848266602</ele>
        <time>2014-11-05T13:41:13Z</time>
      </trkpt>
      <trkpt lat="43.42895" lon="6.09566">
        <ele>282.12478637695</ele>
        <time>2014-11-05T13:41:15Z</time>
      </trkpt>
      <trkpt lat="43.42896" lon="6.09574">
        <ele>281.60220336914</ele>
        <time>2014-11-05T13:41:17Z</time>
      </trkpt>
      <trkpt lat="43.42897" lon="6.09583">
        <ele>281.11895751953</ele>
        <time>2014-11-05T13:41:19Z</time>
      </trkpt>
      <trkpt lat="43.42896" lon="6.09592">
        <ele>280.99761962891</ele>
        <time>2014-11-05T13:41:21Z</time>
      </trkpt>
      <trkpt lat="43.42891" lon="6.096">
        <ele>281.09375</ele>
        <time>2014-11-05T13:41:23Z</time>
      </trkpt>
      <trkpt lat="43.42889" lon="6.09605">
        <ele>281.16320800781</ele>
        <time>2014-11-05T13:41:24Z</time>
      </trkpt>
      <trkpt lat="43.42886" lon="6.09609">
        <ele>281.21569824219</ele>
        <time>2014-11-05T13:41:25Z</time>
      </trkpt>
      <trkpt lat="43.4288" lon="6.09617">
        <ele>281.31002807617</ele>
        <time>2014-11-05T13:41:27Z</time>
      </trkpt>
      <trkpt lat="43.42876" lon="6.09622">
        <ele>281.30038452148</ele>
        <time>2014-11-05T13:41:28Z</time>
      </trkpt>
      <trkpt lat="43.42875" lon="6.09628">
        <ele>281.140625</ele>
        <time>2014-11-05T13:41:29Z</time>
      </trkpt>
      <trkpt lat="43.4287" lon="6.09639">
        <ele>280.75161743164</ele>
        <time>2014-11-05T13:41:31Z</time>
      </trkpt>
      <trkpt lat="43.42866" lon="6.09649">
        <ele>280.32824707031</ele>
        <time>2014-11-05T13:41:33Z</time>
      </trkpt>
      <trkpt lat="43.42862" lon="6.0966">
        <ele>279.76727294922</ele>
        <time>2014-11-05T13:41:35Z</time>
      </trkpt>
      <trkpt lat="43.42859" lon="6.09665">
        <ele>279.49645996094</ele>
        <time>2014-11-05T13:41:36Z</time>
      </trkpt>
      <trkpt lat="43.42857" lon="6.0967">
        <ele>279.2744140625</ele>
        <time>2014-11-05T13:41:37Z</time>
      </trkpt>
      <trkpt lat="43.42851" lon="6.0968">
        <ele>278.78842163086</ele>
        <time>2014-11-05T13:41:39Z</time>
      </trkpt>
      <trkpt lat="43.42848" lon="6.09686">
        <ele>278.48187255859</ele>
        <time>2014-11-05T13:41:40Z</time>
      </trkpt>
      <trkpt lat="43.42845" lon="6.09691">
        <ele>278.16778564453</ele>
        <time>2014-11-05T13:41:41Z</time>
      </trkpt>
      <trkpt lat="43.42842" lon="6.09698">
        <ele>277.76275634766</ele>
        <time>2014-11-05T13:41:42Z</time>
      </trkpt>
      <trkpt lat="43.42839" lon="6.09704">
        <ele>277.34567260742</ele>
        <time>2014-11-05T13:41:43Z</time>
      </trkpt>
      <trkpt lat="43.42832" lon="6.09714">
        <ele>276.60610961914</ele>
        <time>2014-11-05T13:41:45Z</time>
      </trkpt>
      <trkpt lat="43.42829" lon="6.0972">
        <ele>276.30087280273</ele>
        <time>2014-11-05T13:41:46Z</time>
      </trkpt>
      <trkpt lat="43.42825" lon="6.09724">
        <ele>275.98901367188</ele>
        <time>2014-11-05T13:41:47Z</time>
      </trkpt>
      <trkpt lat="43.42819" lon="6.09733">
        <ele>275.29086303711</ele>
        <time>2014-11-05T13:41:49Z</time>
      </trkpt>
      <trkpt lat="43.42813" lon="6.09744">
        <ele>274.32223510742</ele>
        <time>2014-11-05T13:41:51Z</time>
      </trkpt>
      <trkpt lat="43.42807" lon="6.09755">
        <ele>273.35397338867</ele>
        <time>2014-11-05T13:41:53Z</time>
      </trkpt>
      <trkpt lat="43.42794" lon="6.09769">
        <ele>271.99392700195</ele>
        <time>2014-11-05T13:41:57Z</time>
      </trkpt>
      <trkpt lat="43.42791" lon="6.09771">
        <ele>271.69473266602</ele>
        <time>2014-11-05T13:41:58Z</time>
      </trkpt>
      <trkpt lat="43.42787" lon="6.09773">
        <ele>271.38137817383</ele>
        <time>2014-11-05T13:41:59Z</time>
      </trkpt>
      <trkpt lat="43.42778" lon="6.09776">
        <ele>270.83044433594</ele>
        <time>2014-11-05T13:42:01Z</time>
      </trkpt>
      <trkpt lat="43.42768" lon="6.09779">
        <ele>270.18807983398</ele>
        <time>2014-11-05T13:42:03Z</time>
      </trkpt>
      <trkpt lat="43.42759" lon="6.0978">
        <ele>269.71865844727</ele>
        <time>2014-11-05T13:42:05Z</time>
      </trkpt>
      <trkpt lat="43.42749" lon="6.09777">
        <ele>269.72714233398</ele>
        <time>2014-11-05T13:42:07Z</time>
      </trkpt>
      <trkpt lat="43.42741" lon="6.09771">
        <ele>270.54583740234</ele>
        <time>2014-11-05T13:42:09Z</time>
      </trkpt>
      <trkpt lat="43.42732" lon="6.09766">
        <ele>271.23434448242</ele>
        <time>2014-11-05T13:42:11Z</time>
      </trkpt>
      <trkpt lat="43.42722" lon="6.09765">
        <ele>271.41192626953</ele>
        <time>2014-11-05T13:42:13Z</time>
      </trkpt>
      <trkpt lat="43.42713" lon="6.09765">
        <ele>271.46646118164</ele>
        <time>2014-11-05T13:42:15Z</time>
      </trkpt>
      <trkpt lat="43.42702" lon="6.09766">
        <ele>271.49411010742</ele>
        <time>2014-11-05T13:42:17Z</time>
      </trkpt>
      <trkpt lat="43.42697" lon="6.09767">
        <ele>271.36022949219</ele>
        <time>2014-11-05T13:42:18Z</time>
      </trkpt>
      <trkpt lat="43.42692" lon="6.09769">
        <ele>271.14810180664</ele>
        <time>2014-11-05T13:42:19Z</time>
      </trkpt>
      <trkpt lat="43.42682" lon="6.09771">
        <ele>270.85470581055</ele>
        <time>2014-11-05T13:42:21Z</time>
      </trkpt>
      <trkpt lat="43.42677" lon="6.09774">
        <ele>270.46054077148</ele>
        <time>2014-11-05T13:42:22Z</time>
      </trkpt>
      <trkpt lat="43.42673" lon="6.09777">
        <ele>270.1291809082</ele>
        <time>2014-11-05T13:42:23Z</time>
      </trkpt>
      <trkpt lat="43.42669" lon="6.0978">
        <ele>269.70428466797</ele>
        <time>2014-11-05T13:42:24Z</time>
      </trkpt>
      <trkpt lat="43.42667" lon="6.09781">
        <ele>269.51495361328</ele>
        <time>2014-11-05T13:42:25Z</time>
      </trkpt>
      <trkpt lat="43.42666" lon="6.09784">
        <ele>269.18994140625</ele>
        <time>2014-11-05T13:42:27Z</time>
      </trkpt>
      <trkpt lat="43.42667" lon="6.09786">
        <ele>268.79000854492</ele>
        <time>2014-11-05T13:42:29Z</time>
      </trkpt>
      <trkpt lat="43.42666" lon="6.09794">
        <ele>267.76171875</ele>
        <time>2014-11-05T13:42:32Z</time>
      </trkpt>
      <trkpt lat="43.42664" lon="6.09796">
        <ele>267.55801391602</ele>
        <time>2014-11-05T13:42:33Z</time>
      </trkpt>
      <trkpt lat="43.42661" lon="6.09802">
        <ele>266.98580932617</ele>
        <time>2014-11-05T13:42:35Z</time>
      </trkpt>
      <trkpt lat="43.42654" lon="6.09808">
        <ele>266.64706420898</ele>
        <time>2014-11-05T13:42:37Z</time>
      </trkpt>
      <trkpt lat="43.42651" lon="6.09811">
        <ele>266.46395874023</ele>
        <time>2014-11-05T13:42:38Z</time>
      </trkpt>
      <trkpt lat="43.42649" lon="6.09814">
        <ele>266.24880981445</ele>
        <time>2014-11-05T13:42:39Z</time>
      </trkpt>
      <trkpt lat="43.42644" lon="6.09822">
        <ele>265.53469848633</ele>
        <time>2014-11-05T13:42:41Z</time>
      </trkpt>
      <trkpt lat="43.42642" lon="6.09831">
        <ele>264.41775512695</ele>
        <time>2014-11-05T13:42:43Z</time>
      </trkpt>
      <trkpt lat="43.42643" lon="6.09842">
        <ele>263.60406494141</ele>
        <time>2014-11-05T13:42:45Z</time>
      </trkpt>
      <trkpt lat="43.42643" lon="6.09864">
        <ele>262.66342163086</ele>
        <time>2014-11-05T13:42:49Z</time>
      </trkpt>
      <trkpt lat="43.42643" lon="6.09876">
        <ele>262.08877563477</ele>
        <time>2014-11-05T13:42:51Z</time>
      </trkpt>
      <trkpt lat="43.42642" lon="6.09883">
        <ele>261.83114624023</ele>
        <time>2014-11-05T13:42:52Z</time>
      </trkpt>
      <trkpt lat="43.42643" lon="6.09888">
        <ele>261.59530639648</ele>
        <time>2014-11-05T13:42:53Z</time>
      </trkpt>
      <trkpt lat="43.42645" lon="6.09896">
        <ele>261.14749145508</ele>
        <time>2014-11-05T13:42:55Z</time>
      </trkpt>
      <trkpt lat="43.4265" lon="6.09899">
        <ele>260.87368774414</ele>
        <time>2014-11-05T13:42:57Z</time>
      </trkpt>
      <trkpt lat="43.42655" lon="6.09901">
        <ele>260.66598510742</ele>
        <time>2014-11-05T13:42:59Z</time>
      </trkpt>
      <trkpt lat="43.42659" lon="6.09903">
        <ele>260.5207824707</ele>
        <time>2014-11-05T13:43:01Z</time>
      </trkpt>
      <trkpt lat="43.42663" lon="6.09905">
        <ele>260.3681640625</ele>
        <time>2014-11-05T13:43:03Z</time>
      </trkpt>
      <trkpt lat="43.42668" lon="6.09908">
        <ele>260.31924438477</ele>
        <time>2014-11-05T13:43:05Z</time>
      </trkpt>
      <trkpt lat="43.42672" lon="6.09913">
        <ele>260.73696899414</ele>
        <time>2014-11-05T13:43:07Z</time>
      </trkpt>
      <trkpt lat="43.42675" lon="6.09921">
        <ele>261.10922241211</ele>
        <time>2014-11-05T13:43:09Z</time>
      </trkpt>
      <trkpt lat="43.42676" lon="6.09925">
        <ele>261.2673034668</ele>
        <time>2014-11-05T13:43:10Z</time>
      </trkpt>
      <trkpt lat="43.42677" lon="6.09929">
        <ele>261.38342285156</ele>
        <time>2014-11-05T13:43:11Z</time>
      </trkpt>
      <trkpt lat="43.42677" lon="6.09938">
        <ele>261.52847290039</ele>
        <time>2014-11-05T13:43:13Z</time>
      </trkpt>
      <trkpt lat="43.42675" lon="6.09946">
        <ele>261.46395874023</ele>
        <time>2014-11-05T13:43:15Z</time>
      </trkpt>
      <trkpt lat="43.42673" lon="6.0995">
        <ele>261.31552124023</ele>
        <time>2014-11-05T13:43:16Z</time>
      </trkpt>
      <trkpt lat="43.42669" lon="6.09958">
        <ele>260.85763549805</ele>
        <time>2014-11-05T13:43:19Z</time>
      </trkpt>
      <trkpt lat="43.42668" lon="6.09961">
        <ele>260.73727416992</ele>
        <time>2014-11-05T13:43:20Z</time>
      </trkpt>
      <trkpt lat="43.42667" lon="6.09964">
        <ele>260.66873168945</ele>
        <time>2014-11-05T13:43:21Z</time>
      </trkpt>
      <trkpt lat="43.42665" lon="6.0997">
        <ele>260.62060546875</ele>
        <time>2014-11-05T13:43:23Z</time>
      </trkpt>
      <trkpt lat="43.42664" lon="6.09975">
        <ele>260.66510009766</ele>
        <time>2014-11-05T13:43:24Z</time>
      </trkpt>
      <trkpt lat="43.42664" lon="6.09979">
        <ele>260.70504760742</ele>
        <time>2014-11-05T13:43:25Z</time>
      </trkpt>
      <trkpt lat="43.42664" lon="6.09983">
        <ele>260.74688720703</ele>
        <time>2014-11-05T13:43:26Z</time>
      </trkpt>
      <trkpt lat="43.42665" lon="6.09986">
        <ele>260.79299926758</ele>
        <time>2014-11-05T13:43:27Z</time>
      </trkpt>
      <trkpt lat="43.42665" lon="6.09991">
        <ele>260.86846923828</ele>
        <time>2014-11-05T13:43:29Z</time>
      </trkpt>
      <trkpt lat="43.42666" lon="6.09993">
        <ele>260.90447998047</ele>
        <time>2014-11-05T13:43:30Z</time>
      </trkpt>
      <trkpt lat="43.42667" lon="6.09996">
        <ele>260.94519042969</ele>
        <time>2014-11-05T13:43:31Z</time>
      </trkpt>
      <trkpt lat="43.42667" lon="6.1">
        <ele>261.04879760742</ele>
        <time>2014-11-05T13:43:33Z</time>
      </trkpt>
      <trkpt lat="43.42667" lon="6.10002">
        <ele>261.55444335938</ele>
        <time>2014-11-05T13:43:34Z</time>
      </trkpt>
      <trkpt lat="43.42669" lon="6.10009">
        <ele>262.94415283203</ele>
        <time>2014-11-05T13:43:37Z</time>
      </trkpt>
      <trkpt lat="43.42671" lon="6.10019">
        <ele>264.9460144043</ele>
        <time>2014-11-05T13:43:41Z</time>
      </trkpt>
      <trkpt lat="43.42672" lon="6.10022">
        <ele>265.49368286133</ele>
        <time>2014-11-05T13:43:42Z</time>
      </trkpt>
      <trkpt lat="43.42673" lon="6.10024">
        <ele>266.05548095703</ele>
        <time>2014-11-05T13:43:43Z</time>
      </trkpt>
      <trkpt lat="43.42675" lon="6.10028">
        <ele>266.96130371094</ele>
        <time>2014-11-05T13:43:45Z</time>
      </trkpt>
      <trkpt lat="43.42678" lon="6.10031">
        <ele>267.74798583984</ele>
        <time>2014-11-05T13:43:47Z</time>
      </trkpt>
      <trkpt lat="43.42679" lon="6.10032">
        <ele>268.14031982422</ele>
        <time>2014-11-05T13:43:48Z</time>
      </trkpt>
      <trkpt lat="43.42684" lon="6.10036">
        <ele>269.10083007812</ele>
        <time>2014-11-05T13:43:51Z</time>
      </trkpt>
      <trkpt lat="43.4269" lon="6.1004">
        <ele>270.33926391602</ele>
        <time>2014-11-05T13:43:55Z</time>
      </trkpt>
      <trkpt lat="43.42693" lon="6.10042">
        <ele>270.87979125977</ele>
        <time>2014-11-05T13:43:57Z</time>
      </trkpt>
      <trkpt lat="43.42697" lon="6.10043">
        <ele>271.39987182617</ele>
        <time>2014-11-05T13:43:59Z</time>
      </trkpt>
      <trkpt lat="43.42701" lon="6.10044">
        <ele>271.88888549805</ele>
        <time>2014-11-05T13:44:01Z</time>
      </trkpt>
      <trkpt lat="43.42706" lon="6.10046">
        <ele>272.55313110352</ele>
        <time>2014-11-05T13:44:04Z</time>
      </trkpt>
      <trkpt lat="43.42713" lon="6.10047">
        <ele>273.22164916992</ele>
        <time>2014-11-05T13:44:07Z</time>
      </trkpt>
      <trkpt lat="43.42717" lon="6.10047">
        <ele>273.55426025391</ele>
        <time>2014-11-05T13:44:09Z</time>
      </trkpt>
      <trkpt lat="43.42723" lon="6.10047">
        <ele>274.06256103516</ele>
        <time>2014-11-05T13:44:13Z</time>
      </trkpt>
      <trkpt lat="43.42727" lon="6.10047">
        <ele>274.31301879883</ele>
        <time>2014-11-05T13:44:15Z</time>
      </trkpt>
      <trkpt lat="43.4273" lon="6.10046">
        <ele>274.59967041016</ele>
        <time>2014-11-05T13:44:17Z</time>
      </trkpt>
      <trkpt lat="43.42732" lon="6.10046">
        <ele>274.74993896484</ele>
        <time>2014-11-05T13:44:18Z</time>
      </trkpt>
      <trkpt lat="43.42733" lon="6.10046">
        <ele>274.85528564453</ele>
        <time>2014-11-05T13:44:19Z</time>
      </trkpt>
      <trkpt lat="43.42736" lon="6.10047">
        <ele>275.05429077148</ele>
        <time>2014-11-05T13:44:21Z</time>
      </trkpt>
      <trkpt lat="43.42739" lon="6.10046">
        <ele>275.28659057617</ele>
        <time>2014-11-05T13:44:23Z</time>
      </trkpt>
      <trkpt lat="43.42741" lon="6.10046">
        <ele>275.44741821289</ele>
        <time>2014-11-05T13:44:24Z</time>
      </trkpt>
      <trkpt lat="43.42742" lon="6.10047">
        <ele>275.59375</ele>
        <time>2014-11-05T13:44:25Z</time>
      </trkpt>
      <trkpt lat="43.42745" lon="6.10048">
        <ele>275.88543701172</ele>
        <time>2014-11-05T13:44:27Z</time>
      </trkpt>
      <trkpt lat="43.42747" lon="6.1005">
        <ele>276.18853759766</ele>
        <time>2014-11-05T13:44:29Z</time>
      </trkpt>
      <trkpt lat="43.42749" lon="6.1005">
        <ele>276.32015991211</ele>
        <time>2014-11-05T13:44:30Z</time>
      </trkpt>
      <trkpt lat="43.4275" lon="6.10051">
        <ele>276.44635009766</ele>
        <time>2014-11-05T13:44:31Z</time>
      </trkpt>
      <trkpt lat="43.42752" lon="6.10054">
        <ele>276.72821044922</ele>
        <time>2014-11-05T13:44:33Z</time>
      </trkpt>
      <trkpt lat="43.42755" lon="6.10056">
        <ele>277.07144165039</ele>
        <time>2014-11-05T13:44:36Z</time>
      </trkpt>
      <trkpt lat="43.42758" lon="6.10058">
        <ele>277.36590576172</ele>
        <time>2014-11-05T13:44:39Z</time>
      </trkpt>
      <trkpt lat="43.4276" lon="6.10059">
        <ele>277.58135986328</ele>
        <time>2014-11-05T13:44:41Z</time>
      </trkpt>
      <trkpt lat="43.42764" lon="6.10064">
        <ele>278.10195922852</ele>
        <time>2014-11-05T13:44:45Z</time>
      </trkpt>
      <trkpt lat="43.4277" lon="6.10068">
        <ele>278.72607421875</ele>
        <time>2014-11-05T13:44:50Z</time>
      </trkpt>
      <trkpt lat="43.4277" lon="6.10069">
        <ele>278.82992553711</ele>
        <time>2014-11-05T13:44:51Z</time>
      </trkpt>
      <trkpt lat="43.42772" lon="6.10069">
        <ele>278.91467285156</ele>
        <time>2014-11-05T13:44:52Z</time>
      </trkpt>
      <trkpt lat="43.42776" lon="6.10069">
        <ele>279.2409362793</ele>
        <time>2014-11-05T13:44:55Z</time>
      </trkpt>
      <trkpt lat="43.42778" lon="6.10071">
        <ele>279.49633789062</ele>
        <time>2014-11-05T13:44:57Z</time>
      </trkpt>
      <trkpt lat="43.42781" lon="6.10073">
        <ele>279.77746582031</ele>
        <time>2014-11-05T13:44:59Z</time>
      </trkpt>
      <trkpt lat="43.42784" lon="6.10076">
        <ele>280.12084960938</ele>
        <time>2014-11-05T13:45:01Z</time>
      </trkpt>
      <trkpt lat="43.42786" lon="6.10079">
        <ele>280.39300537109</ele>
        <time>2014-11-05T13:45:03Z</time>
      </trkpt>
      <trkpt lat="43.42788" lon="6.10083">
        <ele>280.70516967773</ele>
        <time>2014-11-05T13:45:05Z</time>
      </trkpt>
      <trkpt lat="43.42792" lon="6.10091">
        <ele>281.1969909668</ele>
        <time>2014-11-05T13:45:09Z</time>
      </trkpt>
      <trkpt lat="43.42793" lon="6.10093">
        <ele>281.32525634766</ele>
        <time>2014-11-05T13:45:10Z</time>
      </trkpt>
      <trkpt lat="43.42794" lon="6.10096">
        <ele>281.45547485352</ele>
        <time>2014-11-05T13:45:11Z</time>
      </trkpt>
      <trkpt lat="43.42794" lon="6.10101">
        <ele>281.60443115234</ele>
        <time>2014-11-05T13:45:13Z</time>
      </trkpt>
      <trkpt lat="43.42794" lon="6.10103">
        <ele>281.66198730469</ele>
        <time>2014-11-05T13:45:14Z</time>
      </trkpt>
      <trkpt lat="43.42795" lon="6.10106">
        <ele>281.74673461914</ele>
        <time>2014-11-05T13:45:15Z</time>
      </trkpt>
      <trkpt lat="43.42796" lon="6.10111">
        <ele>281.92810058594</ele>
        <time>2014-11-05T13:45:17Z</time>
      </trkpt>
      <trkpt lat="43.42797" lon="6.10115">
        <ele>282.07165527344</ele>
        <time>2014-11-05T13:45:19Z</time>
      </trkpt>
      <trkpt lat="43.42797" lon="6.10118">
        <ele>282.17803955078</ele>
        <time>2014-11-05T13:45:21Z</time>
      </trkpt>
      <trkpt lat="43.42798" lon="6.10127">
        <ele>282.43231201172</ele>
        <time>2014-11-05T13:45:25Z</time>
      </trkpt>
      <trkpt lat="43.428" lon="6.1013">
        <ele>282.6005859375</ele>
        <time>2014-11-05T13:45:27Z</time>
      </trkpt>
      <trkpt lat="43.42801" lon="6.10132">
        <ele>282.68099975586</ele>
        <time>2014-11-05T13:45:28Z</time>
      </trkpt>
      <trkpt lat="43.42803" lon="6.10137">
        <ele>282.92376708984</ele>
        <time>2014-11-05T13:45:31Z</time>
      </trkpt>
      <trkpt lat="43.42803" lon="6.10139">
        <ele>282.99069213867</ele>
        <time>2014-11-05T13:45:32Z</time>
      </trkpt>
      <trkpt lat="43.42805" lon="6.10145">
        <ele>283.18881225586</ele>
        <time>2014-11-05T13:45:35Z</time>
      </trkpt>
      <trkpt lat="43.42809" lon="6.10155">
        <ele>283.59466552734</ele>
        <time>2014-11-05T13:45:41Z</time>
      </trkpt>
      <trkpt lat="43.42809" lon="6.10159">
        <ele>283.6813659668</ele>
        <time>2014-11-05T13:45:43Z</time>
      </trkpt>
      <trkpt lat="43.4281" lon="6.10165">
        <ele>283.82730102539</ele>
        <time>2014-11-05T13:45:46Z</time>
      </trkpt>
      <trkpt lat="43.42811" lon="6.10171">
        <ele>284.16119384766</ele>
        <time>2014-11-05T13:45:49Z</time>
      </trkpt>
      <trkpt lat="43.42812" lon="6.10176">
        <ele>284.44088745117</ele>
        <time>2014-11-05T13:45:51Z</time>
      </trkpt>
      <trkpt lat="43.42813" lon="6.1018">
        <ele>284.71466064453</ele>
        <time>2014-11-05T13:45:53Z</time>
      </trkpt>
      <trkpt lat="43.42813" lon="6.10185">
        <ele>284.9479675293</ele>
        <time>2014-11-05T13:45:55Z</time>
      </trkpt>
      <trkpt lat="43.42812" lon="6.10189">
        <ele>285.1203918457</ele>
        <time>2014-11-05T13:45:57Z</time>
      </trkpt>
      <trkpt lat="43.42811" lon="6.10195">
        <ele>285.36480712891</ele>
        <time>2014-11-05T13:45:59Z</time>
      </trkpt>
      <trkpt lat="43.4281" lon="6.10197">
        <ele>285.45812988281</ele>
        <time>2014-11-05T13:46:00Z</time>
      </trkpt>
      <trkpt lat="43.4281" lon="6.10203">
        <ele>285.77365112305</ele>
        <time>2014-11-05T13:46:03Z</time>
      </trkpt>
      <trkpt lat="43.42811" lon="6.10207">
        <ele>285.97811889648</ele>
        <time>2014-11-05T13:46:05Z</time>
      </trkpt>
      <trkpt lat="43.42812" lon="6.10209">
        <ele>286.13708496094</ele>
        <time>2014-11-05T13:46:06Z</time>
      </trkpt>
      <trkpt lat="43.42813" lon="6.10212">
        <ele>286.3405456543</ele>
        <time>2014-11-05T13:46:07Z</time>
      </trkpt>
      <trkpt lat="43.42814" lon="6.10215">
        <ele>286.52471923828</ele>
        <time>2014-11-05T13:46:09Z</time>
      </trkpt>
      <trkpt lat="43.42816" lon="6.10216">
        <ele>286.67413330078</ele>
        <time>2014-11-05T13:46:11Z</time>
      </trkpt>
      <trkpt lat="43.42818" lon="6.10219">
        <ele>286.89340209961</ele>
        <time>2014-11-05T13:46:13Z</time>
      </trkpt>
      <trkpt lat="43.4282" lon="6.1022">
        <ele>286.98718261719</ele>
        <time>2014-11-05T13:46:14Z</time>
      </trkpt>
      <trkpt lat="43.4282" lon="6.10221">
        <ele>287.09408569336</ele>
        <time>2014-11-05T13:46:15Z</time>
      </trkpt>
      <trkpt lat="43.42821" lon="6.10223">
        <ele>287.22198486328</ele>
        <time>2014-11-05T13:46:16Z</time>
      </trkpt>
      <trkpt lat="43.42821" lon="6.10224">
        <ele>287.27893066406</ele>
        <time>2014-11-05T13:46:17Z</time>
      </trkpt>
      <trkpt lat="43.42822" lon="6.10224">
        <ele>287.30355834961</ele>
        <time>2014-11-05T13:46:18Z</time>
      </trkpt>
      <trkpt lat="43.42822" lon="6.10224">
        <ele>287.30355834961</ele>
        <time>2014-11-05T13:46:19Z</time>
      </trkpt>
      <trkpt lat="43.42821" lon="6.10224">
        <ele>287.28842163086</ele>
        <time>2014-11-05T13:46:20Z</time>
      </trkpt>
      <trkpt lat="43.42821" lon="6.10224">
        <ele>287.27182006836</ele>
        <time>2014-11-05T13:46:21Z</time>
      </trkpt>
      <trkpt lat="43.42822" lon="6.10224">
        <ele>287.26089477539</ele>
        <time>2014-11-05T13:46:23Z</time>
      </trkpt>
      <trkpt lat="43.42822" lon="6.10224">
        <ele>287.2585144043</ele>
        <time>2014-11-05T13:46:27Z</time>
      </trkpt>
      <trkpt lat="43.42821" lon="6.10224">
        <ele>287.24572753906</ele>
        <time>2014-11-05T13:46:29Z</time>
      </trkpt>
      <trkpt lat="43.42821" lon="6.10224">
        <ele>287.25283813477</ele>
        <time>2014-11-05T13:46:31Z</time>
      </trkpt>
      <trkpt lat="43.42821" lon="6.10224">
        <ele>287.25283813477</ele>
        <time>2014-11-05T13:46:33Z</time>
      </trkpt>
      <trkpt lat="43.42821" lon="6.10224">
        <ele>287.23529052734</ele>
        <time>2014-11-05T13:46:35Z</time>
      </trkpt>
      <trkpt lat="43.42821" lon="6.10224">
        <ele>287.23052978516</ele>
        <time>2014-11-05T13:46:37Z</time>
      </trkpt>
      <trkpt lat="43.4282" lon="6.10223">
        <ele>287.21060180664</ele>
        <time>2014-11-05T13:46:39Z</time>
      </trkpt>
      <trkpt lat="43.4282" lon="6.10223">
        <ele>287.18206787109</ele>
        <time>2014-11-05T13:46:41Z</time>
      </trkpt>
      <trkpt lat="43.4282" lon="6.10223">
        <ele>287.15017700195</ele>
        <time>2014-11-05T13:46:43Z</time>
      </trkpt>
      <trkpt lat="43.4282" lon="6.10222">
        <ele>287.1301574707</ele>
        <time>2014-11-05T13:46:49Z</time>
      </trkpt>
      <trkpt lat="43.4282" lon="6.10222">
        <ele>287.12637329102</ele>
        <time>2014-11-05T13:46:55Z</time>
      </trkpt>
      <trkpt lat="43.4282" lon="6.10222">
        <ele>287.11685180664</ele>
        <time>2014-11-05T13:46:57Z</time>
      </trkpt>
      <trkpt lat="43.4282" lon="6.10222">
        <ele>287.10971069336</ele>
        <time>2014-11-05T13:46:59Z</time>
      </trkpt>
      <trkpt lat="43.4282" lon="6.10222">
        <ele>287.08728027344</ele>
        <time>2014-11-05T13:47:01Z</time>
      </trkpt>
      <trkpt lat="43.4282" lon="6.10221">
        <ele>287.07534790039</ele>
        <time>2014-11-05T13:47:03Z</time>
      </trkpt>
      <trkpt lat="43.42819" lon="6.10221">
        <ele>287.04574584961</ele>
        <time>2014-11-05T13:47:05Z</time>
      </trkpt>
      <trkpt lat="43.4282" lon="6.10221">
        <ele>287.05865478516</ele>
        <time>2014-11-05T13:47:07Z</time>
      </trkpt>
      <trkpt lat="43.4282" lon="6.10221">
        <ele>287.03961181641</ele>
        <time>2014-11-05T13:47:09Z</time>
      </trkpt>
      <trkpt lat="43.4282" lon="6.1022">
        <ele>287.01815795898</ele>
        <time>2014-11-05T13:47:10Z</time>
      </trkpt>
      <trkpt lat="43.4282" lon="6.1022">
        <ele>286.98718261719</ele>
        <time>2014-11-05T13:47:11Z</time>
      </trkpt>
      <trkpt lat="43.4282" lon="6.10219">
        <ele>286.97637939453</ele>
        <time>2014-11-05T13:47:12Z</time>
      </trkpt>
      <trkpt lat="43.4282" lon="6.10219">
        <ele>286.93713378906</ele>
        <time>2014-11-05T13:47:13Z</time>
      </trkpt>
      <trkpt lat="43.42819" lon="6.10218">
        <ele>286.87872314453</ele>
        <time>2014-11-05T13:47:15Z</time>
      </trkpt>
      <trkpt lat="43.42819" lon="6.10217">
        <ele>286.84649658203</ele>
        <time>2014-11-05T13:47:17Z</time>
      </trkpt>
      <trkpt lat="43.42819" lon="6.10217">
        <ele>286.84173583984</ele>
        <time>2014-11-05T13:47:19Z</time>
      </trkpt>
      <trkpt lat="43.42818" lon="6.10219">
        <ele>286.86703491211</ele>
        <time>2014-11-05T13:47:22Z</time>
      </trkpt>
      <trkpt lat="43.42817" lon="6.10219">
        <ele>286.85397338867</ele>
        <time>2014-11-05T13:47:23Z</time>
      </trkpt>
      <trkpt lat="43.42817" lon="6.10219">
        <ele>286.87557983398</ele>
        <time>2014-11-05T13:47:25Z</time>
      </trkpt>
      <trkpt lat="43.42817" lon="6.10219">
        <ele>286.88037109375</ele>
        <time>2014-11-05T13:47:27Z</time>
      </trkpt>
      <trkpt lat="43.42817" lon="6.10219">
        <ele>286.86254882812</ele>
        <time>2014-11-05T13:47:29Z</time>
      </trkpt>
      <trkpt lat="43.42817" lon="6.10219">
        <ele>286.86254882812</ele>
        <time>2014-11-05T13:47:31Z</time>
      </trkpt>
      <trkpt lat="43.42817" lon="6.10219">
        <ele>286.86737060547</ele>
        <time>2014-11-05T13:47:33Z</time>
      </trkpt>
      <trkpt lat="43.42817" lon="6.10219">
        <ele>286.86737060547</ele>
        <time>2014-11-05T13:47:39Z</time>
      </trkpt>
      <trkpt lat="43.42817" lon="6.10219">
        <ele>286.86737060547</ele>
        <time>2014-11-05T13:47:47Z</time>
      </trkpt>
      <trkpt lat="43.42817" lon="6.10219">
        <ele>286.86737060547</ele>
        <time>2014-11-05T13:47:51Z</time>
      </trkpt>
      <trkpt lat="43.42817" lon="6.10219">
        <ele>286.88278198242</ele>
        <time>2014-11-05T13:47:53Z</time>
      </trkpt>
      <trkpt lat="43.42817" lon="6.10219">
        <ele>286.88037109375</ele>
        <time>2014-11-05T13:47:55Z</time>
      </trkpt>
      <trkpt lat="43.42817" lon="6.10219">
        <ele>286.88037109375</ele>
        <time>2014-11-05T13:47:59Z</time>
      </trkpt>
      <trkpt lat="43.42817" lon="6.10219">
        <ele>286.87316894531</ele>
        <time>2014-11-05T13:48:17Z</time>
      </trkpt>
      <trkpt lat="43.42817" lon="6.10219">
        <ele>286.87316894531</ele>
        <time>2014-11-05T13:48:37Z</time>
      </trkpt>
      <trkpt lat="43.42817" lon="6.10219">
        <ele>286.85775756836</ele>
        <time>2014-11-05T13:48:39Z</time>
      </trkpt>
      <trkpt lat="43.42817" lon="6.10219">
        <ele>286.85775756836</ele>
        <time>2014-11-05T13:48:45Z</time>
      </trkpt>
      <trkpt lat="43.42817" lon="6.10219">
        <ele>286.85775756836</ele>
        <time>2014-11-05T13:48:51Z</time>
      </trkpt>
      <trkpt lat="43.42817" lon="6.10219">
        <ele>286.87316894531</ele>
        <time>2014-11-05T13:48:53Z</time>
      </trkpt>
      <trkpt lat="43.42817" lon="6.10219">
        <ele>286.87316894531</ele>
        <time>2014-11-05T13:48:57Z</time>
      </trkpt>
      <trkpt lat="43.42817" lon="6.10219">
        <ele>286.87078857422</ele>
        <time>2014-11-05T13:48:59Z</time>
      </trkpt>
      <trkpt lat="43.42817" lon="6.10219">
        <ele>286.85534667969</ele>
        <time>2014-11-05T13:49:01Z</time>
      </trkpt>
      <trkpt lat="43.42817" lon="6.10219">
        <ele>286.87316894531</ele>
        <time>2014-11-05T13:49:07Z</time>
      </trkpt>
      <trkpt lat="43.42817" lon="6.10219">
        <ele>286.87557983398</ele>
        <time>2014-11-05T13:49:09Z</time>
      </trkpt>
      <trkpt lat="43.42817" lon="6.10219">
        <ele>286.87796020508</ele>
        <time>2014-11-05T13:49:11Z</time>
      </trkpt>
      <trkpt lat="43.42817" lon="6.10219">
        <ele>286.88516235352</ele>
        <time>2014-11-05T13:49:33Z</time>
      </trkpt>
      <trkpt lat="43.42817" lon="6.10219">
        <ele>286.88757324219</ele>
        <time>2014-11-05T13:49:47Z</time>
      </trkpt>
      <trkpt lat="43.42817" lon="6.1022">
        <ele>286.88995361328</ele>
        <time>2014-11-05T13:49:49Z</time>
      </trkpt>
      <trkpt lat="43.42817" lon="6.10219">
        <ele>286.87216186523</ele>
        <time>2014-11-05T13:49:51Z</time>
      </trkpt>
      <trkpt lat="43.42817" lon="6.1022">
        <ele>286.87457275391</ele>
        <time>2014-11-05T13:49:53Z</time>
      </trkpt>
      <trkpt lat="43.42816" lon="6.10221">
        <ele>286.90872192383</ele>
        <time>2014-11-05T13:49:55Z</time>
      </trkpt>
      <trkpt lat="43.42815" lon="6.10224">
        <ele>287.00933837891</ele>
        <time>2014-11-05T13:49:57Z</time>
      </trkpt>
      <trkpt lat="43.42812" lon="6.10227">
        <ele>287.04690551758</ele>
        <time>2014-11-05T13:49:59Z</time>
      </trkpt>
      <trkpt lat="43.4281" lon="6.10229">
        <ele>287.09414672852</ele>
        <time>2014-11-05T13:50:01Z</time>
      </trkpt>
      <trkpt lat="43.42807" lon="6.10233">
        <ele>287.17767333984</ele>
        <time>2014-11-05T13:50:03Z</time>
      </trkpt>
      <trkpt lat="43.42805" lon="6.10237">
        <ele>287.29568481445</ele>
        <time>2014-11-05T13:50:05Z</time>
      </trkpt>
      <trkpt lat="43.42803" lon="6.1024">
        <ele>287.37313842773</ele>
        <time>2014-11-05T13:50:07Z</time>
      </trkpt>
      <trkpt lat="43.42801" lon="6.10244">
        <ele>287.49676513672</ele>
        <time>2014-11-05T13:50:09Z</time>
      </trkpt>
      <trkpt lat="43.428" lon="6.10246">
        <ele>287.60098266602</ele>
        <time>2014-11-05T13:50:10Z</time>
      </trkpt>
      <trkpt lat="43.428" lon="6.10249">
        <ele>287.71301269531</ele>
        <time>2014-11-05T13:50:11Z</time>
      </trkpt>
      <trkpt lat="43.428" lon="6.10251">
        <ele>287.88394165039</ele>
        <time>2014-11-05T13:50:12Z</time>
      </trkpt>
      <trkpt lat="43.42801" lon="6.10254">
        <ele>288.07946777344</ele>
        <time>2014-11-05T13:50:13Z</time>
      </trkpt>
      <trkpt lat="43.42802" lon="6.10255">
        <ele>288.21896362305</ele>
        <time>2014-11-05T13:50:14Z</time>
      </trkpt>
      <trkpt lat="43.42804" lon="6.10256">
        <ele>288.32989501953</ele>
        <time>2014-11-05T13:50:15Z</time>
      </trkpt>
      <trkpt lat="43.42806" lon="6.10256">
        <ele>288.44342041016</ele>
        <time>2014-11-05T13:50:16Z</time>
      </trkpt>
      <trkpt lat="43.42808" lon="6.10256">
        <ele>288.51702880859</ele>
        <time>2014-11-05T13:50:17Z</time>
      </trkpt>
      <trkpt lat="43.42813" lon="6.10256">
        <ele>288.67602539062</ele>
        <time>2014-11-05T13:50:19Z</time>
      </trkpt>
      <trkpt lat="43.42815" lon="6.10256">
        <ele>288.77694702148</ele>
        <time>2014-11-05T13:50:20Z</time>
      </trkpt>
      <trkpt lat="43.42817" lon="6.10257">
        <ele>288.88720703125</ele>
        <time>2014-11-05T13:50:21Z</time>
      </trkpt>
      <trkpt lat="43.42821" lon="6.10259">
        <ele>289.14544677734</ele>
        <time>2014-11-05T13:50:23Z</time>
      </trkpt>
      <trkpt lat="43.42824" lon="6.1026">
        <ele>289.39712524414</ele>
        <time>2014-11-05T13:50:25Z</time>
      </trkpt>
      <trkpt lat="43.42825" lon="6.10261">
        <ele>289.49743652344</ele>
        <time>2014-11-05T13:50:26Z</time>
      </trkpt>
      <trkpt lat="43.42829" lon="6.10263">
        <ele>289.74725341797</ele>
        <time>2014-11-05T13:50:28Z</time>
      </trkpt>
      <trkpt lat="43.42831" lon="6.10261">
        <ele>289.74487304688</ele>
        <time>2014-11-05T13:50:29Z</time>
      </trkpt>
      <trkpt lat="43.42833" lon="6.1026">
        <ele>289.70678710938</ele>
        <time>2014-11-05T13:50:30Z</time>
      </trkpt>
      <trkpt lat="43.42834" lon="6.10257">
        <ele>289.60516357422</ele>
        <time>2014-11-05T13:50:31Z</time>
      </trkpt>
      <trkpt lat="43.42835" lon="6.10252">
        <ele>289.3896484375</ele>
        <time>2014-11-05T13:50:33Z</time>
      </trkpt>
      <trkpt lat="43.42836" lon="6.1025">
        <ele>289.2568359375</ele>
        <time>2014-11-05T13:50:34Z</time>
      </trkpt>
      <trkpt lat="43.42837" lon="6.10248">
        <ele>289.31265258789</ele>
        <time>2014-11-05T13:50:35Z</time>
      </trkpt>
      <trkpt lat="43.42841" lon="6.10248">
        <ele>289.78839111328</ele>
        <time>2014-11-05T13:50:37Z</time>
      </trkpt>
      <trkpt lat="43.42844" lon="6.10251">
        <ele>290.31518554688</ele>
        <time>2014-11-05T13:50:39Z</time>
      </trkpt>
      <trkpt lat="43.42847" lon="6.10255">
        <ele>290.99365234375</ele>
        <time>2014-11-05T13:50:41Z</time>
      </trkpt>
      <trkpt lat="43.42851" lon="6.10258">
        <ele>291.6071472168</ele>
        <time>2014-11-05T13:50:43Z</time>
      </trkpt>
      <trkpt lat="43.42854" lon="6.1026">
        <ele>292.10290527344</ele>
        <time>2014-11-05T13:50:45Z</time>
      </trkpt>
      <trkpt lat="43.42856" lon="6.10262">
        <ele>292.36782836914</ele>
        <time>2014-11-05T13:50:46Z</time>
      </trkpt>
      <trkpt lat="43.42857" lon="6.10264">
        <ele>292.58178710938</ele>
        <time>2014-11-05T13:50:47Z</time>
      </trkpt>
      <trkpt lat="43.42858" lon="6.10266">
        <ele>292.84481811523</ele>
        <time>2014-11-05T13:50:48Z</time>
      </trkpt>
      <trkpt lat="43.42858" lon="6.10269">
        <ele>292.97732543945</ele>
        <time>2014-11-05T13:50:49Z</time>
      </trkpt>
      <trkpt lat="43.42855" lon="6.10273">
        <ele>292.96435546875</ele>
        <time>2014-11-05T13:50:51Z</time>
      </trkpt>
      <trkpt lat="43.42855" lon="6.10277">
        <ele>293.12921142578</ele>
        <time>2014-11-05T13:50:53Z</time>
      </trkpt>
      <trkpt lat="43.42855" lon="6.10279">
        <ele>293.30126953125</ele>
        <time>2014-11-05T13:50:54Z</time>
      </trkpt>
      <trkpt lat="43.42855" lon="6.10282">
        <ele>293.42156982422</ele>
        <time>2014-11-05T13:50:55Z</time>
      </trkpt>
      <trkpt lat="43.42856" lon="6.10285">
        <ele>293.66790771484</ele>
        <time>2014-11-05T13:50:57Z</time>
      </trkpt>
      <trkpt lat="43.4286" lon="6.10286">
        <ele>294.07275390625</ele>
        <time>2014-11-05T13:50:59Z</time>
      </trkpt>
      <trkpt lat="43.42861" lon="6.10287">
        <ele>294.26574707031</ele>
        <time>2014-11-05T13:51:00Z</time>
      </trkpt>
      <trkpt lat="43.42862" lon="6.10287">
        <ele>294.37744140625</ele>
        <time>2014-11-05T13:51:01Z</time>
      </trkpt>
      <trkpt lat="43.42866" lon="6.10287">
        <ele>294.69296264648</ele>
        <time>2014-11-05T13:51:03Z</time>
      </trkpt>
      <trkpt lat="43.42869" lon="6.10288">
        <ele>295.05963134766</ele>
        <time>2014-11-05T13:51:05Z</time>
      </trkpt>
      <trkpt lat="43.42871" lon="6.10289">
        <ele>295.28112792969</ele>
        <time>2014-11-05T13:51:07Z</time>
      </trkpt>
      <trkpt lat="43.42873" lon="6.10291">
        <ele>295.52682495117</ele>
        <time>2014-11-05T13:51:09Z</time>
      </trkpt>
      <trkpt lat="43.42874" lon="6.10294">
        <ele>295.72283935547</ele>
        <time>2014-11-05T13:51:11Z</time>
      </trkpt>
      <trkpt lat="43.42875" lon="6.10297">
        <ele>295.95660400391</ele>
        <time>2014-11-05T13:51:13Z</time>
      </trkpt>
      <trkpt lat="43.42875" lon="6.10297">
        <ele>295.98266601562</ele>
        <time>2014-11-05T13:51:15Z</time>
      </trkpt>
      <trkpt lat="43.42875" lon="6.10298">
        <ele>296.03137207031</ele>
        <time>2014-11-05T13:51:16Z</time>
      </trkpt>
      <trkpt lat="43.42875" lon="6.10298">
        <ele>296.0393371582</ele>
        <time>2014-11-05T13:51:17Z</time>
      </trkpt>
      <trkpt lat="43.42875" lon="6.10299">
        <ele>296.04083251953</ele>
        <time>2014-11-05T13:51:21Z</time>
      </trkpt>
      <trkpt lat="43.42875" lon="6.10299">
        <ele>296.0368347168</ele>
        <time>2014-11-05T13:51:23Z</time>
      </trkpt>
      <trkpt lat="43.42875" lon="6.10299">
        <ele>296.07321166992</ele>
        <time>2014-11-05T13:51:27Z</time>
      </trkpt>
      <trkpt lat="43.42875" lon="6.10299">
        <ele>296.07522583008</ele>
        <time>2014-11-05T13:51:31Z</time>
      </trkpt>
      <trkpt lat="43.42875" lon="6.10299">
        <ele>296.07720947266</ele>
        <time>2014-11-05T13:51:39Z</time>
      </trkpt>
      <trkpt lat="43.42875" lon="6.10299">
        <ele>296.07720947266</ele>
        <time>2014-11-05T13:51:59Z</time>
      </trkpt>
      <trkpt lat="43.42875" lon="6.103">
        <ele>296.10510253906</ele>
        <time>2014-11-05T13:52:01Z</time>
      </trkpt>
      <trkpt lat="43.42876" lon="6.10301">
        <ele>296.20657348633</ele>
        <time>2014-11-05T13:52:03Z</time>
      </trkpt>
      <trkpt lat="43.42875" lon="6.10303">
        <ele>296.25854492188</ele>
        <time>2014-11-05T13:52:05Z</time>
      </trkpt>
      <trkpt lat="43.42875" lon="6.1031">
        <ele>296.47686767578</ele>
        <time>2014-11-05T13:52:09Z</time>
      </trkpt>
      <trkpt lat="43.42872" lon="6.10315">
        <ele>296.49099731445</ele>
        <time>2014-11-05T13:52:11Z</time>
      </trkpt>
      <trkpt lat="43.4287" lon="6.10322">
        <ele>296.63397216797</ele>
        <time>2014-11-05T13:52:13Z</time>
      </trkpt>
      <trkpt lat="43.4287" lon="6.10327">
        <ele>296.92340087891</ele>
        <time>2014-11-05T13:52:15Z</time>
      </trkpt>
      <trkpt lat="43.42871" lon="6.10333">
        <ele>297.26791381836</ele>
        <time>2014-11-05T13:52:17Z</time>
      </trkpt>
      <trkpt lat="43.42872" lon="6.1034">
        <ele>297.35241699219</ele>
        <time>2014-11-05T13:52:19Z</time>
      </trkpt>
      <trkpt lat="43.42872" lon="6.10343">
        <ele>297.39721679688</ele>
        <time>2014-11-05T13:52:20Z</time>
      </trkpt>
      <trkpt lat="43.42873" lon="6.10346">
        <ele>297.43893432617</ele>
        <time>2014-11-05T13:52:21Z</time>
      </trkpt>
      <trkpt lat="43.42872" lon="6.10349">
        <ele>297.43536376953</ele>
        <time>2014-11-05T13:52:22Z</time>
      </trkpt>
      <trkpt lat="43.42871" lon="6.10351">
        <ele>297.40466308594</ele>
        <time>2014-11-05T13:52:23Z</time>
      </trkpt>
      <trkpt lat="43.42869" lon="6.10354">
        <ele>297.27331542969</ele>
        <time>2014-11-05T13:52:25Z</time>
      </trkpt>
      <trkpt lat="43.42867" lon="6.10355">
        <ele>297.17047119141</ele>
        <time>2014-11-05T13:52:26Z</time>
      </trkpt>
      <trkpt lat="43.42865" lon="6.10356">
        <ele>297.08795166016</ele>
        <time>2014-11-05T13:52:27Z</time>
      </trkpt>
      <trkpt lat="43.42864" lon="6.10356">
        <ele>297.00531005859</ele>
        <time>2014-11-05T13:52:28Z</time>
      </trkpt>
      <trkpt lat="43.42862" lon="6.10356">
        <ele>296.89678955078</ele>
        <time>2014-11-05T13:52:29Z</time>
      </trkpt>
      <trkpt lat="43.42859" lon="6.10355">
        <ele>296.736328125</ele>
        <time>2014-11-05T13:52:31Z</time>
      </trkpt>
      <trkpt lat="43.42858" lon="6.10354">
        <ele>296.64309692383</ele>
        <time>2014-11-05T13:52:32Z</time>
      </trkpt>
      <trkpt lat="43.42857" lon="6.10354">
        <ele>296.57705688477</ele>
        <time>2014-11-05T13:52:33Z</time>
      </trkpt>
      <trkpt lat="43.42855" lon="6.10356">
        <ele>296.50619506836</ele>
        <time>2014-11-05T13:52:35Z</time>
      </trkpt>
      <trkpt lat="43.42856" lon="6.10359">
        <ele>296.59518432617</ele>
        <time>2014-11-05T13:52:37Z</time>
      </trkpt>
      <trkpt lat="43.42859" lon="6.1036">
        <ele>296.73086547852</ele>
        <time>2014-11-05T13:52:39Z</time>
      </trkpt>
      <trkpt lat="43.42862" lon="6.10359">
        <ele>296.89559936523</ele>
        <time>2014-11-05T13:52:41Z</time>
      </trkpt>
      <trkpt lat="43.42863" lon="6.10358">
        <ele>296.97567749023</ele>
        <time>2014-11-05T13:52:42Z</time>
      </trkpt>
      <trkpt lat="43.42865" lon="6.10358">
        <ele>297.08047485352</ele>
        <time>2014-11-05T13:52:43Z</time>
      </trkpt>
      <trkpt lat="43.42868" lon="6.10358">
        <ele>297.27941894531</ele>
        <time>2014-11-05T13:52:45Z</time>
      </trkpt>
      <trkpt lat="43.4287" lon="6.10359">
        <ele>297.34881591797</ele>
        <time>2014-11-05T13:52:46Z</time>
      </trkpt>
      <trkpt lat="43.42874" lon="6.10362">
        <ele>297.60357666016</ele>
        <time>2014-11-05T13:52:50Z</time>
      </trkpt>
      <trkpt lat="43.42875" lon="6.10363">
        <ele>297.65051269531</ele>
        <time>2014-11-05T13:52:51Z</time>
      </trkpt>
      <trkpt lat="43.42877" lon="6.10364">
        <ele>297.78332519531</ele>
        <time>2014-11-05T13:52:54Z</time>
      </trkpt>
      <trkpt lat="43.42879" lon="6.10364">
        <ele>297.8923034668</ele>
        <time>2014-11-05T13:52:55Z</time>
      </trkpt>
      <trkpt lat="43.42882" lon="6.10366">
        <ele>298.08941650391</ele>
        <time>2014-11-05T13:52:57Z</time>
      </trkpt>
      <trkpt lat="43.42886" lon="6.10369">
        <ele>298.29718017578</ele>
        <time>2014-11-05T13:52:59Z</time>
      </trkpt>
      <trkpt lat="43.42887" lon="6.10377">
        <ele>298.39196777344</ele>
        <time>2014-11-05T13:53:01Z</time>
      </trkpt>
      <trkpt lat="43.42886" lon="6.10392">
        <ele>298.41567993164</ele>
        <time>2014-11-05T13:53:04Z</time>
      </trkpt>
      <trkpt lat="43.42886" lon="6.10396">
        <ele>298.41519165039</ele>
        <time>2014-11-05T13:53:05Z</time>
      </trkpt>
      <trkpt lat="43.42885" lon="6.10407">
        <ele>298.42636108398</ele>
        <time>2014-11-05T13:53:07Z</time>
      </trkpt>
      <trkpt lat="43.42883" lon="6.10412">
        <ele>298.37728881836</ele>
        <time>2014-11-05T13:53:08Z</time>
      </trkpt>
      <trkpt lat="43.42881" lon="6.10417">
        <ele>298.30020141602</ele>
        <time>2014-11-05T13:53:09Z</time>
      </trkpt>
      <trkpt lat="43.42878" lon="6.10426">
        <ele>298.04959106445</ele>
        <time>2014-11-05T13:53:11Z</time>
      </trkpt>
      <trkpt lat="43.42877" lon="6.10433">
        <ele>297.89453125</ele>
        <time>2014-11-05T13:53:13Z</time>
      </trkpt>
      <trkpt lat="43.42876" lon="6.10435">
        <ele>297.83502197266</ele>
        <time>2014-11-05T13:53:14Z</time>
      </trkpt>
      <trkpt lat="43.42875" lon="6.10436">
        <ele>297.78692626953</ele>
        <time>2014-11-05T13:53:15Z</time>
      </trkpt>
      <trkpt lat="43.42874" lon="6.10438">
        <ele>297.69882202148</ele>
        <time>2014-11-05T13:53:17Z</time>
      </trkpt>
      <trkpt lat="43.42876" lon="6.1044">
        <ele>297.76861572266</ele>
        <time>2014-11-05T13:53:19Z</time>
      </trkpt>
      <trkpt lat="43.42877" lon="6.10439">
        <ele>297.81784057617</ele>
        <time>2014-11-05T13:53:20Z</time>
      </trkpt>
      <trkpt lat="43.42878" lon="6.10436">
        <ele>297.89624023438</ele>
        <time>2014-11-05T13:53:22Z</time>
      </trkpt>
      <trkpt lat="43.42878" lon="6.10434">
        <ele>297.91741943359</ele>
        <time>2014-11-05T13:53:23Z</time>
      </trkpt>
      <trkpt lat="43.42878" lon="6.1043">
        <ele>297.99807739258</ele>
        <time>2014-11-05T13:53:25Z</time>
      </trkpt>
      <trkpt lat="43.42879" lon="6.10423">
        <ele>298.09820556641</ele>
        <time>2014-11-05T13:53:29Z</time>
      </trkpt>
      <trkpt lat="43.4288" lon="6.1042">
        <ele>298.19207763672</ele>
        <time>2014-11-05T13:53:31Z</time>
      </trkpt>
      <trkpt lat="43.42881" lon="6.10417">
        <ele>298.26992797852</ele>
        <time>2014-11-05T13:53:33Z</time>
      </trkpt>
      <trkpt lat="43.42881" lon="6.10413">
        <ele>298.28912353516</ele>
        <time>2014-11-05T13:53:35Z</time>
      </trkpt>
      <trkpt lat="43.42883" lon="6.10409">
        <ele>298.32495117188</ele>
        <time>2014-11-05T13:53:37Z</time>
      </trkpt>
      <trkpt lat="43.42883" lon="6.10407">
        <ele>298.3134765625</ele>
        <time>2014-11-05T13:53:38Z</time>
      </trkpt>
      <trkpt lat="43.4288" lon="6.10402">
        <ele>298.17260742188</ele>
        <time>2014-11-05T13:53:41Z</time>
      </trkpt>
      <trkpt lat="43.42877" lon="6.10399">
        <ele>297.9880065918</ele>
        <time>2014-11-05T13:53:43Z</time>
      </trkpt>
      <trkpt lat="43.42873" lon="6.10401">
        <ele>297.82269287109</ele>
        <time>2014-11-05T13:53:45Z</time>
      </trkpt>
      <trkpt lat="43.42871" lon="6.10402">
        <ele>297.73760986328</ele>
        <time>2014-11-05T13:53:46Z</time>
      </trkpt>
      <trkpt lat="43.4287" lon="6.10404">
        <ele>297.65054321289</ele>
        <time>2014-11-05T13:53:47Z</time>
      </trkpt>
      <trkpt lat="43.42867" lon="6.10406">
        <ele>297.51690673828</ele>
        <time>2014-11-05T13:53:49Z</time>
      </trkpt>
      <trkpt lat="43.42863" lon="6.10407">
        <ele>297.37237548828</ele>
        <time>2014-11-05T13:53:51Z</time>
      </trkpt>
      <trkpt lat="43.42861" lon="6.10406">
        <ele>297.23205566406</ele>
        <time>2014-11-05T13:53:53Z</time>
      </trkpt>
      <trkpt lat="43.42857" lon="6.10405">
        <ele>297.01263427734</ele>
        <time>2014-11-05T13:53:55Z</time>
      </trkpt>
      <trkpt lat="43.42851" lon="6.10404">
        <ele>296.71810913086</ele>
        <time>2014-11-05T13:53:57Z</time>
      </trkpt>
      <trkpt lat="43.42847" lon="6.10402">
        <ele>296.51443481445</ele>
        <time>2014-11-05T13:53:59Z</time>
      </trkpt>
      <trkpt lat="43.42844" lon="6.104">
        <ele>296.34066772461</ele>
        <time>2014-11-05T13:54:01Z</time>
      </trkpt>
      <trkpt lat="43.42842" lon="6.10399">
        <ele>296.25259399414</ele>
        <time>2014-11-05T13:54:02Z</time>
      </trkpt>
      <trkpt lat="43.42841" lon="6.10398">
        <ele>296.17929077148</ele>
        <time>2014-11-05T13:54:03Z</time>
      </trkpt>
      <trkpt lat="43.4284" lon="6.10394">
        <ele>296.06021118164</ele>
        <time>2014-11-05T13:54:05Z</time>
      </trkpt>
      <trkpt lat="43.42838" lon="6.1039">
        <ele>295.93676757812</ele>
        <time>2014-11-05T13:54:07Z</time>
      </trkpt>
      <trkpt lat="43.42836" lon="6.10384">
        <ele>295.76678466797</ele>
        <time>2014-11-05T13:54:10Z</time>
      </trkpt>
      <trkpt lat="43.42835" lon="6.10378">
        <ele>295.6149597168</ele>
        <time>2014-11-05T13:54:13Z</time>
      </trkpt>
      <trkpt lat="43.42833" lon="6.10374">
        <ele>295.49145507812</ele>
        <time>2014-11-05T13:54:15Z</time>
      </trkpt>
      <trkpt lat="43.42833" lon="6.1037">
        <ele>295.40560913086</ele>
        <time>2014-11-05T13:54:17Z</time>
      </trkpt>
      <trkpt lat="43.42831" lon="6.10367">
        <ele>295.29174804688</ele>
        <time>2014-11-05T13:54:19Z</time>
      </trkpt>
      <trkpt lat="43.4283" lon="6.10364">
        <ele>295.2053527832</ele>
        <time>2014-11-05T13:54:21Z</time>
      </trkpt>
      <trkpt lat="43.42828" lon="6.10362">
        <ele>295.10577392578</ele>
        <time>2014-11-05T13:54:23Z</time>
      </trkpt>
      <trkpt lat="43.42827" lon="6.10361">
        <ele>295.01480102539</ele>
        <time>2014-11-05T13:54:25Z</time>
      </trkpt>
      <trkpt lat="43.42826" lon="6.10361">
        <ele>294.99993896484</ele>
        <time>2014-11-05T13:54:27Z</time>
      </trkpt>
      <trkpt lat="43.42827" lon="6.10361">
        <ele>295.01824951172</ele>
        <time>2014-11-05T13:54:29Z</time>
      </trkpt>
      <trkpt lat="43.42826" lon="6.10361">
        <ele>294.99935913086</ele>
        <time>2014-11-05T13:54:31Z</time>
      </trkpt>
      <trkpt lat="43.42826" lon="6.10361">
        <ele>294.99935913086</ele>
        <time>2014-11-05T13:54:35Z</time>
      </trkpt>
      <trkpt lat="43.42826" lon="6.10361">
        <ele>294.99877929688</ele>
        <time>2014-11-05T13:54:37Z</time>
      </trkpt>
      <trkpt lat="43.42826" lon="6.10361">
        <ele>294.99761962891</ele>
        <time>2014-11-05T13:54:39Z</time>
      </trkpt>
      <trkpt lat="43.42826" lon="6.1036">
        <ele>294.99362182617</ele>
        <time>2014-11-05T13:54:41Z</time>
      </trkpt>
      <trkpt lat="43.42825" lon="6.10358">
        <ele>294.91296386719</ele>
        <time>2014-11-05T13:54:43Z</time>
      </trkpt>
      <trkpt lat="43.42824" lon="6.10356">
        <ele>294.81909179688</ele>
        <time>2014-11-05T13:54:45Z</time>
      </trkpt>
      <trkpt lat="43.42821" lon="6.10356">
        <ele>294.68865966797</ele>
        <time>2014-11-05T13:54:47Z</time>
      </trkpt>
      <trkpt lat="43.42819" lon="6.10358">
        <ele>294.60052490234</ele>
        <time>2014-11-05T13:54:49Z</time>
      </trkpt>
      <trkpt lat="43.42818" lon="6.10359">
        <ele>294.56274414062</ele>
        <time>2014-11-05T13:54:50Z</time>
      </trkpt>
      <trkpt lat="43.42817" lon="6.10361">
        <ele>294.52899169922</ele>
        <time>2014-11-05T13:54:51Z</time>
      </trkpt>
      <trkpt lat="43.42815" lon="6.10363">
        <ele>294.48208618164</ele>
        <time>2014-11-05T13:54:52Z</time>
      </trkpt>
      <trkpt lat="43.42813" lon="6.10366">
        <ele>294.4345703125</ele>
        <time>2014-11-05T13:54:53Z</time>
      </trkpt>
      <trkpt lat="43.42811" lon="6.1037">
        <ele>294.36190795898</ele>
        <time>2014-11-05T13:54:55Z</time>
      </trkpt>
      <trkpt lat="43.42809" lon="6.10375">
        <ele>294.34130859375</ele>
        <time>2014-11-05T13:54:57Z</time>
      </trkpt>
      <trkpt lat="43.42808" lon="6.10378">
        <ele>294.31384277344</ele>
        <time>2014-11-05T13:54:59Z</time>
      </trkpt>
      <trkpt lat="43.42805" lon="6.10382">
        <ele>294.22631835938</ele>
        <time>2014-11-05T13:55:01Z</time>
      </trkpt>
      <trkpt lat="43.42803" lon="6.10386">
        <ele>294.16165161133</ele>
        <time>2014-11-05T13:55:04Z</time>
      </trkpt>
      <trkpt lat="43.42802" lon="6.10387">
        <ele>294.12045288086</ele>
        <time>2014-11-05T13:55:05Z</time>
      </trkpt>
      <trkpt lat="43.42799" lon="6.10389">
        <ele>294.01974487305</ele>
        <time>2014-11-05T13:55:07Z</time>
      </trkpt>
      <trkpt lat="43.42796" lon="6.10391">
        <ele>293.91903686523</ele>
        <time>2014-11-05T13:55:09Z</time>
      </trkpt>
      <trkpt lat="43.42791" lon="6.10396">
        <ele>293.73764038086</ele>
        <time>2014-11-05T13:55:13Z</time>
      </trkpt>
      <trkpt lat="43.42789" lon="6.10399">
        <ele>293.65924072266</ele>
        <time>2014-11-05T13:55:15Z</time>
      </trkpt>
      <trkpt lat="43.42786" lon="6.10404">
        <ele>293.5940246582</ele>
        <time>2014-11-05T13:55:18Z</time>
      </trkpt>
      <trkpt lat="43.42786" lon="6.10406">
        <ele>293.6220703125</ele>
        <time>2014-11-05T13:55:19Z</time>
      </trkpt>
      <trkpt lat="43.42786" lon="6.10411">
        <ele>293.68212890625</ele>
        <time>2014-11-05T13:55:21Z</time>
      </trkpt>
      <trkpt lat="43.42787" lon="6.10413">
        <ele>293.74392700195</ele>
        <time>2014-11-05T13:55:22Z</time>
      </trkpt>
      <trkpt lat="43.42789" lon="6.10419">
        <ele>293.85247802734</ele>
        <time>2014-11-05T13:55:25Z</time>
      </trkpt>
      <trkpt lat="43.4279" lon="6.10422">
        <ele>293.8444519043</ele>
        <time>2014-11-05T13:55:27Z</time>
      </trkpt>
      <trkpt lat="43.42791" lon="6.10426">
        <ele>293.83758544922</ele>
        <time>2014-11-05T13:55:29Z</time>
      </trkpt>
      <trkpt lat="43.42791" lon="6.10429">
        <ele>293.83471679688</ele>
        <time>2014-11-05T13:55:31Z</time>
      </trkpt>
      <trkpt lat="43.42792" lon="6.10433">
        <ele>293.8278503418</ele>
        <time>2014-11-05T13:55:33Z</time>
      </trkpt>
      <trkpt lat="43.42793" lon="6.10437">
        <ele>293.79867553711</ele>
        <time>2014-11-05T13:55:35Z</time>
      </trkpt>
      <trkpt lat="43.42794" lon="6.10445">
        <ele>293.79696655273</ele>
        <time>2014-11-05T13:55:39Z</time>
      </trkpt>
      <trkpt lat="43.42796" lon="6.10455">
        <ele>293.76663208008</ele>
        <time>2014-11-05T13:55:44Z</time>
      </trkpt>
      <trkpt lat="43.42796" lon="6.10457">
        <ele>293.74374389648</ele>
        <time>2014-11-05T13:55:45Z</time>
      </trkpt>
      <trkpt lat="43.42797" lon="6.10461">
        <ele>293.75177001953</ele>
        <time>2014-11-05T13:55:47Z</time>
      </trkpt>
      <trkpt lat="43.42799" lon="6.10471">
        <ele>293.70367431641</ele>
        <time>2014-11-05T13:55:51Z</time>
      </trkpt>
      <trkpt lat="43.42799" lon="6.10476">
        <ele>293.65505981445</ele>
        <time>2014-11-05T13:55:53Z</time>
      </trkpt>
      <trkpt lat="43.42801" lon="6.10482">
        <ele>293.63674926758</ele>
        <time>2014-11-05T13:55:55Z</time>
      </trkpt>
      <trkpt lat="43.42801" lon="6.10489">
        <ele>293.58123779297</ele>
        <time>2014-11-05T13:55:57Z</time>
      </trkpt>
      <trkpt lat="43.42802" lon="6.10495">
        <ele>293.56005859375</ele>
        <time>2014-11-05T13:55:59Z</time>
      </trkpt>
      <trkpt lat="43.42803" lon="6.10501">
        <ele>293.53546142578</ele>
        <time>2014-11-05T13:56:01Z</time>
      </trkpt>
      <trkpt lat="43.42804" lon="6.10509">
        <ele>293.50170898438</ele>
        <time>2014-11-05T13:56:03Z</time>
      </trkpt>
      <trkpt lat="43.42805" lon="6.10513">
        <ele>293.48797607422</ele>
        <time>2014-11-05T13:56:04Z</time>
      </trkpt>
      <trkpt lat="43.42807" lon="6.10522">
        <ele>293.4782409668</ele>
        <time>2014-11-05T13:56:06Z</time>
      </trkpt>
      <trkpt lat="43.42808" lon="6.10525">
        <ele>293.48626708984</ele>
        <time>2014-11-05T13:56:07Z</time>
      </trkpt>
      <trkpt lat="43.42811" lon="6.10534">
        <ele>293.53146362305</ele>
        <time>2014-11-05T13:56:09Z</time>
      </trkpt>
      <trkpt lat="43.42814" lon="6.10544">
        <ele>293.556640625</ele>
        <time>2014-11-05T13:56:11Z</time>
      </trkpt>
      <trkpt lat="43.42817" lon="6.1055">
        <ele>293.59783935547</ele>
        <time>2014-11-05T13:56:12Z</time>
      </trkpt>
      <trkpt lat="43.42818" lon="6.10555">
        <ele>293.62243652344</ele>
        <time>2014-11-05T13:56:13Z</time>
      </trkpt>
      <trkpt lat="43.42822" lon="6.10566">
        <ele>293.67221069336</ele>
        <time>2014-11-05T13:56:15Z</time>
      </trkpt>
      <trkpt lat="43.42829" lon="6.10584">
        <ele>293.7712097168</ele>
        <time>2014-11-05T13:56:18Z</time>
      </trkpt>
      <trkpt lat="43.4283" lon="6.1059">
        <ele>293.75289916992</ele>
        <time>2014-11-05T13:56:19Z</time>
      </trkpt>
      <trkpt lat="43.42832" lon="6.10602">
        <ele>293.69683837891</ele>
        <time>2014-11-05T13:56:21Z</time>
      </trkpt>
      <trkpt lat="43.42835" lon="6.10618">
        <ele>293.65441894531</ele>
        <time>2014-11-05T13:56:23Z</time>
      </trkpt>
      <trkpt lat="43.42838" lon="6.10634">
        <ele>293.58767700195</ele>
        <time>2014-11-05T13:56:25Z</time>
      </trkpt>
      <trkpt lat="43.42838" lon="6.1065">
        <ele>293.35894775391</ele>
        <time>2014-11-05T13:56:27Z</time>
      </trkpt>
      <trkpt lat="43.42835" lon="6.10667">
        <ele>293.05041503906</ele>
        <time>2014-11-05T13:56:29Z</time>
      </trkpt>
      <trkpt lat="43.42834" lon="6.10676">
        <ele>292.81237792969</ele>
        <time>2014-11-05T13:56:30Z</time>
      </trkpt>
      <trkpt lat="43.42834" lon="6.10685">
        <ele>292.59722900391</ele>
        <time>2014-11-05T13:56:31Z</time>
      </trkpt>
      <trkpt lat="43.42834" lon="6.10693">
        <ele>292.38549804688</ele>
        <time>2014-11-05T13:56:32Z</time>
      </trkpt>
      <trkpt lat="43.42834" lon="6.10715">
        <ele>291.85565185547</ele>
        <time>2014-11-05T13:56:35Z</time>
      </trkpt>
      <trkpt lat="43.42834" lon="6.10722">
        <ele>291.67596435547</ele>
        <time>2014-11-05T13:56:36Z</time>
      </trkpt>
      <trkpt lat="43.42836" lon="6.10742">
        <ele>291.26742553711</ele>
        <time>2014-11-05T13:56:39Z</time>
      </trkpt>
      <trkpt lat="43.42836" lon="6.10749">
        <ele>291.11178588867</ele>
        <time>2014-11-05T13:56:40Z</time>
      </trkpt>
      <trkpt lat="43.42836" lon="6.10756">
        <ele>290.88568115234</ele>
        <time>2014-11-05T13:56:41Z</time>
      </trkpt>
      <trkpt lat="43.42835" lon="6.10771">
        <ele>290.3210144043</ele>
        <time>2014-11-05T13:56:43Z</time>
      </trkpt>
      <trkpt lat="43.42835" lon="6.10779">
        <ele>290.04043579102</ele>
        <time>2014-11-05T13:56:44Z</time>
      </trkpt>
      <trkpt lat="43.42834" lon="6.10785">
        <ele>289.75930786133</ele>
        <time>2014-11-05T13:56:45Z</time>
      </trkpt>
      <trkpt lat="43.42833" lon="6.108">
        <ele>289.18508911133</ele>
        <time>2014-11-05T13:56:47Z</time>
      </trkpt>
      <trkpt lat="43.42831" lon="6.10807">
        <ele>288.87951660156</ele>
        <time>2014-11-05T13:56:48Z</time>
      </trkpt>
      <trkpt lat="43.42828" lon="6.10827">
        <ele>288.01950073242</ele>
        <time>2014-11-05T13:56:51Z</time>
      </trkpt>
      <trkpt lat="43.42826" lon="6.10842">
        <ele>287.51867675781</ele>
        <time>2014-11-05T13:56:53Z</time>
      </trkpt>
      <trkpt lat="43.42823" lon="6.10856">
        <ele>287.03863525391</ele>
        <time>2014-11-05T13:56:55Z</time>
      </trkpt>
      <trkpt lat="43.42821" lon="6.10863">
        <ele>286.79022216797</ele>
        <time>2014-11-05T13:56:56Z</time>
      </trkpt>
      <trkpt lat="43.42818" lon="6.10869">
        <ele>286.52291870117</ele>
        <time>2014-11-05T13:56:57Z</time>
      </trkpt>
      <trkpt lat="43.42813" lon="6.10883">
        <ele>285.91250610352</ele>
        <time>2014-11-05T13:56:59Z</time>
      </trkpt>
      <trkpt lat="43.42811" lon="6.10892">
        <ele>285.5859375</ele>
        <time>2014-11-05T13:57:00Z</time>
      </trkpt>
      <trkpt lat="43.4281" lon="6.10901">
        <ele>285.2893371582</ele>
        <time>2014-11-05T13:57:01Z</time>
      </trkpt>
      <trkpt lat="43.42809" lon="6.1091">
        <ele>284.99856567383</ele>
        <time>2014-11-05T13:57:02Z</time>
      </trkpt>
      <trkpt lat="43.42809" lon="6.1092">
        <ele>284.71075439453</ele>
        <time>2014-11-05T13:57:03Z</time>
      </trkpt>
      <trkpt lat="43.42809" lon="6.1093">
        <ele>284.37518310547</ele>
        <time>2014-11-05T13:57:04Z</time>
      </trkpt>
      <trkpt lat="43.42808" lon="6.10939">
        <ele>284.05661010742</ele>
        <time>2014-11-05T13:57:05Z</time>
      </trkpt>
      <trkpt lat="43.42809" lon="6.10949">
        <ele>283.75048828125</ele>
        <time>2014-11-05T13:57:06Z</time>
      </trkpt>
      <trkpt lat="43.42809" lon="6.10958">
        <ele>283.49182128906</ele>
        <time>2014-11-05T13:57:07Z</time>
      </trkpt>
      <trkpt lat="43.42814" lon="6.10973">
        <ele>283.20068359375</ele>
        <time>2014-11-05T13:57:09Z</time>
      </trkpt>
      <trkpt lat="43.42822" lon="6.10984">
        <ele>283.13922119141</ele>
        <time>2014-11-05T13:57:11Z</time>
      </trkpt>
      <trkpt lat="43.42826" lon="6.10989">
        <ele>283.13613891602</ele>
        <time>2014-11-05T13:57:12Z</time>
      </trkpt>
      <trkpt lat="43.4283" lon="6.10993">
        <ele>283.12857055664</ele>
        <time>2014-11-05T13:57:13Z</time>
      </trkpt>
      <trkpt lat="43.42836" lon="6.11002">
        <ele>283.15866088867</ele>
        <time>2014-11-05T13:57:15Z</time>
      </trkpt>
      <trkpt lat="43.42841" lon="6.1101">
        <ele>283.41394042969</ele>
        <time>2014-11-05T13:57:17Z</time>
      </trkpt>
      <trkpt lat="43.42842" lon="6.11014">
        <ele>283.51254272461</ele>
        <time>2014-11-05T13:57:18Z</time>
      </trkpt>
      <trkpt lat="43.42844" lon="6.11018">
        <ele>283.60708618164</ele>
        <time>2014-11-05T13:57:19Z</time>
      </trkpt>
      <trkpt lat="43.42847" lon="6.11025">
        <ele>283.72576904297</ele>
        <time>2014-11-05T13:57:21Z</time>
      </trkpt>
      <trkpt lat="43.4285" lon="6.11032">
        <ele>283.83453369141</ele>
        <time>2014-11-05T13:57:23Z</time>
      </trkpt>
      <trkpt lat="43.42852" lon="6.11039">
        <ele>283.91302490234</ele>
        <time>2014-11-05T13:57:25Z</time>
      </trkpt>
      <trkpt lat="43.42855" lon="6.11046">
        <ele>284.0012512207</ele>
        <time>2014-11-05T13:57:27Z</time>
      </trkpt>
      <trkpt lat="43.42857" lon="6.11053">
        <ele>284.05725097656</ele>
        <time>2014-11-05T13:57:29Z</time>
      </trkpt>
      <trkpt lat="43.42859" lon="6.11069">
        <ele>284.0256652832</ele>
        <time>2014-11-05T13:57:33Z</time>
      </trkpt>
      <trkpt lat="43.42857" lon="6.11077">
        <ele>283.90701293945</ele>
        <time>2014-11-05T13:57:35Z</time>
      </trkpt>
      <trkpt lat="43.42855" lon="6.11085">
        <ele>283.77111816406</ele>
        <time>2014-11-05T13:57:37Z</time>
      </trkpt>
      <trkpt lat="43.42853" lon="6.11091">
        <ele>283.63943481445</ele>
        <time>2014-11-05T13:57:39Z</time>
      </trkpt>
      <trkpt lat="43.42851" lon="6.11094">
        <ele>283.56527709961</ele>
        <time>2014-11-05T13:57:40Z</time>
      </trkpt>
      <trkpt lat="43.4285" lon="6.11099">
        <ele>283.48135375977</ele>
        <time>2014-11-05T13:57:42Z</time>
      </trkpt>
      <trkpt lat="43.4285" lon="6.11101">
        <ele>283.46682739258</ele>
        <time>2014-11-05T13:57:43Z</time>
      </trkpt>
      <trkpt lat="43.42849" lon="6.11104">
        <ele>283.42416381836</ele>
        <time>2014-11-05T13:57:45Z</time>
      </trkpt>
      <trkpt lat="43.42847" lon="6.11107">
        <ele>283.3662109375</ele>
        <time>2014-11-05T13:57:47Z</time>
      </trkpt>
      <trkpt lat="43.42847" lon="6.11109">
        <ele>283.34414672852</ele>
        <time>2014-11-05T13:57:49Z</time>
      </trkpt>
      <trkpt lat="43.42847" lon="6.11109">
        <ele>283.34329223633</ele>
        <time>2014-11-05T13:57:50Z</time>
      </trkpt>
      <trkpt lat="43.42847" lon="6.11109">
        <ele>283.34301757812</ele>
        <time>2014-11-05T13:57:51Z</time>
      </trkpt>
      <trkpt lat="43.42847" lon="6.11109">
        <ele>283.35284423828</ele>
        <time>2014-11-05T13:57:53Z</time>
      </trkpt>
      <trkpt lat="43.42847" lon="6.11109">
        <ele>283.35284423828</ele>
        <time>2014-11-05T13:57:59Z</time>
      </trkpt>
      <trkpt lat="43.42847" lon="6.11109">
        <ele>283.3525390625</ele>
        <time>2014-11-05T13:58:09Z</time>
      </trkpt>
      <trkpt lat="43.42847" lon="6.11109">
        <ele>283.35168457031</ele>
        <time>2014-11-05T13:58:11Z</time>
      </trkpt>
      <trkpt lat="43.42847" lon="6.11109">
        <ele>283.35079956055</ele>
        <time>2014-11-05T13:58:13Z</time>
      </trkpt>
      <trkpt lat="43.42847" lon="6.11109">
        <ele>283.35049438477</ele>
        <time>2014-11-05T13:58:17Z</time>
      </trkpt>
      <trkpt lat="43.42847" lon="6.11109">
        <ele>283.35049438477</ele>
        <time>2014-11-05T13:58:25Z</time>
      </trkpt>
      <trkpt lat="43.42847" lon="6.11109">
        <ele>283.35049438477</ele>
        <time>2014-11-05T13:58:29Z</time>
      </trkpt>
      <trkpt lat="43.42847" lon="6.11109">
        <ele>283.35049438477</ele>
        <time>2014-11-05T13:58:33Z</time>
      </trkpt>
      <trkpt lat="43.42847" lon="6.11109">
        <ele>283.35137939453</ele>
        <time>2014-11-05T13:58:43Z</time>
      </trkpt>
      <trkpt lat="43.42847" lon="6.11109">
        <ele>283.35107421875</ele>
        <time>2014-11-05T13:58:49Z</time>
      </trkpt>
      <trkpt lat="43.42847" lon="6.11109">
        <ele>283.35107421875</ele>
        <time>2014-11-05T13:58:53Z</time>
      </trkpt>
      <trkpt lat="43.42847" lon="6.11109">
        <ele>283.35107421875</ele>
        <time>2014-11-05T13:59:05Z</time>
      </trkpt>
      <trkpt lat="43.42847" lon="6.11109">
        <ele>283.35137939453</ele>
        <time>2014-11-05T13:59:07Z</time>
      </trkpt>
      <trkpt lat="43.42847" lon="6.11109">
        <ele>283.35137939453</ele>
        <time>2014-11-05T13:59:11Z</time>
      </trkpt>
      <trkpt lat="43.42847" lon="6.11109">
        <ele>283.35137939453</ele>
        <time>2014-11-05T13:59:21Z</time>
      </trkpt>
      <trkpt lat="43.42847" lon="6.11109">
        <ele>283.35195922852</ele>
        <time>2014-11-05T13:59:23Z</time>
      </trkpt>
      <trkpt lat="43.42847" lon="6.11109">
        <ele>283.35195922852</ele>
        <time>2014-11-05T13:59:29Z</time>
      </trkpt>
      <trkpt lat="43.42847" lon="6.11109">
        <ele>283.3522644043</ele>
        <time>2014-11-05T13:59:51Z</time>
      </trkpt>
      <trkpt lat="43.42847" lon="6.11109">
        <ele>283.35195922852</ele>
        <time>2014-11-05T14:00:01Z</time>
      </trkpt>
      <trkpt lat="43.42847" lon="6.11109">
        <ele>283.35195922852</ele>
        <time>2014-11-05T14:00:03Z</time>
      </trkpt>
      <trkpt lat="43.42847" lon="6.11109">
        <ele>283.35079956055</ele>
        <time>2014-11-05T14:00:05Z</time>
      </trkpt>
      <trkpt lat="43.42848" lon="6.11113">
        <ele>283.34432983398</ele>
        <time>2014-11-05T14:00:07Z</time>
      </trkpt>
      <trkpt lat="43.42849" lon="6.11116">
        <ele>283.34741210938</ele>
        <time>2014-11-05T14:00:08Z</time>
      </trkpt>
      <trkpt lat="43.42852" lon="6.1112">
        <ele>283.36688232422</ele>
        <time>2014-11-05T14:00:09Z</time>
      </trkpt>
      <trkpt lat="43.42858" lon="6.11129">
        <ele>283.39971923828</ele>
        <time>2014-11-05T14:00:11Z</time>
      </trkpt>
      <trkpt lat="43.42869" lon="6.11143">
        <ele>283.36114501953</ele>
        <time>2014-11-05T14:00:15Z</time>
      </trkpt>
      <trkpt lat="43.42871" lon="6.11149">
        <ele>283.28833007812</ele>
        <time>2014-11-05T14:00:16Z</time>
      </trkpt>
      <trkpt lat="43.42874" lon="6.11154">
        <ele>283.21603393555</ele>
        <time>2014-11-05T14:00:17Z</time>
      </trkpt>
      <trkpt lat="43.42877" lon="6.1116">
        <ele>283.1291809082</ele>
        <time>2014-11-05T14:00:18Z</time>
      </trkpt>
      <trkpt lat="43.42881" lon="6.11165">
        <ele>283.03503417969</ele>
        <time>2014-11-05T14:00:19Z</time>
      </trkpt>
      <trkpt lat="43.42886" lon="6.11176">
        <ele>282.6227722168</ele>
        <time>2014-11-05T14:00:21Z</time>
      </trkpt>
      <trkpt lat="43.4289" lon="6.1119">
        <ele>282.05868530273</ele>
        <time>2014-11-05T14:00:23Z</time>
      </trkpt>
      <trkpt lat="43.42891" lon="6.11204">
        <ele>281.48626708984</ele>
        <time>2014-11-05T14:00:25Z</time>
      </trkpt>
      <trkpt lat="43.4289" lon="6.11212">
        <ele>281.18969726562</ele>
        <time>2014-11-05T14:00:27Z</time>
      </trkpt>
      <trkpt lat="43.42887" lon="6.11214">
        <ele>281.13247680664</ele>
        <time>2014-11-05T14:00:28Z</time>
      </trkpt>
      <trkpt lat="43.42886" lon="6.11215">
        <ele>281.09344482422</ele>
        <time>2014-11-05T14:00:29Z</time>
      </trkpt>
      <trkpt lat="43.42881" lon="6.1122">
        <ele>280.97048950195</ele>
        <time>2014-11-05T14:00:31Z</time>
      </trkpt>
      <trkpt lat="43.42878" lon="6.11224">
        <ele>280.89651489258</ele>
        <time>2014-11-05T14:00:32Z</time>
      </trkpt>
      <trkpt lat="43.42875" lon="6.11227">
        <ele>280.84716796875</ele>
        <time>2014-11-05T14:00:33Z</time>
      </trkpt>
      <trkpt lat="43.42872" lon="6.11231">
        <ele>280.73373413086</ele>
        <time>2014-11-05T14:00:34Z</time>
      </trkpt>
      <trkpt lat="43.42869" lon="6.11236">
        <ele>280.6184387207</ele>
        <time>2014-11-05T14:00:35Z</time>
      </trkpt>
      <trkpt lat="43.42863" lon="6.11246">
        <ele>280.4313659668</ele>
        <time>2014-11-05T14:00:37Z</time>
      </trkpt>
      <trkpt lat="43.42857" lon="6.11253">
        <ele>280.26715087891</ele>
        <time>2014-11-05T14:00:39Z</time>
      </trkpt>
      <trkpt lat="43.42851" lon="6.11262">
        <ele>280.01040649414</ele>
        <time>2014-11-05T14:00:41Z</time>
      </trkpt>
      <trkpt lat="43.42849" lon="6.11267">
        <ele>279.84857177734</ele>
        <time>2014-11-05T14:00:42Z</time>
      </trkpt>
      <trkpt lat="43.42848" lon="6.11273">
        <ele>279.67837524414</ele>
        <time>2014-11-05T14:00:43Z</time>
      </trkpt>
      <trkpt lat="43.42844" lon="6.11283">
        <ele>279.49096679688</ele>
        <time>2014-11-05T14:00:45Z</time>
      </trkpt>
      <trkpt lat="43.4284" lon="6.11296">
        <ele>279.35925292969</ele>
        <time>2014-11-05T14:00:47Z</time>
      </trkpt>
      <trkpt lat="43.42834" lon="6.11307">
        <ele>279.5637512207</ele>
        <time>2014-11-05T14:00:49Z</time>
      </trkpt>
      <trkpt lat="43.4283" lon="6.11317">
        <ele>279.42947387695</ele>
        <time>2014-11-05T14:00:51Z</time>
      </trkpt>
      <trkpt lat="43.42825" lon="6.11331">
        <ele>279.15939331055</ele>
        <time>2014-11-05T14:00:53Z</time>
      </trkpt>
      <trkpt lat="43.4282" lon="6.11343">
        <ele>278.50997924805</ele>
        <time>2014-11-05T14:00:55Z</time>
      </trkpt>
      <trkpt lat="43.42816" lon="6.1135">
        <ele>278.10009765625</ele>
        <time>2014-11-05T14:00:56Z</time>
      </trkpt>
      <trkpt lat="43.42813" lon="6.11356">
        <ele>277.80551147461</ele>
        <time>2014-11-05T14:00:57Z</time>
      </trkpt>
      <trkpt lat="43.42805" lon="6.11366">
        <ele>277.53213500977</ele>
        <time>2014-11-05T14:00:59Z</time>
      </trkpt>
      <trkpt lat="43.42802" lon="6.11369">
        <ele>277.52053833008</ele>
        <time>2014-11-05T14:01:00Z</time>
      </trkpt>
      <trkpt lat="43.42798" lon="6.11372">
        <ele>277.55181884766</ele>
        <time>2014-11-05T14:01:01Z</time>
      </trkpt>
      <trkpt lat="43.4279" lon="6.11379">
        <ele>277.66567993164</ele>
        <time>2014-11-05T14:01:03Z</time>
      </trkpt>
      <trkpt lat="43.42778" lon="6.11389">
        <ele>278.09268188477</ele>
        <time>2014-11-05T14:01:06Z</time>
      </trkpt>
      <trkpt lat="43.42775" lon="6.11393">
        <ele>278.2236328125</ele>
        <time>2014-11-05T14:01:07Z</time>
      </trkpt>
      <trkpt lat="43.42768" lon="6.11404">
        <ele>278.4621887207</ele>
        <time>2014-11-05T14:01:09Z</time>
      </trkpt>
      <trkpt lat="43.42764" lon="6.11418">
        <ele>278.65258789062</ele>
        <time>2014-11-05T14:01:11Z</time>
      </trkpt>
      <trkpt lat="43.42757" lon="6.11431">
        <ele>278.64419555664</ele>
        <time>2014-11-05T14:01:13Z</time>
      </trkpt>
      <trkpt lat="43.42755" lon="6.11438">
        <ele>278.61032104492</ele>
        <time>2014-11-05T14:01:14Z</time>
      </trkpt>
      <trkpt lat="43.42754" lon="6.11444">
        <ele>278.55130004883</ele>
        <time>2014-11-05T14:01:15Z</time>
      </trkpt>
      <trkpt lat="43.42752" lon="6.1145">
        <ele>278.48815917969</ele>
        <time>2014-11-05T14:01:16Z</time>
      </trkpt>
      <trkpt lat="43.42751" lon="6.11453">
        <ele>278.52865600586</ele>
        <time>2014-11-05T14:01:17Z</time>
      </trkpt>
      <trkpt lat="43.42751" lon="6.11455">
        <ele>278.50149536133</ele>
        <time>2014-11-05T14:01:18Z</time>
      </trkpt>
      <trkpt lat="43.42751" lon="6.11456">
        <ele>278.50765991211</ele>
        <time>2014-11-05T14:01:19Z</time>
      </trkpt>
      <trkpt lat="43.42751" lon="6.11456">
        <ele>278.50067138672</ele>
        <time>2014-11-05T14:01:21Z</time>
      </trkpt>
      <trkpt lat="43.42751" lon="6.11456">
        <ele>278.49368286133</ele>
        <time>2014-11-05T14:01:25Z</time>
      </trkpt>
      <trkpt lat="43.42751" lon="6.11456">
        <ele>278.49368286133</ele>
        <time>2014-11-05T14:01:29Z</time>
      </trkpt>
      <trkpt lat="43.42751" lon="6.11456">
        <ele>278.49194335938</ele>
        <time>2014-11-05T14:01:31Z</time>
      </trkpt>
      <trkpt lat="43.42751" lon="6.11456">
        <ele>278.49368286133</ele>
        <time>2014-11-05T14:01:37Z</time>
      </trkpt>
      <trkpt lat="43.42751" lon="6.11456">
        <ele>278.49017333984</ele>
        <time>2014-11-05T14:01:39Z</time>
      </trkpt>
      <trkpt lat="43.4275" lon="6.11457">
        <ele>278.509765625</ele>
        <time>2014-11-05T14:01:40Z</time>
      </trkpt>
      <trkpt lat="43.42749" lon="6.11459">
        <ele>278.38763427734</ele>
        <time>2014-11-05T14:01:41Z</time>
      </trkpt>
      <trkpt lat="43.42748" lon="6.11466">
        <ele>277.9352722168</ele>
        <time>2014-11-05T14:01:43Z</time>
      </trkpt>
      <trkpt lat="43.42747" lon="6.1147">
        <ele>277.60192871094</ele>
        <time>2014-11-05T14:01:44Z</time>
      </trkpt>
      <trkpt lat="43.42746" lon="6.11474">
        <ele>277.28063964844</ele>
        <time>2014-11-05T14:01:45Z</time>
      </trkpt>
      <trkpt lat="43.42741" lon="6.11483">
        <ele>276.24234008789</ele>
        <time>2014-11-05T14:01:47Z</time>
      </trkpt>
      <trkpt lat="43.42741" lon="6.11487">
        <ele>275.90148925781</ele>
        <time>2014-11-05T14:01:48Z</time>
      </trkpt>
      <trkpt lat="43.4274" lon="6.11493">
        <ele>275.57260131836</ele>
        <time>2014-11-05T14:01:49Z</time>
      </trkpt>
      <trkpt lat="43.42741" lon="6.11499">
        <ele>275.35928344727</ele>
        <time>2014-11-05T14:01:50Z</time>
      </trkpt>
      <trkpt lat="43.42742" lon="6.11505">
        <ele>275.25531005859</ele>
        <time>2014-11-05T14:01:51Z</time>
      </trkpt>
      <trkpt lat="43.42744" lon="6.11511">
        <ele>275.21762084961</ele>
        <time>2014-11-05T14:01:52Z</time>
      </trkpt>
      <trkpt lat="43.42747" lon="6.11517">
        <ele>275.17575073242</ele>
        <time>2014-11-05T14:01:53Z</time>
      </trkpt>
      <trkpt lat="43.42749" lon="6.11525">
        <ele>274.99389648438</ele>
        <time>2014-11-05T14:01:54Z</time>
      </trkpt>
      <trkpt lat="43.4275" lon="6.11532">
        <ele>274.68106079102</ele>
        <time>2014-11-05T14:01:55Z</time>
      </trkpt>
      <trkpt lat="43.42752" lon="6.11545">
        <ele>273.31604003906</ele>
        <time>2014-11-05T14:01:57Z</time>
      </trkpt>
      <trkpt lat="43.42753" lon="6.11555">
        <ele>272.36120605469</ele>
        <time>2014-11-05T14:01:59Z</time>
      </trkpt>
      <trkpt lat="43.42754" lon="6.11565">
        <ele>271.35693359375</ele>
        <time>2014-11-05T14:02:01Z</time>
      </trkpt>
      <trkpt lat="43.42755" lon="6.1157">
        <ele>270.77908325195</ele>
        <time>2014-11-05T14:02:02Z</time>
      </trkpt>
      <trkpt lat="43.42755" lon="6.11575">
        <ele>270.32556152344</ele>
        <time>2014-11-05T14:02:03Z</time>
      </trkpt>
      <trkpt lat="43.42757" lon="6.11593">
        <ele>268.61068725586</ele>
        <time>2014-11-05T14:02:07Z</time>
      </trkpt>
      <trkpt lat="43.42757" lon="6.11597">
        <ele>268.3010559082</ele>
        <time>2014-11-05T14:02:08Z</time>
      </trkpt>
      <trkpt lat="43.42757" lon="6.11606">
        <ele>267.65399169922</ele>
        <time>2014-11-05T14:02:10Z</time>
      </trkpt>
      <trkpt lat="43.42756" lon="6.1161">
        <ele>267.57434082031</ele>
        <time>2014-11-05T14:02:11Z</time>
      </trkpt>
      <trkpt lat="43.42754" lon="6.11617">
        <ele>267.47640991211</ele>
        <time>2014-11-05T14:02:13Z</time>
      </trkpt>
      <trkpt lat="43.42751" lon="6.11624">
        <ele>267.93362426758</ele>
        <time>2014-11-05T14:02:15Z</time>
      </trkpt>
      <trkpt lat="43.42747" lon="6.11628">
        <ele>267.52551269531</ele>
        <time>2014-11-05T14:02:16Z</time>
      </trkpt>
      <trkpt lat="43.42743" lon="6.1163">
        <ele>267.01208496094</ele>
        <time>2014-11-05T14:02:17Z</time>
      </trkpt>
      <trkpt lat="43.42736" lon="6.11634">
        <ele>266.14889526367</ele>
        <time>2014-11-05T14:02:19Z</time>
      </trkpt>
      <trkpt lat="43.42733" lon="6.11636">
        <ele>265.81265258789</ele>
        <time>2014-11-05T14:02:20Z</time>
      </trkpt>
      <trkpt lat="43.42731" lon="6.11637">
        <ele>265.58966064453</ele>
        <time>2014-11-05T14:02:21Z</time>
      </trkpt>
      <trkpt lat="43.42729" lon="6.11638">
        <ele>265.35949707031</ele>
        <time>2014-11-05T14:02:22Z</time>
      </trkpt>
      <trkpt lat="43.42727" lon="6.11639">
        <ele>265.17755126953</ele>
        <time>2014-11-05T14:02:23Z</time>
      </trkpt>
      <trkpt lat="43.42724" lon="6.11642">
        <ele>264.81469726562</ele>
        <time>2014-11-05T14:02:25Z</time>
      </trkpt>
      <trkpt lat="43.4272" lon="6.11648">
        <ele>264.40078735352</ele>
        <time>2014-11-05T14:02:27Z</time>
      </trkpt>
      <trkpt lat="43.42718" lon="6.11655">
        <ele>264.10656738281</ele>
        <time>2014-11-05T14:02:29Z</time>
      </trkpt>
      <trkpt lat="43.42716" lon="6.11662">
        <ele>263.8576965332</ele>
        <time>2014-11-05T14:02:32Z</time>
      </trkpt>
      <trkpt lat="43.42716" lon="6.11664">
        <ele>263.8210144043</ele>
        <time>2014-11-05T14:02:33Z</time>
      </trkpt>
      <trkpt lat="43.42716" lon="6.11669">
        <ele>263.62637329102</ele>
        <time>2014-11-05T14:02:35Z</time>
      </trkpt>
      <trkpt lat="43.42717" lon="6.11672">
        <ele>263.50531005859</ele>
        <time>2014-11-05T14:02:36Z</time>
      </trkpt>
      <trkpt lat="43.42718" lon="6.11675">
        <ele>263.40133666992</ele>
        <time>2014-11-05T14:02:37Z</time>
      </trkpt>
      <trkpt lat="43.42722" lon="6.11681">
        <ele>263.13314819336</ele>
        <time>2014-11-05T14:02:39Z</time>
      </trkpt>
      <trkpt lat="43.42725" lon="6.11684">
        <ele>262.97198486328</ele>
        <time>2014-11-05T14:02:40Z</time>
      </trkpt>
      <trkpt lat="43.42726" lon="6.11688">
        <ele>262.78100585938</ele>
        <time>2014-11-05T14:02:41Z</time>
      </trkpt>
      <trkpt lat="43.4273" lon="6.11692">
        <ele>262.53646850586</ele>
        <time>2014-11-05T14:02:43Z</time>
      </trkpt>
      <trkpt lat="43.42731" lon="6.11694">
        <ele>262.38882446289</ele>
        <time>2014-11-05T14:02:44Z</time>
      </trkpt>
      <trkpt lat="43.42733" lon="6.11696">
        <ele>262.23971557617</ele>
        <time>2014-11-05T14:02:45Z</time>
      </trkpt>
      <trkpt lat="43.42735" lon="6.11698">
        <ele>262.06634521484</ele>
        <time>2014-11-05T14:02:46Z</time>
      </trkpt>
      <trkpt lat="43.42736" lon="6.117">
        <ele>261.92083740234</ele>
        <time>2014-11-05T14:02:47Z</time>
      </trkpt>
      <trkpt lat="43.42737" lon="6.11701">
        <ele>261.80047607422</ele>
        <time>2014-11-05T14:02:48Z</time>
      </trkpt>
      <trkpt lat="43.42739" lon="6.11702">
        <ele>261.67846679688</ele>
        <time>2014-11-05T14:02:49Z</time>
      </trkpt>
      <trkpt lat="43.42742" lon="6.11704">
        <ele>261.48803710938</ele>
        <time>2014-11-05T14:02:50Z</time>
      </trkpt>
      <trkpt lat="43.42744" lon="6.11707">
        <ele>261.27093505859</ele>
        <time>2014-11-05T14:02:51Z</time>
      </trkpt>
      <trkpt lat="43.42746" lon="6.11708">
        <ele>261.1376953125</ele>
        <time>2014-11-05T14:02:52Z</time>
      </trkpt>
      <trkpt lat="43.42748" lon="6.11707">
        <ele>261.1321105957</ele>
        <time>2014-11-05T14:02:53Z</time>
      </trkpt>
      <trkpt lat="43.42751" lon="6.11707">
        <ele>260.7829284668</ele>
        <time>2014-11-05T14:02:54Z</time>
      </trkpt>
      <trkpt lat="43.42753" lon="6.1171">
        <ele>260.18630981445</ele>
        <time>2014-11-05T14:02:55Z</time>
      </trkpt>
      <trkpt lat="43.42753" lon="6.11716">
        <ele>259.50698852539</ele>
        <time>2014-11-05T14:02:57Z</time>
      </trkpt>
      <trkpt lat="43.42755" lon="6.1172">
        <ele>258.72485351562</ele>
        <time>2014-11-05T14:02:59Z</time>
      </trkpt>
      <trkpt lat="43.42758" lon="6.11719">
        <ele>258.17980957031</ele>
        <time>2014-11-05T14:03:01Z</time>
      </trkpt>
      <trkpt lat="43.4276" lon="6.11718">
        <ele>257.61923217773</ele>
        <time>2014-11-05T14:03:03Z</time>
      </trkpt>
      <trkpt lat="43.42762" lon="6.11719">
        <ele>257.21478271484</ele>
        <time>2014-11-05T14:03:05Z</time>
      </trkpt>
      <trkpt lat="43.42762" lon="6.11719">
        <ele>257.12121582031</ele>
        <time>2014-11-05T14:03:07Z</time>
      </trkpt>
      <trkpt lat="43.42763" lon="6.11719">
        <ele>257.03192138672</ele>
        <time>2014-11-05T14:03:08Z</time>
      </trkpt>
      <trkpt lat="43.42762" lon="6.11719">
        <ele>257.12545776367</ele>
        <time>2014-11-05T14:03:09Z</time>
      </trkpt>
      <trkpt lat="43.42762" lon="6.11719">
        <ele>257.12545776367</ele>
        <time>2014-11-05T14:03:11Z</time>
      </trkpt>
      <trkpt lat="43.42762" lon="6.11718">
        <ele>257.12969970703</ele>
        <time>2014-11-05T14:03:15Z</time>
      </trkpt>
      <trkpt lat="43.42762" lon="6.11718">
        <ele>257.13394165039</ele>
        <time>2014-11-05T14:03:17Z</time>
      </trkpt>
      <trkpt lat="43.42762" lon="6.11718">
        <ele>257.13818359375</ele>
        <time>2014-11-05T14:03:21Z</time>
      </trkpt>
      <trkpt lat="43.42763" lon="6.11718">
        <ele>257.05307006836</ele>
        <time>2014-11-05T14:03:23Z</time>
      </trkpt>
      <trkpt lat="43.42763" lon="6.11718">
        <ele>257.05728149414</ele>
        <time>2014-11-05T14:03:33Z</time>
      </trkpt>
      <trkpt lat="43.42763" lon="6.11718">
        <ele>257.0615234375</ele>
        <time>2014-11-05T14:03:39Z</time>
      </trkpt>
      <trkpt lat="43.42763" lon="6.11718">
        <ele>257.05728149414</ele>
        <time>2014-11-05T14:03:41Z</time>
      </trkpt>
      <trkpt lat="43.42764" lon="6.11718">
        <ele>256.80596923828</ele>
        <time>2014-11-05T14:03:43Z</time>
      </trkpt>
      <trkpt lat="43.42765" lon="6.11717">
        <ele>256.70645141602</ele>
        <time>2014-11-05T14:03:44Z</time>
      </trkpt>
      <trkpt lat="43.42766" lon="6.11716">
        <ele>256.44720458984</ele>
        <time>2014-11-05T14:03:45Z</time>
      </trkpt>
      <trkpt lat="43.42771" lon="6.11713">
        <ele>255.64137268066</ele>
        <time>2014-11-05T14:03:47Z</time>
      </trkpt>
      <trkpt lat="43.42773" lon="6.11711">
        <ele>255.16865539551</ele>
        <time>2014-11-05T14:03:48Z</time>
      </trkpt>
      <trkpt lat="43.42776" lon="6.11709">
        <ele>254.68218994141</ele>
        <time>2014-11-05T14:03:49Z</time>
      </trkpt>
      <trkpt lat="43.42779" lon="6.11706">
        <ele>254.2430267334</ele>
        <time>2014-11-05T14:03:50Z</time>
      </trkpt>
      <trkpt lat="43.4278" lon="6.11703">
        <ele>254.13359069824</ele>
        <time>2014-11-05T14:03:51Z</time>
      </trkpt>
      <trkpt lat="43.42786" lon="6.11696">
        <ele>253.27429199219</ele>
        <time>2014-11-05T14:03:53Z</time>
      </trkpt>
      <trkpt lat="43.4279" lon="6.11694">
        <ele>252.49211120606</ele>
        <time>2014-11-05T14:03:54Z</time>
      </trkpt>
      <trkpt lat="43.42793" lon="6.11694">
        <ele>251.64300537109</ele>
        <time>2014-11-05T14:03:55Z</time>
      </trkpt>
      <trkpt lat="43.42796" lon="6.11696">
        <ele>250.81076049805</ele>
        <time>2014-11-05T14:03:56Z</time>
      </trkpt>
      <trkpt lat="43.42798" lon="6.117">
        <ele>250.10154724121</ele>
        <time>2014-11-05T14:03:57Z</time>
      </trkpt>
      <trkpt lat="43.42802" lon="6.11712">
        <ele>248.38703918457</ele>
        <time>2014-11-05T14:03:59Z</time>
      </trkpt>
      <trkpt lat="43.42804" lon="6.11719">
        <ele>247.23896789551</ele>
        <time>2014-11-05T14:04:00Z</time>
      </trkpt>
      <trkpt lat="43.42805" lon="6.11727">
        <ele>246.59498596191</ele>
        <time>2014-11-05T14:04:01Z</time>
      </trkpt>
      <trkpt lat="43.42805" lon="6.11734">
        <ele>246.12307739258</ele>
        <time>2014-11-05T14:04:02Z</time>
      </trkpt>
      <trkpt lat="43.42804" lon="6.1174">
        <ele>246.07530212402</ele>
        <time>2014-11-05T14:04:03Z</time>
      </trkpt>
      <trkpt lat="43.428" lon="6.11751">
        <ele>246.12399291992</ele>
        <time>2014-11-05T14:04:05Z</time>
      </trkpt>
      <trkpt lat="43.42798" lon="6.11757">
        <ele>245.93778991699</ele>
        <time>2014-11-05T14:04:06Z</time>
      </trkpt>
      <trkpt lat="43.42796" lon="6.11761">
        <ele>245.95622253418</ele>
        <time>2014-11-05T14:04:07Z</time>
      </trkpt>
      <trkpt lat="43.42793" lon="6.11767">
        <ele>246.12881469727</ele>
        <time>2014-11-05T14:04:09Z</time>
      </trkpt>
      <trkpt lat="43.42792" lon="6.11772">
        <ele>245.73251342773</ele>
        <time>2014-11-05T14:04:11Z</time>
      </trkpt>
      <trkpt lat="43.42793" lon="6.11778">
        <ele>244.91918945312</ele>
        <time>2014-11-05T14:04:13Z</time>
      </trkpt>
      <trkpt lat="43.42794" lon="6.11783">
        <ele>244.15957641602</ele>
        <time>2014-11-05T14:04:15Z</time>
      </trkpt>
      <trkpt lat="43.42796" lon="6.1179">
        <ele>242.95121765137</ele>
        <time>2014-11-05T14:04:17Z</time>
      </trkpt>
      <trkpt lat="43.42798" lon="6.11797">
        <ele>241.82739257812</ele>
        <time>2014-11-05T14:04:19Z</time>
      </trkpt>
      <trkpt lat="43.42799" lon="6.11803">
        <ele>241.08534240723</ele>
        <time>2014-11-05T14:04:21Z</time>
      </trkpt>
      <trkpt lat="43.42801" lon="6.11809">
        <ele>240.05421447754</ele>
        <time>2014-11-05T14:04:23Z</time>
      </trkpt>
      <trkpt lat="43.42803" lon="6.11816">
        <ele>238.95474243164</ele>
        <time>2014-11-05T14:04:25Z</time>
      </trkpt>
      <trkpt lat="43.42804" lon="6.11823">
        <ele>237.96617126465</ele>
        <time>2014-11-05T14:04:27Z</time>
      </trkpt>
      <trkpt lat="43.42804" lon="6.11829">
        <ele>237.48217773438</ele>
        <time>2014-11-05T14:04:29Z</time>
      </trkpt>
      <trkpt lat="43.42803" lon="6.11832">
        <ele>237.32231140137</ele>
        <time>2014-11-05T14:04:30Z</time>
      </trkpt>
      <trkpt lat="43.42802" lon="6.11842">
        <ele>236.70916748047</ele>
        <time>2014-11-05T14:04:33Z</time>
      </trkpt>
      <trkpt lat="43.428" lon="6.11848">
        <ele>236.65824890137</ele>
        <time>2014-11-05T14:04:35Z</time>
      </trkpt>
      <trkpt lat="43.42798" lon="6.11854">
        <ele>236.66137695312</ele>
        <time>2014-11-05T14:04:37Z</time>
      </trkpt>
      <trkpt lat="43.42795" lon="6.11858">
        <ele>236.96760559082</ele>
        <time>2014-11-05T14:04:39Z</time>
      </trkpt>
      <trkpt lat="43.42792" lon="6.1186">
        <ele>237.43864440918</ele>
        <time>2014-11-05T14:04:41Z</time>
      </trkpt>
      <trkpt lat="43.42787" lon="6.11859">
        <ele>238.39303588867</ele>
        <time>2014-11-05T14:04:43Z</time>
      </trkpt>
      <trkpt lat="43.42785" lon="6.11858">
        <ele>238.92753601074</ele>
        <time>2014-11-05T14:04:44Z</time>
      </trkpt>
      <trkpt lat="43.42783" lon="6.11856">
        <ele>239.46044921875</ele>
        <time>2014-11-05T14:04:45Z</time>
      </trkpt>
      <trkpt lat="43.42778" lon="6.11853">
        <ele>240.58999633789</ele>
        <time>2014-11-05T14:04:47Z</time>
      </trkpt>
      <trkpt lat="43.42776" lon="6.11853">
        <ele>240.97528076172</ele>
        <time>2014-11-05T14:04:48Z</time>
      </trkpt>
      <trkpt lat="43.42775" lon="6.11853">
        <ele>241.34043884277</ele>
        <time>2014-11-05T14:04:49Z</time>
      </trkpt>
      <trkpt lat="43.4277" lon="6.11853">
        <ele>242.09501647949</ele>
        <time>2014-11-05T14:04:51Z</time>
      </trkpt>
      <trkpt lat="43.42768" lon="6.11854">
        <ele>242.4256439209</ele>
        <time>2014-11-05T14:04:52Z</time>
      </trkpt>
      <trkpt lat="43.42767" lon="6.11855">
        <ele>242.65151977539</ele>
        <time>2014-11-05T14:04:53Z</time>
      </trkpt>
      <trkpt lat="43.42764" lon="6.11856">
        <ele>243.15692138672</ele>
        <time>2014-11-05T14:04:55Z</time>
      </trkpt>
      <trkpt lat="43.42761" lon="6.11858">
        <ele>243.55307006836</ele>
        <time>2014-11-05T14:04:57Z</time>
      </trkpt>
      <trkpt lat="43.42759" lon="6.11859">
        <ele>243.90336608887</ele>
        <time>2014-11-05T14:04:59Z</time>
      </trkpt>
      <trkpt lat="43.42756" lon="6.11859">
        <ele>244.28727722168</ele>
        <time>2014-11-05T14:05:01Z</time>
      </trkpt>
      <trkpt lat="43.42753" lon="6.1186">
        <ele>244.87666320801</ele>
        <time>2014-11-05T14:05:03Z</time>
      </trkpt>
      <trkpt lat="43.42752" lon="6.11861">
        <ele>245.06051635742</ele>
        <time>2014-11-05T14:05:04Z</time>
      </trkpt>
      <trkpt lat="43.42749" lon="6.11862">
        <ele>245.43574523926</ele>
        <time>2014-11-05T14:05:07Z</time>
      </trkpt>
      <trkpt lat="43.42749" lon="6.11862">
        <ele>245.44296264648</ele>
        <time>2014-11-05T14:05:08Z</time>
      </trkpt>
      <trkpt lat="43.42747" lon="6.11863">
        <ele>245.56999206543</ele>
        <time>2014-11-05T14:05:09Z</time>
      </trkpt>
      <trkpt lat="43.42745" lon="6.11867">
        <ele>245.73182678223</ele>
        <time>2014-11-05T14:05:12Z</time>
      </trkpt>
      <trkpt lat="43.42744" lon="6.11868">
        <ele>245.72126770019</ele>
        <time>2014-11-05T14:05:13Z</time>
      </trkpt>
      <trkpt lat="43.42742" lon="6.1187">
        <ele>245.89483642578</ele>
        <time>2014-11-05T14:05:15Z</time>
      </trkpt>
      <trkpt lat="43.42739" lon="6.1187">
        <ele>246.39447021484</ele>
        <time>2014-11-05T14:05:17Z</time>
      </trkpt>
      <trkpt lat="43.42737" lon="6.1187">
        <ele>246.82998657227</ele>
        <time>2014-11-05T14:05:19Z</time>
      </trkpt>
      <trkpt lat="43.42734" lon="6.1187">
        <ele>247.38356018066</ele>
        <time>2014-11-05T14:05:21Z</time>
      </trkpt>
      <trkpt lat="43.42731" lon="6.11871">
        <ele>247.88236999512</ele>
        <time>2014-11-05T14:05:23Z</time>
      </trkpt>
      <trkpt lat="43.42728" lon="6.11872">
        <ele>248.22485351562</ele>
        <time>2014-11-05T14:05:25Z</time>
      </trkpt>
      <trkpt lat="43.42727" lon="6.11873">
        <ele>248.49826049805</ele>
        <time>2014-11-05T14:05:27Z</time>
      </trkpt>
      <trkpt lat="43.42725" lon="6.11874">
        <ele>248.75891113281</ele>
        <time>2014-11-05T14:05:29Z</time>
      </trkpt>
      <trkpt lat="43.42723" lon="6.11875">
        <ele>248.99267578125</ele>
        <time>2014-11-05T14:05:31Z</time>
      </trkpt>
      <trkpt lat="43.42722" lon="6.11876">
        <ele>249.24468994141</ele>
        <time>2014-11-05T14:05:33Z</time>
      </trkpt>
      <trkpt lat="43.42721" lon="6.11876">
        <ele>249.33950805664</ele>
        <time>2014-11-05T14:05:35Z</time>
      </trkpt>
      <trkpt lat="43.42721" lon="6.11877">
        <ele>249.32046508789</ele>
        <time>2014-11-05T14:05:39Z</time>
      </trkpt>
      <trkpt lat="43.42721" lon="6.11877">
        <ele>249.31411743164</ele>
        <time>2014-11-05T14:05:49Z</time>
      </trkpt>
      <trkpt lat="43.42721" lon="6.11877">
        <ele>249.31411743164</ele>
        <time>2014-11-05T14:05:57Z</time>
      </trkpt>
      <trkpt lat="43.42721" lon="6.11877">
        <ele>249.32363891602</ele>
        <time>2014-11-05T14:06:01Z</time>
      </trkpt>
      <trkpt lat="43.42721" lon="6.11877">
        <ele>249.32363891602</ele>
        <time>2014-11-05T14:06:05Z</time>
      </trkpt>
      <trkpt lat="43.42721" lon="6.11877">
        <ele>249.32998657227</ele>
        <time>2014-11-05T14:06:10Z</time>
      </trkpt>
      <trkpt lat="43.42721" lon="6.11876">
        <ele>249.33633422852</ele>
        <time>2014-11-05T14:06:13Z</time>
      </trkpt>
      <trkpt lat="43.42721" lon="6.11876">
        <ele>249.33633422852</ele>
        <time>2014-11-05T14:06:17Z</time>
      </trkpt>
      <trkpt lat="43.42721" lon="6.11876">
        <ele>249.33633422852</ele>
        <time>2014-11-05T14:06:22Z</time>
      </trkpt>
      <trkpt lat="43.42721" lon="6.11876">
        <ele>249.33633422852</ele>
        <time>2014-11-05T14:06:27Z</time>
      </trkpt>
      <trkpt lat="43.42721" lon="6.11876">
        <ele>249.33316040039</ele>
        <time>2014-11-05T14:06:37Z</time>
      </trkpt>
      <trkpt lat="43.42721" lon="6.11876">
        <ele>249.33316040039</ele>
        <time>2014-11-05T14:06:43Z</time>
      </trkpt>
      <trkpt lat="43.42721" lon="6.11877">
        <ele>249.32681274414</ele>
        <time>2014-11-05T14:06:45Z</time>
      </trkpt>
      <trkpt lat="43.42721" lon="6.11876">
        <ele>249.33316040039</ele>
        <time>2014-11-05T14:06:51Z</time>
      </trkpt>
      <trkpt lat="43.42721" lon="6.11877">
        <ele>249.32998657227</ele>
        <time>2014-11-05T14:06:53Z</time>
      </trkpt>
      <trkpt lat="43.42721" lon="6.11877">
        <ele>249.32681274414</ele>
        <time>2014-11-05T14:06:54Z</time>
      </trkpt>
      <trkpt lat="43.42721" lon="6.11876">
        <ele>249.34268188477</ele>
        <time>2014-11-05T14:06:55Z</time>
      </trkpt>
      <trkpt lat="43.42721" lon="6.11876">
        <ele>249.33316040039</ele>
        <time>2014-11-05T14:06:57Z</time>
      </trkpt>
      <trkpt lat="43.42721" lon="6.11876">
        <ele>249.33316040039</ele>
        <time>2014-11-05T14:07:03Z</time>
      </trkpt>
      <trkpt lat="43.42721" lon="6.11876">
        <ele>249.33316040039</ele>
        <time>2014-11-05T14:07:11Z</time>
      </trkpt>
      <trkpt lat="43.42721" lon="6.11876">
        <ele>249.33633422852</ele>
        <time>2014-11-05T14:07:13Z</time>
      </trkpt>
      <trkpt lat="43.42721" lon="6.11876">
        <ele>249.33633422852</ele>
        <time>2014-11-05T14:07:17Z</time>
      </trkpt>
      <trkpt lat="43.42721" lon="6.11877">
        <ele>249.32998657227</ele>
        <time>2014-11-05T14:07:33Z</time>
      </trkpt>
      <trkpt lat="43.42721" lon="6.11876">
        <ele>249.33633422852</ele>
        <time>2014-11-05T14:07:41Z</time>
      </trkpt>
      <trkpt lat="43.42721" lon="6.11877">
        <ele>249.32681274414</ele>
        <time>2014-11-05T14:07:43Z</time>
      </trkpt>
      <trkpt lat="43.42721" lon="6.11877">
        <ele>249.32363891602</ele>
        <time>2014-11-05T14:07:45Z</time>
      </trkpt>
      <trkpt lat="43.42721" lon="6.11877">
        <ele>249.32363891602</ele>
        <time>2014-11-05T14:07:51Z</time>
      </trkpt>
      <trkpt lat="43.42721" lon="6.11877">
        <ele>249.31411743164</ele>
        <time>2014-11-05T14:07:57Z</time>
      </trkpt>
      <trkpt lat="43.42721" lon="6.11877">
        <ele>249.29824829102</ele>
        <time>2014-11-05T14:08:05Z</time>
      </trkpt>
      <trkpt lat="43.42721" lon="6.11877">
        <ele>249.29824829102</ele>
        <time>2014-11-05T14:08:07Z</time>
      </trkpt>
      <trkpt lat="43.4272" lon="6.11877">
        <ele>249.36682128906</ele>
        <time>2014-11-05T14:08:09Z</time>
      </trkpt>
      <trkpt lat="43.4272" lon="6.11877">
        <ele>249.36682128906</ele>
        <time>2014-11-05T14:08:11Z</time>
      </trkpt>
      <trkpt lat="43.4272" lon="6.11877">
        <ele>249.36682128906</ele>
        <time>2014-11-05T14:08:15Z</time>
      </trkpt>
      <trkpt lat="43.42721" lon="6.11877">
        <ele>249.30142211914</ele>
        <time>2014-11-05T14:08:19Z</time>
      </trkpt>
      <trkpt lat="43.42721" lon="6.11877">
        <ele>249.30459594727</ele>
        <time>2014-11-05T14:08:21Z</time>
      </trkpt>
      <trkpt lat="43.4272" lon="6.11877">
        <ele>249.35736083984</ele>
        <time>2014-11-05T14:08:25Z</time>
      </trkpt>
      <trkpt lat="43.4272" lon="6.11877">
        <ele>249.34158325195</ele>
        <time>2014-11-05T14:08:31Z</time>
      </trkpt>
      <trkpt lat="43.4272" lon="6.11877">
        <ele>249.34158325195</ele>
        <time>2014-11-05T14:08:35Z</time>
      </trkpt>
      <trkpt lat="43.4272" lon="6.11878">
        <ele>249.33210754394</ele>
        <time>2014-11-05T14:08:43Z</time>
      </trkpt>
      <trkpt lat="43.42719" lon="6.11878">
        <ele>249.49835205078</ele>
        <time>2014-11-05T14:08:45Z</time>
      </trkpt>
      <trkpt lat="43.42717" lon="6.1188">
        <ele>249.89703369141</ele>
        <time>2014-11-05T14:08:47Z</time>
      </trkpt>
      <trkpt lat="43.42715" lon="6.11881">
        <ele>250.1248626709</ele>
        <time>2014-11-05T14:08:48Z</time>
      </trkpt>
      <trkpt lat="43.4271" lon="6.11884">
        <ele>250.98200988769</ele>
        <time>2014-11-05T14:08:51Z</time>
      </trkpt>
      <trkpt lat="43.42705" lon="6.11888">
        <ele>251.7061920166</ele>
        <time>2014-11-05T14:08:53Z</time>
      </trkpt>
      <trkpt lat="43.42701" lon="6.11892">
        <ele>252.24440002441</ele>
        <time>2014-11-05T14:08:55Z</time>
      </trkpt>
      <trkpt lat="43.42699" lon="6.11898">
        <ele>252.43727111816</ele>
        <time>2014-11-05T14:08:57Z</time>
      </trkpt>
      <trkpt lat="43.42699" lon="6.11903">
        <ele>252.16627502441</ele>
        <time>2014-11-05T14:08:58Z</time>
      </trkpt>
      <trkpt lat="43.42701" lon="6.11917">
        <ele>251.25772094727</ele>
        <time>2014-11-05T14:09:01Z</time>
      </trkpt>
      <trkpt lat="43.42704" lon="6.11926">
        <ele>250.17481994629</ele>
        <time>2014-11-05T14:09:03Z</time>
      </trkpt>
      <trkpt lat="43.42708" lon="6.11931">
        <ele>249.2731628418</ele>
        <time>2014-11-05T14:09:04Z</time>
      </trkpt>
      <trkpt lat="43.42711" lon="6.11934">
        <ele>248.48335266113</ele>
        <time>2014-11-05T14:09:05Z</time>
      </trkpt>
      <trkpt lat="43.42718" lon="6.11942">
        <ele>246.59190368652</ele>
        <time>2014-11-05T14:09:07Z</time>
      </trkpt>
      <trkpt lat="43.42725" lon="6.11949">
        <ele>244.76643371582</ele>
        <time>2014-11-05T14:09:09Z</time>
      </trkpt>
      <trkpt lat="43.42728" lon="6.11952">
        <ele>243.88050842285</ele>
        <time>2014-11-05T14:09:10Z</time>
      </trkpt>
      <trkpt lat="43.42731" lon="6.11954">
        <ele>243.15745544434</ele>
        <time>2014-11-05T14:09:11Z</time>
      </trkpt>
      <trkpt lat="43.42733" lon="6.11964">
        <ele>242.40817260742</ele>
        <time>2014-11-05T14:09:13Z</time>
      </trkpt>
      <trkpt lat="43.42733" lon="6.11969">
        <ele>242.16865539551</ele>
        <time>2014-11-05T14:09:14Z</time>
      </trkpt>
      <trkpt lat="43.42733" lon="6.11973">
        <ele>242.02429199219</ele>
        <time>2014-11-05T14:09:15Z</time>
      </trkpt>
      <trkpt lat="43.42732" lon="6.11983">
        <ele>241.98721313477</ele>
        <time>2014-11-05T14:09:17Z</time>
      </trkpt>
      <trkpt lat="43.42732" lon="6.11995">
        <ele>241.73519897461</ele>
        <time>2014-11-05T14:09:19Z</time>
      </trkpt>
      <trkpt lat="43.42731" lon="6.12005">
        <ele>241.74945068359</ele>
        <time>2014-11-05T14:09:21Z</time>
      </trkpt>
      <trkpt lat="43.42732" lon="6.12016">
        <ele>241.43365478516</ele>
        <time>2014-11-05T14:09:23Z</time>
      </trkpt>
      <trkpt lat="43.42732" lon="6.12026">
        <ele>241.50497436523</ele>
        <time>2014-11-05T14:09:25Z</time>
      </trkpt>
      <trkpt lat="43.42731" lon="6.12033">
        <ele>241.7693939209</ele>
        <time>2014-11-05T14:09:27Z</time>
      </trkpt>
      <trkpt lat="43.42731" lon="6.12037">
        <ele>241.56954956055</ele>
        <time>2014-11-05T14:09:28Z</time>
      </trkpt>
      <trkpt lat="43.42733" lon="6.1205">
        <ele>241.16116333008</ele>
        <time>2014-11-05T14:09:31Z</time>
      </trkpt>
      <trkpt lat="43.42733" lon="6.12058">
        <ele>241.14248657227</ele>
        <time>2014-11-05T14:09:33Z</time>
      </trkpt>
      <trkpt lat="43.42733" lon="6.12062">
        <ele>241.03890991211</ele>
        <time>2014-11-05T14:09:34Z</time>
      </trkpt>
      <trkpt lat="43.42736" lon="6.12076">
        <ele>240.4539642334</ele>
        <time>2014-11-05T14:09:37Z</time>
      </trkpt>
      <trkpt lat="43.42739" lon="6.12085">
        <ele>239.69232177734</ele>
        <time>2014-11-05T14:09:39Z</time>
      </trkpt>
      <trkpt lat="43.42743" lon="6.12096">
        <ele>238.55906677246</ele>
        <time>2014-11-05T14:09:41Z</time>
      </trkpt>
      <trkpt lat="43.42748" lon="6.12106">
        <ele>237.39497375488</ele>
        <time>2014-11-05T14:09:43Z</time>
      </trkpt>
      <trkpt lat="43.42752" lon="6.1211">
        <ele>236.5451965332</ele>
        <time>2014-11-05T14:09:44Z</time>
      </trkpt>
      <trkpt lat="43.42756" lon="6.12113">
        <ele>235.78230285644</ele>
        <time>2014-11-05T14:09:45Z</time>
      </trkpt>
      <trkpt lat="43.42758" lon="6.12119">
        <ele>235.1628112793</ele>
        <time>2014-11-05T14:09:47Z</time>
      </trkpt>
      <trkpt lat="43.42759" lon="6.12123">
        <ele>234.88423156738</ele>
        <time>2014-11-05T14:09:48Z</time>
      </trkpt>
      <trkpt lat="43.42761" lon="6.12127">
        <ele>234.51411437988</ele>
        <time>2014-11-05T14:09:49Z</time>
      </trkpt>
      <trkpt lat="43.42764" lon="6.12135">
        <ele>233.74726867676</ele>
        <time>2014-11-05T14:09:51Z</time>
      </trkpt>
      <trkpt lat="43.42769" lon="6.12144">
        <ele>232.40776062012</ele>
        <time>2014-11-05T14:09:53Z</time>
      </trkpt>
      <trkpt lat="43.42772" lon="6.12149">
        <ele>231.79821777344</ele>
        <time>2014-11-05T14:09:54Z</time>
      </trkpt>
      <trkpt lat="43.42773" lon="6.12152">
        <ele>231.38017272949</ele>
        <time>2014-11-05T14:09:55Z</time>
      </trkpt>
      <trkpt lat="43.42777" lon="6.12158">
        <ele>230.35809326172</ele>
        <time>2014-11-05T14:09:57Z</time>
      </trkpt>
      <trkpt lat="43.42781" lon="6.12163">
        <ele>229.33595275879</ele>
        <time>2014-11-05T14:09:59Z</time>
      </trkpt>
      <trkpt lat="43.42786" lon="6.12166">
        <ele>228.02784729004</ele>
        <time>2014-11-05T14:10:01Z</time>
      </trkpt>
      <trkpt lat="43.42791" lon="6.12167">
        <ele>226.66787719727</ele>
        <time>2014-11-05T14:10:03Z</time>
      </trkpt>
      <trkpt lat="43.42795" lon="6.12168">
        <ele>225.64163208008</ele>
        <time>2014-11-05T14:10:05Z</time>
      </trkpt>
      <trkpt lat="43.42803" lon="6.12167">
        <ele>223.55177307129</ele>
        <time>2014-11-05T14:10:09Z</time>
      </trkpt>
      <trkpt lat="43.42804" lon="6.12168">
        <ele>223.33549499512</ele>
        <time>2014-11-05T14:10:10Z</time>
      </trkpt>
      <trkpt lat="43.42805" lon="6.12168">
        <ele>222.9587097168</ele>
        <time>2014-11-05T14:10:11Z</time>
      </trkpt>
      <trkpt lat="43.4281" lon="6.12166">
        <ele>221.98675537109</ele>
        <time>2014-11-05T14:10:13Z</time>
      </trkpt>
      <trkpt lat="43.42812" lon="6.12165">
        <ele>221.33895874023</ele>
        <time>2014-11-05T14:10:14Z</time>
      </trkpt>
      <trkpt lat="43.42816" lon="6.12165">
        <ele>220.46934509277</ele>
        <time>2014-11-05T14:10:15Z</time>
      </trkpt>
      <trkpt lat="43.42822" lon="6.12164">
        <ele>218.99673461914</ele>
        <time>2014-11-05T14:10:17Z</time>
      </trkpt>
      <trkpt lat="43.4283" lon="6.12163">
        <ele>217.10780334473</ele>
        <time>2014-11-05T14:10:19Z</time>
      </trkpt>
      <trkpt lat="43.42834" lon="6.12163">
        <ele>216.03601074219</ele>
        <time>2014-11-05T14:10:21Z</time>
      </trkpt>
      <trkpt lat="43.42839" lon="6.12163">
        <ele>215.57366943359</ele>
        <time>2014-11-05T14:10:22Z</time>
      </trkpt>
      <trkpt lat="43.42844" lon="6.12163">
        <ele>214.96255493164</ele>
        <time>2014-11-05T14:10:23Z</time>
      </trkpt>
      <trkpt lat="43.42852" lon="6.12165">
        <ele>214.08364868164</ele>
        <time>2014-11-05T14:10:25Z</time>
      </trkpt>
      <trkpt lat="43.42859" lon="6.12164">
        <ele>213.38784790039</ele>
        <time>2014-11-05T14:10:27Z</time>
      </trkpt>
      <trkpt lat="43.4287" lon="6.12163">
        <ele>212.19766235352</ele>
        <time>2014-11-05T14:10:29Z</time>
      </trkpt>
      <trkpt lat="43.42884" lon="6.1216">
        <ele>210.88159179688</ele>
        <time>2014-11-05T14:10:31Z</time>
      </trkpt>
      <trkpt lat="43.42895" lon="6.12155">
        <ele>209.94546508789</ele>
        <time>2014-11-05T14:10:33Z</time>
      </trkpt>
      <trkpt lat="43.42905" lon="6.12139">
        <ele>209.60214233398</ele>
        <time>2014-11-05T14:10:36Z</time>
      </trkpt>
      <trkpt lat="43.42906" lon="6.12133">
        <ele>209.78753662109</ele>
        <time>2014-11-05T14:10:37Z</time>
      </trkpt>
      <trkpt lat="43.42905" lon="6.12127">
        <ele>210.13543701172</ele>
        <time>2014-11-05T14:10:38Z</time>
      </trkpt>
      <trkpt lat="43.42905" lon="6.12122">
        <ele>210.36889648438</ele>
        <time>2014-11-05T14:10:39Z</time>
      </trkpt>
      <trkpt lat="43.42907" lon="6.12109">
        <ele>210.83810424805</ele>
        <time>2014-11-05T14:10:41Z</time>
      </trkpt>
      <trkpt lat="43.42906" lon="6.12103">
        <ele>211.19973754883</ele>
        <time>2014-11-05T14:10:42Z</time>
      </trkpt>
      <trkpt lat="43.42906" lon="6.12096">
        <ele>211.53619384766</ele>
        <time>2014-11-05T14:10:43Z</time>
      </trkpt>
      <trkpt lat="43.42906" lon="6.12081">
        <ele>212.23992919922</ele>
        <time>2014-11-05T14:10:45Z</time>
      </trkpt>
      <trkpt lat="43.42905" lon="6.12067">
        <ele>213.0661315918</ele>
        <time>2014-11-05T14:10:47Z</time>
      </trkpt>
      <trkpt lat="43.42902" lon="6.12054">
        <ele>213.95225524902</ele>
        <time>2014-11-05T14:10:49Z</time>
      </trkpt>
      <trkpt lat="43.42899" lon="6.12044">
        <ele>214.71932983398</ele>
        <time>2014-11-05T14:10:51Z</time>
      </trkpt>
      <trkpt lat="43.42899" lon="6.1204">
        <ele>214.94227600098</ele>
        <time>2014-11-05T14:10:52Z</time>
      </trkpt>
      <trkpt lat="43.42898" lon="6.12035">
        <ele>215.1886138916</ele>
        <time>2014-11-05T14:10:53Z</time>
      </trkpt>
      <trkpt lat="43.42898" lon="6.12025">
        <ele>215.61882019043</ele>
        <time>2014-11-05T14:10:55Z</time>
      </trkpt>
      <trkpt lat="43.42896" lon="6.12009">
        <ele>216.58952331543</ele>
        <time>2014-11-05T14:10:58Z</time>
      </trkpt>
      <trkpt lat="43.42894" lon="6.12004">
        <ele>216.95368957519</ele>
        <time>2014-11-05T14:10:59Z</time>
      </trkpt>
      <trkpt lat="43.42886" lon="6.11987">
        <ele>218.36032104492</ele>
        <time>2014-11-05T14:11:03Z</time>
      </trkpt>
      <trkpt lat="43.42884" lon="6.11979">
        <ele>218.92565917969</ele>
        <time>2014-11-05T14:11:05Z</time>
      </trkpt>
      <trkpt lat="43.42881" lon="6.11971">
        <ele>219.43206787109</ele>
        <time>2014-11-05T14:11:07Z</time>
      </trkpt>
      <trkpt lat="43.42881" lon="6.11963">
        <ele>219.75021362305</ele>
        <time>2014-11-05T14:11:09Z</time>
      </trkpt>
      <trkpt lat="43.42878" lon="6.11942">
        <ele>220.76528930664</ele>
        <time>2014-11-05T14:11:13Z</time>
      </trkpt>
      <trkpt lat="43.42877" lon="6.1193">
        <ele>221.29400634766</ele>
        <time>2014-11-05T14:11:15Z</time>
      </trkpt>
      <trkpt lat="43.42877" lon="6.11918">
        <ele>221.74891662598</ele>
        <time>2014-11-05T14:11:17Z</time>
      </trkpt>
      <trkpt lat="43.42878" lon="6.11907">
        <ele>222.26689147949</ele>
        <time>2014-11-05T14:11:19Z</time>
      </trkpt>
      <trkpt lat="43.42877" lon="6.119">
        <ele>222.82879638672</ele>
        <time>2014-11-05T14:11:21Z</time>
      </trkpt>
      <trkpt lat="43.42875" lon="6.11894">
        <ele>223.30715942383</ele>
        <time>2014-11-05T14:11:23Z</time>
      </trkpt>
      <trkpt lat="43.42874" lon="6.11891">
        <ele>223.64590454102</ele>
        <time>2014-11-05T14:11:25Z</time>
      </trkpt>
      <trkpt lat="43.42874" lon="6.1189">
        <ele>223.68023681641</ele>
        <time>2014-11-05T14:11:26Z</time>
      </trkpt>
      <trkpt lat="43.42874" lon="6.1189">
        <ele>223.68881225586</ele>
        <time>2014-11-05T14:11:27Z</time>
      </trkpt>
      <trkpt lat="43.42874" lon="6.1189">
        <ele>223.73974609375</ele>
        <time>2014-11-05T14:11:29Z</time>
      </trkpt>
      <trkpt lat="43.42874" lon="6.11888">
        <ele>223.81985473633</ele>
        <time>2014-11-05T14:11:31Z</time>
      </trkpt>
      <trkpt lat="43.42873" lon="6.11885">
        <ele>224.10766601562</ele>
        <time>2014-11-05T14:11:33Z</time>
      </trkpt>
      <trkpt lat="43.42873" lon="6.11883">
        <ele>224.27017211914</ele>
        <time>2014-11-05T14:11:34Z</time>
      </trkpt>
      <trkpt lat="43.42873" lon="6.11879">
        <ele>224.46759033203</ele>
        <time>2014-11-05T14:11:37Z</time>
      </trkpt>
      <trkpt lat="43.42873" lon="6.11878">
        <ele>224.51107788086</ele>
        <time>2014-11-05T14:11:38Z</time>
      </trkpt>
      <trkpt lat="43.42873" lon="6.11876">
        <ele>224.60891723633</ele>
        <time>2014-11-05T14:11:39Z</time>
      </trkpt>
      <trkpt lat="43.42874" lon="6.11872">
        <ele>224.78744506836</ele>
        <time>2014-11-05T14:11:41Z</time>
      </trkpt>
      <trkpt lat="43.42875" lon="6.11864">
        <ele>225.14678955078</ele>
        <time>2014-11-05T14:11:44Z</time>
      </trkpt>
      <trkpt lat="43.42874" lon="6.11861">
        <ele>225.41401672363</ele>
        <time>2014-11-05T14:11:45Z</time>
      </trkpt>
      <trkpt lat="43.42871" lon="6.11852">
        <ele>226.19393920898</ele>
        <time>2014-11-05T14:11:48Z</time>
      </trkpt>
      <trkpt lat="43.4287" lon="6.11849">
        <ele>226.49835205078</ele>
        <time>2014-11-05T14:11:49Z</time>
      </trkpt>
      <trkpt lat="43.4287" lon="6.11846">
        <ele>226.69003295898</ele>
        <time>2014-11-05T14:11:50Z</time>
      </trkpt>
      <trkpt lat="43.42871" lon="6.11842">
        <ele>226.88516235352</ele>
        <time>2014-11-05T14:11:51Z</time>
      </trkpt>
      <trkpt lat="43.42871" lon="6.11837">
        <ele>227.13749694824</ele>
        <time>2014-11-05T14:11:52Z</time>
      </trkpt>
      <trkpt lat="43.42871" lon="6.11833">
        <ele>227.4571685791</ele>
        <time>2014-11-05T14:11:53Z</time>
      </trkpt>
      <trkpt lat="43.42872" lon="6.11823">
        <ele>228.35029602051</ele>
        <time>2014-11-05T14:11:55Z</time>
      </trkpt>
      <trkpt lat="43.42873" lon="6.11815">
        <ele>229.02027893066</ele>
        <time>2014-11-05T14:11:57Z</time>
      </trkpt>
      <trkpt lat="43.42874" lon="6.11808">
        <ele>229.64817810059</ele>
        <time>2014-11-05T14:11:59Z</time>
      </trkpt>
      <trkpt lat="43.42874" lon="6.11805">
        <ele>230.01612854004</ele>
        <time>2014-11-05T14:12:00Z</time>
      </trkpt>
      <trkpt lat="43.42875" lon="6.118">
        <ele>230.39831542969</ele>
        <time>2014-11-05T14:12:01Z</time>
      </trkpt>
      <trkpt lat="43.42876" lon="6.1179">
        <ele>231.36080932617</ele>
        <time>2014-11-05T14:12:03Z</time>
      </trkpt>
      <trkpt lat="43.42876" lon="6.11782">
        <ele>232.22250366211</ele>
        <time>2014-11-05T14:12:05Z</time>
      </trkpt>
      <trkpt lat="43.42876" lon="6.11778">
        <ele>232.59736633301</ele>
        <time>2014-11-05T14:12:06Z</time>
      </trkpt>
      <trkpt lat="43.42876" lon="6.11775">
        <ele>232.86999511719</ele>
        <time>2014-11-05T14:12:07Z</time>
      </trkpt>
      <trkpt lat="43.42876" lon="6.11772">
        <ele>233.23025512695</ele>
        <time>2014-11-05T14:12:09Z</time>
      </trkpt>
      <trkpt lat="43.42876" lon="6.11768">
        <ele>233.54879760742</ele>
        <time>2014-11-05T14:12:11Z</time>
      </trkpt>
      <trkpt lat="43.42876" lon="6.11766">
        <ele>233.7706451416</ele>
        <time>2014-11-05T14:12:13Z</time>
      </trkpt>
      <trkpt lat="43.42875" lon="6.11766">
        <ele>233.86196899414</ele>
        <time>2014-11-05T14:12:15Z</time>
      </trkpt>
      <trkpt lat="43.42875" lon="6.11766">
        <ele>233.89117431641</ele>
        <time>2014-11-05T14:12:19Z</time>
      </trkpt>
      <trkpt lat="43.42875" lon="6.11765">
        <ele>233.9483795166</ele>
        <time>2014-11-05T14:12:21Z</time>
      </trkpt>
      <trkpt lat="43.42875" lon="6.11765">
        <ele>233.95811462402</ele>
        <time>2014-11-05T14:12:23Z</time>
      </trkpt>
      <trkpt lat="43.42875" lon="6.11765">
        <ele>233.97270202637</ele>
        <time>2014-11-05T14:12:25Z</time>
      </trkpt>
      <trkpt lat="43.42875" lon="6.11765">
        <ele>233.92036437988</ele>
        <time>2014-11-05T14:12:27Z</time>
      </trkpt>
      <trkpt lat="43.42876" lon="6.11765">
        <ele>233.88748168945</ele>
        <time>2014-11-05T14:12:29Z</time>
      </trkpt>
      <trkpt lat="43.42876" lon="6.11765">
        <ele>233.89721679688</ele>
        <time>2014-11-05T14:12:31Z</time>
      </trkpt>
      <trkpt lat="43.42876" lon="6.11765">
        <ele>233.90208435059</ele>
        <time>2014-11-05T14:12:33Z</time>
      </trkpt>
      <trkpt lat="43.42876" lon="6.11765">
        <ele>233.88748168945</ele>
        <time>2014-11-05T14:12:37Z</time>
      </trkpt>
      <trkpt lat="43.42876" lon="6.11765">
        <ele>233.89234924316</ele>
        <time>2014-11-05T14:12:41Z</time>
      </trkpt>
      <trkpt lat="43.42876" lon="6.11765">
        <ele>233.84973144531</ele>
        <time>2014-11-05T14:12:43Z</time>
      </trkpt>
      <trkpt lat="43.42876" lon="6.11765">
        <ele>233.83999633789</ele>
        <time>2014-11-05T14:12:44Z</time>
      </trkpt>
      <trkpt lat="43.42876" lon="6.11765">
        <ele>233.83999633789</ele>
        <time>2014-11-05T14:12:45Z</time>
      </trkpt>
      <trkpt lat="43.42876" lon="6.11765">
        <ele>233.81198120117</ele>
        <time>2014-11-05T14:12:47Z</time>
      </trkpt>
      <trkpt lat="43.42877" lon="6.11765">
        <ele>233.79371643066</ele>
        <time>2014-11-05T14:12:49Z</time>
      </trkpt>
      <trkpt lat="43.42878" lon="6.11765">
        <ele>233.70129394531</ele>
        <time>2014-11-05T14:12:51Z</time>
      </trkpt>
      <trkpt lat="43.42878" lon="6.11765">
        <ele>233.73904418945</ele>
        <time>2014-11-05T14:12:52Z</time>
      </trkpt>
      <trkpt lat="43.42878" lon="6.11765">
        <ele>233.73062133789</ele>
        <time>2014-11-05T14:12:53Z</time>
      </trkpt>
      <trkpt lat="43.42878" lon="6.11764">
        <ele>233.73550415039</ele>
        <time>2014-11-05T14:12:55Z</time>
      </trkpt>
      <trkpt lat="43.42878" lon="6.11764">
        <ele>233.74528503418</ele>
        <time>2014-11-05T14:12:57Z</time>
      </trkpt>
      <trkpt lat="43.42879" lon="6.11765">
        <ele>233.69288635254</ele>
        <time>2014-11-05T14:12:59Z</time>
      </trkpt>
      <trkpt lat="43.42879" lon="6.11765">
        <ele>233.67822265625</ele>
        <time>2014-11-05T14:13:01Z</time>
      </trkpt>
      <trkpt lat="43.42879" lon="6.11765">
        <ele>233.67822265625</ele>
        <time>2014-11-05T14:13:05Z</time>
      </trkpt>
      <trkpt lat="43.42879" lon="6.11765">
        <ele>233.67822265625</ele>
        <time>2014-11-05T14:13:07Z</time>
      </trkpt>
      <trkpt lat="43.42879" lon="6.11765">
        <ele>233.66844177246</ele>
        <time>2014-11-05T14:13:09Z</time>
      </trkpt>
      <trkpt lat="43.42879" lon="6.11765">
        <ele>233.58666992188</ele>
        <time>2014-11-05T14:13:11Z</time>
      </trkpt>
      <trkpt lat="43.42879" lon="6.11766">
        <ele>233.51951599121</ele>
        <time>2014-11-05T14:13:12Z</time>
      </trkpt>
      <trkpt lat="43.42879" lon="6.11766">
        <ele>233.49993896484</ele>
        <time>2014-11-05T14:13:13Z</time>
      </trkpt>
      <trkpt lat="43.42879" lon="6.11766">
        <ele>233.48036193848</ele>
        <time>2014-11-05T14:13:17Z</time>
      </trkpt>
      <trkpt lat="43.4288" lon="6.11766">
        <ele>233.4327545166</ele>
        <time>2014-11-05T14:13:19Z</time>
      </trkpt>
      <trkpt lat="43.4288" lon="6.11766">
        <ele>233.4327545166</ele>
        <time>2014-11-05T14:13:21Z</time>
      </trkpt>
      <trkpt lat="43.4288" lon="6.11766">
        <ele>233.39491271973</ele>
        <time>2014-11-05T14:13:23Z</time>
      </trkpt>
      <trkpt lat="43.42881" lon="6.11766">
        <ele>233.34727478027</ele>
        <time>2014-11-05T14:13:25Z</time>
      </trkpt>
      <trkpt lat="43.42881" lon="6.11766">
        <ele>233.29962158203</ele>
        <time>2014-11-05T14:13:27Z</time>
      </trkpt>
      <trkpt lat="43.42881" lon="6.11767">
        <ele>233.29472351074</ele>
        <time>2014-11-05T14:13:29Z</time>
      </trkpt>
      <trkpt lat="43.42881" lon="6.11766">
        <ele>233.32905578613</ele>
        <time>2014-11-05T14:13:31Z</time>
      </trkpt>
      <trkpt lat="43.42881" lon="6.11766">
        <ele>233.33395385742</ele>
        <time>2014-11-05T14:13:33Z</time>
      </trkpt>
      <trkpt lat="43.42881" lon="6.11766">
        <ele>233.35218811035</ele>
        <time>2014-11-05T14:13:34Z</time>
      </trkpt>
      <trkpt lat="43.42881" lon="6.11766">
        <ele>233.35218811035</ele>
        <time>2014-11-05T14:13:37Z</time>
      </trkpt>
      <trkpt lat="43.42881" lon="6.11766">
        <ele>233.36688232422</ele>
        <time>2014-11-05T14:13:39Z</time>
      </trkpt>
      <trkpt lat="43.42881" lon="6.11766">
        <ele>233.35708618164</ele>
        <time>2014-11-05T14:13:43Z</time>
      </trkpt>
      <trkpt lat="43.42881" lon="6.11767">
        <ele>233.32766723633</ele>
        <time>2014-11-05T14:13:47Z</time>
      </trkpt>
      <trkpt lat="43.42881" lon="6.11767">
        <ele>233.32766723633</ele>
        <time>2014-11-05T14:13:49Z</time>
      </trkpt>
      <trkpt lat="43.42881" lon="6.11767">
        <ele>233.27510070801</ele>
        <time>2014-11-05T14:13:51Z</time>
      </trkpt>
      <trkpt lat="43.42881" lon="6.11767">
        <ele>233.20288085938</ele>
        <time>2014-11-05T14:13:53Z</time>
      </trkpt>
      <trkpt lat="43.42883" lon="6.11769">
        <ele>232.91848754883</ele>
        <time>2014-11-05T14:13:55Z</time>
      </trkpt>
      <trkpt lat="43.42883" lon="6.11768">
        <ele>232.93815612793</ele>
        <time>2014-11-05T14:13:57Z</time>
      </trkpt>
      <trkpt lat="43.42884" lon="6.11769">
        <ele>232.80311584473</ele>
        <time>2014-11-05T14:13:59Z</time>
      </trkpt>
      <trkpt lat="43.42884" lon="6.1177">
        <ele>232.62358093262</ele>
        <time>2014-11-05T14:14:01Z</time>
      </trkpt>
      <trkpt lat="43.42885" lon="6.11771">
        <ele>232.48194885254</ele>
        <time>2014-11-05T14:14:03Z</time>
      </trkpt>
      <trkpt lat="43.42885" lon="6.11772">
        <ele>232.44743347168</ele>
        <time>2014-11-05T14:14:05Z</time>
      </trkpt>
      <trkpt lat="43.42885" lon="6.11771">
        <ele>232.48687744141</ele>
        <time>2014-11-05T14:14:07Z</time>
      </trkpt>
      <trkpt lat="43.42885" lon="6.11771">
        <ele>232.49180603027</ele>
        <time>2014-11-05T14:14:09Z</time>
      </trkpt>
      <trkpt lat="43.42885" lon="6.11771">
        <ele>232.45236206055</ele>
        <time>2014-11-05T14:14:11Z</time>
      </trkpt>
      <trkpt lat="43.42886" lon="6.11772">
        <ele>232.35629272461</ele>
        <time>2014-11-05T14:14:13Z</time>
      </trkpt>
      <trkpt lat="43.42886" lon="6.11772">
        <ele>232.30824279785</ele>
        <time>2014-11-05T14:14:15Z</time>
      </trkpt>
      <trkpt lat="43.42886" lon="6.11772">
        <ele>232.30824279785</ele>
        <time>2014-11-05T14:14:17Z</time>
      </trkpt>
      <trkpt lat="43.42886" lon="6.11772">
        <ele>232.29835510254</ele>
        <time>2014-11-05T14:14:19Z</time>
      </trkpt>
      <trkpt lat="43.42887" lon="6.11775">
        <ele>231.91662597656</ele>
        <time>2014-11-05T14:14:21Z</time>
      </trkpt>
      <trkpt lat="43.42889" lon="6.11778">
        <ele>231.49052429199</ele>
        <time>2014-11-05T14:14:23Z</time>
      </trkpt>
      <trkpt lat="43.42889" lon="6.11778">
        <ele>231.32415771484</ele>
        <time>2014-11-05T14:14:25Z</time>
      </trkpt>
      <trkpt lat="43.42889" lon="6.11779">
        <ele>231.33793640137</ele>
        <time>2014-11-05T14:14:27Z</time>
      </trkpt>
      <trkpt lat="43.42889" lon="6.11779">
        <ele>231.33297729492</ele>
        <time>2014-11-05T14:14:28Z</time>
      </trkpt>
      <trkpt lat="43.42889" lon="6.11779">
        <ele>231.30430603027</ele>
        <time>2014-11-05T14:14:29Z</time>
      </trkpt>
      <trkpt lat="43.42889" lon="6.11779">
        <ele>231.29934692383</ele>
        <time>2014-11-05T14:14:31Z</time>
      </trkpt>
      <trkpt lat="43.42889" lon="6.11779">
        <ele>231.29934692383</ele>
        <time>2014-11-05T14:14:33Z</time>
      </trkpt>
      <trkpt lat="43.42889" lon="6.11779">
        <ele>231.30430603027</ele>
        <time>2014-11-05T14:14:35Z</time>
      </trkpt>
      <trkpt lat="43.42889" lon="6.11779">
        <ele>231.30430603027</ele>
        <time>2014-11-05T14:14:37Z</time>
      </trkpt>
      <trkpt lat="43.42889" lon="6.11779">
        <ele>231.26957702637</ele>
        <time>2014-11-05T14:14:39Z</time>
      </trkpt>
      <trkpt lat="43.42889" lon="6.11779">
        <ele>231.24476623535</ele>
        <time>2014-11-05T14:14:41Z</time>
      </trkpt>
      <trkpt lat="43.42889" lon="6.11779">
        <ele>231.24476623535</ele>
        <time>2014-11-05T14:14:42Z</time>
      </trkpt>
      <trkpt lat="43.42889" lon="6.11779">
        <ele>231.23979187012</ele>
        <time>2014-11-05T14:14:43Z</time>
      </trkpt>
      <trkpt lat="43.42889" lon="6.11779">
        <ele>231.23979187012</ele>
        <time>2014-11-05T14:14:45Z</time>
      </trkpt>
      <trkpt lat="43.42889" lon="6.11779">
        <ele>231.26957702637</ele>
        <time>2014-11-05T14:14:54Z</time>
      </trkpt>
      <trkpt lat="43.42889" lon="6.11779">
        <ele>231.25964355469</ele>
        <time>2014-11-05T14:14:55Z</time>
      </trkpt>
      <trkpt lat="43.42889" lon="6.11779">
        <ele>231.2497253418</ele>
        <time>2014-11-05T14:14:57Z</time>
      </trkpt>
      <trkpt lat="43.4289" lon="6.1178">
        <ele>231.05326843262</ele>
        <time>2014-11-05T14:14:59Z</time>
      </trkpt>
      <trkpt lat="43.42892" lon="6.11784">
        <ele>230.46627807617</ele>
        <time>2014-11-05T14:15:01Z</time>
      </trkpt>
      <trkpt lat="43.42894" lon="6.11789">
        <ele>229.82640075684</ele>
        <time>2014-11-05T14:15:03Z</time>
      </trkpt>
      <trkpt lat="43.42896" lon="6.11796">
        <ele>228.97978210449</ele>
        <time>2014-11-05T14:15:05Z</time>
      </trkpt>
      <trkpt lat="43.42896" lon="6.118">
        <ele>228.54438781738</ele>
        <time>2014-11-05T14:15:06Z</time>
      </trkpt>
      <trkpt lat="43.42896" lon="6.11804">
        <ele>228.13400268555</ele>
        <time>2014-11-05T14:15:07Z</time>
      </trkpt>
      <trkpt lat="43.42897" lon="6.11811">
        <ele>227.23204040527</ele>
        <time>2014-11-05T14:15:09Z</time>
      </trkpt>
      <trkpt lat="43.42899" lon="6.11819">
        <ele>226.24522399902</ele>
        <time>2014-11-05T14:15:11Z</time>
      </trkpt>
      <trkpt lat="43.429" lon="6.11827">
        <ele>225.17990112305</ele>
        <time>2014-11-05T14:15:13Z</time>
      </trkpt>
      <trkpt lat="43.42902" lon="6.11832">
        <ele>224.56636047363</ele>
        <time>2014-11-05T14:15:14Z</time>
      </trkpt>
      <trkpt lat="43.42903" lon="6.11837">
        <ele>224.10366821289</ele>
        <time>2014-11-05T14:15:15Z</time>
      </trkpt>
      <trkpt lat="43.42904" lon="6.11847">
        <ele>223.33920288086</ele>
        <time>2014-11-05T14:15:17Z</time>
      </trkpt>
      <trkpt lat="43.42907" lon="6.11858">
        <ele>222.48432922363</ele>
        <time>2014-11-05T14:15:19Z</time>
      </trkpt>
      <trkpt lat="43.42908" lon="6.11867">
        <ele>221.78280639648</ele>
        <time>2014-11-05T14:15:21Z</time>
      </trkpt>
      <trkpt lat="43.42909" lon="6.11872">
        <ele>221.37826538086</ele>
        <time>2014-11-05T14:15:22Z</time>
      </trkpt>
      <trkpt lat="43.4291" lon="6.11877">
        <ele>221.00518798828</ele>
        <time>2014-11-05T14:15:23Z</time>
      </trkpt>
      <trkpt lat="43.42913" lon="6.11887">
        <ele>220.16174316406</ele>
        <time>2014-11-05T14:15:25Z</time>
      </trkpt>
      <trkpt lat="43.42915" lon="6.11896">
        <ele>219.33892822266</ele>
        <time>2014-11-05T14:15:27Z</time>
      </trkpt>
      <trkpt lat="43.42917" lon="6.11906">
        <ele>218.64613342285</ele>
        <time>2014-11-05T14:15:29Z</time>
      </trkpt>
      <trkpt lat="43.42916" lon="6.11914">
        <ele>218.1647644043</ele>
        <time>2014-11-05T14:15:31Z</time>
      </trkpt>
      <trkpt lat="43.42917" lon="6.11917">
        <ele>217.99174499512</ele>
        <time>2014-11-05T14:15:32Z</time>
      </trkpt>
      <trkpt lat="43.42918" lon="6.11919">
        <ele>217.88778686523</ele>
        <time>2014-11-05T14:15:33Z</time>
      </trkpt>
      <trkpt lat="43.4292" lon="6.11927">
        <ele>217.57417297363</ele>
        <time>2014-11-05T14:15:35Z</time>
      </trkpt>
      <trkpt lat="43.42921" lon="6.11933">
        <ele>217.34889221191</ele>
        <time>2014-11-05T14:15:36Z</time>
      </trkpt>
      <trkpt lat="43.42922" lon="6.11938">
        <ele>217.16471862793</ele>
        <time>2014-11-05T14:15:37Z</time>
      </trkpt>
      <trkpt lat="43.42923" lon="6.11942">
        <ele>216.9743347168</ele>
        <time>2014-11-05T14:15:38Z</time>
      </trkpt>
      <trkpt lat="43.42926" lon="6.11946">
        <ele>216.79710388184</ele>
        <time>2014-11-05T14:15:39Z</time>
      </trkpt>
      <trkpt lat="43.42929" lon="6.11956">
        <ele>216.36254882812</ele>
        <time>2014-11-05T14:15:41Z</time>
      </trkpt>
      <trkpt lat="43.42932" lon="6.11967">
        <ele>215.87248229981</ele>
        <time>2014-11-05T14:15:43Z</time>
      </trkpt>
      <trkpt lat="43.42935" lon="6.1198">
        <ele>215.33784484863</ele>
        <time>2014-11-05T14:15:45Z</time>
      </trkpt>
      <trkpt lat="43.42936" lon="6.11987">
        <ele>215.05839538574</ele>
        <time>2014-11-05T14:15:46Z</time>
      </trkpt>
      <trkpt lat="43.42936" lon="6.12">
        <ele>214.51272583008</ele>
        <time>2014-11-05T14:15:48Z</time>
      </trkpt>
      <trkpt lat="43.42944" lon="6.12016">
        <ele>213.57659912109</ele>
        <time>2014-11-05T14:15:51Z</time>
      </trkpt>
      <trkpt lat="43.42947" lon="6.12022">
        <ele>213.20581054688</ele>
        <time>2014-11-05T14:15:52Z</time>
      </trkpt>
      <trkpt lat="43.42949" lon="6.12028">
        <ele>212.86477661133</ele>
        <time>2014-11-05T14:15:53Z</time>
      </trkpt>
      <trkpt lat="43.42953" lon="6.12042">
        <ele>212.11175537109</ele>
        <time>2014-11-05T14:15:55Z</time>
      </trkpt>
      <trkpt lat="43.42956" lon="6.12056">
        <ele>211.37475585938</ele>
        <time>2014-11-05T14:15:57Z</time>
      </trkpt>
      <trkpt lat="43.4296" lon="6.12071">
        <ele>210.58053588867</ele>
        <time>2014-11-05T14:15:59Z</time>
      </trkpt>
      <trkpt lat="43.42964" lon="6.12085">
        <ele>209.77258300781</ele>
        <time>2014-11-05T14:16:01Z</time>
      </trkpt>
      <trkpt lat="43.42966" lon="6.12093">
        <ele>209.3674621582</ele>
        <time>2014-11-05T14:16:02Z</time>
      </trkpt>
      <trkpt lat="43.42968" lon="6.121">
        <ele>208.99896240234</ele>
        <time>2014-11-05T14:16:03Z</time>
      </trkpt>
      <trkpt lat="43.42972" lon="6.12114">
        <ele>208.22534179688</ele>
        <time>2014-11-05T14:16:05Z</time>
      </trkpt>
      <trkpt lat="43.42976" lon="6.12128">
        <ele>207.43798828125</ele>
        <time>2014-11-05T14:16:07Z</time>
      </trkpt>
      <trkpt lat="43.42979" lon="6.12141">
        <ele>206.7421875</ele>
        <time>2014-11-05T14:16:09Z</time>
      </trkpt>
      <trkpt lat="43.42984" lon="6.12154">
        <ele>205.98229980469</ele>
        <time>2014-11-05T14:16:11Z</time>
      </trkpt>
      <trkpt lat="43.42991" lon="6.12182">
        <ele>204.49227905273</ele>
        <time>2014-11-05T14:16:15Z</time>
      </trkpt>
      <trkpt lat="43.42995" lon="6.12196">
        <ele>203.72323608398</ele>
        <time>2014-11-05T14:16:17Z</time>
      </trkpt>
      <trkpt lat="43.42997" lon="6.12203">
        <ele>203.32727050781</ele>
        <time>2014-11-05T14:16:18Z</time>
      </trkpt>
      <trkpt lat="43.42998" lon="6.1221">
        <ele>202.95190429688</ele>
        <time>2014-11-05T14:16:19Z</time>
      </trkpt>
      <trkpt lat="43.43002" lon="6.12225">
        <ele>202.21269226074</ele>
        <time>2014-11-05T14:16:21Z</time>
      </trkpt>
      <trkpt lat="43.43005" lon="6.1224">
        <ele>201.54888916016</ele>
        <time>2014-11-05T14:16:23Z</time>
      </trkpt>
      <trkpt lat="43.4301" lon="6.12253">
        <ele>200.97119140625</ele>
        <time>2014-11-05T14:16:25Z</time>
      </trkpt>
      <trkpt lat="43.43013" lon="6.12265">
        <ele>200.45681762695</ele>
        <time>2014-11-05T14:16:27Z</time>
      </trkpt>
      <trkpt lat="43.43015" lon="6.12271">
        <ele>200.20481872559</ele>
        <time>2014-11-05T14:16:28Z</time>
      </trkpt>
      <trkpt lat="43.43016" lon="6.12276">
        <ele>199.98428344727</ele>
        <time>2014-11-05T14:16:29Z</time>
      </trkpt>
      <trkpt lat="43.43017" lon="6.12281">
        <ele>199.77827453613</ele>
        <time>2014-11-05T14:16:30Z</time>
      </trkpt>
      <trkpt lat="43.43018" lon="6.12286">
        <ele>199.60252380371</ele>
        <time>2014-11-05T14:16:31Z</time>
      </trkpt>
      <trkpt lat="43.43019" lon="6.12289">
        <ele>199.46430969238</ele>
        <time>2014-11-05T14:16:32Z</time>
      </trkpt>
      <trkpt lat="43.43018" lon="6.12291">
        <ele>199.3624420166</ele>
        <time>2014-11-05T14:16:33Z</time>
      </trkpt>
      <trkpt lat="43.43018" lon="6.12296">
        <ele>199.11587524414</ele>
        <time>2014-11-05T14:16:35Z</time>
      </trkpt>
      <trkpt lat="43.43018" lon="6.12299">
        <ele>198.99041748047</ele>
        <time>2014-11-05T14:16:36Z</time>
      </trkpt>
      <trkpt lat="43.43019" lon="6.12301">
        <ele>198.91993713379</ele>
        <time>2014-11-05T14:16:37Z</time>
      </trkpt>
      <trkpt lat="43.4302" lon="6.12305">
        <ele>198.73971557617</ele>
        <time>2014-11-05T14:16:39Z</time>
      </trkpt>
      <trkpt lat="43.43021" lon="6.12317">
        <ele>198.21601867676</ele>
        <time>2014-11-05T14:16:43Z</time>
      </trkpt>
      <trkpt lat="43.43021" lon="6.12325">
        <ele>197.90486145019</ele>
        <time>2014-11-05T14:16:45Z</time>
      </trkpt>
      <trkpt lat="43.43022" lon="6.12334">
        <ele>197.51536560059</ele>
        <time>2014-11-05T14:16:47Z</time>
      </trkpt>
      <trkpt lat="43.43023" lon="6.12339">
        <ele>197.31871032715</ele>
        <time>2014-11-05T14:16:48Z</time>
      </trkpt>
      <trkpt lat="43.43023" lon="6.12344">
        <ele>197.11723327637</ele>
        <time>2014-11-05T14:16:49Z</time>
      </trkpt>
      <trkpt lat="43.43024" lon="6.12353">
        <ele>196.77848815918</ele>
        <time>2014-11-05T14:16:51Z</time>
      </trkpt>
      <trkpt lat="43.43024" lon="6.12359">
        <ele>196.52954101562</ele>
        <time>2014-11-05T14:16:53Z</time>
      </trkpt>
      <trkpt lat="43.43024" lon="6.12365">
        <ele>196.26992797852</ele>
        <time>2014-11-05T14:16:55Z</time>
      </trkpt>
      <trkpt lat="43.43022" lon="6.12369">
        <ele>196.03884887695</ele>
        <time>2014-11-05T14:16:57Z</time>
      </trkpt>
      <trkpt lat="43.4302" lon="6.12372">
        <ele>195.83865356445</ele>
        <time>2014-11-05T14:16:59Z</time>
      </trkpt>
      <trkpt lat="43.43018" lon="6.12375">
        <ele>195.62727355957</ele>
        <time>2014-11-05T14:17:01Z</time>
      </trkpt>
      <trkpt lat="43.43015" lon="6.12377">
        <ele>195.45803833008</ele>
        <time>2014-11-05T14:17:03Z</time>
      </trkpt>
      <trkpt lat="43.43014" lon="6.12378">
        <ele>195.38890075684</ele>
        <time>2014-11-05T14:17:05Z</time>
      </trkpt>
      <trkpt lat="43.43014" lon="6.12378">
        <ele>195.36857604981</ele>
        <time>2014-11-05T14:17:06Z</time>
      </trkpt>
      <trkpt lat="43.43014" lon="6.12378">
        <ele>195.36647033691</ele>
        <time>2014-11-05T14:17:07Z</time>
      </trkpt>
      <trkpt lat="43.43014" lon="6.12378">
        <ele>195.36016845703</ele>
        <time>2014-11-05T14:17:09Z</time>
      </trkpt>
      <trkpt lat="43.43014" lon="6.12378">
        <ele>195.35807800293</ele>
        <time>2014-11-05T14:17:15Z</time>
      </trkpt>
      <trkpt lat="43.43014" lon="6.12378">
        <ele>195.35597229004</ele>
        <time>2014-11-05T14:17:17Z</time>
      </trkpt>
      <trkpt lat="43.43014" lon="6.12378">
        <ele>195.35597229004</ele>
        <time>2014-11-05T14:17:21Z</time>
      </trkpt>
      <trkpt lat="43.43014" lon="6.12378">
        <ele>195.35597229004</ele>
        <time>2014-11-05T14:17:31Z</time>
      </trkpt>
      <trkpt lat="43.43014" lon="6.12378">
        <ele>195.35597229004</ele>
        <time>2014-11-05T14:17:33Z</time>
      </trkpt>
      <trkpt lat="43.43014" lon="6.12378">
        <ele>195.34547424316</ele>
        <time>2014-11-05T14:17:35Z</time>
      </trkpt>
      <trkpt lat="43.43013" lon="6.12378">
        <ele>195.33135986328</ele>
        <time>2014-11-05T14:17:37Z</time>
      </trkpt>
      <trkpt lat="43.43013" lon="6.12378">
        <ele>195.33767700195</ele>
        <time>2014-11-05T14:17:39Z</time>
      </trkpt>
      <trkpt lat="43.43013" lon="6.12378">
        <ele>195.33557128906</ele>
        <time>2014-11-05T14:17:45Z</time>
      </trkpt>
      <trkpt lat="43.43013" lon="6.12378">
        <ele>195.33346557617</ele>
        <time>2014-11-05T14:17:51Z</time>
      </trkpt>
      <trkpt lat="43.43013" lon="6.12378">
        <ele>195.33346557617</ele>
        <time>2014-11-05T14:17:55Z</time>
      </trkpt>
      <trkpt lat="43.43014" lon="6.12378">
        <ele>195.34757995606</ele>
        <time>2014-11-05T14:17:57Z</time>
      </trkpt>
      <trkpt lat="43.43013" lon="6.12378">
        <ele>195.33135986328</ele>
        <time>2014-11-05T14:17:59Z</time>
      </trkpt>
      <trkpt lat="43.43013" lon="6.12378">
        <ele>195.33135986328</ele>
        <time>2014-11-05T14:18:05Z</time>
      </trkpt>
      <trkpt lat="43.43013" lon="6.12378">
        <ele>195.33557128906</ele>
        <time>2014-11-05T14:18:11Z</time>
      </trkpt>
      <trkpt lat="43.43013" lon="6.12378">
        <ele>195.33767700195</ele>
        <time>2014-11-05T14:18:19Z</time>
      </trkpt>
      <trkpt lat="43.43013" lon="6.12378">
        <ele>195.34188842773</ele>
        <time>2014-11-05T14:18:21Z</time>
      </trkpt>
      <trkpt lat="43.43013" lon="6.12378">
        <ele>195.34188842773</ele>
        <time>2014-11-05T14:18:23Z</time>
      </trkpt>
      <trkpt lat="43.43013" lon="6.12377">
        <ele>195.34545898438</ele>
        <time>2014-11-05T14:18:25Z</time>
      </trkpt>
      <trkpt lat="43.43011" lon="6.12376">
        <ele>195.32257080078</ele>
        <time>2014-11-05T14:18:27Z</time>
      </trkpt>
      <trkpt lat="43.43008" lon="6.12375">
        <ele>195.28790283203</ele>
        <time>2014-11-05T14:18:29Z</time>
      </trkpt>
      <trkpt lat="43.43007" lon="6.12373">
        <ele>195.31497192383</ele>
        <time>2014-11-05T14:18:30Z</time>
      </trkpt>
      <trkpt lat="43.43005" lon="6.12371">
        <ele>195.36294555664</ele>
        <time>2014-11-05T14:18:31Z</time>
      </trkpt>
      <trkpt lat="43.43004" lon="6.12368">
        <ele>195.47241210938</ele>
        <time>2014-11-05T14:18:33Z</time>
      </trkpt>
      <trkpt lat="43.43003" lon="6.12367">
        <ele>195.49861145019</ele>
        <time>2014-11-05T14:18:35Z</time>
      </trkpt>
      <trkpt lat="43.43002" lon="6.12365">
        <ele>195.53704833984</ele>
        <time>2014-11-05T14:18:37Z</time>
      </trkpt>
      <trkpt lat="43.43001" lon="6.12364">
        <ele>195.57537841797</ele>
        <time>2014-11-05T14:18:39Z</time>
      </trkpt>
      <trkpt lat="43.42999" lon="6.1236">
        <ele>195.72444152832</ele>
        <time>2014-11-05T14:18:41Z</time>
      </trkpt>
      <trkpt lat="43.42999" lon="6.12357">
        <ele>195.84075927734</ele>
        <time>2014-11-05T14:18:42Z</time>
      </trkpt>
      <trkpt lat="43.42998" lon="6.12355">
        <ele>195.98037719727</ele>
        <time>2014-11-05T14:18:43Z</time>
      </trkpt>
      <trkpt lat="43.42995" lon="6.12349">
        <ele>196.27673339844</ele>
        <time>2014-11-05T14:18:45Z</time>
      </trkpt>
      <trkpt lat="43.42993" lon="6.12343">
        <ele>196.59851074219</ele>
        <time>2014-11-05T14:18:47Z</time>
      </trkpt>
      <trkpt lat="43.42991" lon="6.12339">
        <ele>196.78816223144</ele>
        <time>2014-11-05T14:18:48Z</time>
      </trkpt>
      <trkpt lat="43.4299" lon="6.12337">
        <ele>196.94132995606</ele>
        <time>2014-11-05T14:18:49Z</time>
      </trkpt>
      <trkpt lat="43.42988" lon="6.12333">
        <ele>197.17411804199</ele>
        <time>2014-11-05T14:18:51Z</time>
      </trkpt>
      <trkpt lat="43.42987" lon="6.1233">
        <ele>197.30209350586</ele>
        <time>2014-11-05T14:18:53Z</time>
      </trkpt>
      <trkpt lat="43.42986" lon="6.12327">
        <ele>197.46659851074</ele>
        <time>2014-11-05T14:18:55Z</time>
      </trkpt>
      <trkpt lat="43.42983" lon="6.12321">
        <ele>197.82543945312</ele>
        <time>2014-11-05T14:18:59Z</time>
      </trkpt>
      <trkpt lat="43.42982" lon="6.12318">
        <ele>198.00521850586</ele>
        <time>2014-11-05T14:19:01Z</time>
      </trkpt>
      <trkpt lat="43.4298" lon="6.12313">
        <ele>198.28785705566</ele>
        <time>2014-11-05T14:19:03Z</time>
      </trkpt>
      <trkpt lat="43.42976" lon="6.12307">
        <ele>198.65048217773</ele>
        <time>2014-11-05T14:19:05Z</time>
      </trkpt>
      <trkpt lat="43.42974" lon="6.12303">
        <ele>198.87287902832</ele>
        <time>2014-11-05T14:19:06Z</time>
      </trkpt>
      <trkpt lat="43.42973" lon="6.123">
        <ele>199.07006835938</ele>
        <time>2014-11-05T14:19:07Z</time>
      </trkpt>
      <trkpt lat="43.4297" lon="6.12298">
        <ele>199.21481323242</ele>
        <time>2014-11-05T14:19:08Z</time>
      </trkpt>
      <trkpt lat="43.42968" lon="6.12297">
        <ele>199.32427978516</ele>
        <time>2014-11-05T14:19:09Z</time>
      </trkpt>
      <trkpt lat="43.42965" lon="6.12296">
        <ele>199.39669799805</ele>
        <time>2014-11-05T14:19:10Z</time>
      </trkpt>
      <trkpt lat="43.42963" lon="6.12296">
        <ele>199.44157409668</ele>
        <time>2014-11-05T14:19:11Z</time>
      </trkpt>
      <trkpt lat="43.42958" lon="6.12298">
        <ele>199.42219543457</ele>
        <time>2014-11-05T14:19:13Z</time>
      </trkpt>
      <trkpt lat="43.42956" lon="6.12299">
        <ele>199.37321472168</ele>
        <time>2014-11-05T14:19:14Z</time>
      </trkpt>
      <trkpt lat="43.42953" lon="6.12301">
        <ele>199.34518432617</ele>
        <time>2014-11-05T14:19:15Z</time>
      </trkpt>
      <trkpt lat="43.42948" lon="6.12303">
        <ele>199.31782531738</ele>
        <time>2014-11-05T14:19:17Z</time>
      </trkpt>
      <trkpt lat="43.42945" lon="6.12303">
        <ele>199.33226013184</ele>
        <time>2014-11-05T14:19:18Z</time>
      </trkpt>
      <trkpt lat="43.42938" lon="6.12304">
        <ele>199.43960571289</ele>
        <time>2014-11-05T14:19:21Z</time>
      </trkpt>
      <trkpt lat="43.42933" lon="6.12303">
        <ele>199.55810546875</ele>
        <time>2014-11-05T14:19:23Z</time>
      </trkpt>
      <trkpt lat="43.42929" lon="6.12302">
        <ele>199.67129516602</ele>
        <time>2014-11-05T14:19:25Z</time>
      </trkpt>
      <trkpt lat="43.42926" lon="6.123">
        <ele>199.83633422852</ele>
        <time>2014-11-05T14:19:27Z</time>
      </trkpt>
      <trkpt lat="43.42923" lon="6.12297">
        <ele>200.05661010742</ele>
        <time>2014-11-05T14:19:29Z</time>
      </trkpt>
      <trkpt lat="43.42921" lon="6.12296">
        <ele>200.17335510254</ele>
        <time>2014-11-05T14:19:30Z</time>
      </trkpt>
      <trkpt lat="43.4292" lon="6.12295">
        <ele>200.25386047363</ele>
        <time>2014-11-05T14:19:31Z</time>
      </trkpt>
      <trkpt lat="43.42916" lon="6.12293">
        <ele>200.46708679199</ele>
        <time>2014-11-05T14:19:33Z</time>
      </trkpt>
      <trkpt lat="43.42912" lon="6.12291">
        <ele>201.00559997559</ele>
        <time>2014-11-05T14:19:35Z</time>
      </trkpt>
      <trkpt lat="43.42906" lon="6.12291">
        <ele>201.47799682617</ele>
        <time>2014-11-05T14:19:37Z</time>
      </trkpt>
      <trkpt lat="43.429" lon="6.12292">
        <ele>201.96075439453</ele>
        <time>2014-11-05T14:19:39Z</time>
      </trkpt>
      <trkpt lat="43.42895" lon="6.12295">
        <ele>202.28001403809</ele>
        <time>2014-11-05T14:19:41Z</time>
      </trkpt>
      <trkpt lat="43.42889" lon="6.12302">
        <ele>202.28584289551</ele>
        <time>2014-11-05T14:19:43Z</time>
      </trkpt>
      <trkpt lat="43.42886" lon="6.12306">
        <ele>202.31037902832</ele>
        <time>2014-11-05T14:19:44Z</time>
      </trkpt>
      <trkpt lat="43.42884" lon="6.1231">
        <ele>202.28895568848</ele>
        <time>2014-11-05T14:19:45Z</time>
      </trkpt>
      <trkpt lat="43.42881" lon="6.12314">
        <ele>202.28207397461</ele>
        <time>2014-11-05T14:19:46Z</time>
      </trkpt>
      <trkpt lat="43.42878" lon="6.12317">
        <ele>202.31365966797</ele>
        <time>2014-11-05T14:19:47Z</time>
      </trkpt>
      <trkpt lat="43.42875" lon="6.1232">
        <ele>202.37435913086</ele>
        <time>2014-11-05T14:19:48Z</time>
      </trkpt>
      <trkpt lat="43.42872" lon="6.12322">
        <ele>202.51422119141</ele>
        <time>2014-11-05T14:19:49Z</time>
      </trkpt>
      <trkpt lat="43.42867" lon="6.12328">
        <ele>202.52888488769</ele>
        <time>2014-11-05T14:19:51Z</time>
      </trkpt>
      <trkpt lat="43.42864" lon="6.12333">
        <ele>202.42663574219</ele>
        <time>2014-11-05T14:19:52Z</time>
      </trkpt>
      <trkpt lat="43.42861" lon="6.12338">
        <ele>202.17399597168</ele>
        <time>2014-11-05T14:19:53Z</time>
      </trkpt>
      <trkpt lat="43.42854" lon="6.12348">
        <ele>201.52494812012</ele>
        <time>2014-11-05T14:19:55Z</time>
      </trkpt>
      <trkpt lat="43.42848" lon="6.12356">
        <ele>201.12478637695</ele>
        <time>2014-11-05T14:19:57Z</time>
      </trkpt>
      <trkpt lat="43.42845" lon="6.1236">
        <ele>200.89222717285</ele>
        <time>2014-11-05T14:19:58Z</time>
      </trkpt>
      <trkpt lat="43.42843" lon="6.12363">
        <ele>200.73699951172</ele>
        <time>2014-11-05T14:19:59Z</time>
      </trkpt>
      <trkpt lat="43.42839" lon="6.12369">
        <ele>200.21810913086</ele>
        <time>2014-11-05T14:20:01Z</time>
      </trkpt>
      <trkpt lat="43.42837" lon="6.12375">
        <ele>199.69486999512</ele>
        <time>2014-11-05T14:20:03Z</time>
      </trkpt>
      <trkpt lat="43.42836" lon="6.12379">
        <ele>199.27685546875</ele>
        <time>2014-11-05T14:20:05Z</time>
      </trkpt>
      <trkpt lat="43.42835" lon="6.12381">
        <ele>199.18841552734</ele>
        <time>2014-11-05T14:20:06Z</time>
      </trkpt>
      <trkpt lat="43.42835" lon="6.12382">
        <ele>199.09553527832</ele>
        <time>2014-11-05T14:20:07Z</time>
      </trkpt>
      <trkpt lat="43.42834" lon="6.12383">
        <ele>198.91683959961</ele>
        <time>2014-11-05T14:20:09Z</time>
      </trkpt>
      <trkpt lat="43.42834" lon="6.12385">
        <ele>198.7606048584</ele>
        <time>2014-11-05T14:20:11Z</time>
      </trkpt>
      <trkpt lat="43.42834" lon="6.12387">
        <ele>198.52642822266</ele>
        <time>2014-11-05T14:20:13Z</time>
      </trkpt>
      <trkpt lat="43.42834" lon="6.12389">
        <ele>198.2781829834</ele>
        <time>2014-11-05T14:20:15Z</time>
      </trkpt>
      <trkpt lat="43.42833" lon="6.12391">
        <ele>198.09600830078</ele>
        <time>2014-11-05T14:20:16Z</time>
      </trkpt>
      <trkpt lat="43.42833" lon="6.12393">
        <ele>197.93145751953</ele>
        <time>2014-11-05T14:20:17Z</time>
      </trkpt>
      <trkpt lat="43.42832" lon="6.12397">
        <ele>197.5625</ele>
        <time>2014-11-05T14:20:19Z</time>
      </trkpt>
      <trkpt lat="43.42832" lon="6.12398">
        <ele>197.50444030762</ele>
        <time>2014-11-05T14:20:20Z</time>
      </trkpt>
      <trkpt lat="43.42832" lon="6.12398">
        <ele>197.46960449219</ele>
        <time>2014-11-05T14:20:21Z</time>
      </trkpt>
      <trkpt lat="43.42832" lon="6.12399">
        <ele>197.39993286133</ele>
        <time>2014-11-05T14:20:23Z</time>
      </trkpt>
      <trkpt lat="43.42831" lon="6.124">
        <ele>197.34619140625</ele>
        <time>2014-11-05T14:20:25Z</time>
      </trkpt>
      <trkpt lat="43.42832" lon="6.124">
        <ele>197.27799987793</ele>
        <time>2014-11-05T14:20:27Z</time>
      </trkpt>
      <trkpt lat="43.42831" lon="6.12399">
        <ele>197.44364929199</ele>
        <time>2014-11-05T14:20:29Z</time>
      </trkpt>
      <trkpt lat="43.42831" lon="6.124">
        <ele>197.47680664062</ele>
        <time>2014-11-05T14:20:31Z</time>
      </trkpt>
      <trkpt lat="43.42831" lon="6.124">
        <ele>197.47094726562</ele>
        <time>2014-11-05T14:20:33Z</time>
      </trkpt>
      <trkpt lat="43.42831" lon="6.124">
        <ele>197.4885559082</ele>
        <time>2014-11-05T14:20:35Z</time>
      </trkpt>
      <trkpt lat="43.42831" lon="6.124">
        <ele>197.4944152832</ele>
        <time>2014-11-05T14:20:37Z</time>
      </trkpt>
      <trkpt lat="43.4283" lon="6.12399">
        <ele>197.57455444336</ele>
        <time>2014-11-05T14:20:40Z</time>
      </trkpt>
      <trkpt lat="43.4283" lon="6.12399">
        <ele>197.58044433594</ele>
        <time>2014-11-05T14:20:43Z</time>
      </trkpt>
      <trkpt lat="43.4283" lon="6.12399">
        <ele>197.56866455078</ele>
        <time>2014-11-05T14:20:45Z</time>
      </trkpt>
      <trkpt lat="43.4283" lon="6.124">
        <ele>197.60160827637</ele>
        <time>2014-11-05T14:20:47Z</time>
      </trkpt>
      <trkpt lat="43.4283" lon="6.124">
        <ele>197.595703125</ele>
        <time>2014-11-05T14:20:49Z</time>
      </trkpt>
      <trkpt lat="43.4283" lon="6.124">
        <ele>197.58978271484</ele>
        <time>2014-11-05T14:20:51Z</time>
      </trkpt>
      <trkpt lat="43.4283" lon="6.124">
        <ele>197.595703125</ele>
        <time>2014-11-05T14:20:53Z</time>
      </trkpt>
      <trkpt lat="43.4283" lon="6.124">
        <ele>197.58978271484</ele>
        <time>2014-11-05T14:20:55Z</time>
      </trkpt>
      <trkpt lat="43.4283" lon="6.12401">
        <ele>197.44201660156</ele>
        <time>2014-11-05T14:20:57Z</time>
      </trkpt>
      <trkpt lat="43.4283" lon="6.12402">
        <ele>197.36148071289</ele>
        <time>2014-11-05T14:20:59Z</time>
      </trkpt>
      <trkpt lat="43.42829" lon="6.12402">
        <ele>197.39305114746</ele>
        <time>2014-11-05T14:21:01Z</time>
      </trkpt>
      <trkpt lat="43.4283" lon="6.12402">
        <ele>197.33181762695</ele>
        <time>2014-11-05T14:21:03Z</time>
      </trkpt>
      <trkpt lat="43.42829" lon="6.12403">
        <ele>197.36924743652</ele>
        <time>2014-11-05T14:21:05Z</time>
      </trkpt>
      <trkpt lat="43.42828" lon="6.12404">
        <ele>197.3416595459</ele>
        <time>2014-11-05T14:21:06Z</time>
      </trkpt>
      <trkpt lat="43.42828" lon="6.12405">
        <ele>197.31800842285</ele>
        <time>2014-11-05T14:21:07Z</time>
      </trkpt>
      <trkpt lat="43.42825" lon="6.12409">
        <ele>197.08094787598</ele>
        <time>2014-11-05T14:21:09Z</time>
      </trkpt>
      <trkpt lat="43.42822" lon="6.12416">
        <ele>196.82705688477</ele>
        <time>2014-11-05T14:21:11Z</time>
      </trkpt>
      <trkpt lat="43.42817" lon="6.12422">
        <ele>196.83186340332</ele>
        <time>2014-11-05T14:21:13Z</time>
      </trkpt>
      <trkpt lat="43.42815" lon="6.12425">
        <ele>196.81231689453</ele>
        <time>2014-11-05T14:21:14Z</time>
      </trkpt>
      <trkpt lat="43.42812" lon="6.12429">
        <ele>196.75923156738</ele>
        <time>2014-11-05T14:21:15Z</time>
      </trkpt>
      <trkpt lat="43.42807" lon="6.12436">
        <ele>196.640625</ele>
        <time>2014-11-05T14:21:17Z</time>
      </trkpt>
      <trkpt lat="43.42801" lon="6.12443">
        <ele>196.46604919434</ele>
        <time>2014-11-05T14:21:19Z</time>
      </trkpt>
      <trkpt lat="43.42797" lon="6.12446">
        <ele>196.38946533203</ele>
        <time>2014-11-05T14:21:20Z</time>
      </trkpt>
      <trkpt lat="43.42789" lon="6.12453">
        <ele>196.23828125</ele>
        <time>2014-11-05T14:21:22Z</time>
      </trkpt>
      <trkpt lat="43.42785" lon="6.12456">
        <ele>196.15928649902</ele>
        <time>2014-11-05T14:21:23Z</time>
      </trkpt>
      <trkpt lat="43.42775" lon="6.12462">
        <ele>195.93479919434</ele>
        <time>2014-11-05T14:21:25Z</time>
      </trkpt>
      <trkpt lat="43.4277" lon="6.12464">
        <ele>195.88127136231</ele>
        <time>2014-11-05T14:21:26Z</time>
      </trkpt>
      <trkpt lat="43.42765" lon="6.12466">
        <ele>195.87698364258</ele>
        <time>2014-11-05T14:21:27Z</time>
      </trkpt>
      <trkpt lat="43.42756" lon="6.12469">
        <ele>195.95373535156</ele>
        <time>2014-11-05T14:21:29Z</time>
      </trkpt>
      <trkpt lat="43.42741" lon="6.12472">
        <ele>195.70169067383</ele>
        <time>2014-11-05T14:21:32Z</time>
      </trkpt>
      <trkpt lat="43.42736" lon="6.12472">
        <ele>195.5182800293</ele>
        <time>2014-11-05T14:21:33Z</time>
      </trkpt>
      <trkpt lat="43.42726" lon="6.12473">
        <ele>195.23274230957</ele>
        <time>2014-11-05T14:21:35Z</time>
      </trkpt>
      <trkpt lat="43.42716" lon="6.12473">
        <ele>195.19390869141</ele>
        <time>2014-11-05T14:21:37Z</time>
      </trkpt>
      <trkpt lat="43.42707" lon="6.12474">
        <ele>195.05030822754</ele>
        <time>2014-11-05T14:21:39Z</time>
      </trkpt>
      <trkpt lat="43.42702" lon="6.12474">
        <ele>194.95826721191</ele>
        <time>2014-11-05T14:21:40Z</time>
      </trkpt>
      <trkpt lat="43.42698" lon="6.12474">
        <ele>194.92961120606</ele>
        <time>2014-11-05T14:21:41Z</time>
      </trkpt>
      <trkpt lat="43.42689" lon="6.12474">
        <ele>194.89637756348</ele>
        <time>2014-11-05T14:21:43Z</time>
      </trkpt>
      <trkpt lat="43.4268" lon="6.12473">
        <ele>194.95271301269</ele>
        <time>2014-11-05T14:21:45Z</time>
      </trkpt>
      <trkpt lat="43.42671" lon="6.12472">
        <ele>195.13534545898</ele>
        <time>2014-11-05T14:21:47Z</time>
      </trkpt>
      <trkpt lat="43.42654" lon="6.12467">
        <ele>195.37484741211</ele>
        <time>2014-11-05T14:21:51Z</time>
      </trkpt>
      <trkpt lat="43.42646" lon="6.12463">
        <ele>195.49349975586</ele>
        <time>2014-11-05T14:21:53Z</time>
      </trkpt>
      <trkpt lat="43.42643" lon="6.1246">
        <ele>195.64855957031</ele>
        <time>2014-11-05T14:21:54Z</time>
      </trkpt>
      <trkpt lat="43.42638" lon="6.12457">
        <ele>195.76260375977</ele>
        <time>2014-11-05T14:21:55Z</time>
      </trkpt>
      <trkpt lat="43.42628" lon="6.12446">
        <ele>196.19654846191</ele>
        <time>2014-11-05T14:21:58Z</time>
      </trkpt>
      <trkpt lat="43.42624" lon="6.12443">
        <ele>196.28747558594</ele>
        <time>2014-11-05T14:21:59Z</time>
      </trkpt>
      <trkpt lat="43.42617" lon="6.12434">
        <ele>196.33337402344</ele>
        <time>2014-11-05T14:22:01Z</time>
      </trkpt>
      <trkpt lat="43.4261" lon="6.12425">
        <ele>196.21815490723</ele>
        <time>2014-11-05T14:22:03Z</time>
      </trkpt>
      <trkpt lat="43.42602" lon="6.12415">
        <ele>196.04211425781</ele>
        <time>2014-11-05T14:22:05Z</time>
      </trkpt>
      <trkpt lat="43.42595" lon="6.12405">
        <ele>196.56997680664</ele>
        <time>2014-11-05T14:22:07Z</time>
      </trkpt>
      <trkpt lat="43.42591" lon="6.124">
        <ele>196.77760314941</ele>
        <time>2014-11-05T14:22:08Z</time>
      </trkpt>
      <trkpt lat="43.42588" lon="6.12395">
        <ele>196.98175048828</ele>
        <time>2014-11-05T14:22:09Z</time>
      </trkpt>
      <trkpt lat="43.42582" lon="6.12384">
        <ele>197.59704589844</ele>
        <time>2014-11-05T14:22:11Z</time>
      </trkpt>
      <trkpt lat="43.42574" lon="6.12372">
        <ele>198.70764160156</ele>
        <time>2014-11-05T14:22:13Z</time>
      </trkpt>
      <trkpt lat="43.42568" lon="6.1236">
        <ele>199.57009887695</ele>
        <time>2014-11-05T14:22:15Z</time>
      </trkpt>
      <trkpt lat="43.42562" lon="6.12348">
        <ele>200.20060729981</ele>
        <time>2014-11-05T14:22:17Z</time>
      </trkpt>
      <trkpt lat="43.42556" lon="6.12335">
        <ele>200.67039489746</ele>
        <time>2014-11-05T14:22:19Z</time>
      </trkpt>
      <trkpt lat="43.4255" lon="6.12322">
        <ele>201.62983703613</ele>
        <time>2014-11-05T14:22:21Z</time>
      </trkpt>
      <trkpt lat="43.42545" lon="6.12308">
        <ele>202.41351318359</ele>
        <time>2014-11-05T14:22:23Z</time>
      </trkpt>
      <trkpt lat="43.42533" lon="6.1228">
        <ele>203.12879943848</ele>
        <time>2014-11-05T14:22:27Z</time>
      </trkpt>
      <trkpt lat="43.42527" lon="6.12266">
        <ele>202.92538452148</ele>
        <time>2014-11-05T14:22:29Z</time>
      </trkpt>
      <trkpt lat="43.42518" lon="6.12242">
        <ele>202.50202941894</ele>
        <time>2014-11-05T14:22:33Z</time>
      </trkpt>
      <trkpt lat="43.42513" lon="6.12231">
        <ele>202.36106872559</ele>
        <time>2014-11-05T14:22:35Z</time>
      </trkpt>
      <trkpt lat="43.42508" lon="6.1222">
        <ele>202.09924316406</ele>
        <time>2014-11-05T14:22:37Z</time>
      </trkpt>
      <trkpt lat="43.42503" lon="6.12208">
        <ele>201.75807189941</ele>
        <time>2014-11-05T14:22:39Z</time>
      </trkpt>
      <trkpt lat="43.42493" lon="6.12185">
        <ele>202.63261413574</ele>
        <time>2014-11-05T14:22:43Z</time>
      </trkpt>
      <trkpt lat="43.42487" lon="6.12173">
        <ele>203.11141967773</ele>
        <time>2014-11-05T14:22:45Z</time>
      </trkpt>
      <trkpt lat="43.42481" lon="6.12162">
        <ele>203.52365112305</ele>
        <time>2014-11-05T14:22:47Z</time>
      </trkpt>
      <trkpt lat="43.42477" lon="6.12157">
        <ele>203.68029785156</ele>
        <time>2014-11-05T14:22:48Z</time>
      </trkpt>
      <trkpt lat="43.42474" lon="6.12152">
        <ele>203.64221191406</ele>
        <time>2014-11-05T14:22:49Z</time>
      </trkpt>
      <trkpt lat="43.42458" lon="6.12134">
        <ele>202.66821289062</ele>
        <time>2014-11-05T14:22:53Z</time>
      </trkpt>
      <trkpt lat="43.4245" lon="6.12123">
        <ele>201.83650207519</ele>
        <time>2014-11-05T14:22:55Z</time>
      </trkpt>
      <trkpt lat="43.42436" lon="6.12105">
        <ele>199.62016296387</ele>
        <time>2014-11-05T14:22:59Z</time>
      </trkpt>
      <trkpt lat="43.42429" lon="6.12095">
        <ele>198.27665710449</ele>
        <time>2014-11-05T14:23:01Z</time>
      </trkpt>
      <trkpt lat="43.42421" lon="6.1208">
        <ele>196.58000183106</ele>
        <time>2014-11-05T14:23:04Z</time>
      </trkpt>
      <trkpt lat="43.42419" lon="6.12076">
        <ele>196.12353515625</ele>
        <time>2014-11-05T14:23:05Z</time>
      </trkpt>
      <trkpt lat="43.42413" lon="6.12066">
        <ele>195.923828125</ele>
        <time>2014-11-05T14:23:07Z</time>
      </trkpt>
      <trkpt lat="43.42411" lon="6.1206">
        <ele>196.09454345703</ele>
        <time>2014-11-05T14:23:08Z</time>
      </trkpt>
      <trkpt lat="43.42408" lon="6.12056">
        <ele>196.26396179199</ele>
        <time>2014-11-05T14:23:09Z</time>
      </trkpt>
      <trkpt lat="43.42404" lon="6.12045">
        <ele>196.62846374512</ele>
        <time>2014-11-05T14:23:11Z</time>
      </trkpt>
      <trkpt lat="43.424" lon="6.12034">
        <ele>196.99745178223</ele>
        <time>2014-11-05T14:23:13Z</time>
      </trkpt>
      <trkpt lat="43.42396" lon="6.12024">
        <ele>197.2766418457</ele>
        <time>2014-11-05T14:23:15Z</time>
      </trkpt>
      <trkpt lat="43.42394" lon="6.12019">
        <ele>197.44648742676</ele>
        <time>2014-11-05T14:23:16Z</time>
      </trkpt>
      <trkpt lat="43.42393" lon="6.12014">
        <ele>197.57862854004</ele>
        <time>2014-11-05T14:23:17Z</time>
      </trkpt>
      <trkpt lat="43.4239" lon="6.12004">
        <ele>197.88224792481</ele>
        <time>2014-11-05T14:23:19Z</time>
      </trkpt>
      <trkpt lat="43.42387" lon="6.11993">
        <ele>198.13282775879</ele>
        <time>2014-11-05T14:23:21Z</time>
      </trkpt>
      <trkpt lat="43.42384" lon="6.11981">
        <ele>198.32508850098</ele>
        <time>2014-11-05T14:23:23Z</time>
      </trkpt>
      <trkpt lat="43.42381" lon="6.11969">
        <ele>198.53108215332</ele>
        <time>2014-11-05T14:23:25Z</time>
      </trkpt>
      <trkpt lat="43.42378" lon="6.11958">
        <ele>198.73364257812</ele>
        <time>2014-11-05T14:23:27Z</time>
      </trkpt>
      <trkpt lat="43.42375" lon="6.11947">
        <ele>198.90873718262</ele>
        <time>2014-11-05T14:23:29Z</time>
      </trkpt>
      <trkpt lat="43.42374" lon="6.11942">
        <ele>198.99800109863</ele>
        <time>2014-11-05T14:23:30Z</time>
      </trkpt>
      <trkpt lat="43.4237" lon="6.11926">
        <ele>199.28639221191</ele>
        <time>2014-11-05T14:23:33Z</time>
      </trkpt>
      <trkpt lat="43.42367" lon="6.11916">
        <ele>199.45329284668</ele>
        <time>2014-11-05T14:23:35Z</time>
      </trkpt>
      <trkpt lat="43.42364" lon="6.11905">
        <ele>199.77767944336</ele>
        <time>2014-11-05T14:23:37Z</time>
      </trkpt>
      <trkpt lat="43.42355" lon="6.11867">
        <ele>201.07095336914</ele>
        <time>2014-11-05T14:23:45Z</time>
      </trkpt>
      <trkpt lat="43.42353" lon="6.11858">
        <ele>201.38249206543</ele>
        <time>2014-11-05T14:23:47Z</time>
      </trkpt>
      <trkpt lat="43.4235" lon="6.1185">
        <ele>201.59286499023</ele>
        <time>2014-11-05T14:23:49Z</time>
      </trkpt>
      <trkpt lat="43.42348" lon="6.11843">
        <ele>201.78656005859</ele>
        <time>2014-11-05T14:23:51Z</time>
      </trkpt>
      <trkpt lat="43.42347" lon="6.11836">
        <ele>201.99310302734</ele>
        <time>2014-11-05T14:23:53Z</time>
      </trkpt>
      <trkpt lat="43.42342" lon="6.11824">
        <ele>203.81546020508</ele>
        <time>2014-11-05T14:23:56Z</time>
      </trkpt>
      <trkpt lat="43.4234" lon="6.1182">
        <ele>204.54080200195</ele>
        <time>2014-11-05T14:23:57Z</time>
      </trkpt>
      <trkpt lat="43.42337" lon="6.11812">
        <ele>206.07922363281</ele>
        <time>2014-11-05T14:23:59Z</time>
      </trkpt>
      <trkpt lat="43.42334" lon="6.11804">
        <ele>207.65101623535</ele>
        <time>2014-11-05T14:24:01Z</time>
      </trkpt>
      <trkpt lat="43.4233" lon="6.11797">
        <ele>208.94647216797</ele>
        <time>2014-11-05T14:24:03Z</time>
      </trkpt>
      <trkpt lat="43.42326" lon="6.11791">
        <ele>209.96824645996</ele>
        <time>2014-11-05T14:24:05Z</time>
      </trkpt>
      <trkpt lat="43.42319" lon="6.1178">
        <ele>211.46572875977</ele>
        <time>2014-11-05T14:24:09Z</time>
      </trkpt>
      <trkpt lat="43.42315" lon="6.11775">
        <ele>212.15892028809</ele>
        <time>2014-11-05T14:24:11Z</time>
      </trkpt>
      <trkpt lat="43.42315" lon="6.11772">
        <ele>212.73628234863</ele>
        <time>2014-11-05T14:24:12Z</time>
      </trkpt>
      <trkpt lat="43.42315" lon="6.1177">
        <ele>213.23593139648</ele>
        <time>2014-11-05T14:24:13Z</time>
      </trkpt>
      <trkpt lat="43.42316" lon="6.11768">
        <ele>213.91117858887</ele>
        <time>2014-11-05T14:24:15Z</time>
      </trkpt>
      <trkpt lat="43.42318" lon="6.11767">
        <ele>214.09289550781</ele>
        <time>2014-11-05T14:24:16Z</time>
      </trkpt>
      <trkpt lat="43.42319" lon="6.11767">
        <ele>214.34268188477</ele>
        <time>2014-11-05T14:24:17Z</time>
      </trkpt>
      <trkpt lat="43.42321" lon="6.11767">
        <ele>214.51208496094</ele>
        <time>2014-11-05T14:24:19Z</time>
      </trkpt>
      <trkpt lat="43.42323" lon="6.11767">
        <ele>214.88916015625</ele>
        <time>2014-11-05T14:24:21Z</time>
      </trkpt>
      <trkpt lat="43.42324" lon="6.11767">
        <ele>215.06298828125</ele>
        <time>2014-11-05T14:24:22Z</time>
      </trkpt>
      <trkpt lat="43.42326" lon="6.11766">
        <ele>215.27447509766</ele>
        <time>2014-11-05T14:24:23Z</time>
      </trkpt>
      <trkpt lat="43.42328" lon="6.11767">
        <ele>215.50775146484</ele>
        <time>2014-11-05T14:24:25Z</time>
      </trkpt>
      <trkpt lat="43.4233" lon="6.11767">
        <ele>215.69227600098</ele>
        <time>2014-11-05T14:24:27Z</time>
      </trkpt>
      <trkpt lat="43.42331" lon="6.11767">
        <ele>215.85620117188</ele>
        <time>2014-11-05T14:24:28Z</time>
      </trkpt>
      <trkpt lat="43.42332" lon="6.11767">
        <ele>216.02671813965</ele>
        <time>2014-11-05T14:24:29Z</time>
      </trkpt>
      <trkpt lat="43.42338" lon="6.11765">
        <ele>216.45146179199</ele>
        <time>2014-11-05T14:24:33Z</time>
      </trkpt>
      <trkpt lat="43.42341" lon="6.11765">
        <ele>216.62828063965</ele>
        <time>2014-11-05T14:24:35Z</time>
      </trkpt>
      <trkpt lat="43.42343" lon="6.11764">
        <ele>216.82443237305</ele>
        <time>2014-11-05T14:24:37Z</time>
      </trkpt>
      <trkpt lat="43.42344" lon="6.11764">
        <ele>216.79679870606</ele>
        <time>2014-11-05T14:24:38Z</time>
      </trkpt>
      <trkpt lat="43.42345" lon="6.11763">
        <ele>216.89123535156</ele>
        <time>2014-11-05T14:24:39Z</time>
      </trkpt>
      <trkpt lat="43.42348" lon="6.11761">
        <ele>217.42436218262</ele>
        <time>2014-11-05T14:24:42Z</time>
      </trkpt>
      <trkpt lat="43.42349" lon="6.1176">
        <ele>217.53521728516</ele>
        <time>2014-11-05T14:24:43Z</time>
      </trkpt>
      <trkpt lat="43.42351" lon="6.11759">
        <ele>217.77807617188</ele>
        <time>2014-11-05T14:24:45Z</time>
      </trkpt>
      <trkpt lat="43.42352" lon="6.11758">
        <ele>217.88969421387</ele>
        <time>2014-11-05T14:24:47Z</time>
      </trkpt>
      <trkpt lat="43.42352" lon="6.11758">
        <ele>217.90910339356</ele>
        <time>2014-11-05T14:24:48Z</time>
      </trkpt>
      <trkpt lat="43.42353" lon="6.11758">
        <ele>217.92326354981</ele>
        <time>2014-11-05T14:24:49Z</time>
      </trkpt>
      <trkpt lat="43.42353" lon="6.11758">
        <ele>217.90391540527</ele>
        <time>2014-11-05T14:24:51Z</time>
      </trkpt>
      <trkpt lat="43.42353" lon="6.11758">
        <ele>217.88456726074</ele>
        <time>2014-11-05T14:24:53Z</time>
      </trkpt>
      <trkpt lat="43.42355" lon="6.11757">
        <ele>218.00228881836</ele>
        <time>2014-11-05T14:24:55Z</time>
      </trkpt>
      <trkpt lat="43.42356" lon="6.11756">
        <ele>218.25807189941</ele>
        <time>2014-11-05T14:24:57Z</time>
      </trkpt>
      <trkpt lat="43.42358" lon="6.11754">
        <ele>218.52543640137</ele>
        <time>2014-11-05T14:24:59Z</time>
      </trkpt>
      <trkpt lat="43.4236" lon="6.11753">
        <ele>218.75764465332</ele>
        <time>2014-11-05T14:25:01Z</time>
      </trkpt>
      <trkpt lat="43.42362" lon="6.11752">
        <ele>218.91940307617</ele>
        <time>2014-11-05T14:25:03Z</time>
      </trkpt>
      <trkpt lat="43.42363" lon="6.11751">
        <ele>219.04823303223</ele>
        <time>2014-11-05T14:25:04Z</time>
      </trkpt>
      <trkpt lat="43.42365" lon="6.1175">
        <ele>219.19255065918</ele>
        <time>2014-11-05T14:25:05Z</time>
      </trkpt>
      <trkpt lat="43.42367" lon="6.11749">
        <ele>219.40512084961</ele>
        <time>2014-11-05T14:25:07Z</time>
      </trkpt>
      <trkpt lat="43.42369" lon="6.11746">
        <ele>219.66555786133</ele>
        <time>2014-11-05T14:25:09Z</time>
      </trkpt>
      <trkpt lat="43.42371" lon="6.11745">
        <ele>219.83813476562</ele>
        <time>2014-11-05T14:25:11Z</time>
      </trkpt>
      <trkpt lat="43.42374" lon="6.11743">
        <ele>219.94749450684</ele>
        <time>2014-11-05T14:25:13Z</time>
      </trkpt>
      <trkpt lat="43.42379" lon="6.11741">
        <ele>220.17416381836</ele>
        <time>2014-11-05T14:25:17Z</time>
      </trkpt>
      <trkpt lat="43.42384" lon="6.11738">
        <ele>220.36947631836</ele>
        <time>2014-11-05T14:25:21Z</time>
      </trkpt>
      <trkpt lat="43.42387" lon="6.11736">
        <ele>220.46401977539</ele>
        <time>2014-11-05T14:25:23Z</time>
      </trkpt>
      <trkpt lat="43.42392" lon="6.11733">
        <ele>220.5530090332</ele>
        <time>2014-11-05T14:25:27Z</time>
      </trkpt>
      <trkpt lat="43.42395" lon="6.11732">
        <ele>220.56254577637</ele>
        <time>2014-11-05T14:25:29Z</time>
      </trkpt>
      <trkpt lat="43.42398" lon="6.11729">
        <ele>220.69427490234</ele>
        <time>2014-11-05T14:25:31Z</time>
      </trkpt>
      <trkpt lat="43.424" lon="6.11728">
        <ele>220.76957702637</ele>
        <time>2014-11-05T14:25:33Z</time>
      </trkpt>
      <trkpt lat="43.42402" lon="6.11726">
        <ele>220.82925415039</ele>
        <time>2014-11-05T14:25:35Z</time>
      </trkpt>
      <trkpt lat="43.42405" lon="6.11723">
        <ele>220.94633483887</ele>
        <time>2014-11-05T14:25:37Z</time>
      </trkpt>
      <trkpt lat="43.42407" lon="6.1172">
        <ele>221.09245300293</ele>
        <time>2014-11-05T14:25:39Z</time>
      </trkpt>
      <trkpt lat="43.4241" lon="6.11718">
        <ele>221.19299316406</ele>
        <time>2014-11-05T14:25:41Z</time>
      </trkpt>
      <trkpt lat="43.42411" lon="6.11716">
        <ele>221.27066040039</ele>
        <time>2014-11-05T14:25:42Z</time>
      </trkpt>
      <trkpt lat="43.42416" lon="6.11709">
        <ele>221.53103637695</ele>
        <time>2014-11-05T14:25:47Z</time>
      </trkpt>
      <trkpt lat="43.42418" lon="6.11706">
        <ele>221.73738098144</ele>
        <time>2014-11-05T14:25:49Z</time>
      </trkpt>
      <trkpt lat="43.42421" lon="6.117">
        <ele>222.37211608887</ele>
        <time>2014-11-05T14:25:53Z</time>
      </trkpt>
      <trkpt lat="43.42422" lon="6.11697">
        <ele>222.67695617676</ele>
        <time>2014-11-05T14:25:55Z</time>
      </trkpt>
      <trkpt lat="43.42424" lon="6.11694">
        <ele>222.94352722168</ele>
        <time>2014-11-05T14:25:57Z</time>
      </trkpt>
      <trkpt lat="43.42426" lon="6.11691">
        <ele>223.20880126953</ele>
        <time>2014-11-05T14:25:59Z</time>
      </trkpt>
      <trkpt lat="43.42428" lon="6.11688">
        <ele>223.4920501709</ele>
        <time>2014-11-05T14:26:01Z</time>
      </trkpt>
      <trkpt lat="43.4243" lon="6.11685">
        <ele>223.70378112793</ele>
        <time>2014-11-05T14:26:03Z</time>
      </trkpt>
      <trkpt lat="43.42432" lon="6.11683">
        <ele>223.90742492676</ele>
        <time>2014-11-05T14:26:05Z</time>
      </trkpt>
      <trkpt lat="43.42434" lon="6.1168">
        <ele>224.11268615723</ele>
        <time>2014-11-05T14:26:07Z</time>
      </trkpt>
      <trkpt lat="43.42434" lon="6.11679">
        <ele>224.22267150879</ele>
        <time>2014-11-05T14:26:08Z</time>
      </trkpt>
      <trkpt lat="43.42437" lon="6.11675">
        <ele>224.50152587891</ele>
        <time>2014-11-05T14:26:11Z</time>
      </trkpt>
      <trkpt lat="43.4244" lon="6.11671">
        <ele>224.74418640137</ele>
        <time>2014-11-05T14:26:14Z</time>
      </trkpt>
      <trkpt lat="43.4244" lon="6.1167">
        <ele>224.82911682129</ele>
        <time>2014-11-05T14:26:15Z</time>
      </trkpt>
      <trkpt lat="43.42442" lon="6.11668">
        <ele>224.94696044922</ele>
        <time>2014-11-05T14:26:17Z</time>
      </trkpt>
      <trkpt lat="43.42443" lon="6.11666">
        <ele>225.02398681641</ele>
        <time>2014-11-05T14:26:18Z</time>
      </trkpt>
      <trkpt lat="43.42443" lon="6.11666">
        <ele>225.07429504394</ele>
        <time>2014-11-05T14:26:19Z</time>
      </trkpt>
      <trkpt lat="43.42445" lon="6.11663">
        <ele>225.31407165527</ele>
        <time>2014-11-05T14:26:21Z</time>
      </trkpt>
      <trkpt lat="43.42447" lon="6.1166">
        <ele>225.56306457519</ele>
        <time>2014-11-05T14:26:23Z</time>
      </trkpt>
      <trkpt lat="43.42447" lon="6.1166">
        <ele>225.56727600098</ele>
        <time>2014-11-05T14:26:25Z</time>
      </trkpt>
      <trkpt lat="43.42447" lon="6.1166">
        <ele>225.55534362793</ele>
        <time>2014-11-05T14:26:27Z</time>
      </trkpt>
      <trkpt lat="43.42447" lon="6.1166">
        <ele>225.55113220215</ele>
        <time>2014-11-05T14:26:29Z</time>
      </trkpt>
      <trkpt lat="43.42448" lon="6.1166">
        <ele>225.60246276856</ele>
        <time>2014-11-05T14:26:31Z</time>
      </trkpt>
      <trkpt lat="43.42449" lon="6.11659">
        <ele>225.71731567383</ele>
        <time>2014-11-05T14:26:33Z</time>
      </trkpt>
      <trkpt lat="43.4245" lon="6.11657">
        <ele>225.83720397949</ele>
        <time>2014-11-05T14:26:35Z</time>
      </trkpt>
      <trkpt lat="43.4245" lon="6.11657">
        <ele>225.88008117676</ele>
        <time>2014-11-05T14:26:36Z</time>
      </trkpt>
      <trkpt lat="43.42451" lon="6.11655">
        <ele>226.02900695801</ele>
        <time>2014-11-05T14:26:39Z</time>
      </trkpt>
      <trkpt lat="43.42451" lon="6.11654">
        <ele>226.12364196777</ele>
        <time>2014-11-05T14:26:41Z</time>
      </trkpt>
      <trkpt lat="43.42452" lon="6.11653">
        <ele>226.23051452637</ele>
        <time>2014-11-05T14:26:43Z</time>
      </trkpt>
      <trkpt lat="43.42452" lon="6.11652">
        <ele>226.32902526856</ele>
        <time>2014-11-05T14:26:45Z</time>
      </trkpt>
      <trkpt lat="43.42452" lon="6.11651">
        <ele>226.35452270508</ele>
        <time>2014-11-05T14:26:47Z</time>
      </trkpt>
      <trkpt lat="43.42452" lon="6.11651">
        <ele>226.35876464844</ele>
        <time>2014-11-05T14:26:48Z</time>
      </trkpt>
      <trkpt lat="43.42452" lon="6.11652">
        <ele>226.35026550293</ele>
        <time>2014-11-05T14:26:49Z</time>
      </trkpt>
      <trkpt lat="43.42452" lon="6.11652">
        <ele>226.34518432617</ele>
        <time>2014-11-05T14:26:51Z</time>
      </trkpt>
      <trkpt lat="43.42452" lon="6.11651">
        <ele>226.35368347168</ele>
        <time>2014-11-05T14:26:53Z</time>
      </trkpt>
      <trkpt lat="43.42452" lon="6.11651">
        <ele>226.35876464844</ele>
        <time>2014-11-05T14:26:55Z</time>
      </trkpt>
      <trkpt lat="43.42453" lon="6.11651">
        <ele>226.4063873291</ele>
        <time>2014-11-05T14:26:57Z</time>
      </trkpt>
      <trkpt lat="43.42453" lon="6.1165">
        <ele>226.4549407959</ele>
        <time>2014-11-05T14:26:59Z</time>
      </trkpt>
      <trkpt lat="43.42453" lon="6.1165">
        <ele>226.45919799805</ele>
        <time>2014-11-05T14:27:01Z</time>
      </trkpt>
      <trkpt lat="43.42454" lon="6.1165">
        <ele>226.48992919922</ele>
        <time>2014-11-05T14:27:05Z</time>
      </trkpt>
      <trkpt lat="43.42454" lon="6.1165">
        <ele>226.49418640137</ele>
        <time>2014-11-05T14:27:09Z</time>
      </trkpt>
      <trkpt lat="43.42454" lon="6.1165">
        <ele>226.48992919922</ele>
        <time>2014-11-05T14:27:13Z</time>
      </trkpt>
      <trkpt lat="43.42454" lon="6.1165">
        <ele>226.48565673828</ele>
        <time>2014-11-05T14:27:15Z</time>
      </trkpt>
      <trkpt lat="43.42454" lon="6.1165">
        <ele>226.48231506348</ele>
        <time>2014-11-05T14:27:17Z</time>
      </trkpt>
      <trkpt lat="43.42454" lon="6.1165">
        <ele>226.48657226562</ele>
        <time>2014-11-05T14:27:19Z</time>
      </trkpt>
      <trkpt lat="43.42455" lon="6.1165">
        <ele>226.52587890625</ele>
        <time>2014-11-05T14:27:23Z</time>
      </trkpt>
      <trkpt lat="43.42455" lon="6.1165">
        <ele>226.53440856934</ele>
        <time>2014-11-05T14:27:25Z</time>
      </trkpt>
      <trkpt lat="43.42455" lon="6.1165">
        <ele>226.53440856934</ele>
        <time>2014-11-05T14:27:27Z</time>
      </trkpt>
      <trkpt lat="43.42455" lon="6.1165">
        <ele>226.53440856934</ele>
        <time>2014-11-05T14:27:31Z</time>
      </trkpt>
      <trkpt lat="43.42455" lon="6.11649">
        <ele>226.53868103027</ele>
        <time>2014-11-05T14:27:35Z</time>
      </trkpt>
      <trkpt lat="43.42455" lon="6.11649">
        <ele>226.54721069336</ele>
        <time>2014-11-05T14:27:37Z</time>
      </trkpt>
      <trkpt lat="43.42455" lon="6.11648">
        <ele>226.6335144043</ele>
        <time>2014-11-05T14:27:41Z</time>
      </trkpt>
      <trkpt lat="43.42456" lon="6.11647">
        <ele>226.72631835938</ele>
        <time>2014-11-05T14:27:43Z</time>
      </trkpt>
      <trkpt lat="43.42456" lon="6.11647">
        <ele>226.76588439941</ele>
        <time>2014-11-05T14:27:44Z</time>
      </trkpt>
      <trkpt lat="43.42457" lon="6.11647">
        <ele>226.79693603516</ele>
        <time>2014-11-05T14:27:49Z</time>
      </trkpt>
      <trkpt lat="43.42457" lon="6.11647">
        <ele>226.79264831543</ele>
        <time>2014-11-05T14:27:51Z</time>
      </trkpt>
      <trkpt lat="43.42457" lon="6.11647">
        <ele>226.80120849609</ele>
        <time>2014-11-05T14:27:54Z</time>
      </trkpt>
      <trkpt lat="43.42457" lon="6.11647">
        <ele>226.80120849609</ele>
        <time>2014-11-05T14:27:57Z</time>
      </trkpt>
      <trkpt lat="43.42457" lon="6.11646">
        <ele>226.82261657715</ele>
        <time>2014-11-05T14:27:59Z</time>
      </trkpt>
      <trkpt lat="43.42457" lon="6.11646">
        <ele>226.84086608887</ele>
        <time>2014-11-05T14:28:03Z</time>
      </trkpt>
      <trkpt lat="43.42457" lon="6.11646">
        <ele>226.8751373291</ele>
        <time>2014-11-05T14:28:05Z</time>
      </trkpt>
      <trkpt lat="43.42458" lon="6.11645">
        <ele>226.91914367676</ele>
        <time>2014-11-05T14:28:11Z</time>
      </trkpt>
      <trkpt lat="43.42458" lon="6.11645">
        <ele>226.95463562012</ele>
        <time>2014-11-05T14:28:13Z</time>
      </trkpt>
      <trkpt lat="43.42459" lon="6.11643">
        <ele>227.14727783203</ele>
        <time>2014-11-05T14:28:15Z</time>
      </trkpt>
      <trkpt lat="43.42462" lon="6.11641">
        <ele>227.31610107422</ele>
        <time>2014-11-05T14:28:17Z</time>
      </trkpt>
      <trkpt lat="43.42464" lon="6.11639">
        <ele>227.53521728516</ele>
        <time>2014-11-05T14:28:19Z</time>
      </trkpt>
      <trkpt lat="43.42465" lon="6.11635">
        <ele>227.85807800293</ele>
        <time>2014-11-05T14:28:21Z</time>
      </trkpt>
      <trkpt lat="43.42465" lon="6.11632">
        <ele>228.12274169922</ele>
        <time>2014-11-05T14:28:23Z</time>
      </trkpt>
      <trkpt lat="43.42464" lon="6.1163">
        <ele>228.29466247559</ele>
        <time>2014-11-05T14:28:24Z</time>
      </trkpt>
      <trkpt lat="43.42463" lon="6.11629">
        <ele>228.43133544922</ele>
        <time>2014-11-05T14:28:25Z</time>
      </trkpt>
      <trkpt lat="43.42461" lon="6.11628">
        <ele>228.52868652344</ele>
        <time>2014-11-05T14:28:26Z</time>
      </trkpt>
      <trkpt lat="43.42459" lon="6.11627">
        <ele>228.61679077148</ele>
        <time>2014-11-05T14:28:27Z</time>
      </trkpt>
      <trkpt lat="43.42455" lon="6.11625">
        <ele>228.72714233398</ele>
        <time>2014-11-05T14:28:29Z</time>
      </trkpt>
      <trkpt lat="43.42453" lon="6.11624">
        <ele>228.7966003418</ele>
        <time>2014-11-05T14:28:30Z</time>
      </trkpt>
      <trkpt lat="43.42452" lon="6.11623">
        <ele>228.85333251953</ele>
        <time>2014-11-05T14:28:31Z</time>
      </trkpt>
      <trkpt lat="43.4245" lon="6.11623">
        <ele>228.90864562988</ele>
        <time>2014-11-05T14:28:33Z</time>
      </trkpt>
      <trkpt lat="43.42447" lon="6.11621">
        <ele>228.99282836914</ele>
        <time>2014-11-05T14:28:35Z</time>
      </trkpt>
      <trkpt lat="43.42445" lon="6.11619">
        <ele>229.22137451172</ele>
        <time>2014-11-05T14:28:37Z</time>
      </trkpt>
      <trkpt lat="43.42443" lon="6.11617">
        <ele>229.34753417969</ele>
        <time>2014-11-05T14:28:38Z</time>
      </trkpt>
      <trkpt lat="43.42443" lon="6.11616">
        <ele>229.42578125</ele>
        <time>2014-11-05T14:28:39Z</time>
      </trkpt>
      <trkpt lat="43.42439" lon="6.11611">
        <ele>229.87931823731</ele>
        <time>2014-11-05T14:28:43Z</time>
      </trkpt>
      <trkpt lat="43.42438" lon="6.11608">
        <ele>230.11926269531</ele>
        <time>2014-11-05T14:28:45Z</time>
      </trkpt>
      <trkpt lat="43.42437" lon="6.11605">
        <ele>230.33340454102</ele>
        <time>2014-11-05T14:28:47Z</time>
      </trkpt>
      <trkpt lat="43.42436" lon="6.11599">
        <ele>230.9024810791</ele>
        <time>2014-11-05T14:28:51Z</time>
      </trkpt>
      <trkpt lat="43.42435" lon="6.11597">
        <ele>231.03105163574</ele>
        <time>2014-11-05T14:28:52Z</time>
      </trkpt>
      <trkpt lat="43.42434" lon="6.11593">
        <ele>231.39097595215</ele>
        <time>2014-11-05T14:28:55Z</time>
      </trkpt>
      <trkpt lat="43.42433" lon="6.11591">
        <ele>231.56826782227</ele>
        <time>2014-11-05T14:28:57Z</time>
      </trkpt>
      <trkpt lat="43.42431" lon="6.11588">
        <ele>231.78550720215</ele>
        <time>2014-11-05T14:28:59Z</time>
      </trkpt>
      <trkpt lat="43.42429" lon="6.11584">
        <ele>232.07080078125</ele>
        <time>2014-11-05T14:29:01Z</time>
      </trkpt>
      <trkpt lat="43.42429" lon="6.11584">
        <ele>232.12809753418</ele>
        <time>2014-11-05T14:29:03Z</time>
      </trkpt>
      <trkpt lat="43.42429" lon="6.11583">
        <ele>232.19596862793</ele>
        <time>2014-11-05T14:29:05Z</time>
      </trkpt>
      <trkpt lat="43.42427" lon="6.11583">
        <ele>232.16755676269</ele>
        <time>2014-11-05T14:29:09Z</time>
      </trkpt>
      <trkpt lat="43.42428" lon="6.11581">
        <ele>232.30212402344</ele>
        <time>2014-11-05T14:29:13Z</time>
      </trkpt>
      <trkpt lat="43.42427" lon="6.1158">
        <ele>232.35163879394</ele>
        <time>2014-11-05T14:29:15Z</time>
      </trkpt>
      <trkpt lat="43.42427" lon="6.1158">
        <ele>232.36737060547</ele>
        <time>2014-11-05T14:29:17Z</time>
      </trkpt>
      <trkpt lat="43.42427" lon="6.1158">
        <ele>232.36422729492</ele>
        <time>2014-11-05T14:29:19Z</time>
      </trkpt>
      <trkpt lat="43.42427" lon="6.1158">
        <ele>232.37052917481</ele>
        <time>2014-11-05T14:29:21Z</time>
      </trkpt>
      <trkpt lat="43.42427" lon="6.1158">
        <ele>232.37052917481</ele>
        <time>2014-11-05T14:29:27Z</time>
      </trkpt>
      <trkpt lat="43.42427" lon="6.1158">
        <ele>232.37052917481</ele>
        <time>2014-11-05T14:29:31Z</time>
      </trkpt>
      <trkpt lat="43.42427" lon="6.11579">
        <ele>232.37995910644</ele>
        <time>2014-11-05T14:29:33Z</time>
      </trkpt>
      <trkpt lat="43.42427" lon="6.11579">
        <ele>232.42643737793</ele>
        <time>2014-11-05T14:29:35Z</time>
      </trkpt>
      <trkpt lat="43.42427" lon="6.11578">
        <ele>232.45233154297</ele>
        <time>2014-11-05T14:29:37Z</time>
      </trkpt>
      <trkpt lat="43.42427" lon="6.11578">
        <ele>232.48010253906</ele>
        <time>2014-11-05T14:29:43Z</time>
      </trkpt>
      <trkpt lat="43.42427" lon="6.11578">
        <ele>232.47750854492</ele>
        <time>2014-11-05T14:29:47Z</time>
      </trkpt>
      <trkpt lat="43.42427" lon="6.11578">
        <ele>232.49588012695</ele>
        <time>2014-11-05T14:29:49Z</time>
      </trkpt>
      <trkpt lat="43.42427" lon="6.11578">
        <ele>232.49903869629</ele>
        <time>2014-11-05T14:29:51Z</time>
      </trkpt>
      <trkpt lat="43.42427" lon="6.11578">
        <ele>232.51167297363</ele>
        <time>2014-11-05T14:29:53Z</time>
      </trkpt>
      <trkpt lat="43.42427" lon="6.11577">
        <ele>232.55271911621</ele>
        <time>2014-11-05T14:30:02Z</time>
      </trkpt>
      <trkpt lat="43.42427" lon="6.11577">
        <ele>232.55587768555</ele>
        <time>2014-11-05T14:30:05Z</time>
      </trkpt>
      <trkpt lat="43.42427" lon="6.11577">
        <ele>232.55587768555</ele>
        <time>2014-11-05T14:30:07Z</time>
      </trkpt>
      <trkpt lat="43.42427" lon="6.11577">
        <ele>232.54640197754</ele>
        <time>2014-11-05T14:30:11Z</time>
      </trkpt>
      <trkpt lat="43.42428" lon="6.11577">
        <ele>232.54919433594</ele>
        <time>2014-11-05T14:30:13Z</time>
      </trkpt>
      <trkpt lat="43.42428" lon="6.11577">
        <ele>232.54602050781</ele>
        <time>2014-11-05T14:30:17Z</time>
      </trkpt>
      <trkpt lat="43.42428" lon="6.11577">
        <ele>232.54286193848</ele>
        <time>2014-11-05T14:30:19Z</time>
      </trkpt>
      <trkpt lat="43.42428" lon="6.11577">
        <ele>232.54286193848</ele>
        <time>2014-11-05T14:30:25Z</time>
      </trkpt>
      <trkpt lat="43.42428" lon="6.11577">
        <ele>232.53018188477</ele>
        <time>2014-11-05T14:30:27Z</time>
      </trkpt>
      <trkpt lat="43.42428" lon="6.11577">
        <ele>232.53018188477</ele>
        <time>2014-11-05T14:30:29Z</time>
      </trkpt>
      <trkpt lat="43.42428" lon="6.11577">
        <ele>232.53018188477</ele>
        <time>2014-11-05T14:30:31Z</time>
      </trkpt>
      <trkpt lat="43.42428" lon="6.11577">
        <ele>232.53652954102</ele>
        <time>2014-11-05T14:30:35Z</time>
      </trkpt>
      <trkpt lat="43.42428" lon="6.11577">
        <ele>232.53652954102</ele>
        <time>2014-11-05T14:30:39Z</time>
      </trkpt>
      <trkpt lat="43.42428" lon="6.11577">
        <ele>232.53652954102</ele>
        <time>2014-11-05T14:30:45Z</time>
      </trkpt>
      <trkpt lat="43.42428" lon="6.11577">
        <ele>232.53652954102</ele>
        <time>2014-11-05T14:30:49Z</time>
      </trkpt>
      <trkpt lat="43.42428" lon="6.11577">
        <ele>232.53018188477</ele>
        <time>2014-11-05T14:30:51Z</time>
      </trkpt>
      <trkpt lat="43.42428" lon="6.11577">
        <ele>232.52702331543</ele>
        <time>2014-11-05T14:30:53Z</time>
      </trkpt>
      <trkpt lat="43.42428" lon="6.11577">
        <ele>232.52702331543</ele>
        <time>2014-11-05T14:30:56Z</time>
      </trkpt>
      <trkpt lat="43.42428" lon="6.11578">
        <ele>232.52069091797</ele>
        <time>2014-11-05T14:31:03Z</time>
      </trkpt>
      <trkpt lat="43.42428" lon="6.11577">
        <ele>232.52702331543</ele>
        <time>2014-11-05T14:31:07Z</time>
      </trkpt>
      <trkpt lat="43.42428" lon="6.11577">
        <ele>232.53335571289</ele>
        <time>2014-11-05T14:31:12Z</time>
      </trkpt>
      <trkpt lat="43.42428" lon="6.11577">
        <ele>232.52972412109</ele>
        <time>2014-11-05T14:31:13Z</time>
      </trkpt>
      <trkpt lat="43.42428" lon="6.11578">
        <ele>232.52655029297</ele>
        <time>2014-11-05T14:31:17Z</time>
      </trkpt>
      <trkpt lat="43.42428" lon="6.11577">
        <ele>232.53926086426</ele>
        <time>2014-11-05T14:31:19Z</time>
      </trkpt>
      <trkpt lat="43.42428" lon="6.11576">
        <ele>232.609375</ele>
        <time>2014-11-05T14:31:21Z</time>
      </trkpt>
      <trkpt lat="43.42427" lon="6.11576">
        <ele>232.64427185059</ele>
        <time>2014-11-05T14:31:23Z</time>
      </trkpt>
      <trkpt lat="43.42428" lon="6.11575">
        <ele>232.65689086914</ele>
        <time>2014-11-05T14:31:24Z</time>
      </trkpt>
      <trkpt lat="43.42428" lon="6.11576">
        <ele>232.64738464356</ele>
        <time>2014-11-05T14:31:25Z</time>
      </trkpt>
      <trkpt lat="43.42428" lon="6.11576">
        <ele>232.64105224609</ele>
        <time>2014-11-05T14:31:27Z</time>
      </trkpt>
      <trkpt lat="43.42428" lon="6.11576">
        <ele>232.64105224609</ele>
        <time>2014-11-05T14:31:29Z</time>
      </trkpt>
      <trkpt lat="43.42428" lon="6.11576">
        <ele>232.64738464356</ele>
        <time>2014-11-05T14:31:38Z</time>
      </trkpt>
      <trkpt lat="43.42428" lon="6.11576">
        <ele>232.64738464356</ele>
        <time>2014-11-05T14:31:47Z</time>
      </trkpt>
      <trkpt lat="43.42428" lon="6.11575">
        <ele>232.65689086914</ele>
        <time>2014-11-05T14:31:51Z</time>
      </trkpt>
      <trkpt lat="43.42428" lon="6.11575">
        <ele>232.65689086914</ele>
        <time>2014-11-05T14:31:57Z</time>
      </trkpt>
      <trkpt lat="43.42428" lon="6.11575">
        <ele>232.67272949219</ele>
        <time>2014-11-05T14:32:25Z</time>
      </trkpt>
      <trkpt lat="43.42428" lon="6.11575">
        <ele>232.67906188965</ele>
        <time>2014-11-05T14:32:27Z</time>
      </trkpt>
      <trkpt lat="43.42428" lon="6.11575">
        <ele>232.67906188965</ele>
        <time>2014-11-05T14:32:31Z</time>
      </trkpt>
      <trkpt lat="43.42428" lon="6.11575">
        <ele>232.67906188965</ele>
        <time>2014-11-05T14:32:33Z</time>
      </trkpt>
      <trkpt lat="43.42428" lon="6.11575">
        <ele>232.69497680664</ele>
        <time>2014-11-05T14:32:37Z</time>
      </trkpt>
      <trkpt lat="43.42428" lon="6.11575">
        <ele>232.70133972168</ele>
        <time>2014-11-05T14:32:39Z</time>
      </trkpt>
      <trkpt lat="43.42428" lon="6.11575">
        <ele>232.71405029297</ele>
        <time>2014-11-05T14:32:41Z</time>
      </trkpt>
      <trkpt lat="43.42428" lon="6.11575">
        <ele>232.71722412109</ele>
        <time>2014-11-05T14:32:43Z</time>
      </trkpt>
      <trkpt lat="43.42428" lon="6.11574">
        <ele>232.76141357422</ele>
        <time>2014-11-05T14:32:47Z</time>
      </trkpt>
      <trkpt lat="43.42427" lon="6.11574">
        <ele>232.78001403809</ele>
        <time>2014-11-05T14:32:51Z</time>
      </trkpt>
      <trkpt lat="43.42427" lon="6.11573">
        <ele>232.78948974609</ele>
        <time>2014-11-05T14:32:53Z</time>
      </trkpt>
      <trkpt lat="43.42427" lon="6.11573">
        <ele>232.78948974609</ele>
        <time>2014-11-05T14:32:57Z</time>
      </trkpt>
      <trkpt lat="43.42427" lon="6.11573">
        <ele>232.79580688477</ele>
        <time>2014-11-05T14:32:59Z</time>
      </trkpt>
      <trkpt lat="43.42427" lon="6.11573">
        <ele>232.81474304199</ele>
        <time>2014-11-05T14:33:03Z</time>
      </trkpt>
      <trkpt lat="43.42428" lon="6.11573">
        <ele>232.85011291504</ele>
        <time>2014-11-05T14:33:05Z</time>
      </trkpt>
      <trkpt lat="43.42428" lon="6.11572">
        <ele>232.8564453125</ele>
        <time>2014-11-05T14:33:06Z</time>
      </trkpt>
      <trkpt lat="43.42427" lon="6.11573">
        <ele>232.84631347656</ele>
        <time>2014-11-05T14:33:07Z</time>
      </trkpt>
      <trkpt lat="43.42428" lon="6.11572">
        <ele>232.87228393555</ele>
        <time>2014-11-05T14:33:09Z</time>
      </trkpt>
      <trkpt lat="43.4243" lon="6.11569">
        <ele>233.1424407959</ele>
        <time>2014-11-05T14:33:11Z</time>
      </trkpt>
      <trkpt lat="43.42431" lon="6.11566">
        <ele>233.34971618652</ele>
        <time>2014-11-05T14:33:13Z</time>
      </trkpt>
      <trkpt lat="43.42432" lon="6.11564">
        <ele>233.5196685791</ele>
        <time>2014-11-05T14:33:15Z</time>
      </trkpt>
      <trkpt lat="43.42433" lon="6.11563">
        <ele>233.61019897461</ele>
        <time>2014-11-05T14:33:16Z</time>
      </trkpt>
      <trkpt lat="43.42434" lon="6.11558">
        <ele>233.99848937988</ele>
        <time>2014-11-05T14:33:19Z</time>
      </trkpt>
      <trkpt lat="43.42435" lon="6.11555">
        <ele>234.23704528809</ele>
        <time>2014-11-05T14:33:21Z</time>
      </trkpt>
      <trkpt lat="43.42436" lon="6.11552">
        <ele>234.47427368164</ele>
        <time>2014-11-05T14:33:23Z</time>
      </trkpt>
      <trkpt lat="43.42439" lon="6.11549">
        <ele>234.77505493164</ele>
        <time>2014-11-05T14:33:25Z</time>
      </trkpt>
      <trkpt lat="43.4244" lon="6.11546">
        <ele>235.05029296875</ele>
        <time>2014-11-05T14:33:27Z</time>
      </trkpt>
      <trkpt lat="43.42442" lon="6.11544">
        <ele>235.21992492676</ele>
        <time>2014-11-05T14:33:29Z</time>
      </trkpt>
      <trkpt lat="43.42442" lon="6.11542">
        <ele>235.37113952637</ele>
        <time>2014-11-05T14:33:31Z</time>
      </trkpt>
      <trkpt lat="43.42443" lon="6.1154">
        <ele>235.5955657959</ele>
        <time>2014-11-05T14:33:33Z</time>
      </trkpt>
      <trkpt lat="43.42444" lon="6.11536">
        <ele>235.92330932617</ele>
        <time>2014-11-05T14:33:35Z</time>
      </trkpt>
      <trkpt lat="43.42444" lon="6.11533">
        <ele>236.1072845459</ele>
        <time>2014-11-05T14:33:36Z</time>
      </trkpt>
      <trkpt lat="43.42444" lon="6.11531">
        <ele>236.30570983887</ele>
        <time>2014-11-05T14:33:37Z</time>
      </trkpt>
      <trkpt lat="43.42444" lon="6.11527">
        <ele>236.62937927246</ele>
        <time>2014-11-05T14:33:39Z</time>
      </trkpt>
      <trkpt lat="43.42446" lon="6.11523">
        <ele>236.96832275391</ele>
        <time>2014-11-05T14:33:41Z</time>
      </trkpt>
      <trkpt lat="43.42448" lon="6.1152">
        <ele>237.30966186523</ele>
        <time>2014-11-05T14:33:43Z</time>
      </trkpt>
      <trkpt lat="43.4245" lon="6.11517">
        <ele>237.6551361084</ele>
        <time>2014-11-05T14:33:45Z</time>
      </trkpt>
      <trkpt lat="43.42452" lon="6.11514">
        <ele>237.99569702148</ele>
        <time>2014-11-05T14:33:47Z</time>
      </trkpt>
      <trkpt lat="43.42452" lon="6.11512">
        <ele>238.17288208008</ele>
        <time>2014-11-05T14:33:48Z</time>
      </trkpt>
      <trkpt lat="43.42452" lon="6.1151">
        <ele>238.31489562988</ele>
        <time>2014-11-05T14:33:49Z</time>
      </trkpt>
      <trkpt lat="43.42453" lon="6.11503">
        <ele>238.88203430176</ele>
        <time>2014-11-05T14:33:53Z</time>
      </trkpt>
      <trkpt lat="43.42453" lon="6.11502">
        <ele>239.0546875</ele>
        <time>2014-11-05T14:33:54Z</time>
      </trkpt>
      <trkpt lat="43.42453" lon="6.115">
        <ele>239.17431640625</ele>
        <time>2014-11-05T14:33:55Z</time>
      </trkpt>
      <trkpt lat="43.42454" lon="6.11499">
        <ele>239.32756042481</ele>
        <time>2014-11-05T14:33:56Z</time>
      </trkpt>
      <trkpt lat="43.42454" lon="6.11499">
        <ele>239.36408996582</ele>
        <time>2014-11-05T14:33:57Z</time>
      </trkpt>
      <trkpt lat="43.42454" lon="6.11498">
        <ele>239.42668151856</ele>
        <time>2014-11-05T14:33:58Z</time>
      </trkpt>
      <trkpt lat="43.42454" lon="6.11497">
        <ele>239.50492858887</ele>
        <time>2014-11-05T14:33:59Z</time>
      </trkpt>
      <trkpt lat="43.42455" lon="6.11495">
        <ele>239.79792785644</ele>
        <time>2014-11-05T14:34:01Z</time>
      </trkpt>
      <trkpt lat="43.42455" lon="6.11495">
        <ele>239.87173461914</ele>
        <time>2014-11-05T14:34:03Z</time>
      </trkpt>
      <trkpt lat="43.42455" lon="6.11495">
        <ele>239.85734558106</ele>
        <time>2014-11-05T14:34:04Z</time>
      </trkpt>
      <trkpt lat="43.42455" lon="6.11494">
        <ele>239.91390991211</ele>
        <time>2014-11-05T14:34:05Z</time>
      </trkpt>
      <trkpt lat="43.42456" lon="6.11494">
        <ele>240.05953979492</ele>
        <time>2014-11-05T14:34:07Z</time>
      </trkpt>
      <trkpt lat="43.42456" lon="6.11493">
        <ele>240.17440795898</ele>
        <time>2014-11-05T14:34:09Z</time>
      </trkpt>
      <trkpt lat="43.42457" lon="6.11491">
        <ele>240.41395568848</ele>
        <time>2014-11-05T14:34:12Z</time>
      </trkpt>
      <trkpt lat="43.42458" lon="6.11491">
        <ele>240.4617767334</ele>
        <time>2014-11-05T14:34:13Z</time>
      </trkpt>
      <trkpt lat="43.42458" lon="6.1149">
        <ele>240.62312316894</ele>
        <time>2014-11-05T14:34:15Z</time>
      </trkpt>
      <trkpt lat="43.42461" lon="6.11486">
        <ele>241.26016235352</ele>
        <time>2014-11-05T14:34:21Z</time>
      </trkpt>
      <trkpt lat="43.42461" lon="6.11484">
        <ele>241.52882385254</ele>
        <time>2014-11-05T14:34:23Z</time>
      </trkpt>
      <trkpt lat="43.42463" lon="6.11482">
        <ele>241.88218688965</ele>
        <time>2014-11-05T14:34:25Z</time>
      </trkpt>
      <trkpt lat="43.42464" lon="6.11481">
        <ele>242.11241149902</ele>
        <time>2014-11-05T14:34:27Z</time>
      </trkpt>
      <trkpt lat="43.42464" lon="6.1148">
        <ele>242.26261901856</ele>
        <time>2014-11-05T14:34:29Z</time>
      </trkpt>
      <trkpt lat="43.42464" lon="6.1148">
        <ele>242.31047058106</ele>
        <time>2014-11-05T14:34:31Z</time>
      </trkpt>
      <trkpt lat="43.42465" lon="6.11479">
        <ele>242.43531799316</ele>
        <time>2014-11-05T14:34:35Z</time>
      </trkpt>
      <trkpt lat="43.42467" lon="6.11478">
        <ele>242.73045349121</ele>
        <time>2014-11-05T14:34:37Z</time>
      </trkpt>
      <trkpt lat="43.42468" lon="6.11477">
        <ele>242.87568664551</ele>
        <time>2014-11-05T14:34:39Z</time>
      </trkpt>
      <trkpt lat="43.42468" lon="6.11477">
        <ele>242.89926147461</ele>
        <time>2014-11-05T14:34:41Z</time>
      </trkpt>
      <trkpt lat="43.42468" lon="6.11477">
        <ele>242.91694641113</ele>
        <time>2014-11-05T14:34:43Z</time>
      </trkpt>
      <trkpt lat="43.4247" lon="6.11475">
        <ele>243.33303833008</ele>
        <time>2014-11-05T14:34:47Z</time>
      </trkpt>
      <trkpt lat="43.42471" lon="6.11474">
        <ele>243.62673950195</ele>
        <time>2014-11-05T14:34:49Z</time>
      </trkpt>
      <trkpt lat="43.42472" lon="6.11473">
        <ele>243.86643981934</ele>
        <time>2014-11-05T14:34:51Z</time>
      </trkpt>
      <trkpt lat="43.42474" lon="6.11472">
        <ele>244.07781982422</ele>
        <time>2014-11-05T14:34:53Z</time>
      </trkpt>
      <trkpt lat="43.42475" lon="6.1147">
        <ele>244.34097290039</ele>
        <time>2014-11-05T14:34:55Z</time>
      </trkpt>
      <trkpt lat="43.42476" lon="6.11469">
        <ele>244.68862915039</ele>
        <time>2014-11-05T14:34:57Z</time>
      </trkpt>
      <trkpt lat="43.42477" lon="6.11467">
        <ele>245.03424072266</ele>
        <time>2014-11-05T14:34:59Z</time>
      </trkpt>
      <trkpt lat="43.42478" lon="6.11465">
        <ele>245.39680480957</ele>
        <time>2014-11-05T14:35:01Z</time>
      </trkpt>
      <trkpt lat="43.42479" lon="6.11464">
        <ele>245.59341430664</ele>
        <time>2014-11-05T14:35:03Z</time>
      </trkpt>
      <trkpt lat="43.42479" lon="6.11463">
        <ele>245.66882324219</ele>
        <time>2014-11-05T14:35:05Z</time>
      </trkpt>
      <trkpt lat="43.42479" lon="6.11462">
        <ele>245.84112548828</ele>
        <time>2014-11-05T14:35:07Z</time>
      </trkpt>
      <trkpt lat="43.4248" lon="6.11461">
        <ele>246.10467529297</ele>
        <time>2014-11-05T14:35:09Z</time>
      </trkpt>
      <trkpt lat="43.4248" lon="6.11459">
        <ele>246.35615539551</ele>
        <time>2014-11-05T14:35:11Z</time>
      </trkpt>
      <trkpt lat="43.4248" lon="6.11459">
        <ele>246.43414306641</ele>
        <time>2014-11-05T14:35:13Z</time>
      </trkpt>
      <trkpt lat="43.4248" lon="6.11459">
        <ele>246.44064331055</ele>
        <time>2014-11-05T14:35:15Z</time>
      </trkpt>
      <trkpt lat="43.4248" lon="6.11458">
        <ele>246.49264526367</ele>
        <time>2014-11-05T14:35:17Z</time>
      </trkpt>
      <trkpt lat="43.42481" lon="6.11459">
        <ele>246.51847839356</ele>
        <time>2014-11-05T14:35:19Z</time>
      </trkpt>
      <trkpt lat="43.42481" lon="6.11457">
        <ele>246.6944732666</ele>
        <time>2014-11-05T14:35:21Z</time>
      </trkpt>
      <trkpt lat="43.42481" lon="6.11456">
        <ele>246.85145568848</ele>
        <time>2014-11-05T14:35:22Z</time>
      </trkpt>
      <trkpt lat="43.42482" lon="6.11456">
        <ele>246.98942565918</ele>
        <time>2014-11-05T14:35:23Z</time>
      </trkpt>
      <trkpt lat="43.42482" lon="6.11452">
        <ele>247.59002685547</ele>
        <time>2014-11-05T14:35:29Z</time>
      </trkpt>
      <trkpt lat="43.42482" lon="6.11451">
        <ele>247.69549560547</ele>
        <time>2014-11-05T14:35:30Z</time>
      </trkpt>
      <trkpt lat="43.42482" lon="6.11451">
        <ele>247.77459716797</ele>
        <time>2014-11-05T14:35:31Z</time>
      </trkpt>
      <trkpt lat="43.42482" lon="6.1145">
        <ele>247.82072448731</ele>
        <time>2014-11-05T14:35:33Z</time>
      </trkpt>
      <trkpt lat="43.42482" lon="6.1145">
        <ele>247.82731628418</ele>
        <time>2014-11-05T14:35:35Z</time>
      </trkpt>
      <trkpt lat="43.42482" lon="6.1145">
        <ele>247.84049987793</ele>
        <time>2014-11-05T14:35:37Z</time>
      </trkpt>
      <trkpt lat="43.42482" lon="6.1145">
        <ele>247.84709167481</ele>
        <time>2014-11-05T14:35:45Z</time>
      </trkpt>
      <trkpt lat="43.42482" lon="6.1145">
        <ele>247.85368347168</ele>
        <time>2014-11-05T14:35:49Z</time>
      </trkpt>
      <trkpt lat="43.42482" lon="6.1145">
        <ele>247.89323425293</ele>
        <time>2014-11-05T14:35:53Z</time>
      </trkpt>
      <trkpt lat="43.42482" lon="6.1145">
        <ele>247.88005065918</ele>
        <time>2014-11-05T14:35:55Z</time>
      </trkpt>
      <trkpt lat="43.42482" lon="6.1145">
        <ele>247.88005065918</ele>
        <time>2014-11-05T14:36:01Z</time>
      </trkpt>
      <trkpt lat="43.42482" lon="6.1145">
        <ele>247.89323425293</ele>
        <time>2014-11-05T14:36:11Z</time>
      </trkpt>
      <trkpt lat="43.42482" lon="6.1145">
        <ele>247.89323425293</ele>
        <time>2014-11-05T14:36:13Z</time>
      </trkpt>
      <trkpt lat="43.42482" lon="6.1145">
        <ele>247.84443664551</ele>
        <time>2014-11-05T14:36:15Z</time>
      </trkpt>
      <trkpt lat="43.42482" lon="6.1145">
        <ele>247.87072753906</ele>
        <time>2014-11-05T14:36:17Z</time>
      </trkpt>
      <trkpt lat="43.42482" lon="6.11449">
        <ele>247.92332458496</ele>
        <time>2014-11-05T14:36:18Z</time>
      </trkpt>
      <trkpt lat="43.42482" lon="6.11449">
        <ele>247.94961547852</ele>
        <time>2014-11-05T14:36:19Z</time>
      </trkpt>
      <trkpt lat="43.42482" lon="6.11449">
        <ele>247.94961547852</ele>
        <time>2014-11-05T14:36:21Z</time>
      </trkpt>
      <trkpt lat="43.42482" lon="6.11449">
        <ele>247.94303894043</ele>
        <time>2014-11-05T14:36:23Z</time>
      </trkpt>
      <trkpt lat="43.42482" lon="6.11449">
        <ele>247.94961547852</ele>
        <time>2014-11-05T14:36:27Z</time>
      </trkpt>
      <trkpt lat="43.42482" lon="6.11449">
        <ele>247.94961547852</ele>
        <time>2014-11-05T14:36:29Z</time>
      </trkpt>
      <trkpt lat="43.42482" lon="6.11449">
        <ele>247.96932983398</ele>
        <time>2014-11-05T14:36:31Z</time>
      </trkpt>
      <trkpt lat="43.42482" lon="6.11449">
        <ele>247.99562072754</ele>
        <time>2014-11-05T14:36:32Z</time>
      </trkpt>
      <trkpt lat="43.42482" lon="6.11448">
        <ele>248.03506469727</ele>
        <time>2014-11-05T14:36:33Z</time>
      </trkpt>
      <trkpt lat="43.42482" lon="6.11448">
        <ele>248.11393737793</ele>
        <time>2014-11-05T14:36:35Z</time>
      </trkpt>
      <trkpt lat="43.42482" lon="6.11448">
        <ele>248.11393737793</ele>
        <time>2014-11-05T14:36:39Z</time>
      </trkpt>
      <trkpt lat="43.42482" lon="6.11448">
        <ele>248.1270904541</ele>
        <time>2014-11-05T14:36:41Z</time>
      </trkpt>
      <trkpt lat="43.42482" lon="6.11447">
        <ele>248.23599243164</ele>
        <time>2014-11-05T14:36:43Z</time>
      </trkpt>
      <trkpt lat="43.42482" lon="6.11447">
        <ele>248.25576782227</ele>
        <time>2014-11-05T14:36:45Z</time>
      </trkpt>
      <trkpt lat="43.42482" lon="6.11447">
        <ele>248.25576782227</ele>
        <time>2014-11-05T14:36:47Z</time>
      </trkpt>
      <trkpt lat="43.42482" lon="6.11447">
        <ele>248.28213500977</ele>
        <time>2014-11-05T14:36:48Z</time>
      </trkpt>
      <trkpt lat="43.42482" lon="6.11447">
        <ele>248.29531860352</ele>
        <time>2014-11-05T14:36:49Z</time>
      </trkpt>
      <trkpt lat="43.42482" lon="6.11447">
        <ele>248.32168579102</ele>
        <time>2014-11-05T14:36:51Z</time>
      </trkpt>
      <trkpt lat="43.42483" lon="6.11445">
        <ele>248.60736083984</ele>
        <time>2014-11-05T14:36:55Z</time>
      </trkpt>
      <trkpt lat="43.42484" lon="6.11445">
        <ele>248.73109436035</ele>
        <time>2014-11-05T14:36:57Z</time>
      </trkpt>
      <trkpt lat="43.42484" lon="6.11444">
        <ele>248.84858703613</ele>
        <time>2014-11-05T14:36:59Z</time>
      </trkpt>
      <trkpt lat="43.42484" lon="6.11444">
        <ele>248.86192321777</ele>
        <time>2014-11-05T14:37:01Z</time>
      </trkpt>
      <trkpt lat="43.42484" lon="6.11444">
        <ele>248.87524414062</ele>
        <time>2014-11-05T14:37:03Z</time>
      </trkpt>
      <trkpt lat="43.42484" lon="6.11444">
        <ele>248.953125</ele>
        <time>2014-11-05T14:37:05Z</time>
      </trkpt>
      <trkpt lat="43.42484" lon="6.11443">
        <ele>248.99990844727</ele>
        <time>2014-11-05T14:37:07Z</time>
      </trkpt>
      <trkpt lat="43.42484" lon="6.11443">
        <ele>249.00659179688</ele>
        <time>2014-11-05T14:37:09Z</time>
      </trkpt>
      <trkpt lat="43.42484" lon="6.11443">
        <ele>248.99322509766</ele>
        <time>2014-11-05T14:37:11Z</time>
      </trkpt>
      <trkpt lat="43.42484" lon="6.11443">
        <ele>248.99990844727</ele>
        <time>2014-11-05T14:37:13Z</time>
      </trkpt>
      <trkpt lat="43.42484" lon="6.11443">
        <ele>248.99990844727</ele>
        <time>2014-11-05T14:37:15Z</time>
      </trkpt>
      <trkpt lat="43.42485" lon="6.11443">
        <ele>249.07139587402</ele>
        <time>2014-11-05T14:37:17Z</time>
      </trkpt>
      <trkpt lat="43.42485" lon="6.11443">
        <ele>249.24848937988</ele>
        <time>2014-11-05T14:37:19Z</time>
      </trkpt>
      <trkpt lat="43.42486" lon="6.11442">
        <ele>249.40621948242</ele>
        <time>2014-11-05T14:37:21Z</time>
      </trkpt>
      <trkpt lat="43.42488" lon="6.11441">
        <ele>249.7307434082</ele>
        <time>2014-11-05T14:37:23Z</time>
      </trkpt>
      <trkpt lat="43.42488" lon="6.1144">
        <ele>249.85868835449</ele>
        <time>2014-11-05T14:37:24Z</time>
      </trkpt>
      <trkpt lat="43.42488" lon="6.1144">
        <ele>249.98020935059</ele>
        <time>2014-11-05T14:37:25Z</time>
      </trkpt>
      <trkpt lat="43.4249" lon="6.11439">
        <ele>250.25695800781</ele>
        <time>2014-11-05T14:37:27Z</time>
      </trkpt>
      <trkpt lat="43.4249" lon="6.11439">
        <ele>250.37057495117</ele>
        <time>2014-11-05T14:37:29Z</time>
      </trkpt>
      <trkpt lat="43.42492" lon="6.11439">
        <ele>250.50978088379</ele>
        <time>2014-11-05T14:37:31Z</time>
      </trkpt>
      <trkpt lat="43.42492" lon="6.11439">
        <ele>250.51071166992</ele>
        <time>2014-11-05T14:37:33Z</time>
      </trkpt>
      <trkpt lat="43.42492" lon="6.1144">
        <ele>250.48950195312</ele>
        <time>2014-11-05T14:37:35Z</time>
      </trkpt>
      <trkpt lat="43.42492" lon="6.1144">
        <ele>250.49656677246</ele>
        <time>2014-11-05T14:37:37Z</time>
      </trkpt>
      <trkpt lat="43.42492" lon="6.1144">
        <ele>250.48950195312</ele>
        <time>2014-11-05T14:37:38Z</time>
      </trkpt>
      <trkpt lat="43.42492" lon="6.1144">
        <ele>250.48950195312</ele>
        <time>2014-11-05T14:37:41Z</time>
      </trkpt>
      <trkpt lat="43.42493" lon="6.1144">
        <ele>250.53561401367</ele>
        <time>2014-11-05T14:37:45Z</time>
      </trkpt>
      <trkpt lat="43.42493" lon="6.1144">
        <ele>250.53561401367</ele>
        <time>2014-11-05T14:37:47Z</time>
      </trkpt>
      <trkpt lat="43.42493" lon="6.1144">
        <ele>250.50357055664</ele>
        <time>2014-11-05T14:37:49Z</time>
      </trkpt>
      <trkpt lat="43.42495" lon="6.11441">
        <ele>250.55798339844</ele>
        <time>2014-11-05T14:37:51Z</time>
      </trkpt>
      <trkpt lat="43.42497" lon="6.11442">
        <ele>250.66381835938</ele>
        <time>2014-11-05T14:37:53Z</time>
      </trkpt>
      <trkpt lat="43.42498" lon="6.11442">
        <ele>250.76257324219</ele>
        <time>2014-11-05T14:37:54Z</time>
      </trkpt>
      <trkpt lat="43.42499" lon="6.11442">
        <ele>250.88296508789</ele>
        <time>2014-11-05T14:37:55Z</time>
      </trkpt>
      <trkpt lat="43.42501" lon="6.11443">
        <ele>250.96873474121</ele>
        <time>2014-11-05T14:37:57Z</time>
      </trkpt>
      <trkpt lat="43.42505" lon="6.11445">
        <ele>250.97923278809</ele>
        <time>2014-11-05T14:38:00Z</time>
      </trkpt>
      <trkpt lat="43.42506" lon="6.11446">
        <ele>250.99359130859</ele>
        <time>2014-11-05T14:38:01Z</time>
      </trkpt>
      <trkpt lat="43.42508" lon="6.11446">
        <ele>251.02508544922</ele>
        <time>2014-11-05T14:38:03Z</time>
      </trkpt>
      <trkpt lat="43.42508" lon="6.11446">
        <ele>251.08108520508</ele>
        <time>2014-11-05T14:38:05Z</time>
      </trkpt>
      <trkpt lat="43.42508" lon="6.11446">
        <ele>251.11445617676</ele>
        <time>2014-11-05T14:38:07Z</time>
      </trkpt>
      <trkpt lat="43.42508" lon="6.11447">
        <ele>251.06913757324</ele>
        <time>2014-11-05T14:38:11Z</time>
      </trkpt>
      <trkpt lat="43.42508" lon="6.11447">
        <ele>251.02824401856</ele>
        <time>2014-11-05T14:38:13Z</time>
      </trkpt>
      <trkpt lat="43.42508" lon="6.11447">
        <ele>251.00561523438</ele>
        <time>2014-11-05T14:38:15Z</time>
      </trkpt>
      <trkpt lat="43.42508" lon="6.11447">
        <ele>251.00561523438</ele>
        <time>2014-11-05T14:38:17Z</time>
      </trkpt>
      <trkpt lat="43.42508" lon="6.11447">
        <ele>251.01315307617</ele>
        <time>2014-11-05T14:38:19Z</time>
      </trkpt>
      <trkpt lat="43.42508" lon="6.11447">
        <ele>251.02070617676</ele>
        <time>2014-11-05T14:38:23Z</time>
      </trkpt>
      <trkpt lat="43.42508" lon="6.11446">
        <ele>251.08424377441</ele>
        <time>2014-11-05T14:38:25Z</time>
      </trkpt>
      <trkpt lat="43.42508" lon="6.11446">
        <ele>251.04335021973</ele>
        <time>2014-11-05T14:38:29Z</time>
      </trkpt>
      <trkpt lat="43.42508" lon="6.11447">
        <ele>251.06158447266</ele>
        <time>2014-11-05T14:38:31Z</time>
      </trkpt>
      <trkpt lat="43.42509" lon="6.11447">
        <ele>251.04202270508</ele>
        <time>2014-11-05T14:38:33Z</time>
      </trkpt>
      <trkpt lat="43.4251" lon="6.11448">
        <ele>250.99043273926</ele>
        <time>2014-11-05T14:38:35Z</time>
      </trkpt>
      <trkpt lat="43.4251" lon="6.11448">
        <ele>251.02363586426</ele>
        <time>2014-11-05T14:38:39Z</time>
      </trkpt>
      <trkpt lat="43.4251" lon="6.11448">
        <ele>251.01605224609</ele>
        <time>2014-11-05T14:38:40Z</time>
      </trkpt>
      <trkpt lat="43.4251" lon="6.11448">
        <ele>250.98286437988</ele>
        <time>2014-11-05T14:38:41Z</time>
      </trkpt>
      <trkpt lat="43.42511" lon="6.11448">
        <ele>251.05207824707</ele>
        <time>2014-11-05T14:38:43Z</time>
      </trkpt>
      <trkpt lat="43.42513" lon="6.11446">
        <ele>251.56353759766</ele>
        <time>2014-11-05T14:38:45Z</time>
      </trkpt>
      <trkpt lat="43.42514" lon="6.11445">
        <ele>251.90042114258</ele>
        <time>2014-11-05T14:38:46Z</time>
      </trkpt>
      <trkpt lat="43.42515" lon="6.11443">
        <ele>252.20143127441</ele>
        <time>2014-11-05T14:38:47Z</time>
      </trkpt>
      <trkpt lat="43.42515" lon="6.11441">
        <ele>252.5071105957</ele>
        <time>2014-11-05T14:38:48Z</time>
      </trkpt>
      <trkpt lat="43.42514" lon="6.11437">
        <ele>253.0001373291</ele>
        <time>2014-11-05T14:38:50Z</time>
      </trkpt>
      <trkpt lat="43.42513" lon="6.11436">
        <ele>253.23252868652</ele>
        <time>2014-11-05T14:38:51Z</time>
      </trkpt>
      <trkpt lat="43.42513" lon="6.11432">
        <ele>253.74186706543</ele>
        <time>2014-11-05T14:38:53Z</time>
      </trkpt>
      <trkpt lat="43.42513" lon="6.11429">
        <ele>254.33274841309</ele>
        <time>2014-11-05T14:38:55Z</time>
      </trkpt>
      <trkpt lat="43.42512" lon="6.11425">
        <ele>254.77928161621</ele>
        <time>2014-11-05T14:38:57Z</time>
      </trkpt>
      <trkpt lat="43.42512" lon="6.11422">
        <ele>255.20721435547</ele>
        <time>2014-11-05T14:38:59Z</time>
      </trkpt>
      <trkpt lat="43.42511" lon="6.11419">
        <ele>255.7180480957</ele>
        <time>2014-11-05T14:39:01Z</time>
      </trkpt>
      <trkpt lat="43.42511" lon="6.11416">
        <ele>256.15393066406</ele>
        <time>2014-11-05T14:39:03Z</time>
      </trkpt>
      <trkpt lat="43.4251" lon="6.11412">
        <ele>256.45660400391</ele>
        <time>2014-11-05T14:39:05Z</time>
      </trkpt>
      <trkpt lat="43.4251" lon="6.11409">
        <ele>256.79656982422</ele>
        <time>2014-11-05T14:39:07Z</time>
      </trkpt>
      <trkpt lat="43.42509" lon="6.11406">
        <ele>257.03164672852</ele>
        <time>2014-11-05T14:39:09Z</time>
      </trkpt>
      <trkpt lat="43.42509" lon="6.11402">
        <ele>257.36834716797</ele>
        <time>2014-11-05T14:39:11Z</time>
      </trkpt>
      <trkpt lat="43.42507" lon="6.11393">
        <ele>258.18951416016</ele>
        <time>2014-11-05T14:39:17Z</time>
      </trkpt>
      <trkpt lat="43.42506" lon="6.11386">
        <ele>258.87936401367</ele>
        <time>2014-11-05T14:39:21Z</time>
      </trkpt>
      <trkpt lat="43.42506" lon="6.11383">
        <ele>259.19577026367</ele>
        <time>2014-11-05T14:39:23Z</time>
      </trkpt>
      <trkpt lat="43.42506" lon="6.11381">
        <ele>259.35055541992</ele>
        <time>2014-11-05T14:39:24Z</time>
      </trkpt>
      <trkpt lat="43.42505" lon="6.11375">
        <ele>259.87322998047</ele>
        <time>2014-11-05T14:39:28Z</time>
      </trkpt>
      <trkpt lat="43.42504" lon="6.11374">
        <ele>260.00415039062</ele>
        <time>2014-11-05T14:39:29Z</time>
      </trkpt>
      <trkpt lat="43.42504" lon="6.1137">
        <ele>260.29858398438</ele>
        <time>2014-11-05T14:39:31Z</time>
      </trkpt>
      <trkpt lat="43.42503" lon="6.11367">
        <ele>260.56246948242</ele>
        <time>2014-11-05T14:39:33Z</time>
      </trkpt>
      <trkpt lat="43.42503" lon="6.11365">
        <ele>260.83834838867</ele>
        <time>2014-11-05T14:39:35Z</time>
      </trkpt>
      <trkpt lat="43.42502" lon="6.11363">
        <ele>260.90957641602</ele>
        <time>2014-11-05T14:39:36Z</time>
      </trkpt>
      <trkpt lat="43.425" lon="6.11358">
        <ele>261.3576965332</ele>
        <time>2014-11-05T14:39:39Z</time>
      </trkpt>
      <trkpt lat="43.42499" lon="6.11355">
        <ele>261.57360839844</ele>
        <time>2014-11-05T14:39:41Z</time>
      </trkpt>
      <trkpt lat="43.42498" lon="6.11348">
        <ele>262.13626098633</ele>
        <time>2014-11-05T14:39:45Z</time>
      </trkpt>
      <trkpt lat="43.42497" lon="6.11341">
        <ele>262.74224853516</ele>
        <time>2014-11-05T14:39:49Z</time>
      </trkpt>
      <trkpt lat="43.42497" lon="6.11338">
        <ele>263.00579833984</ele>
        <time>2014-11-05T14:39:51Z</time>
      </trkpt>
      <trkpt lat="43.42497" lon="6.11335">
        <ele>263.38125610352</ele>
        <time>2014-11-05T14:39:53Z</time>
      </trkpt>
      <trkpt lat="43.42497" lon="6.11332">
        <ele>263.51275634766</ele>
        <time>2014-11-05T14:39:55Z</time>
      </trkpt>
      <trkpt lat="43.42497" lon="6.11327">
        <ele>263.71282958984</ele>
        <time>2014-11-05T14:39:59Z</time>
      </trkpt>
      <trkpt lat="43.42497" lon="6.11322">
        <ele>263.94577026367</ele>
        <time>2014-11-05T14:40:03Z</time>
      </trkpt>
      <trkpt lat="43.42497" lon="6.1132">
        <ele>264.0299987793</ele>
        <time>2014-11-05T14:40:05Z</time>
      </trkpt>
      <trkpt lat="43.42498" lon="6.11315">
        <ele>264.28720092773</ele>
        <time>2014-11-05T14:40:09Z</time>
      </trkpt>
      <trkpt lat="43.42498" lon="6.11303">
        <ele>264.7829284668</ele>
        <time>2014-11-05T14:40:17Z</time>
      </trkpt>
      <trkpt lat="43.42498" lon="6.11297">
        <ele>265.00433349609</ele>
        <time>2014-11-05T14:40:21Z</time>
      </trkpt>
      <trkpt lat="43.42498" lon="6.11294">
        <ele>265.12475585938</ele>
        <time>2014-11-05T14:40:23Z</time>
      </trkpt>
      <trkpt lat="43.42498" lon="6.11291">
        <ele>265.30169677734</ele>
        <time>2014-11-05T14:40:25Z</time>
      </trkpt>
      <trkpt lat="43.42498" lon="6.11288">
        <ele>265.40380859375</ele>
        <time>2014-11-05T14:40:27Z</time>
      </trkpt>
      <trkpt lat="43.42498" lon="6.11285">
        <ele>265.50595092773</ele>
        <time>2014-11-05T14:40:29Z</time>
      </trkpt>
      <trkpt lat="43.42499" lon="6.11282">
        <ele>265.67495727539</ele>
        <time>2014-11-05T14:40:31Z</time>
      </trkpt>
      <trkpt lat="43.42498" lon="6.11279">
        <ele>265.73657226562</ele>
        <time>2014-11-05T14:40:33Z</time>
      </trkpt>
      <trkpt lat="43.42499" lon="6.11276">
        <ele>265.91122436523</ele>
        <time>2014-11-05T14:40:35Z</time>
      </trkpt>
      <trkpt lat="43.42499" lon="6.11272">
        <ele>266.03726196289</ele>
        <time>2014-11-05T14:40:37Z</time>
      </trkpt>
      <trkpt lat="43.425" lon="6.11266">
        <ele>266.36682128906</ele>
        <time>2014-11-05T14:40:41Z</time>
      </trkpt>
      <trkpt lat="43.42498" lon="6.11253">
        <ele>266.70666503906</ele>
        <time>2014-11-05T14:40:49Z</time>
      </trkpt>
      <trkpt lat="43.42498" lon="6.11249">
        <ele>266.71658325195</ele>
        <time>2014-11-05T14:40:51Z</time>
      </trkpt>
      <trkpt lat="43.42496" lon="6.11246">
        <ele>266.58322143555</ele>
        <time>2014-11-05T14:40:53Z</time>
      </trkpt>
      <trkpt lat="43.42495" lon="6.11242">
        <ele>266.45254516602</ele>
        <time>2014-11-05T14:40:55Z</time>
      </trkpt>
      <trkpt lat="43.42492" lon="6.11235">
        <ele>266.01940917969</ele>
        <time>2014-11-05T14:40:59Z</time>
      </trkpt>
      <trkpt lat="43.4249" lon="6.11232">
        <ele>265.80938720703</ele>
        <time>2014-11-05T14:41:01Z</time>
      </trkpt>
      <trkpt lat="43.42487" lon="6.11229">
        <ele>265.5578918457</ele>
        <time>2014-11-05T14:41:03Z</time>
      </trkpt>
      <trkpt lat="43.42484" lon="6.11222">
        <ele>265.197265625</ele>
        <time>2014-11-05T14:41:07Z</time>
      </trkpt>
      <trkpt lat="43.42482" lon="6.11219">
        <ele>265.04260253906</ele>
        <time>2014-11-05T14:41:09Z</time>
      </trkpt>
      <trkpt lat="43.42481" lon="6.11216">
        <ele>264.89126586914</ele>
        <time>2014-11-05T14:41:11Z</time>
      </trkpt>
      <trkpt lat="43.42479" lon="6.11213">
        <ele>264.74084472656</ele>
        <time>2014-11-05T14:41:13Z</time>
      </trkpt>
      <trkpt lat="43.42478" lon="6.11209">
        <ele>264.59484863281</ele>
        <time>2014-11-05T14:41:15Z</time>
      </trkpt>
      <trkpt lat="43.42477" lon="6.11206">
        <ele>264.49652099609</ele>
        <time>2014-11-05T14:41:17Z</time>
      </trkpt>
      <trkpt lat="43.42476" lon="6.11202">
        <ele>264.40173339844</ele>
        <time>2014-11-05T14:41:19Z</time>
      </trkpt>
      <trkpt lat="43.42474" lon="6.11198">
        <ele>264.30706787109</ele>
        <time>2014-11-05T14:41:21Z</time>
      </trkpt>
      <trkpt lat="43.42474" lon="6.11195">
        <ele>264.25302124023</ele>
        <time>2014-11-05T14:41:23Z</time>
      </trkpt>
      <trkpt lat="43.42473" lon="6.11193">
        <ele>264.22396850586</ele>
        <time>2014-11-05T14:41:24Z</time>
      </trkpt>
      <trkpt lat="43.42473" lon="6.11192">
        <ele>264.19189453125</ele>
        <time>2014-11-05T14:41:25Z</time>
      </trkpt>
      <trkpt lat="43.42473" lon="6.11192">
        <ele>264.23208618164</ele>
        <time>2014-11-05T14:41:26Z</time>
      </trkpt>
      <trkpt lat="43.42473" lon="6.11192">
        <ele>264.23059082031</ele>
        <time>2014-11-05T14:41:27Z</time>
      </trkpt>
      <trkpt lat="43.42473" lon="6.11193">
        <ele>264.22912597656</ele>
        <time>2014-11-05T14:41:29Z</time>
      </trkpt>
      <trkpt lat="43.42473" lon="6.11193">
        <ele>264.2294921875</ele>
        <time>2014-11-05T14:41:36Z</time>
      </trkpt>
      <trkpt lat="43.42473" lon="6.11193">
        <ele>264.22875976562</ele>
        <time>2014-11-05T14:41:43Z</time>
      </trkpt>
      <trkpt lat="43.42473" lon="6.11193">
        <ele>264.22875976562</ele>
        <time>2014-11-05T14:41:47Z</time>
      </trkpt>
      <trkpt lat="43.42473" lon="6.11193">
        <ele>264.18930053711</ele>
        <time>2014-11-05T14:41:49Z</time>
      </trkpt>
      <trkpt lat="43.42473" lon="6.11193">
        <ele>264.18966674805</ele>
        <time>2014-11-05T14:41:51Z</time>
      </trkpt>
      <trkpt lat="43.42473" lon="6.11193">
        <ele>264.19003295898</ele>
        <time>2014-11-05T14:41:55Z</time>
      </trkpt>
      <trkpt lat="43.42473" lon="6.11193">
        <ele>264.18890380859</ele>
        <time>2014-11-05T14:41:58Z</time>
      </trkpt>
      <trkpt lat="43.42473" lon="6.11193">
        <ele>264.18930053711</ele>
        <time>2014-11-05T14:41:59Z</time>
      </trkpt>
      <trkpt lat="43.42473" lon="6.11193">
        <ele>264.18890380859</ele>
        <time>2014-11-05T14:42:07Z</time>
      </trkpt>
      <trkpt lat="43.42473" lon="6.11193">
        <ele>264.18890380859</ele>
        <time>2014-11-05T14:42:11Z</time>
      </trkpt>
      <trkpt lat="43.42473" lon="6.11193">
        <ele>264.22839355469</ele>
        <time>2014-11-05T14:42:13Z</time>
      </trkpt>
      <trkpt lat="43.42473" lon="6.11192">
        <ele>264.23132324219</ele>
        <time>2014-11-05T14:42:15Z</time>
      </trkpt>
      <trkpt lat="43.42472" lon="6.11187">
        <ele>264.19519042969</ele>
        <time>2014-11-05T14:42:18Z</time>
      </trkpt>
      <trkpt lat="43.42472" lon="6.11185">
        <ele>264.13265991211</ele>
        <time>2014-11-05T14:42:19Z</time>
      </trkpt>
      <trkpt lat="43.42471" lon="6.11181">
        <ele>264.12789916992</ele>
        <time>2014-11-05T14:42:21Z</time>
      </trkpt>
      <trkpt lat="43.42472" lon="6.11177">
        <ele>264.1979675293</ele>
        <time>2014-11-05T14:42:23Z</time>
      </trkpt>
      <trkpt lat="43.42473" lon="6.11174">
        <ele>264.37255859375</ele>
        <time>2014-11-05T14:42:25Z</time>
      </trkpt>
      <trkpt lat="43.42474" lon="6.11171">
        <ele>264.51052856445</ele>
        <time>2014-11-05T14:42:27Z</time>
      </trkpt>
      <trkpt lat="43.42476" lon="6.11167">
        <ele>264.64520263672</ele>
        <time>2014-11-05T14:42:29Z</time>
      </trkpt>
      <trkpt lat="43.42477" lon="6.11164">
        <ele>264.72399902344</ele>
        <time>2014-11-05T14:42:31Z</time>
      </trkpt>
      <trkpt lat="43.42478" lon="6.11163">
        <ele>264.79620361328</ele>
        <time>2014-11-05T14:42:32Z</time>
      </trkpt>
      <trkpt lat="43.42481" lon="6.1116">
        <ele>264.99258422852</ele>
        <time>2014-11-05T14:42:35Z</time>
      </trkpt>
      <trkpt lat="43.42486" lon="6.11157">
        <ele>265.361328125</ele>
        <time>2014-11-05T14:42:39Z</time>
      </trkpt>
      <trkpt lat="43.42491" lon="6.11152">
        <ele>265.62414550781</ele>
        <time>2014-11-05T14:42:43Z</time>
      </trkpt>
      <trkpt lat="43.42493" lon="6.11151">
        <ele>265.83505249023</ele>
        <time>2014-11-05T14:42:45Z</time>
      </trkpt>
      <trkpt lat="43.42496" lon="6.1115">
        <ele>265.99633789062</ele>
        <time>2014-11-05T14:42:47Z</time>
      </trkpt>
      <trkpt lat="43.42498" lon="6.11148">
        <ele>266.1921081543</ele>
        <time>2014-11-05T14:42:49Z</time>
      </trkpt>
      <trkpt lat="43.42501" lon="6.11147">
        <ele>266.34201049805</ele>
        <time>2014-11-05T14:42:51Z</time>
      </trkpt>
      <trkpt lat="43.42504" lon="6.11146">
        <ele>266.5182800293</ele>
        <time>2014-11-05T14:42:53Z</time>
      </trkpt>
      <trkpt lat="43.42506" lon="6.11145">
        <ele>266.65863037109</ele>
        <time>2014-11-05T14:42:55Z</time>
      </trkpt>
      <trkpt lat="43.42509" lon="6.11144">
        <ele>266.82781982422</ele>
        <time>2014-11-05T14:42:57Z</time>
      </trkpt>
      <trkpt lat="43.42512" lon="6.11143">
        <ele>266.99151611328</ele>
        <time>2014-11-05T14:42:59Z</time>
      </trkpt>
      <trkpt lat="43.42515" lon="6.11143">
        <ele>267.18823242188</ele>
        <time>2014-11-05T14:43:01Z</time>
      </trkpt>
      <trkpt lat="43.42518" lon="6.11143">
        <ele>267.38095092773</ele>
        <time>2014-11-05T14:43:03Z</time>
      </trkpt>
      <trkpt lat="43.42521" lon="6.11143">
        <ele>267.59194946289</ele>
        <time>2014-11-05T14:43:05Z</time>
      </trkpt>
      <trkpt lat="43.42524" lon="6.11142">
        <ele>267.77117919922</ele>
        <time>2014-11-05T14:43:07Z</time>
      </trkpt>
      <trkpt lat="43.42527" lon="6.11142">
        <ele>267.96505737305</ele>
        <time>2014-11-05T14:43:09Z</time>
      </trkpt>
      <trkpt lat="43.4253" lon="6.11141">
        <ele>268.17315673828</ele>
        <time>2014-11-05T14:43:11Z</time>
      </trkpt>
      <trkpt lat="43.42534" lon="6.1114">
        <ele>268.36889648438</ele>
        <time>2014-11-05T14:43:13Z</time>
      </trkpt>
      <trkpt lat="43.42537" lon="6.1114">
        <ele>268.56762695312</ele>
        <time>2014-11-05T14:43:15Z</time>
      </trkpt>
      <trkpt lat="43.42544" lon="6.11137">
        <ele>268.90441894531</ele>
        <time>2014-11-05T14:43:19Z</time>
      </trkpt>
      <trkpt lat="43.42551" lon="6.11135">
        <ele>269.2932434082</ele>
        <time>2014-11-05T14:43:23Z</time>
      </trkpt>
      <trkpt lat="43.42558" lon="6.11134">
        <ele>269.7341003418</ele>
        <time>2014-11-05T14:43:27Z</time>
      </trkpt>
      <trkpt lat="43.42562" lon="6.11132">
        <ele>269.92849731445</ele>
        <time>2014-11-05T14:43:29Z</time>
      </trkpt>
      <trkpt lat="43.42564" lon="6.11132">
        <ele>270.03268432617</ele>
        <time>2014-11-05T14:43:30Z</time>
      </trkpt>
      <trkpt lat="43.4257" lon="6.1113">
        <ele>270.37023925781</ele>
        <time>2014-11-05T14:43:33Z</time>
      </trkpt>
      <trkpt lat="43.42575" lon="6.11129">
        <ele>270.66961669922</ele>
        <time>2014-11-05T14:43:35Z</time>
      </trkpt>
      <trkpt lat="43.4258" lon="6.11129">
        <ele>270.93542480469</ele>
        <time>2014-11-05T14:43:37Z</time>
      </trkpt>
      <trkpt lat="43.42584" lon="6.11128">
        <ele>271.24456787109</ele>
        <time>2014-11-05T14:43:39Z</time>
      </trkpt>
      <trkpt lat="43.42589" lon="6.11128">
        <ele>271.67718505859</ele>
        <time>2014-11-05T14:43:41Z</time>
      </trkpt>
      <trkpt lat="43.42595" lon="6.11127">
        <ele>272.11999511719</ele>
        <time>2014-11-05T14:43:43Z</time>
      </trkpt>
      <trkpt lat="43.42602" lon="6.11125">
        <ele>272.70031738281</ele>
        <time>2014-11-05T14:43:46Z</time>
      </trkpt>
      <trkpt lat="43.42604" lon="6.11125">
        <ele>272.89984130859</ele>
        <time>2014-11-05T14:43:47Z</time>
      </trkpt>
      <trkpt lat="43.4261" lon="6.11124">
        <ele>273.34255981445</ele>
        <time>2014-11-05T14:43:49Z</time>
      </trkpt>
      <trkpt lat="43.42617" lon="6.11125">
        <ele>273.990234375</ele>
        <time>2014-11-05T14:43:51Z</time>
      </trkpt>
      <trkpt lat="43.42625" lon="6.11127">
        <ele>274.79165649414</ele>
        <time>2014-11-05T14:43:53Z</time>
      </trkpt>
      <trkpt lat="43.42633" lon="6.11127">
        <ele>275.51455688477</ele>
        <time>2014-11-05T14:43:55Z</time>
      </trkpt>
      <trkpt lat="43.4264" lon="6.11124">
        <ele>276.09295654297</ele>
        <time>2014-11-05T14:43:57Z</time>
      </trkpt>
      <trkpt lat="43.42648" lon="6.1112">
        <ele>276.58538818359</ele>
        <time>2014-11-05T14:43:59Z</time>
      </trkpt>
      <trkpt lat="43.42651" lon="6.11119">
        <ele>276.84942626953</ele>
        <time>2014-11-05T14:44:00Z</time>
      </trkpt>
      <trkpt lat="43.42654" lon="6.11117">
        <ele>277.10751342773</ele>
        <time>2014-11-05T14:44:01Z</time>
      </trkpt>
      <trkpt lat="43.42658" lon="6.11115">
        <ele>277.35098266602</ele>
        <time>2014-11-05T14:44:02Z</time>
      </trkpt>
      <trkpt lat="43.42661" lon="6.11114">
        <ele>277.57186889648</ele>
        <time>2014-11-05T14:44:03Z</time>
      </trkpt>
      <trkpt lat="43.42668" lon="6.11111">
        <ele>278.03479003906</ele>
        <time>2014-11-05T14:44:05Z</time>
      </trkpt>
      <trkpt lat="43.42674" lon="6.1111">
        <ele>278.21502685547</ele>
        <time>2014-11-05T14:44:07Z</time>
      </trkpt>
      <trkpt lat="43.4268" lon="6.11109">
        <ele>278.40899658203</ele>
        <time>2014-11-05T14:44:09Z</time>
      </trkpt>
      <trkpt lat="43.42686" lon="6.11109">
        <ele>278.59783935547</ele>
        <time>2014-11-05T14:44:11Z</time>
      </trkpt>
      <trkpt lat="43.42692" lon="6.11108">
        <ele>278.7763671875</ele>
        <time>2014-11-05T14:44:13Z</time>
      </trkpt>
      <trkpt lat="43.42697" lon="6.11107">
        <ele>278.9514465332</ele>
        <time>2014-11-05T14:44:15Z</time>
      </trkpt>
      <trkpt lat="43.42703" lon="6.11106">
        <ele>279.11108398438</ele>
        <time>2014-11-05T14:44:17Z</time>
      </trkpt>
      <trkpt lat="43.42708" lon="6.11105">
        <ele>279.27758789062</ele>
        <time>2014-11-05T14:44:19Z</time>
      </trkpt>
      <trkpt lat="43.42713" lon="6.11104">
        <ele>279.42352294922</ele>
        <time>2014-11-05T14:44:21Z</time>
      </trkpt>
      <trkpt lat="43.42725" lon="6.11102">
        <ele>279.76168823242</ele>
        <time>2014-11-05T14:44:25Z</time>
      </trkpt>
      <trkpt lat="43.4273" lon="6.11101">
        <ele>279.90072631836</ele>
        <time>2014-11-05T14:44:27Z</time>
      </trkpt>
      <trkpt lat="43.42735" lon="6.11099">
        <ele>280.04837036133</ele>
        <time>2014-11-05T14:44:29Z</time>
      </trkpt>
      <trkpt lat="43.42738" lon="6.11099">
        <ele>280.12219238281</ele>
        <time>2014-11-05T14:44:30Z</time>
      </trkpt>
      <trkpt lat="43.4274" lon="6.11099">
        <ele>280.19427490234</ele>
        <time>2014-11-05T14:44:31Z</time>
      </trkpt>
      <trkpt lat="43.42745" lon="6.11098">
        <ele>280.34362792969</ele>
        <time>2014-11-05T14:44:33Z</time>
      </trkpt>
      <trkpt lat="43.42751" lon="6.11097">
        <ele>280.50347900391</ele>
        <time>2014-11-05T14:44:35Z</time>
      </trkpt>
      <trkpt lat="43.42756" lon="6.11096">
        <ele>280.65542602539</ele>
        <time>2014-11-05T14:44:37Z</time>
      </trkpt>
      <trkpt lat="43.42762" lon="6.11095">
        <ele>280.79425048828</ele>
        <time>2014-11-05T14:44:39Z</time>
      </trkpt>
      <trkpt lat="43.42767" lon="6.11095">
        <ele>280.94577026367</ele>
        <time>2014-11-05T14:44:41Z</time>
      </trkpt>
      <trkpt lat="43.42773" lon="6.11093">
        <ele>281.08911132812</ele>
        <time>2014-11-05T14:44:43Z</time>
      </trkpt>
      <trkpt lat="43.42778" lon="6.11092">
        <ele>281.21667480469</ele>
        <time>2014-11-05T14:44:45Z</time>
      </trkpt>
      <trkpt lat="43.42781" lon="6.11092">
        <ele>281.29083251953</ele>
        <time>2014-11-05T14:44:46Z</time>
      </trkpt>
      <trkpt lat="43.42783" lon="6.11091">
        <ele>281.3547668457</ele>
        <time>2014-11-05T14:44:47Z</time>
      </trkpt>
      <trkpt lat="43.42788" lon="6.11091">
        <ele>281.52090454102</ele>
        <time>2014-11-05T14:44:49Z</time>
      </trkpt>
      <trkpt lat="43.42794" lon="6.11089">
        <ele>281.67593383789</ele>
        <time>2014-11-05T14:44:51Z</time>
      </trkpt>
      <trkpt lat="43.42799" lon="6.11088">
        <ele>281.84869384766</ele>
        <time>2014-11-05T14:44:53Z</time>
      </trkpt>
      <trkpt lat="43.42805" lon="6.11088">
        <ele>282.02740478516</ele>
        <time>2014-11-05T14:44:55Z</time>
      </trkpt>
      <trkpt lat="43.4281" lon="6.11089">
        <ele>282.20181274414</ele>
        <time>2014-11-05T14:44:57Z</time>
      </trkpt>
      <trkpt lat="43.42817" lon="6.1109">
        <ele>282.47012329102</ele>
        <time>2014-11-05T14:45:00Z</time>
      </trkpt>
      <trkpt lat="43.42824" lon="6.11092">
        <ele>282.69396972656</ele>
        <time>2014-11-05T14:45:03Z</time>
      </trkpt>
      <trkpt lat="43.42828" lon="6.11094">
        <ele>282.83306884766</ele>
        <time>2014-11-05T14:45:05Z</time>
      </trkpt>
      <trkpt lat="43.42832" lon="6.11096">
        <ele>282.96499633789</ele>
        <time>2014-11-05T14:45:07Z</time>
      </trkpt>
      <trkpt lat="43.42835" lon="6.11097">
        <ele>283.05728149414</ele>
        <time>2014-11-05T14:45:09Z</time>
      </trkpt>
      <trkpt lat="43.4284" lon="6.11096">
        <ele>283.20974731445</ele>
        <time>2014-11-05T14:45:13Z</time>
      </trkpt>
      <trkpt lat="43.42842" lon="6.11096">
        <ele>283.25741577148</ele>
        <time>2014-11-05T14:45:15Z</time>
      </trkpt>
      <trkpt lat="43.42844" lon="6.11095">
        <ele>283.33163452148</ele>
        <time>2014-11-05T14:45:17Z</time>
      </trkpt>
      <trkpt lat="43.42845" lon="6.11094">
        <ele>283.35815429688</ele>
        <time>2014-11-05T14:45:19Z</time>
      </trkpt>
      <trkpt lat="43.42845" lon="6.11094">
        <ele>283.35791015625</ele>
        <time>2014-11-05T14:45:21Z</time>
      </trkpt>
      <trkpt lat="43.42844" lon="6.11094">
        <ele>283.34576416016</ele>
        <time>2014-11-05T14:45:23Z</time>
      </trkpt>
      <trkpt lat="43.42844" lon="6.11094">
        <ele>283.34552001953</ele>
        <time>2014-11-05T14:45:25Z</time>
      </trkpt>
      <trkpt lat="43.42844" lon="6.11094">
        <ele>283.34552001953</ele>
        <time>2014-11-05T14:45:29Z</time>
      </trkpt>
      <trkpt lat="43.42844" lon="6.11094">
        <ele>283.34552001953</ele>
        <time>2014-11-05T14:45:33Z</time>
      </trkpt>
      <trkpt lat="43.42844" lon="6.11094">
        <ele>283.34552001953</ele>
        <time>2014-11-05T14:45:37Z</time>
      </trkpt>
      <trkpt lat="43.42844" lon="6.11094">
        <ele>283.34530639648</ele>
        <time>2014-11-05T14:45:51Z</time>
      </trkpt>
      <trkpt lat="43.42844" lon="6.11095">
        <ele>283.34463500977</ele>
        <time>2014-11-05T14:46:23Z</time>
      </trkpt>
      <trkpt lat="43.42844" lon="6.11095">
        <ele>283.34439086914</ele>
        <time>2014-11-05T14:46:33Z</time>
      </trkpt>
      <trkpt lat="43.42844" lon="6.11095">
        <ele>283.34439086914</ele>
        <time>2014-11-05T14:47:33Z</time>
      </trkpt>
      <trkpt lat="43.42844" lon="6.11095">
        <ele>283.34439086914</ele>
        <time>2014-11-05T14:47:55Z</time>
      </trkpt>
      <trkpt lat="43.42844" lon="6.11095">
        <ele>283.34439086914</ele>
        <time>2014-11-05T14:48:15Z</time>
      </trkpt>
      <trkpt lat="43.42844" lon="6.11095">
        <ele>283.34439086914</ele>
        <time>2014-11-05T14:48:25Z</time>
      </trkpt>
      <trkpt lat="43.42844" lon="6.11095">
        <ele>283.34439086914</ele>
        <time>2014-11-05T14:48:37Z</time>
      </trkpt>
      <trkpt lat="43.42844" lon="6.11095">
        <ele>283.34439086914</ele>
        <time>2014-11-05T14:48:41Z</time>
      </trkpt>
      <trkpt lat="43.42844" lon="6.11095">
        <ele>283.3434753418</ele>
        <time>2014-11-05T14:49:01Z</time>
      </trkpt>
      <trkpt lat="43.42844" lon="6.11095">
        <ele>283.3434753418</ele>
        <time>2014-11-05T14:49:05Z</time>
      </trkpt>
      <trkpt lat="43.42844" lon="6.11095">
        <ele>283.3434753418</ele>
        <time>2014-11-05T14:49:11Z</time>
      </trkpt>
      <trkpt lat="43.42844" lon="6.11095">
        <ele>283.34326171875</ele>
        <time>2014-11-05T14:49:17Z</time>
      </trkpt>
      <trkpt lat="43.42844" lon="6.11095">
        <ele>283.34326171875</ele>
        <time>2014-11-05T14:49:19Z</time>
      </trkpt>
      <trkpt lat="43.42844" lon="6.11095">
        <ele>283.34393310547</ele>
        <time>2014-11-05T14:49:21Z</time>
      </trkpt>
      <trkpt lat="43.42844" lon="6.11095">
        <ele>283.34439086914</ele>
        <time>2014-11-05T14:49:23Z</time>
      </trkpt>
      <trkpt lat="43.42845" lon="6.11095">
        <ele>283.35461425781</ele>
        <time>2014-11-05T14:49:25Z</time>
      </trkpt>
      <trkpt lat="43.42845" lon="6.11095">
        <ele>283.36572265625</ele>
        <time>2014-11-05T14:49:26Z</time>
      </trkpt>
      <trkpt lat="43.42846" lon="6.11095">
        <ele>283.37576293945</ele>
        <time>2014-11-05T14:49:27Z</time>
      </trkpt>
      <trkpt lat="43.42845" lon="6.11095">
        <ele>283.3642578125</ele>
        <time>2014-11-05T14:49:29Z</time>
      </trkpt>
      <trkpt lat="43.42845" lon="6.11095">
        <ele>283.3642578125</ele>
        <time>2014-11-05T14:49:33Z</time>
      </trkpt>
      <trkpt lat="43.42845" lon="6.11095">
        <ele>283.36401367188</ele>
        <time>2014-11-05T14:49:35Z</time>
      </trkpt>
      <trkpt lat="43.42845" lon="6.11095">
        <ele>283.36401367188</ele>
        <time>2014-11-05T14:49:37Z</time>
      </trkpt>
      <trkpt lat="43.42845" lon="6.11095">
        <ele>283.3642578125</ele>
        <time>2014-11-05T14:49:38Z</time>
      </trkpt>
      <trkpt lat="43.42845" lon="6.11095">
        <ele>283.3671875</ele>
        <time>2014-11-05T14:49:39Z</time>
      </trkpt>
      <trkpt lat="43.42845" lon="6.11095">
        <ele>283.3671875</ele>
        <time>2014-11-05T14:49:41Z</time>
      </trkpt>
      <trkpt lat="43.42845" lon="6.11095">
        <ele>283.3662109375</ele>
        <time>2014-11-05T14:49:45Z</time>
      </trkpt>
      <trkpt lat="43.42845" lon="6.11095">
        <ele>283.3662109375</ele>
        <time>2014-11-05T14:49:47Z</time>
      </trkpt>
      <trkpt lat="43.42845" lon="6.11095">
        <ele>283.36645507812</ele>
        <time>2014-11-05T14:49:55Z</time>
      </trkpt>
      <trkpt lat="43.42845" lon="6.11095">
        <ele>283.3662109375</ele>
        <time>2014-11-05T14:50:37Z</time>
      </trkpt>
      <trkpt lat="43.42845" lon="6.11095">
        <ele>283.36596679688</ele>
        <time>2014-11-05T14:50:39Z</time>
      </trkpt>
      <trkpt lat="43.42845" lon="6.11095">
        <ele>283.36596679688</ele>
        <time>2014-11-05T14:50:45Z</time>
      </trkpt>
      <trkpt lat="43.42845" lon="6.11095">
        <ele>283.36596679688</ele>
        <time>2014-11-05T14:50:57Z</time>
      </trkpt>
      <trkpt lat="43.42845" lon="6.11095">
        <ele>283.36547851562</ele>
        <time>2014-11-05T14:51:01Z</time>
      </trkpt>
      <trkpt lat="43.42845" lon="6.11095">
        <ele>283.36572265625</ele>
        <time>2014-11-05T14:51:03Z</time>
      </trkpt>
      <trkpt lat="43.42845" lon="6.11095">
        <ele>283.36767578125</ele>
        <time>2014-11-05T14:51:05Z</time>
      </trkpt>
      <trkpt lat="43.42844" lon="6.11094">
        <ele>283.34622192383</ele>
        <time>2014-11-05T14:51:07Z</time>
      </trkpt>
      <trkpt lat="43.42845" lon="6.11095">
        <ele>283.35650634766</ele>
        <time>2014-11-05T14:51:09Z</time>
      </trkpt>
      <trkpt lat="43.42845" lon="6.11095">
        <ele>283.35604858398</ele>
        <time>2014-11-05T14:51:11Z</time>
      </trkpt>
      <trkpt lat="43.42845" lon="6.11095">
        <ele>283.35556030273</ele>
        <time>2014-11-05T14:51:13Z</time>
      </trkpt>
      <trkpt lat="43.42845" lon="6.11095">
        <ele>283.35556030273</ele>
        <time>2014-11-05T14:51:15Z</time>
      </trkpt>
      <trkpt lat="43.42845" lon="6.11095">
        <ele>283.35534667969</ele>
        <time>2014-11-05T14:51:17Z</time>
      </trkpt>
      <trkpt lat="43.42845" lon="6.11095">
        <ele>283.35296630859</ele>
        <time>2014-11-05T14:51:45Z</time>
      </trkpt>
      <trkpt lat="43.42845" lon="6.11096">
        <ele>283.35037231445</ele>
        <time>2014-11-05T14:52:33Z</time>
      </trkpt>
      <trkpt lat="43.42845" lon="6.11096">
        <ele>283.34991455078</ele>
        <time>2014-11-05T14:52:39Z</time>
      </trkpt>
      <trkpt lat="43.42845" lon="6.11096">
        <ele>283.34967041016</ele>
        <time>2014-11-05T14:52:41Z</time>
      </trkpt>
      <trkpt lat="43.42845" lon="6.11096">
        <ele>283.34967041016</ele>
        <time>2014-11-05T14:52:45Z</time>
      </trkpt>
      <trkpt lat="43.42845" lon="6.11096">
        <ele>283.34921264648</ele>
        <time>2014-11-05T14:52:51Z</time>
      </trkpt>
      <trkpt lat="43.42845" lon="6.11096">
        <ele>283.34826660156</ele>
        <time>2014-11-05T14:53:07Z</time>
      </trkpt>
      <trkpt lat="43.42845" lon="6.11097">
        <ele>283.34637451172</ele>
        <time>2014-11-05T14:53:55Z</time>
      </trkpt>
      <trkpt lat="43.42845" lon="6.11097">
        <ele>283.34613037109</ele>
        <time>2014-11-05T14:53:57Z</time>
      </trkpt>
      <trkpt lat="43.42845" lon="6.11097">
        <ele>283.34613037109</ele>
        <time>2014-11-05T14:54:01Z</time>
      </trkpt>
      <trkpt lat="43.42845" lon="6.11097">
        <ele>283.34567260742</ele>
        <time>2014-11-05T14:54:11Z</time>
      </trkpt>
      <trkpt lat="43.42845" lon="6.11097">
        <ele>283.3454284668</ele>
        <time>2014-11-05T14:54:15Z</time>
      </trkpt>
      <trkpt lat="43.42845" lon="6.11097">
        <ele>283.34591674805</ele>
        <time>2014-11-05T14:54:17Z</time>
      </trkpt>
      <trkpt lat="43.42844" lon="6.11097">
        <ele>283.32217407227</ele>
        <time>2014-11-05T14:54:19Z</time>
      </trkpt>
      <trkpt lat="43.42844" lon="6.11097">
        <ele>283.33142089844</ele>
        <time>2014-11-05T14:54:20Z</time>
      </trkpt>
      <trkpt lat="43.42844" lon="6.11097">
        <ele>283.33163452148</ele>
        <time>2014-11-05T14:54:21Z</time>
      </trkpt>
      <trkpt lat="43.42844" lon="6.11098">
        <ele>283.33026123047</ele>
        <time>2014-11-05T14:54:25Z</time>
      </trkpt>
      <trkpt lat="43.42844" lon="6.11098">
        <ele>283.33026123047</ele>
        <time>2014-11-05T14:54:27Z</time>
      </trkpt>
      <trkpt lat="43.42844" lon="6.11098">
        <ele>283.33004760742</ele>
        <time>2014-11-05T14:54:31Z</time>
      </trkpt>
      <trkpt lat="43.42844" lon="6.11098">
        <ele>283.3298034668</ele>
        <time>2014-11-05T14:54:35Z</time>
      </trkpt>
      <trkpt lat="43.42845" lon="6.11097">
        <ele>283.34188842773</ele>
        <time>2014-11-05T14:54:37Z</time>
      </trkpt>
      <trkpt lat="43.42845" lon="6.11098">
        <ele>283.35256958008</ele>
        <time>2014-11-05T14:54:39Z</time>
      </trkpt>
      <trkpt lat="43.42845" lon="6.11098">
        <ele>283.3528137207</ele>
        <time>2014-11-05T14:54:41Z</time>
      </trkpt>
      <trkpt lat="43.42845" lon="6.11098">
        <ele>283.35305786133</ele>
        <time>2014-11-05T14:54:43Z</time>
      </trkpt>
      <trkpt lat="43.42845" lon="6.11097">
        <ele>283.34188842773</ele>
        <time>2014-11-05T14:54:45Z</time>
      </trkpt>
      <trkpt lat="43.42845" lon="6.11098">
        <ele>283.34167480469</ele>
        <time>2014-11-05T14:54:47Z</time>
      </trkpt>
      <trkpt lat="43.42845" lon="6.11098">
        <ele>283.34167480469</ele>
        <time>2014-11-05T14:54:49Z</time>
      </trkpt>
      <trkpt lat="43.42845" lon="6.11098">
        <ele>283.34072875977</ele>
        <time>2014-11-05T14:55:13Z</time>
      </trkpt>
      <trkpt lat="43.42845" lon="6.11098">
        <ele>283.34072875977</ele>
        <time>2014-11-05T14:55:37Z</time>
      </trkpt>
      <trkpt lat="43.42845" lon="6.11098">
        <ele>283.34097290039</ele>
        <time>2014-11-05T14:55:39Z</time>
      </trkpt>
      <trkpt lat="43.42845" lon="6.11098">
        <ele>283.34097290039</ele>
        <time>2014-11-05T14:55:41Z</time>
      </trkpt>
      <trkpt lat="43.42846" lon="6.11097">
        <ele>283.37973022461</ele>
        <time>2014-11-05T14:55:43Z</time>
      </trkpt>
      <trkpt lat="43.42847" lon="6.11095">
        <ele>283.43856811523</ele>
        <time>2014-11-05T14:55:45Z</time>
      </trkpt>
      <trkpt lat="43.42849" lon="6.11091">
        <ele>283.52359008789</ele>
        <time>2014-11-05T14:55:47Z</time>
      </trkpt>
      <trkpt lat="43.42852" lon="6.11085">
        <ele>283.65979003906</ele>
        <time>2014-11-05T14:55:49Z</time>
      </trkpt>
      <trkpt lat="43.42855" lon="6.11077">
        <ele>283.82119750977</ele>
        <time>2014-11-05T14:55:51Z</time>
      </trkpt>
      <trkpt lat="43.42858" lon="6.11068">
        <ele>283.98477172852</ele>
        <time>2014-11-05T14:55:53Z</time>
      </trkpt>
      <trkpt lat="43.42859" lon="6.11063">
        <ele>284.05599975586</ele>
        <time>2014-11-05T14:55:54Z</time>
      </trkpt>
      <trkpt lat="43.42858" lon="6.11057">
        <ele>284.07879638672</ele>
        <time>2014-11-05T14:55:55Z</time>
      </trkpt>
      <trkpt lat="43.42857" lon="6.11052">
        <ele>284.048828125</ele>
        <time>2014-11-05T14:55:56Z</time>
      </trkpt>
      <trkpt lat="43.42853" lon="6.1104">
        <ele>283.96212768555</ele>
        <time>2014-11-05T14:55:58Z</time>
      </trkpt>
      <trkpt lat="43.42852" lon="6.11034">
        <ele>283.91775512695</ele>
        <time>2014-11-05T14:55:59Z</time>
      </trkpt>
      <trkpt lat="43.42847" lon="6.11021">
        <ele>283.7389831543</ele>
        <time>2014-11-05T14:56:01Z</time>
      </trkpt>
      <trkpt lat="43.42842" lon="6.11009">
        <ele>283.52484130859</ele>
        <time>2014-11-05T14:56:03Z</time>
      </trkpt>
      <trkpt lat="43.42836" lon="6.10997">
        <ele>283.30078125</ele>
        <time>2014-11-05T14:56:05Z</time>
      </trkpt>
      <trkpt lat="43.42828" lon="6.10985">
        <ele>283.330078125</ele>
        <time>2014-11-05T14:56:07Z</time>
      </trkpt>
      <trkpt lat="43.42819" lon="6.10974">
        <ele>283.3723449707</ele>
        <time>2014-11-05T14:56:09Z</time>
      </trkpt>
      <trkpt lat="43.42815" lon="6.10969">
        <ele>283.38854980469</ele>
        <time>2014-11-05T14:56:10Z</time>
      </trkpt>
      <trkpt lat="43.42812" lon="6.10963">
        <ele>283.46118164062</ele>
        <time>2014-11-05T14:56:11Z</time>
      </trkpt>
      <trkpt lat="43.4281" lon="6.10952">
        <ele>283.759765625</ele>
        <time>2014-11-05T14:56:13Z</time>
      </trkpt>
      <trkpt lat="43.4281" lon="6.10942">
        <ele>284.04870605469</ele>
        <time>2014-11-05T14:56:15Z</time>
      </trkpt>
      <trkpt lat="43.42809" lon="6.10929">
        <ele>284.42221069336</ele>
        <time>2014-11-05T14:56:17Z</time>
      </trkpt>
      <trkpt lat="43.42809" lon="6.10915">
        <ele>284.88821411133</ele>
        <time>2014-11-05T14:56:19Z</time>
      </trkpt>
      <trkpt lat="43.4281" lon="6.10902">
        <ele>285.25799560547</ele>
        <time>2014-11-05T14:56:21Z</time>
      </trkpt>
      <trkpt lat="43.4281" lon="6.10896">
        <ele>285.45809936523</ele>
        <time>2014-11-05T14:56:22Z</time>
      </trkpt>
      <trkpt lat="43.42812" lon="6.10884">
        <ele>285.87799072266</ele>
        <time>2014-11-05T14:56:24Z</time>
      </trkpt>
      <trkpt lat="43.42817" lon="6.10869">
        <ele>286.45263671875</ele>
        <time>2014-11-05T14:56:27Z</time>
      </trkpt>
      <trkpt lat="43.42819" lon="6.1086">
        <ele>286.78967285156</ele>
        <time>2014-11-05T14:56:29Z</time>
      </trkpt>
      <trkpt lat="43.42822" lon="6.10851">
        <ele>287.13958740234</ele>
        <time>2014-11-05T14:56:31Z</time>
      </trkpt>
      <trkpt lat="43.42827" lon="6.10832">
        <ele>287.82894897461</ele>
        <time>2014-11-05T14:56:35Z</time>
      </trkpt>
      <trkpt lat="43.42828" lon="6.1082">
        <ele>288.28558349609</ele>
        <time>2014-11-05T14:56:37Z</time>
      </trkpt>
      <trkpt lat="43.42829" lon="6.10815">
        <ele>288.51043701172</ele>
        <time>2014-11-05T14:56:38Z</time>
      </trkpt>
      <trkpt lat="43.4283" lon="6.1081">
        <ele>288.72845458984</ele>
        <time>2014-11-05T14:56:39Z</time>
      </trkpt>
      <trkpt lat="43.42832" lon="6.10799">
        <ele>289.16790771484</ele>
        <time>2014-11-05T14:56:41Z</time>
      </trkpt>
      <trkpt lat="43.42833" lon="6.10789">
        <ele>289.59878540039</ele>
        <time>2014-11-05T14:56:43Z</time>
      </trkpt>
      <trkpt lat="43.42834" lon="6.10779">
        <ele>290.01675415039</ele>
        <time>2014-11-05T14:56:45Z</time>
      </trkpt>
      <trkpt lat="43.42835" lon="6.10774">
        <ele>290.23141479492</ele>
        <time>2014-11-05T14:56:46Z</time>
      </trkpt>
      <trkpt lat="43.42835" lon="6.10769">
        <ele>290.39709472656</ele>
        <time>2014-11-05T14:56:47Z</time>
      </trkpt>
      <trkpt lat="43.42836" lon="6.1076">
        <ele>290.74960327148</ele>
        <time>2014-11-05T14:56:49Z</time>
      </trkpt>
      <trkpt lat="43.42836" lon="6.10751">
        <ele>291.06207275391</ele>
        <time>2014-11-05T14:56:51Z</time>
      </trkpt>
      <trkpt lat="43.42836" lon="6.10742">
        <ele>291.27658081055</ele>
        <time>2014-11-05T14:56:53Z</time>
      </trkpt>
      <trkpt lat="43.42836" lon="6.10734">
        <ele>291.46884155273</ele>
        <time>2014-11-05T14:56:55Z</time>
      </trkpt>
      <trkpt lat="43.42834" lon="6.10725">
        <ele>291.64508056641</ele>
        <time>2014-11-05T14:56:57Z</time>
      </trkpt>
      <trkpt lat="43.42834" lon="6.10715">
        <ele>291.85681152344</ele>
        <time>2014-11-05T14:56:59Z</time>
      </trkpt>
      <trkpt lat="43.42834" lon="6.10706">
        <ele>292.09140014648</ele>
        <time>2014-11-05T14:57:01Z</time>
      </trkpt>
      <trkpt lat="43.42835" lon="6.10697">
        <ele>292.31683349609</ele>
        <time>2014-11-05T14:57:03Z</time>
      </trkpt>
      <trkpt lat="43.42836" lon="6.10688">
        <ele>292.55944824219</ele>
        <time>2014-11-05T14:57:05Z</time>
      </trkpt>
      <trkpt lat="43.42836" lon="6.10679">
        <ele>292.81579589844</ele>
        <time>2014-11-05T14:57:07Z</time>
      </trkpt>
      <trkpt lat="43.42837" lon="6.1067">
        <ele>293.03552246094</ele>
        <time>2014-11-05T14:57:09Z</time>
      </trkpt>
      <trkpt lat="43.42838" lon="6.10654">
        <ele>293.32348632812</ele>
        <time>2014-11-05T14:57:13Z</time>
      </trkpt>
      <trkpt lat="43.42839" lon="6.10648">
        <ele>293.46347045898</ele>
        <time>2014-11-05T14:57:15Z</time>
      </trkpt>
      <trkpt lat="43.42841" lon="6.10642">
        <ele>293.58053588867</ele>
        <time>2014-11-05T14:57:17Z</time>
      </trkpt>
      <trkpt lat="43.42842" lon="6.10637">
        <ele>293.69381713867</ele>
        <time>2014-11-05T14:57:19Z</time>
      </trkpt>
      <trkpt lat="43.42841" lon="6.10633">
        <ele>293.73678588867</ele>
        <time>2014-11-05T14:57:21Z</time>
      </trkpt>
      <trkpt lat="43.42841" lon="6.1063">
        <ele>293.7548828125</ele>
        <time>2014-11-05T14:57:22Z</time>
      </trkpt>
      <trkpt lat="43.4284" lon="6.10628">
        <ele>293.73602294922</ele>
        <time>2014-11-05T14:57:23Z</time>
      </trkpt>
      <trkpt lat="43.42839" lon="6.10623">
        <ele>293.77972412109</ele>
        <time>2014-11-05T14:57:25Z</time>
      </trkpt>
      <trkpt lat="43.42839" lon="6.10621">
        <ele>293.7760925293</ele>
        <time>2014-11-05T14:57:26Z</time>
      </trkpt>
      <trkpt lat="43.42837" lon="6.10616">
        <ele>293.76736450195</ele>
        <time>2014-11-05T14:57:28Z</time>
      </trkpt>
      <trkpt lat="43.42836" lon="6.10614">
        <ele>293.74563598633</ele>
        <time>2014-11-05T14:57:29Z</time>
      </trkpt>
      <trkpt lat="43.42834" lon="6.1061">
        <ele>293.72964477539</ele>
        <time>2014-11-05T14:57:31Z</time>
      </trkpt>
      <trkpt lat="43.42834" lon="6.10608">
        <ele>293.73818969727</ele>
        <time>2014-11-05T14:57:32Z</time>
      </trkpt>
      <trkpt lat="43.42834" lon="6.10606">
        <ele>293.75726318359</ele>
        <time>2014-11-05T14:57:33Z</time>
      </trkpt>
      <trkpt lat="43.42833" lon="6.10602">
        <ele>293.73571777344</ele>
        <time>2014-11-05T14:57:35Z</time>
      </trkpt>
      <trkpt lat="43.42832" lon="6.106">
        <ele>293.72714233398</ele>
        <time>2014-11-05T14:57:36Z</time>
      </trkpt>
      <trkpt lat="43.42831" lon="6.10598">
        <ele>293.73345947266</ele>
        <time>2014-11-05T14:57:37Z</time>
      </trkpt>
      <trkpt lat="43.42831" lon="6.10595">
        <ele>293.74603271484</ele>
        <time>2014-11-05T14:57:38Z</time>
      </trkpt>
      <trkpt lat="43.4283" lon="6.10588">
        <ele>293.77923583984</ele>
        <time>2014-11-05T14:57:41Z</time>
      </trkpt>
      <trkpt lat="43.42829" lon="6.10583">
        <ele>293.80612182617</ele>
        <time>2014-11-05T14:57:43Z</time>
      </trkpt>
      <trkpt lat="43.42829" lon="6.1058">
        <ele>293.81811523438</ele>
        <time>2014-11-05T14:57:44Z</time>
      </trkpt>
      <trkpt lat="43.42828" lon="6.10578">
        <ele>293.81011962891</ele>
        <time>2014-11-05T14:57:45Z</time>
      </trkpt>
      <trkpt lat="43.42826" lon="6.10572">
        <ele>293.78381347656</ele>
        <time>2014-11-05T14:57:47Z</time>
      </trkpt>
      <trkpt lat="43.42824" lon="6.10567">
        <ele>293.73458862305</ele>
        <time>2014-11-05T14:57:49Z</time>
      </trkpt>
      <trkpt lat="43.42822" lon="6.10562">
        <ele>293.70141601562</ele>
        <time>2014-11-05T14:57:51Z</time>
      </trkpt>
      <trkpt lat="43.4282" lon="6.10557">
        <ele>293.67221069336</ele>
        <time>2014-11-05T14:57:53Z</time>
      </trkpt>
      <trkpt lat="43.42817" lon="6.10549">
        <ele>293.62759399414</ele>
        <time>2014-11-05T14:57:56Z</time>
      </trkpt>
      <trkpt lat="43.42814" lon="6.10541">
        <ele>293.58923339844</ele>
        <time>2014-11-05T14:57:59Z</time>
      </trkpt>
      <trkpt lat="43.42812" lon="6.10536">
        <ele>293.55776977539</ele>
        <time>2014-11-05T14:58:01Z</time>
      </trkpt>
      <trkpt lat="43.42809" lon="6.10524">
        <ele>293.51599121094</ele>
        <time>2014-11-05T14:58:05Z</time>
      </trkpt>
      <trkpt lat="43.42807" lon="6.10518">
        <ele>293.50054931641</ele>
        <time>2014-11-05T14:58:07Z</time>
      </trkpt>
      <trkpt lat="43.42805" lon="6.10515">
        <ele>293.48681640625</ele>
        <time>2014-11-05T14:58:08Z</time>
      </trkpt>
      <trkpt lat="43.42805" lon="6.10512">
        <ele>293.50399780273</ele>
        <time>2014-11-05T14:58:09Z</time>
      </trkpt>
      <trkpt lat="43.42804" lon="6.10506">
        <ele>293.51599121094</ele>
        <time>2014-11-05T14:58:11Z</time>
      </trkpt>
      <trkpt lat="43.42803" lon="6.10501">
        <ele>293.54290771484</ele>
        <time>2014-11-05T14:58:13Z</time>
      </trkpt>
      <trkpt lat="43.42802" lon="6.10496">
        <ele>293.56350708008</ele>
        <time>2014-11-05T14:58:15Z</time>
      </trkpt>
      <trkpt lat="43.42802" lon="6.10491">
        <ele>293.59039306641</ele>
        <time>2014-11-05T14:58:17Z</time>
      </trkpt>
      <trkpt lat="43.42801" lon="6.10486">
        <ele>293.63159179688</ele>
        <time>2014-11-05T14:58:19Z</time>
      </trkpt>
      <trkpt lat="43.42801" lon="6.10481">
        <ele>293.67449951172</ele>
        <time>2014-11-05T14:58:21Z</time>
      </trkpt>
      <trkpt lat="43.42801" lon="6.10476">
        <ele>293.7145690918</ele>
        <time>2014-11-05T14:58:23Z</time>
      </trkpt>
      <trkpt lat="43.428" lon="6.10471">
        <ele>293.73516845703</ele>
        <time>2014-11-05T14:58:25Z</time>
      </trkpt>
      <trkpt lat="43.42799" lon="6.1047">
        <ele>293.73516845703</ele>
        <time>2014-11-05T14:58:26Z</time>
      </trkpt>
      <trkpt lat="43.42799" lon="6.10466">
        <ele>293.78381347656</ele>
        <time>2014-11-05T14:58:29Z</time>
      </trkpt>
      <trkpt lat="43.42799" lon="6.10463">
        <ele>293.79180908203</ele>
        <time>2014-11-05T14:58:31Z</time>
      </trkpt>
      <trkpt lat="43.42799" lon="6.10462">
        <ele>293.81182861328</ele>
        <time>2014-11-05T14:58:33Z</time>
      </trkpt>
      <trkpt lat="43.42799" lon="6.10461">
        <ele>293.8049621582</ele>
        <time>2014-11-05T14:58:35Z</time>
      </trkpt>
      <trkpt lat="43.42799" lon="6.1046">
        <ele>293.80841064453</ele>
        <time>2014-11-05T14:58:37Z</time>
      </trkpt>
      <trkpt lat="43.42799" lon="6.1046">
        <ele>293.80841064453</ele>
        <time>2014-11-05T14:58:39Z</time>
      </trkpt>
      <trkpt lat="43.42799" lon="6.1046">
        <ele>293.80895996094</ele>
        <time>2014-11-05T14:58:45Z</time>
      </trkpt>
      <trkpt lat="43.42799" lon="6.1046">
        <ele>293.81011962891</ele>
        <time>2014-11-05T14:58:55Z</time>
      </trkpt>
      <trkpt lat="43.42799" lon="6.1046">
        <ele>293.81127929688</ele>
        <time>2014-11-05T14:58:57Z</time>
      </trkpt>
      <trkpt lat="43.42799" lon="6.10459">
        <ele>293.8215637207</ele>
        <time>2014-11-05T14:59:00Z</time>
      </trkpt>
      <trkpt lat="43.42799" lon="6.10459">
        <ele>293.82327270508</ele>
        <time>2014-11-05T14:59:02Z</time>
      </trkpt>
      <trkpt lat="43.42799" lon="6.10459">
        <ele>293.82269287109</ele>
        <time>2014-11-05T14:59:03Z</time>
      </trkpt>
      <trkpt lat="43.42799" lon="6.10459">
        <ele>293.82269287109</ele>
        <time>2014-11-05T14:59:07Z</time>
      </trkpt>
      <trkpt lat="43.42799" lon="6.10459">
        <ele>293.82214355469</ele>
        <time>2014-11-05T14:59:15Z</time>
      </trkpt>
      <trkpt lat="43.42799" lon="6.10459">
        <ele>293.82214355469</ele>
        <time>2014-11-05T14:59:27Z</time>
      </trkpt>
      <trkpt lat="43.42799" lon="6.10459">
        <ele>293.82269287109</ele>
        <time>2014-11-05T14:59:30Z</time>
      </trkpt>
      <trkpt lat="43.42799" lon="6.10459">
        <ele>293.82269287109</ele>
        <time>2014-11-05T14:59:34Z</time>
      </trkpt>
      <trkpt lat="43.42799" lon="6.10459">
        <ele>293.82614135742</ele>
        <time>2014-11-05T15:00:19Z</time>
      </trkpt>
      <trkpt lat="43.42799" lon="6.10459">
        <ele>293.82727050781</ele>
        <time>2014-11-05T15:00:24Z</time>
      </trkpt>
      <trkpt lat="43.42798" lon="6.10455">
        <ele>293.83416748047</ele>
        <time>2014-11-05T15:00:26Z</time>
      </trkpt>
      <trkpt lat="43.42797" lon="6.10452">
        <ele>293.83700561523</ele>
        <time>2014-11-05T15:00:27Z</time>
      </trkpt>
      <trkpt lat="43.42796" lon="6.10444">
        <ele>293.8782043457</ele>
        <time>2014-11-05T15:00:29Z</time>
      </trkpt>
      <trkpt lat="43.42793" lon="6.10428">
        <ele>293.94458007812</ele>
        <time>2014-11-05T15:00:32Z</time>
      </trkpt>
      <trkpt lat="43.42792" lon="6.10421">
        <ele>293.96746826172</ele>
        <time>2014-11-05T15:00:33Z</time>
      </trkpt>
      <trkpt lat="43.42789" lon="6.1041">
        <ele>293.775390625</ele>
        <time>2014-11-05T15:00:35Z</time>
      </trkpt>
      <trkpt lat="43.42786" lon="6.10401">
        <ele>293.51791381836</ele>
        <time>2014-11-05T15:00:37Z</time>
      </trkpt>
      <trkpt lat="43.42783" lon="6.10396">
        <ele>293.31304931641</ele>
        <time>2014-11-05T15:00:38Z</time>
      </trkpt>
      <trkpt lat="43.4278" lon="6.10391">
        <ele>293.14483642578</ele>
        <time>2014-11-05T15:00:39Z</time>
      </trkpt>
      <trkpt lat="43.42776" lon="6.1038">
        <ele>292.7946472168</ele>
        <time>2014-11-05T15:00:41Z</time>
      </trkpt>
      <trkpt lat="43.42775" lon="6.10374">
        <ele>292.67218017578</ele>
        <time>2014-11-05T15:00:42Z</time>
      </trkpt>
      <trkpt lat="43.42774" lon="6.10367">
        <ele>292.55261230469</ele>
        <time>2014-11-05T15:00:43Z</time>
      </trkpt>
      <trkpt lat="43.42774" lon="6.10355">
        <ele>292.39810180664</ele>
        <time>2014-11-05T15:00:45Z</time>
      </trkpt>
      <trkpt lat="43.42774" lon="6.10348">
        <ele>292.32028198242</ele>
        <time>2014-11-05T15:00:46Z</time>
      </trkpt>
      <trkpt lat="43.42773" lon="6.10341">
        <ele>292.21215820312</ele>
        <time>2014-11-05T15:00:47Z</time>
      </trkpt>
      <trkpt lat="43.42775" lon="6.10328">
        <ele>291.85040283203</ele>
        <time>2014-11-05T15:00:49Z</time>
      </trkpt>
      <trkpt lat="43.42782" lon="6.10314">
        <ele>291.29998779297</ele>
        <time>2014-11-05T15:00:51Z</time>
      </trkpt>
      <trkpt lat="43.42786" lon="6.10308">
        <ele>291.05026245117</ele>
        <time>2014-11-05T15:00:52Z</time>
      </trkpt>
      <trkpt lat="43.42789" lon="6.103">
        <ele>290.67672729492</ele>
        <time>2014-11-05T15:00:53Z</time>
      </trkpt>
      <trkpt lat="43.42791" lon="6.10292">
        <ele>290.27233886719</ele>
        <time>2014-11-05T15:00:54Z</time>
      </trkpt>
      <trkpt lat="43.42793" lon="6.10283">
        <ele>289.75274658203</ele>
        <time>2014-11-05T15:00:55Z</time>
      </trkpt>
      <trkpt lat="43.42795" lon="6.10276">
        <ele>289.33627319336</ele>
        <time>2014-11-05T15:00:56Z</time>
      </trkpt>
      <trkpt lat="43.42797" lon="6.10269">
        <ele>288.9475402832</ele>
        <time>2014-11-05T15:00:57Z</time>
      </trkpt>
      <trkpt lat="43.428" lon="6.10256">
        <ele>288.16897583008</ele>
        <time>2014-11-05T15:00:59Z</time>
      </trkpt>
      <trkpt lat="43.42801" lon="6.1025">
        <ele>287.8323059082</ele>
        <time>2014-11-05T15:01:00Z</time>
      </trkpt>
      <trkpt lat="43.42803" lon="6.10245">
        <ele>287.64364624023</ele>
        <time>2014-11-05T15:01:01Z</time>
      </trkpt>
      <trkpt lat="43.42805" lon="6.10241">
        <ele>287.4924621582</ele>
        <time>2014-11-05T15:01:02Z</time>
      </trkpt>
      <trkpt lat="43.42808" lon="6.10237">
        <ele>287.40921020508</ele>
        <time>2014-11-05T15:01:03Z</time>
      </trkpt>
      <trkpt lat="43.4281" lon="6.10233">
        <ele>287.30242919922</ele>
        <time>2014-11-05T15:01:04Z</time>
      </trkpt>
      <trkpt lat="43.42814" lon="6.10228">
        <ele>287.2018737793</ele>
        <time>2014-11-05T15:01:05Z</time>
      </trkpt>
      <trkpt lat="43.4282" lon="6.10219">
        <ele>286.95858764648</ele>
        <time>2014-11-05T15:01:07Z</time>
      </trkpt>
      <trkpt lat="43.42825" lon="6.1021">
        <ele>286.72598266602</ele>
        <time>2014-11-05T15:01:09Z</time>
      </trkpt>
      <trkpt lat="43.42826" lon="6.10207">
        <ele>286.62200927734</ele>
        <time>2014-11-05T15:01:10Z</time>
      </trkpt>
      <trkpt lat="43.42828" lon="6.10203">
        <ele>286.51208496094</ele>
        <time>2014-11-05T15:01:11Z</time>
      </trkpt>
      <trkpt lat="43.42831" lon="6.10196">
        <ele>286.2900390625</ele>
        <time>2014-11-05T15:01:13Z</time>
      </trkpt>
      <trkpt lat="43.42834" lon="6.10187">
        <ele>286.12033081055</ele>
        <time>2014-11-05T15:01:15Z</time>
      </trkpt>
      <trkpt lat="43.42836" lon="6.10183">
        <ele>286.35256958008</ele>
        <time>2014-11-05T15:01:16Z</time>
      </trkpt>
      <trkpt lat="43.42838" lon="6.10178">
        <ele>286.67135620117</ele>
        <time>2014-11-05T15:01:17Z</time>
      </trkpt>
      <trkpt lat="43.42843" lon="6.10171">
        <ele>287.43884277344</ele>
        <time>2014-11-05T15:01:19Z</time>
      </trkpt>
      <trkpt lat="43.42846" lon="6.10165">
        <ele>288.07345581055</ele>
        <time>2014-11-05T15:01:21Z</time>
      </trkpt>
      <trkpt lat="43.4285" lon="6.10159">
        <ele>288.82940673828</ele>
        <time>2014-11-05T15:01:23Z</time>
      </trkpt>
      <trkpt lat="43.42854" lon="6.10152">
        <ele>289.60406494141</ele>
        <time>2014-11-05T15:01:25Z</time>
      </trkpt>
      <trkpt lat="43.42859" lon="6.10146">
        <ele>290.33728027344</ele>
        <time>2014-11-05T15:01:27Z</time>
      </trkpt>
      <trkpt lat="43.4286" lon="6.10143">
        <ele>290.65603637695</ele>
        <time>2014-11-05T15:01:28Z</time>
      </trkpt>
      <trkpt lat="43.42862" lon="6.10139">
        <ele>290.94030761719</ele>
        <time>2014-11-05T15:01:29Z</time>
      </trkpt>
      <trkpt lat="43.42865" lon="6.10132">
        <ele>291.32601928711</ele>
        <time>2014-11-05T15:01:31Z</time>
      </trkpt>
      <trkpt lat="43.42868" lon="6.10125">
        <ele>291.59530639648</ele>
        <time>2014-11-05T15:01:33Z</time>
      </trkpt>
      <trkpt lat="43.42871" lon="6.10119">
        <ele>291.91662597656</ele>
        <time>2014-11-05T15:01:35Z</time>
      </trkpt>
      <trkpt lat="43.42873" lon="6.10112">
        <ele>291.93246459961</ele>
        <time>2014-11-05T15:01:37Z</time>
      </trkpt>
      <trkpt lat="43.42873" lon="6.10106">
        <ele>291.78198242188</ele>
        <time>2014-11-05T15:01:39Z</time>
      </trkpt>
      <trkpt lat="43.42874" lon="6.10099">
        <ele>291.52676391602</ele>
        <time>2014-11-05T15:01:41Z</time>
      </trkpt>
      <trkpt lat="43.42874" lon="6.10093">
        <ele>291.24032592773</ele>
        <time>2014-11-05T15:01:43Z</time>
      </trkpt>
      <trkpt lat="43.42873" lon="6.10087">
        <ele>290.8388671875</ele>
        <time>2014-11-05T15:01:45Z</time>
      </trkpt>
      <trkpt lat="43.42873" lon="6.1008">
        <ele>290.4557800293</ele>
        <time>2014-11-05T15:01:48Z</time>
      </trkpt>
      <trkpt lat="43.42873" lon="6.10078">
        <ele>290.29190063477</ele>
        <time>2014-11-05T15:01:49Z</time>
      </trkpt>
      <trkpt lat="43.42874" lon="6.10073">
        <ele>290.03540039062</ele>
        <time>2014-11-05T15:01:51Z</time>
      </trkpt>
      <trkpt lat="43.42873" lon="6.10068">
        <ele>289.55267333984</ele>
        <time>2014-11-05T15:01:53Z</time>
      </trkpt>
      <trkpt lat="43.42874" lon="6.10065">
        <ele>289.42053222656</ele>
        <time>2014-11-05T15:01:54Z</time>
      </trkpt>
      <trkpt lat="43.42874" lon="6.10063">
        <ele>289.27542114258</ele>
        <time>2014-11-05T15:01:55Z</time>
      </trkpt>
      <trkpt lat="43.42874" lon="6.10058">
        <ele>288.82028198242</ele>
        <time>2014-11-05T15:01:57Z</time>
      </trkpt>
      <trkpt lat="43.42874" lon="6.10056">
        <ele>288.65927124023</ele>
        <time>2014-11-05T15:01:58Z</time>
      </trkpt>
      <trkpt lat="43.42873" lon="6.10049">
        <ele>288.12152099609</ele>
        <time>2014-11-05T15:02:01Z</time>
      </trkpt>
      <trkpt lat="43.42873" lon="6.10046">
        <ele>287.86041259766</ele>
        <time>2014-11-05T15:02:03Z</time>
      </trkpt>
      <trkpt lat="43.42874" lon="6.10045">
        <ele>287.86138916016</ele>
        <time>2014-11-05T15:02:04Z</time>
      </trkpt>
      <trkpt lat="43.42875" lon="6.10042">
        <ele>287.76071166992</ele>
        <time>2014-11-05T15:02:06Z</time>
      </trkpt>
      <trkpt lat="43.42876" lon="6.10037">
        <ele>287.50183105469</ele>
        <time>2014-11-05T15:02:08Z</time>
      </trkpt>
      <trkpt lat="43.42877" lon="6.10034">
        <ele>287.39633178711</ele>
        <time>2014-11-05T15:02:09Z</time>
      </trkpt>
      <trkpt lat="43.42879" lon="6.1003">
        <ele>287.22500610352</ele>
        <time>2014-11-05T15:02:11Z</time>
      </trkpt>
      <trkpt lat="43.42881" lon="6.10025">
        <ele>287.17840576172</ele>
        <time>2014-11-05T15:02:13Z</time>
      </trkpt>
      <trkpt lat="43.42886" lon="6.10022">
        <ele>287.37176513672</ele>
        <time>2014-11-05T15:02:15Z</time>
      </trkpt>
      <trkpt lat="43.42889" lon="6.10016">
        <ele>287.18258666992</ele>
        <time>2014-11-05T15:02:17Z</time>
      </trkpt>
      <trkpt lat="43.42891" lon="6.10011">
        <ele>286.9140625</ele>
        <time>2014-11-05T15:02:18Z</time>
      </trkpt>
      <trkpt lat="43.42896" lon="6.09999">
        <ele>286.23773193359</ele>
        <time>2014-11-05T15:02:20Z</time>
      </trkpt>
      <trkpt lat="43.42902" lon="6.09988">
        <ele>285.64767456055</ele>
        <time>2014-11-05T15:02:22Z</time>
      </trkpt>
      <trkpt lat="43.42905" lon="6.09981">
        <ele>285.27041625977</ele>
        <time>2014-11-05T15:02:23Z</time>
      </trkpt>
      <trkpt lat="43.42911" lon="6.09969">
        <ele>284.63204956055</ele>
        <time>2014-11-05T15:02:25Z</time>
      </trkpt>
      <trkpt lat="43.42915" lon="6.09964">
        <ele>284.4216003418</ele>
        <time>2014-11-05T15:02:26Z</time>
      </trkpt>
      <trkpt lat="43.4292" lon="6.0996">
        <ele>284.63241577148</ele>
        <time>2014-11-05T15:02:27Z</time>
      </trkpt>
      <trkpt lat="43.42924" lon="6.09958">
        <ele>285.15106201172</ele>
        <time>2014-11-05T15:02:28Z</time>
      </trkpt>
      <trkpt lat="43.42928" lon="6.09955">
        <ele>285.54885864258</ele>
        <time>2014-11-05T15:02:29Z</time>
      </trkpt>
      <trkpt lat="43.42936" lon="6.09952">
        <ele>286.45443725586</ele>
        <time>2014-11-05T15:02:31Z</time>
      </trkpt>
      <trkpt lat="43.42943" lon="6.0995">
        <ele>287.47265625</ele>
        <time>2014-11-05T15:02:33Z</time>
      </trkpt>
      <trkpt lat="43.42946" lon="6.09949">
        <ele>287.83935546875</ele>
        <time>2014-11-05T15:02:34Z</time>
      </trkpt>
      <trkpt lat="43.42947" lon="6.09945">
        <ele>287.67681884766</ele>
        <time>2014-11-05T15:02:35Z</time>
      </trkpt>
      <trkpt lat="43.42952" lon="6.09931">
        <ele>287.25427246094</ele>
        <time>2014-11-05T15:02:37Z</time>
      </trkpt>
      <trkpt lat="43.42952" lon="6.09923">
        <ele>286.5246887207</ele>
        <time>2014-11-05T15:02:38Z</time>
      </trkpt>
      <trkpt lat="43.42953" lon="6.09913">
        <ele>285.99981689453</ele>
        <time>2014-11-05T15:02:39Z</time>
      </trkpt>
      <trkpt lat="43.42955" lon="6.09894">
        <ele>285.43676757812</ele>
        <time>2014-11-05T15:02:41Z</time>
      </trkpt>
      <trkpt lat="43.42958" lon="6.09867">
        <ele>284.62652587891</ele>
        <time>2014-11-05T15:02:44Z</time>
      </trkpt>
      <trkpt lat="43.42959" lon="6.09858">
        <ele>284.31295776367</ele>
        <time>2014-11-05T15:02:45Z</time>
      </trkpt>
      <trkpt lat="43.42958" lon="6.09841">
        <ele>283.30587768555</ele>
        <time>2014-11-05T15:02:47Z</time>
      </trkpt>
      <trkpt lat="43.42958" lon="6.09825">
        <ele>282.86535644531</ele>
        <time>2014-11-05T15:02:49Z</time>
      </trkpt>
      <trkpt lat="43.42961" lon="6.09809">
        <ele>282.92437744141</ele>
        <time>2014-11-05T15:02:51Z</time>
      </trkpt>
      <trkpt lat="43.42965" lon="6.09784">
        <ele>283.04776000977</ele>
        <time>2014-11-05T15:02:54Z</time>
      </trkpt>
      <trkpt lat="43.42967" lon="6.09775">
        <ele>283.01803588867</ele>
        <time>2014-11-05T15:02:55Z</time>
      </trkpt>
      <trkpt lat="43.42967" lon="6.09765">
        <ele>282.78793334961</ele>
        <time>2014-11-05T15:02:56Z</time>
      </trkpt>
      <trkpt lat="43.42967" lon="6.09756">
        <ele>282.60177612305</ele>
        <time>2014-11-05T15:02:57Z</time>
      </trkpt>
      <trkpt lat="43.42968" lon="6.09738">
        <ele>282.36901855469</ele>
        <time>2014-11-05T15:02:59Z</time>
      </trkpt>
      <trkpt lat="43.42969" lon="6.09722">
        <ele>282.1123046875</ele>
        <time>2014-11-05T15:03:01Z</time>
      </trkpt>
      <trkpt lat="43.4297" lon="6.09714">
        <ele>282.07034301758</ele>
        <time>2014-11-05T15:03:02Z</time>
      </trkpt>
      <trkpt lat="43.42971" lon="6.09705">
        <ele>282.02615356445</ele>
        <time>2014-11-05T15:03:03Z</time>
      </trkpt>
      <trkpt lat="43.42973" lon="6.09695">
        <ele>281.93106079102</ele>
        <time>2014-11-05T15:03:04Z</time>
      </trkpt>
      <trkpt lat="43.42974" lon="6.09675">
        <ele>281.63922119141</ele>
        <time>2014-11-05T15:03:06Z</time>
      </trkpt>
      <trkpt lat="43.42976" lon="6.09665">
        <ele>281.49020385742</ele>
        <time>2014-11-05T15:03:07Z</time>
      </trkpt>
      <trkpt lat="43.42977" lon="6.09655">
        <ele>281.33856201172</ele>
        <time>2014-11-05T15:03:08Z</time>
      </trkpt>
      <trkpt lat="43.42977" lon="6.09646">
        <ele>281.14654541016</ele>
        <time>2014-11-05T15:03:09Z</time>
      </trkpt>
      <trkpt lat="43.42978" lon="6.09627">
        <ele>280.72946166992</ele>
        <time>2014-11-05T15:03:11Z</time>
      </trkpt>
      <trkpt lat="43.42979" lon="6.09606">
        <ele>280.3024597168</ele>
        <time>2014-11-05T15:03:13Z</time>
      </trkpt>
      <trkpt lat="43.4298" lon="6.09596">
        <ele>280.07650756836</ele>
        <time>2014-11-05T15:03:14Z</time>
      </trkpt>
      <trkpt lat="43.42981" lon="6.09586">
        <ele>279.83740234375</ele>
        <time>2014-11-05T15:03:15Z</time>
      </trkpt>
      <trkpt lat="43.42983" lon="6.09575">
        <ele>279.81930541992</ele>
        <time>2014-11-05T15:03:16Z</time>
      </trkpt>
      <trkpt lat="43.42986" lon="6.09563">
        <ele>279.8747253418</ele>
        <time>2014-11-05T15:03:17Z</time>
      </trkpt>
      <trkpt lat="43.42989" lon="6.09554">
        <ele>279.9108581543</ele>
        <time>2014-11-05T15:03:18Z</time>
      </trkpt>
      <trkpt lat="43.42991" lon="6.09546">
        <ele>279.94213867188</ele>
        <time>2014-11-05T15:03:19Z</time>
      </trkpt>
      <trkpt lat="43.42994" lon="6.09535">
        <ele>279.97137451172</ele>
        <time>2014-11-05T15:03:21Z</time>
      </trkpt>
      <trkpt lat="43.42995" lon="6.09531">
        <ele>279.97607421875</ele>
        <time>2014-11-05T15:03:22Z</time>
      </trkpt>
      <trkpt lat="43.42995" lon="6.09528">
        <ele>279.97839355469</ele>
        <time>2014-11-05T15:03:23Z</time>
      </trkpt>
      <trkpt lat="43.42994" lon="6.09526">
        <ele>279.97894287109</ele>
        <time>2014-11-05T15:03:24Z</time>
      </trkpt>
      <trkpt lat="43.42994" lon="6.09523">
        <ele>279.98110961914</ele>
        <time>2014-11-05T15:03:25Z</time>
      </trkpt>
      <trkpt lat="43.42993" lon="6.09518">
        <ele>279.98120117188</ele>
        <time>2014-11-05T15:03:27Z</time>
      </trkpt>
      <trkpt lat="43.4299" lon="6.09511">
        <ele>279.98553466797</ele>
        <time>2014-11-05T15:03:29Z</time>
      </trkpt>
      <trkpt lat="43.4299" lon="6.09506">
        <ele>279.99139404297</ele>
        <time>2014-11-05T15:03:30Z</time>
      </trkpt>
      <trkpt lat="43.4299" lon="6.095">
        <ele>279.99960327148</ele>
        <time>2014-11-05T15:03:31Z</time>
      </trkpt>
      <trkpt lat="43.4299" lon="6.09494">
        <ele>280.00796508789</ele>
        <time>2014-11-05T15:03:32Z</time>
      </trkpt>
      <trkpt lat="43.42989" lon="6.09488">
        <ele>280.01815795898</ele>
        <time>2014-11-05T15:03:33Z</time>
      </trkpt>
      <trkpt lat="43.4299" lon="6.09476">
        <ele>280.03598022461</ele>
        <time>2014-11-05T15:03:35Z</time>
      </trkpt>
      <trkpt lat="43.4299" lon="6.09469">
        <ele>280.04537963867</ele>
        <time>2014-11-05T15:03:36Z</time>
      </trkpt>
      <trkpt lat="43.4299" lon="6.09462">
        <ele>280.05609130859</ele>
        <time>2014-11-05T15:03:37Z</time>
      </trkpt>
      <trkpt lat="43.4299" lon="6.09449">
        <ele>280.0696105957</ele>
        <time>2014-11-05T15:03:39Z</time>
      </trkpt>
      <trkpt lat="43.42991" lon="6.09445">
        <ele>280.07220458984</ele>
        <time>2014-11-05T15:03:40Z</time>
      </trkpt>
      <trkpt lat="43.42991" lon="6.09442">
        <ele>280.07363891602</ele>
        <time>2014-11-05T15:03:41Z</time>
      </trkpt>
      <trkpt lat="43.4299" lon="6.09438">
        <ele>280.08489990234</ele>
        <time>2014-11-05T15:03:43Z</time>
      </trkpt>
      <trkpt lat="43.4299" lon="6.09437">
        <ele>280.08624267578</ele>
        <time>2014-11-05T15:03:44Z</time>
      </trkpt>
      <trkpt lat="43.4299" lon="6.09437">
        <ele>280.08612060547</ele>
        <time>2014-11-05T15:03:45Z</time>
      </trkpt>
      <trkpt lat="43.4299" lon="6.09437">
        <ele>280.08639526367</ele>
        <time>2014-11-05T15:03:47Z</time>
      </trkpt>
      <trkpt lat="43.4299" lon="6.09436">
        <ele>280.09072875977</ele>
        <time>2014-11-05T15:03:51Z</time>
      </trkpt>
      <trkpt lat="43.4299" lon="6.09436">
        <ele>280.09155273438</ele>
        <time>2014-11-05T15:03:55Z</time>
      </trkpt>
      <trkpt lat="43.4299" lon="6.09435">
        <ele>280.08920288086</ele>
        <time>2014-11-05T15:03:57Z</time>
      </trkpt>
      <trkpt lat="43.4299" lon="6.09434">
        <ele>280.08996582031</ele>
        <time>2014-11-05T15:03:59Z</time>
      </trkpt>
      <trkpt lat="43.42991" lon="6.09434">
        <ele>280.08712768555</ele>
        <time>2014-11-05T15:04:01Z</time>
      </trkpt>
      <trkpt lat="43.4299" lon="6.09434">
        <ele>280.09094238281</ele>
        <time>2014-11-05T15:04:03Z</time>
      </trkpt>
      <trkpt lat="43.4299" lon="6.09434">
        <ele>280.09103393555</ele>
        <time>2014-11-05T15:04:05Z</time>
      </trkpt>
      <trkpt lat="43.4299" lon="6.09433">
        <ele>280.0950012207</ele>
        <time>2014-11-05T15:04:09Z</time>
      </trkpt>
      <trkpt lat="43.4299" lon="6.09433">
        <ele>280.09509277344</ele>
        <time>2014-11-05T15:04:11Z</time>
      </trkpt>
      <trkpt lat="43.4299" lon="6.09433">
        <ele>280.09127807617</ele>
        <time>2014-11-05T15:04:15Z</time>
      </trkpt>
      <trkpt lat="43.4299" lon="6.09433">
        <ele>280.09481811523</ele>
        <time>2014-11-05T15:04:19Z</time>
      </trkpt>
      <trkpt lat="43.4299" lon="6.09433">
        <ele>280.09481811523</ele>
        <time>2014-11-05T15:04:23Z</time>
      </trkpt>
      <trkpt lat="43.4299" lon="6.09433">
        <ele>280.09487915039</ele>
        <time>2014-11-05T15:04:29Z</time>
      </trkpt>
      <trkpt lat="43.4299" lon="6.09433">
        <ele>280.09481811523</ele>
        <time>2014-11-05T15:04:33Z</time>
      </trkpt>
      <trkpt lat="43.4299" lon="6.09433">
        <ele>280.09481811523</ele>
        <time>2014-11-05T15:04:35Z</time>
      </trkpt>
      <trkpt lat="43.4299" lon="6.09433">
        <ele>280.09115600586</ele>
        <time>2014-11-05T15:04:37Z</time>
      </trkpt>
      <trkpt lat="43.4299" lon="6.09433">
        <ele>280.0947265625</ele>
        <time>2014-11-05T15:04:39Z</time>
      </trkpt>
      <trkpt lat="43.4299" lon="6.09435">
        <ele>280.08950805664</ele>
        <time>2014-11-05T15:04:41Z</time>
      </trkpt>
      <trkpt lat="43.42991" lon="6.09435">
        <ele>280.08505249023</ele>
        <time>2014-11-05T15:04:43Z</time>
      </trkpt>
      <trkpt lat="43.42991" lon="6.09436">
        <ele>280.083984375</ele>
        <time>2014-11-05T15:04:45Z</time>
      </trkpt>
      <trkpt lat="43.42991" lon="6.09436">
        <ele>280.08392333984</ele>
        <time>2014-11-05T15:04:47Z</time>
      </trkpt>
      <trkpt lat="43.42991" lon="6.09436">
        <ele>280.08386230469</ele>
        <time>2014-11-05T15:04:49Z</time>
      </trkpt>
      <trkpt lat="43.42991" lon="6.09436">
        <ele>280.08004760742</ele>
        <time>2014-11-05T15:04:51Z</time>
      </trkpt>
      <trkpt lat="43.42991" lon="6.09437">
        <ele>280.07986450195</ele>
        <time>2014-11-05T15:04:53Z</time>
      </trkpt>
      <trkpt lat="43.42991" lon="6.09437">
        <ele>280.07986450195</ele>
        <time>2014-11-05T15:04:57Z</time>
      </trkpt>
      <trkpt lat="43.42991" lon="6.09437">
        <ele>280.07992553711</ele>
        <time>2014-11-05T15:05:05Z</time>
      </trkpt>
      <trkpt lat="43.42991" lon="6.09436">
        <ele>280.07998657227</ele>
        <time>2014-11-05T15:05:17Z</time>
      </trkpt>
      <trkpt lat="43.42991" lon="6.09436">
        <ele>280.08004760742</ele>
        <time>2014-11-05T15:05:33Z</time>
      </trkpt>
      <trkpt lat="43.42991" lon="6.09436">
        <ele>280.08349609375</ele>
        <time>2014-11-05T15:05:35Z</time>
      </trkpt>
      <trkpt lat="43.42991" lon="6.09436">
        <ele>280.07998657227</ele>
        <time>2014-11-05T15:05:37Z</time>
      </trkpt>
      <trkpt lat="43.42991" lon="6.09436">
        <ele>280.07998657227</ele>
        <time>2014-11-05T15:05:41Z</time>
      </trkpt>
      <trkpt lat="43.42991" lon="6.09436">
        <ele>280.07998657227</ele>
        <time>2014-11-05T15:05:43Z</time>
      </trkpt>
      <trkpt lat="43.42991" lon="6.09436">
        <ele>280.08355712891</ele>
        <time>2014-11-05T15:05:45Z</time>
      </trkpt>
      <trkpt lat="43.4299" lon="6.09436">
        <ele>280.09155273438</ele>
        <time>2014-11-05T15:05:47Z</time>
      </trkpt>
      <trkpt lat="43.4299" lon="6.09435">
        <ele>280.09194946289</ele>
        <time>2014-11-05T15:05:49Z</time>
      </trkpt>
      <trkpt lat="43.4299" lon="6.09435">
        <ele>280.09210205078</ele>
        <time>2014-11-05T15:05:50Z</time>
      </trkpt>
      <trkpt lat="43.4299" lon="6.09435">
        <ele>280.09201049805</ele>
        <time>2014-11-05T15:05:51Z</time>
      </trkpt>
      <trkpt lat="43.4299" lon="6.09435">
        <ele>280.09201049805</ele>
        <time>2014-11-05T15:05:53Z</time>
      </trkpt>
      <trkpt lat="43.4299" lon="6.09435">
        <ele>280.09210205078</ele>
        <time>2014-11-05T15:05:57Z</time>
      </trkpt>
      <trkpt lat="43.4299" lon="6.09435">
        <ele>280.09201049805</ele>
        <time>2014-11-05T15:06:07Z</time>
      </trkpt>
      <trkpt lat="43.4299" lon="6.09435">
        <ele>280.09194946289</ele>
        <time>2014-11-05T15:06:15Z</time>
      </trkpt>
      <trkpt lat="43.4299" lon="6.09435">
        <ele>280.08950805664</ele>
        <time>2014-11-05T15:06:17Z</time>
      </trkpt>
      <trkpt lat="43.4299" lon="6.09435">
        <ele>280.08959960938</ele>
        <time>2014-11-05T15:06:19Z</time>
      </trkpt>
      <trkpt lat="43.4299" lon="6.09435">
        <ele>280.09326171875</ele>
        <time>2014-11-05T15:06:21Z</time>
      </trkpt>
      <trkpt lat="43.4299" lon="6.09435">
        <ele>280.09317016602</ele>
        <time>2014-11-05T15:06:23Z</time>
      </trkpt>
      <trkpt lat="43.4299" lon="6.09435">
        <ele>280.09317016602</ele>
        <time>2014-11-05T15:06:27Z</time>
      </trkpt>
      <trkpt lat="43.4299" lon="6.09435">
        <ele>280.09326171875</ele>
        <time>2014-11-05T15:06:33Z</time>
      </trkpt>
      <trkpt lat="43.4299" lon="6.09434">
        <ele>280.09387207031</ele>
        <time>2014-11-05T15:06:35Z</time>
      </trkpt>
      <trkpt lat="43.4299" lon="6.09434">
        <ele>280.09747314453</ele>
        <time>2014-11-05T15:06:37Z</time>
      </trkpt>
      <trkpt lat="43.42989" lon="6.09432">
        <ele>280.1120300293</ele>
        <time>2014-11-05T15:06:39Z</time>
      </trkpt>
      <trkpt lat="43.42986" lon="6.09431">
        <ele>280.1435546875</ele>
        <time>2014-11-05T15:06:41Z</time>
      </trkpt>
      <trkpt lat="43.4298" lon="6.09432">
        <ele>280.19760131836</ele>
        <time>2014-11-05T15:06:43Z</time>
      </trkpt>
      <trkpt lat="43.42973" lon="6.09436">
        <ele>280.24603271484</ele>
        <time>2014-11-05T15:06:45Z</time>
      </trkpt>
      <trkpt lat="43.42971" lon="6.09438">
        <ele>280.25677490234</ele>
        <time>2014-11-05T15:06:46Z</time>
      </trkpt>
      <trkpt lat="43.42969" lon="6.09439">
        <ele>280.2724609375</ele>
        <time>2014-11-05T15:06:47Z</time>
      </trkpt>
      <trkpt lat="43.42968" lon="6.09439">
        <ele>280.28460693359</ele>
        <time>2014-11-05T15:06:48Z</time>
      </trkpt>
      <trkpt lat="43.42966" lon="6.0944">
        <ele>280.29028320312</ele>
        <time>2014-11-05T15:06:49Z</time>
      </trkpt>
      <trkpt lat="43.42963" lon="6.09441">
        <ele>280.30889892578</ele>
        <time>2014-11-05T15:06:51Z</time>
      </trkpt>
      <trkpt lat="43.42962" lon="6.09442">
        <ele>280.31918334961</ele>
        <time>2014-11-05T15:06:52Z</time>
      </trkpt>
      <trkpt lat="43.4296" lon="6.09443">
        <ele>280.32998657227</ele>
        <time>2014-11-05T15:06:53Z</time>
      </trkpt>
      <trkpt lat="43.42955" lon="6.09444">
        <ele>280.36181640625</ele>
        <time>2014-11-05T15:06:55Z</time>
      </trkpt>
      <trkpt lat="43.4295" lon="6.09443">
        <ele>280.40783691406</ele>
        <time>2014-11-05T15:06:57Z</time>
      </trkpt>
      <trkpt lat="43.42948" lon="6.09442">
        <ele>280.43521118164</ele>
        <time>2014-11-05T15:06:58Z</time>
      </trkpt>
      <trkpt lat="43.42945" lon="6.0944">
        <ele>280.47250366211</ele>
        <time>2014-11-05T15:06:59Z</time>
      </trkpt>
      <trkpt lat="43.42939" lon="6.09436">
        <ele>280.55899047852</ele>
        <time>2014-11-05T15:07:01Z</time>
      </trkpt>
      <trkpt lat="43.42933" lon="6.09433">
        <ele>280.65130615234</ele>
        <time>2014-11-05T15:07:03Z</time>
      </trkpt>
      <trkpt lat="43.42929" lon="6.09431">
        <ele>280.69818115234</ele>
        <time>2014-11-05T15:07:04Z</time>
      </trkpt>
      <trkpt lat="43.42926" lon="6.09429">
        <ele>280.7565612793</ele>
        <time>2014-11-05T15:07:05Z</time>
      </trkpt>
      <trkpt lat="43.42921" lon="6.09424">
        <ele>280.86563110352</ele>
        <time>2014-11-05T15:07:07Z</time>
      </trkpt>
      <trkpt lat="43.42915" lon="6.09419">
        <ele>281.41714477539</ele>
        <time>2014-11-05T15:07:09Z</time>
      </trkpt>
      <trkpt lat="43.42912" lon="6.09416">
        <ele>282.51507568359</ele>
        <time>2014-11-05T15:07:10Z</time>
      </trkpt>
      <trkpt lat="43.42904" lon="6.09404">
        <ele>285.73483276367</ele>
        <time>2014-11-05T15:07:13Z</time>
      </trkpt>
      <trkpt lat="43.42901" lon="6.09392">
        <ele>286.97381591797</ele>
        <time>2014-11-05T15:07:15Z</time>
      </trkpt>
      <trkpt lat="43.42904" lon="6.09381">
        <ele>286.67330932617</ele>
        <time>2014-11-05T15:07:17Z</time>
      </trkpt>
      <trkpt lat="43.42905" lon="6.09375">
        <ele>286.53247070312</ele>
        <time>2014-11-05T15:07:18Z</time>
      </trkpt>
      <trkpt lat="43.42905" lon="6.09368">
        <ele>286.68161010742</ele>
        <time>2014-11-05T15:07:19Z</time>
      </trkpt>
      <trkpt lat="43.42904" lon="6.09355">
        <ele>287.34741210938</ele>
        <time>2014-11-05T15:07:21Z</time>
      </trkpt>
      <trkpt lat="43.42904" lon="6.09344">
        <ele>287.73352050781</ele>
        <time>2014-11-05T15:07:23Z</time>
      </trkpt>
      <trkpt lat="43.42905" lon="6.09339">
        <ele>287.72320556641</ele>
        <time>2014-11-05T15:07:24Z</time>
      </trkpt>
      <trkpt lat="43.42906" lon="6.09333">
        <ele>287.75369262695</ele>
        <time>2014-11-05T15:07:25Z</time>
      </trkpt>
      <trkpt lat="43.42907" lon="6.09321">
        <ele>288.08343505859</ele>
        <time>2014-11-05T15:07:27Z</time>
      </trkpt>
      <trkpt lat="43.42908" lon="6.09309">
        <ele>288.38711547852</ele>
        <time>2014-11-05T15:07:29Z</time>
      </trkpt>
      <trkpt lat="43.42909" lon="6.09297">
        <ele>288.9521484375</ele>
        <time>2014-11-05T15:07:31Z</time>
      </trkpt>
      <trkpt lat="43.42909" lon="6.09291">
        <ele>289.33679199219</ele>
        <time>2014-11-05T15:07:32Z</time>
      </trkpt>
      <trkpt lat="43.42908" lon="6.09286">
        <ele>289.69158935547</ele>
        <time>2014-11-05T15:07:33Z</time>
      </trkpt>
      <trkpt lat="43.42908" lon="6.09278">
        <ele>290.16357421875</ele>
        <time>2014-11-05T15:07:35Z</time>
      </trkpt>
      <trkpt lat="43.42908" lon="6.09277">
        <ele>290.30755615234</ele>
        <time>2014-11-05T15:07:36Z</time>
      </trkpt>
      <trkpt lat="43.42908" lon="6.09275">
        <ele>290.34625244141</ele>
        <time>2014-11-05T15:07:37Z</time>
      </trkpt>
      <trkpt lat="43.42907" lon="6.09271">
        <ele>290.66448974609</ele>
        <time>2014-11-05T15:07:39Z</time>
      </trkpt>
      <trkpt lat="43.42905" lon="6.09266">
        <ele>291.17852783203</ele>
        <time>2014-11-05T15:07:41Z</time>
      </trkpt>
      <trkpt lat="43.42905" lon="6.09261">
        <ele>291.47622680664</ele>
        <time>2014-11-05T15:07:43Z</time>
      </trkpt>
      <trkpt lat="43.42903" lon="6.09252">
        <ele>292.09841918945</ele>
        <time>2014-11-05T15:07:46Z</time>
      </trkpt>
      <trkpt lat="43.42902" lon="6.09242">
        <ele>292.75149536133</ele>
        <time>2014-11-05T15:07:49Z</time>
      </trkpt>
      <trkpt lat="43.42904" lon="6.09227">
        <ele>293.59869384766</ele>
        <time>2014-11-05T15:07:53Z</time>
      </trkpt>
      <trkpt lat="43.42907" lon="6.09219">
        <ele>293.96176147461</ele>
        <time>2014-11-05T15:07:55Z</time>
      </trkpt>
      <trkpt lat="43.4291" lon="6.09213">
        <ele>294.14016723633</ele>
        <time>2014-11-05T15:07:57Z</time>
      </trkpt>
      <trkpt lat="43.42924" lon="6.09198">
        <ele>294.744140625</ele>
        <time>2014-11-05T15:08:03Z</time>
      </trkpt>
      <trkpt lat="43.42928" lon="6.09193">
        <ele>295.13208007812</ele>
        <time>2014-11-05T15:08:05Z</time>
      </trkpt>
      <trkpt lat="43.4293" lon="6.09187">
        <ele>295.5612487793</ele>
        <time>2014-11-05T15:08:07Z</time>
      </trkpt>
      <trkpt lat="43.42931" lon="6.09182">
        <ele>295.92517089844</ele>
        <time>2014-11-05T15:08:09Z</time>
      </trkpt>
      <trkpt lat="43.42931" lon="6.09179">
        <ele>296.12084960938</ele>
        <time>2014-11-05T15:08:10Z</time>
      </trkpt>
      <trkpt lat="43.42932" lon="6.09176">
        <ele>296.3440246582</ele>
        <time>2014-11-05T15:08:11Z</time>
      </trkpt>
      <trkpt lat="43.42932" lon="6.09169">
        <ele>296.81094360352</ele>
        <time>2014-11-05T15:08:13Z</time>
      </trkpt>
      <trkpt lat="43.42932" lon="6.09166">
        <ele>297.10736083984</ele>
        <time>2014-11-05T15:08:14Z</time>
      </trkpt>
      <trkpt lat="43.42931" lon="6.09163">
        <ele>297.60336303711</ele>
        <time>2014-11-05T15:08:15Z</time>
      </trkpt>
      <trkpt lat="43.42932" lon="6.0916">
        <ele>298.10137939453</ele>
        <time>2014-11-05T15:08:16Z</time>
      </trkpt>
      <trkpt lat="43.42932" lon="6.09151">
        <ele>299.59924316406</ele>
        <time>2014-11-05T15:08:19Z</time>
      </trkpt>
      <trkpt lat="43.42934" lon="6.09139">
        <ele>301.30218505859</ele>
        <time>2014-11-05T15:08:23Z</time>
      </trkpt>
      <trkpt lat="43.42934" lon="6.09134">
        <ele>302.09713745117</ele>
        <time>2014-11-05T15:08:25Z</time>
      </trkpt>
      <trkpt lat="43.42935" lon="6.09132">
        <ele>302.39556884766</ele>
        <time>2014-11-05T15:08:26Z</time>
      </trkpt>
      <trkpt lat="43.42938" lon="6.09121">
        <ele>303.76239013672</ele>
        <time>2014-11-05T15:08:31Z</time>
      </trkpt>
      <trkpt lat="43.4294" lon="6.09116">
        <ele>304.33984375</ele>
        <time>2014-11-05T15:08:34Z</time>
      </trkpt>
      <trkpt lat="43.42941" lon="6.09114">
        <ele>304.52041625977</ele>
        <time>2014-11-05T15:08:35Z</time>
      </trkpt>
      <trkpt lat="43.42942" lon="6.0911">
        <ele>304.93719482422</ele>
        <time>2014-11-05T15:08:38Z</time>
      </trkpt>
      <trkpt lat="43.42943" lon="6.09109">
        <ele>305.02514648438</ele>
        <time>2014-11-05T15:08:39Z</time>
      </trkpt>
      <trkpt lat="43.42944" lon="6.09106">
        <ele>305.20327758789</ele>
        <time>2014-11-05T15:08:41Z</time>
      </trkpt>
      <trkpt lat="43.42946" lon="6.09104">
        <ele>305.34817504883</ele>
        <time>2014-11-05T15:08:43Z</time>
      </trkpt>
      <trkpt lat="43.42948" lon="6.09102">
        <ele>305.3039855957</ele>
        <time>2014-11-05T15:08:45Z</time>
      </trkpt>
      <trkpt lat="43.4295" lon="6.09099">
        <ele>305.47015380859</ele>
        <time>2014-11-05T15:08:47Z</time>
      </trkpt>
      <trkpt lat="43.42951" lon="6.09097">
        <ele>305.60211181641</ele>
        <time>2014-11-05T15:08:49Z</time>
      </trkpt>
      <trkpt lat="43.42952" lon="6.09094">
        <ele>305.75210571289</ele>
        <time>2014-11-05T15:08:51Z</time>
      </trkpt>
      <trkpt lat="43.42952" lon="6.09092">
        <ele>305.93685913086</ele>
        <time>2014-11-05T15:08:53Z</time>
      </trkpt>
      <trkpt lat="43.42954" lon="6.0909">
        <ele>305.99240112305</ele>
        <time>2014-11-05T15:08:55Z</time>
      </trkpt>
      <trkpt lat="43.42955" lon="6.09089">
        <ele>305.89175415039</ele>
        <time>2014-11-05T15:08:57Z</time>
      </trkpt>
      <trkpt lat="43.42957" lon="6.09089">
        <ele>305.57061767578</ele>
        <time>2014-11-05T15:08:59Z</time>
      </trkpt>
      <trkpt lat="43.42958" lon="6.09089">
        <ele>305.4560546875</ele>
        <time>2014-11-05T15:09:00Z</time>
      </trkpt>
      <trkpt lat="43.42959" lon="6.09088">
        <ele>305.36682128906</ele>
        <time>2014-11-05T15:09:01Z</time>
      </trkpt>
      <trkpt lat="43.42961" lon="6.09088">
        <ele>305.12515258789</ele>
        <time>2014-11-05T15:09:03Z</time>
      </trkpt>
      <trkpt lat="43.42963" lon="6.09087">
        <ele>304.86975097656</ele>
        <time>2014-11-05T15:09:05Z</time>
      </trkpt>
      <trkpt lat="43.42964" lon="6.09087">
        <ele>304.67172241211</ele>
        <time>2014-11-05T15:09:06Z</time>
      </trkpt>
      <trkpt lat="43.42965" lon="6.09086">
        <ele>304.5549621582</ele>
        <time>2014-11-05T15:09:07Z</time>
      </trkpt>
      <trkpt lat="43.42967" lon="6.09084">
        <ele>304.40887451172</ele>
        <time>2014-11-05T15:09:09Z</time>
      </trkpt>
      <trkpt lat="43.42968" lon="6.09084">
        <ele>304.29080200195</ele>
        <time>2014-11-05T15:09:10Z</time>
      </trkpt>
      <trkpt lat="43.42969" lon="6.09084">
        <ele>304.16000366211</ele>
        <time>2014-11-05T15:09:11Z</time>
      </trkpt>
      <trkpt lat="43.4297" lon="6.09083">
        <ele>304.046875</ele>
        <time>2014-11-05T15:09:13Z</time>
      </trkpt>
      <trkpt lat="43.42971" lon="6.09083">
        <ele>303.82104492188</ele>
        <time>2014-11-05T15:09:15Z</time>
      </trkpt>
      <trkpt lat="43.42972" lon="6.09082">
        <ele>303.71374511719</ele>
        <time>2014-11-05T15:09:16Z</time>
      </trkpt>
      <trkpt lat="43.42973" lon="6.09081">
        <ele>303.53903198242</ele>
        <time>2014-11-05T15:09:17Z</time>
      </trkpt>
      <trkpt lat="43.42978" lon="6.09076">
        <ele>302.86517333984</ele>
        <time>2014-11-05T15:09:21Z</time>
      </trkpt>
      <trkpt lat="43.42978" lon="6.09075">
        <ele>302.83288574219</ele>
        <time>2014-11-05T15:09:22Z</time>
      </trkpt>
      <trkpt lat="43.4298" lon="6.09073">
        <ele>302.59652709961</ele>
        <time>2014-11-05T15:09:23Z</time>
      </trkpt>
      <trkpt lat="43.42984" lon="6.09069">
        <ele>301.91656494141</ele>
        <time>2014-11-05T15:09:25Z</time>
      </trkpt>
      <trkpt lat="43.42987" lon="6.09064">
        <ele>301.35256958008</ele>
        <time>2014-11-05T15:09:27Z</time>
      </trkpt>
      <trkpt lat="43.42993" lon="6.09059">
        <ele>300.39129638672</ele>
        <time>2014-11-05T15:09:29Z</time>
      </trkpt>
      <trkpt lat="43.42998" lon="6.09054">
        <ele>299.37161254883</ele>
        <time>2014-11-05T15:09:31Z</time>
      </trkpt>
      <trkpt lat="43.43004" lon="6.09049">
        <ele>299.03793334961</ele>
        <time>2014-11-05T15:09:33Z</time>
      </trkpt>
      <trkpt lat="43.43009" lon="6.09044">
        <ele>299.06018066406</ele>
        <time>2014-11-05T15:09:35Z</time>
      </trkpt>
      <trkpt lat="43.43013" lon="6.09036">
        <ele>299.04699707031</ele>
        <time>2014-11-05T15:09:37Z</time>
      </trkpt>
      <trkpt lat="43.43014" lon="6.09032">
        <ele>299.02703857422</ele>
        <time>2014-11-05T15:09:38Z</time>
      </trkpt>
      <trkpt lat="43.43016" lon="6.09028">
        <ele>299.00381469727</ele>
        <time>2014-11-05T15:09:39Z</time>
      </trkpt>
      <trkpt lat="43.43017" lon="6.09018">
        <ele>298.92587280273</ele>
        <time>2014-11-05T15:09:41Z</time>
      </trkpt>
      <trkpt lat="43.43019" lon="6.09007">
        <ele>298.83367919922</ele>
        <time>2014-11-05T15:09:43Z</time>
      </trkpt>
      <trkpt lat="43.4302" lon="6.08996">
        <ele>298.59866333008</ele>
        <time>2014-11-05T15:09:45Z</time>
      </trkpt>
      <trkpt lat="43.43021" lon="6.08984">
        <ele>298.123046875</ele>
        <time>2014-11-05T15:09:47Z</time>
      </trkpt>
      <trkpt lat="43.43021" lon="6.08978">
        <ele>297.88079833984</ele>
        <time>2014-11-05T15:09:48Z</time>
      </trkpt>
      <trkpt lat="43.43022" lon="6.08971">
        <ele>297.63513183594</ele>
        <time>2014-11-05T15:09:49Z</time>
      </trkpt>
      <trkpt lat="43.43022" lon="6.08965">
        <ele>297.38116455078</ele>
        <time>2014-11-05T15:09:50Z</time>
      </trkpt>
      <trkpt lat="43.43022" lon="6.08959">
        <ele>297.14233398438</ele>
        <time>2014-11-05T15:09:51Z</time>
      </trkpt>
      <trkpt lat="43.43023" lon="6.08951">
        <ele>296.84707641602</ele>
        <time>2014-11-05T15:09:53Z</time>
      </trkpt>
      <trkpt lat="43.43023" lon="6.08948">
        <ele>296.7395324707</ele>
        <time>2014-11-05T15:09:55Z</time>
      </trkpt>
      <trkpt lat="43.43023" lon="6.08948">
        <ele>296.74899291992</ele>
        <time>2014-11-05T15:09:57Z</time>
      </trkpt>
      <trkpt lat="43.43023" lon="6.08948">
        <ele>296.74389648438</ele>
        <time>2014-11-05T15:09:59Z</time>
      </trkpt>
      <trkpt lat="43.43023" lon="6.08948">
        <ele>296.74389648438</ele>
        <time>2014-11-05T15:10:03Z</time>
      </trkpt>
      <trkpt lat="43.43023" lon="6.08948">
        <ele>296.74209594727</ele>
        <time>2014-11-05T15:10:19Z</time>
      </trkpt>
      <trkpt lat="43.43023" lon="6.08948">
        <ele>296.74389648438</ele>
        <time>2014-11-05T15:10:37Z</time>
      </trkpt>
      <trkpt lat="43.43023" lon="6.08948">
        <ele>296.74029541016</ele>
        <time>2014-11-05T15:11:11Z</time>
      </trkpt>
      <trkpt lat="43.43023" lon="6.08948">
        <ele>296.73666381836</ele>
        <time>2014-11-05T15:11:15Z</time>
      </trkpt>
      <trkpt lat="43.43023" lon="6.08948">
        <ele>296.73306274414</ele>
        <time>2014-11-05T15:11:17Z</time>
      </trkpt>
      <trkpt lat="43.43023" lon="6.08946">
        <ele>296.65267944336</ele>
        <time>2014-11-05T15:11:19Z</time>
      </trkpt>
      <trkpt lat="43.43023" lon="6.08944">
        <ele>296.58547973633</ele>
        <time>2014-11-05T15:11:20Z</time>
      </trkpt>
      <trkpt lat="43.43023" lon="6.08942">
        <ele>296.49139404297</ele>
        <time>2014-11-05T15:11:21Z</time>
      </trkpt>
      <trkpt lat="43.4302" lon="6.08936">
        <ele>296.24951171875</ele>
        <time>2014-11-05T15:11:23Z</time>
      </trkpt>
      <trkpt lat="43.43019" lon="6.08932">
        <ele>296.07348632812</ele>
        <time>2014-11-05T15:11:25Z</time>
      </trkpt>
      <trkpt lat="43.43018" lon="6.08931">
        <ele>295.99697875977</ele>
        <time>2014-11-05T15:11:27Z</time>
      </trkpt>
      <trkpt lat="43.43017" lon="6.08929">
        <ele>295.90267944336</ele>
        <time>2014-11-05T15:11:30Z</time>
      </trkpt>
      <trkpt lat="43.43017" lon="6.08929">
        <ele>295.90460205078</ele>
        <time>2014-11-05T15:11:31Z</time>
      </trkpt>
      <trkpt lat="43.43016" lon="6.08929">
        <ele>295.87991333008</ele>
        <time>2014-11-05T15:11:33Z</time>
      </trkpt>
      <trkpt lat="43.43017" lon="6.08928">
        <ele>295.87936401367</ele>
        <time>2014-11-05T15:11:39Z</time>
      </trkpt>
      <trkpt lat="43.43017" lon="6.08928">
        <ele>295.87545776367</ele>
        <time>2014-11-05T15:11:41Z</time>
      </trkpt>
      <trkpt lat="43.43017" lon="6.08928">
        <ele>295.87545776367</ele>
        <time>2014-11-05T15:11:43Z</time>
      </trkpt>
      <trkpt lat="43.43016" lon="6.08928">
        <ele>295.86822509766</ele>
        <time>2014-11-05T15:11:45Z</time>
      </trkpt>
      <trkpt lat="43.43016" lon="6.08928">
        <ele>295.86627197266</ele>
        <time>2014-11-05T15:11:47Z</time>
      </trkpt>
      <trkpt lat="43.43016" lon="6.08928">
        <ele>295.86627197266</ele>
        <time>2014-11-05T15:11:49Z</time>
      </trkpt>
      <trkpt lat="43.43016" lon="6.08928">
        <ele>295.86822509766</ele>
        <time>2014-11-05T15:11:55Z</time>
      </trkpt>
      <trkpt lat="43.43016" lon="6.08928">
        <ele>295.86822509766</ele>
        <time>2014-11-05T15:11:59Z</time>
      </trkpt>
      <trkpt lat="43.43017" lon="6.08928">
        <ele>295.87545776367</ele>
        <time>2014-11-05T15:12:01Z</time>
      </trkpt>
      <trkpt lat="43.43017" lon="6.08928">
        <ele>295.87545776367</ele>
        <time>2014-11-05T15:12:05Z</time>
      </trkpt>
      <trkpt lat="43.43017" lon="6.08928">
        <ele>295.87741088867</ele>
        <time>2014-11-05T15:12:11Z</time>
      </trkpt>
      <trkpt lat="43.43017" lon="6.08928">
        <ele>295.87545776367</ele>
        <time>2014-11-05T15:12:21Z</time>
      </trkpt>
      <trkpt lat="43.43017" lon="6.08928">
        <ele>295.87353515625</ele>
        <time>2014-11-05T15:12:23Z</time>
      </trkpt>
      <trkpt lat="43.43017" lon="6.08928">
        <ele>295.87158203125</ele>
        <time>2014-11-05T15:12:27Z</time>
      </trkpt>
      <trkpt lat="43.43016" lon="6.08928">
        <ele>295.85263061523</ele>
        <time>2014-11-05T15:12:29Z</time>
      </trkpt>
      <trkpt lat="43.43016" lon="6.08928">
        <ele>295.85067749023</ele>
        <time>2014-11-05T15:12:35Z</time>
      </trkpt>
      <trkpt lat="43.43016" lon="6.08928">
        <ele>295.84677124023</ele>
        <time>2014-11-05T15:12:47Z</time>
      </trkpt>
      <trkpt lat="43.43016" lon="6.08928">
        <ele>295.84091186523</ele>
        <time>2014-11-05T15:12:59Z</time>
      </trkpt>
      <trkpt lat="43.43016" lon="6.08927">
        <ele>295.83508300781</ele>
        <time>2014-11-05T15:13:19Z</time>
      </trkpt>
      <trkpt lat="43.43016" lon="6.08927">
        <ele>295.83312988281</ele>
        <time>2014-11-05T15:13:29Z</time>
      </trkpt>
      <trkpt lat="43.43016" lon="6.08927">
        <ele>295.83117675781</ele>
        <time>2014-11-05T15:13:33Z</time>
      </trkpt>
      <trkpt lat="43.43016" lon="6.08927">
        <ele>295.83703613281</ele>
        <time>2014-11-05T15:13:37Z</time>
      </trkpt>
      <trkpt lat="43.43016" lon="6.08927">
        <ele>295.83312988281</ele>
        <time>2014-11-05T15:13:49Z</time>
      </trkpt>
      <trkpt lat="43.43016" lon="6.08927">
        <ele>295.82531738281</ele>
        <time>2014-11-05T15:14:37Z</time>
      </trkpt>
      <trkpt lat="43.43016" lon="6.08927">
        <ele>295.81558227539</ele>
        <time>2014-11-05T15:15:09Z</time>
      </trkpt>
      <trkpt lat="43.43016" lon="6.08927">
        <ele>295.81362915039</ele>
        <time>2014-11-05T15:15:17Z</time>
      </trkpt>
      <trkpt lat="43.43016" lon="6.08927">
        <ele>295.81558227539</ele>
        <time>2014-11-05T15:15:19Z</time>
      </trkpt>
      <trkpt lat="43.43016" lon="6.08927">
        <ele>295.81558227539</ele>
        <time>2014-11-05T15:15:24Z</time>
      </trkpt>
      <trkpt lat="43.43016" lon="6.08927">
        <ele>295.81167602539</ele>
        <time>2014-11-05T15:15:39Z</time>
      </trkpt>
      <trkpt lat="43.43016" lon="6.08927">
        <ele>295.80191040039</ele>
        <time>2014-11-05T15:16:05Z</time>
      </trkpt>
      <trkpt lat="43.43016" lon="6.08927">
        <ele>295.80191040039</ele>
        <time>2014-11-05T15:16:11Z</time>
      </trkpt>
      <trkpt lat="43.43016" lon="6.08927">
        <ele>295.79995727539</ele>
        <time>2014-11-05T15:16:15Z</time>
      </trkpt>
      <trkpt lat="43.43016" lon="6.08927">
        <ele>295.79800415039</ele>
        <time>2014-11-05T15:16:23Z</time>
      </trkpt>
      <trkpt lat="43.43016" lon="6.08926">
        <ele>295.79217529297</ele>
        <time>2014-11-05T15:17:09Z</time>
      </trkpt>
      <trkpt lat="43.43016" lon="6.08927">
        <ele>295.79800415039</ele>
        <time>2014-11-05T15:17:25Z</time>
      </trkpt>
      <trkpt lat="43.43016" lon="6.08927">
        <ele>295.80581665039</ele>
        <time>2014-11-05T15:17:35Z</time>
      </trkpt>
      <trkpt lat="43.43016" lon="6.08927">
        <ele>295.80581665039</ele>
        <time>2014-11-05T15:17:51Z</time>
      </trkpt>
      <trkpt lat="43.43016" lon="6.08927">
        <ele>295.80386352539</ele>
        <time>2014-11-05T15:17:55Z</time>
      </trkpt>
      <trkpt lat="43.43016" lon="6.08927">
        <ele>295.80386352539</ele>
        <time>2014-11-05T15:17:59Z</time>
      </trkpt>
      <trkpt lat="43.43016" lon="6.08927">
        <ele>295.79830932617</ele>
        <time>2014-11-05T15:18:01Z</time>
      </trkpt>
      <trkpt lat="43.43016" lon="6.08927">
        <ele>295.80386352539</ele>
        <time>2014-11-05T15:18:03Z</time>
      </trkpt>
      <trkpt lat="43.43016" lon="6.08927">
        <ele>295.80386352539</ele>
        <time>2014-11-05T15:18:05Z</time>
      </trkpt>
      <trkpt lat="43.43016" lon="6.08927">
        <ele>295.79049682617</ele>
        <time>2014-11-05T15:18:09Z</time>
      </trkpt>
      <trkpt lat="43.43016" lon="6.08927">
        <ele>295.79995727539</ele>
        <time>2014-11-05T15:18:11Z</time>
      </trkpt>
      <trkpt lat="43.43016" lon="6.08927">
        <ele>295.79995727539</ele>
        <time>2014-11-05T15:18:15Z</time>
      </trkpt>
      <trkpt lat="43.43016" lon="6.08927">
        <ele>295.79800415039</ele>
        <time>2014-11-05T15:18:19Z</time>
      </trkpt>
      <trkpt lat="43.43016" lon="6.08926">
        <ele>295.79412841797</ele>
        <time>2014-11-05T15:18:31Z</time>
      </trkpt>
      <trkpt lat="43.43016" lon="6.08926">
        <ele>295.79605102539</ele>
        <time>2014-11-05T15:18:37Z</time>
      </trkpt>
      <trkpt lat="43.43016" lon="6.08926">
        <ele>295.79412841797</ele>
        <time>2014-11-05T15:18:39Z</time>
      </trkpt>
      <trkpt lat="43.43016" lon="6.08926">
        <ele>295.79412841797</ele>
        <time>2014-11-05T15:18:43Z</time>
      </trkpt>
      <trkpt lat="43.43016" lon="6.08926">
        <ele>295.78826904297</ele>
        <time>2014-11-05T15:19:05Z</time>
      </trkpt>
      <trkpt lat="43.43016" lon="6.08926">
        <ele>295.78240966797</ele>
        <time>2014-11-05T15:19:23Z</time>
      </trkpt>
      <trkpt lat="43.43016" lon="6.08926">
        <ele>295.77850341797</ele>
        <time>2014-11-05T15:19:29Z</time>
      </trkpt>
      <trkpt lat="43.43016" lon="6.08926">
        <ele>295.77462768555</ele>
        <time>2014-11-05T15:19:37Z</time>
      </trkpt>
      <trkpt lat="43.43016" lon="6.08926">
        <ele>295.77072143555</ele>
        <time>2014-11-05T15:19:51Z</time>
      </trkpt>
      <trkpt lat="43.43016" lon="6.08926">
        <ele>295.77072143555</ele>
        <time>2014-11-05T15:20:01Z</time>
      </trkpt>
      <trkpt lat="43.43017" lon="6.08925">
        <ele>295.75894165039</ele>
        <time>2014-11-05T15:20:03Z</time>
      </trkpt>
      <trkpt lat="43.43017" lon="6.08925">
        <ele>295.73181152344</ele>
        <time>2014-11-05T15:20:04Z</time>
      </trkpt>
      <trkpt lat="43.43018" lon="6.08924">
        <ele>295.70114135742</ele>
        <time>2014-11-05T15:20:05Z</time>
      </trkpt>
      <trkpt lat="43.43018" lon="6.0892">
        <ele>295.5700378418</ele>
        <time>2014-11-05T15:20:07Z</time>
      </trkpt>
      <trkpt lat="43.43019" lon="6.08914">
        <ele>295.35122680664</ele>
        <time>2014-11-05T15:20:09Z</time>
      </trkpt>
      <trkpt lat="43.43021" lon="6.08906">
        <ele>295.00396728516</ele>
        <time>2014-11-05T15:20:11Z</time>
      </trkpt>
      <trkpt lat="43.43024" lon="6.08896">
        <ele>294.626953125</ele>
        <time>2014-11-05T15:20:13Z</time>
      </trkpt>
      <trkpt lat="43.43024" lon="6.0889">
        <ele>294.34313964844</ele>
        <time>2014-11-05T15:20:14Z</time>
      </trkpt>
      <trkpt lat="43.43023" lon="6.08884">
        <ele>294.033203125</ele>
        <time>2014-11-05T15:20:15Z</time>
      </trkpt>
      <trkpt lat="43.43021" lon="6.08872">
        <ele>293.36715698242</ele>
        <time>2014-11-05T15:20:17Z</time>
      </trkpt>
      <trkpt lat="43.43023" lon="6.08858">
        <ele>292.82052612305</ele>
        <time>2014-11-05T15:20:19Z</time>
      </trkpt>
      <trkpt lat="43.43024" lon="6.08851">
        <ele>292.56484985352</ele>
        <time>2014-11-05T15:20:20Z</time>
      </trkpt>
      <trkpt lat="43.43024" lon="6.08844">
        <ele>292.20681762695</ele>
        <time>2014-11-05T15:20:21Z</time>
      </trkpt>
      <trkpt lat="43.43023" lon="6.08837">
        <ele>291.78091430664</ele>
        <time>2014-11-05T15:20:22Z</time>
      </trkpt>
      <trkpt lat="43.43021" lon="6.08829">
        <ele>291.23077392578</ele>
        <time>2014-11-05T15:20:23Z</time>
      </trkpt>
      <trkpt lat="43.43017" lon="6.08813">
        <ele>290.03158569336</ele>
        <time>2014-11-05T15:20:25Z</time>
      </trkpt>
      <trkpt lat="43.43015" lon="6.08797">
        <ele>288.83139038086</ele>
        <time>2014-11-05T15:20:27Z</time>
      </trkpt>
      <trkpt lat="43.43014" lon="6.0878">
        <ele>287.73355102539</ele>
        <time>2014-11-05T15:20:29Z</time>
      </trkpt>
      <trkpt lat="43.43013" lon="6.08763">
        <ele>286.5758972168</ele>
        <time>2014-11-05T15:20:31Z</time>
      </trkpt>
      <trkpt lat="43.43008" lon="6.08747">
        <ele>284.96701049805</ele>
        <time>2014-11-05T15:20:33Z</time>
      </trkpt>
      <trkpt lat="43.43006" lon="6.0874">
        <ele>284.40921020508</ele>
        <time>2014-11-05T15:20:34Z</time>
      </trkpt>
      <trkpt lat="43.43" lon="6.08725">
        <ele>283.16159057617</ele>
        <time>2014-11-05T15:20:36Z</time>
      </trkpt>
      <trkpt lat="43.42997" lon="6.08718">
        <ele>282.90710449219</ele>
        <time>2014-11-05T15:20:37Z</time>
      </trkpt>
      <trkpt lat="43.4299" lon="6.08704">
        <ele>282.53652954102</ele>
        <time>2014-11-05T15:20:39Z</time>
      </trkpt>
      <trkpt lat="43.42987" lon="6.08697">
        <ele>282.29238891602</ele>
        <time>2014-11-05T15:20:40Z</time>
      </trkpt>
      <trkpt lat="43.42984" lon="6.08688">
        <ele>282.01501464844</ele>
        <time>2014-11-05T15:20:41Z</time>
      </trkpt>
      <trkpt lat="43.42981" lon="6.08672">
        <ele>281.44250488281</ele>
        <time>2014-11-05T15:20:43Z</time>
      </trkpt>
      <trkpt lat="43.42977" lon="6.08656">
        <ele>281.2060546875</ele>
        <time>2014-11-05T15:20:45Z</time>
      </trkpt>
      <trkpt lat="43.42974" lon="6.08649">
        <ele>281.17691040039</ele>
        <time>2014-11-05T15:20:46Z</time>
      </trkpt>
      <trkpt lat="43.42972" lon="6.08643">
        <ele>281.14694213867</ele>
        <time>2014-11-05T15:20:47Z</time>
      </trkpt>
      <trkpt lat="43.42971" lon="6.08634">
        <ele>281.07382202148</ele>
        <time>2014-11-05T15:20:49Z</time>
      </trkpt>
      <trkpt lat="43.42969" lon="6.08622">
        <ele>280.97695922852</ele>
        <time>2014-11-05T15:20:51Z</time>
      </trkpt>
      <trkpt lat="43.42966" lon="6.08609">
        <ele>280.84796142578</ele>
        <time>2014-11-05T15:20:53Z</time>
      </trkpt>
      <trkpt lat="43.42962" lon="6.08595">
        <ele>280.67904663086</ele>
        <time>2014-11-05T15:20:55Z</time>
      </trkpt>
      <trkpt lat="43.4296" lon="6.08588">
        <ele>280.57421875</ele>
        <time>2014-11-05T15:20:56Z</time>
      </trkpt>
      <trkpt lat="43.42958" lon="6.08581">
        <ele>280.53244018555</ele>
        <time>2014-11-05T15:20:57Z</time>
      </trkpt>
      <trkpt lat="43.42955" lon="6.08565">
        <ele>280.75610351562</ele>
        <time>2014-11-05T15:20:59Z</time>
      </trkpt>
      <trkpt lat="43.42953" lon="6.08558">
        <ele>280.84661865234</ele>
        <time>2014-11-05T15:21:00Z</time>
      </trkpt>
      <trkpt lat="43.42952" lon="6.08549">
        <ele>280.93008422852</ele>
        <time>2014-11-05T15:21:01Z</time>
      </trkpt>
      <trkpt lat="43.42949" lon="6.08542">
        <ele>280.95776367188</ele>
        <time>2014-11-05T15:21:02Z</time>
      </trkpt>
      <trkpt lat="43.42945" lon="6.08534">
        <ele>280.95623779297</ele>
        <time>2014-11-05T15:21:03Z</time>
      </trkpt>
      <trkpt lat="43.42941" lon="6.0852">
        <ele>280.95709228516</ele>
        <time>2014-11-05T15:21:05Z</time>
      </trkpt>
      <trkpt lat="43.42938" lon="6.08513">
        <ele>280.90985107422</ele>
        <time>2014-11-05T15:21:06Z</time>
      </trkpt>
      <trkpt lat="43.42934" lon="6.08507">
        <ele>280.79754638672</ele>
        <time>2014-11-05T15:21:07Z</time>
      </trkpt>
      <trkpt lat="43.42927" lon="6.08497">
        <ele>280.50875854492</ele>
        <time>2014-11-05T15:21:09Z</time>
      </trkpt>
      <trkpt lat="43.42923" lon="6.08493">
        <ele>280.35571289062</ele>
        <time>2014-11-05T15:21:10Z</time>
      </trkpt>
      <trkpt lat="43.42919" lon="6.08489">
        <ele>280.11804199219</ele>
        <time>2014-11-05T15:21:11Z</time>
      </trkpt>
      <trkpt lat="43.4291" lon="6.08481">
        <ele>280.80261230469</ele>
        <time>2014-11-05T15:21:13Z</time>
      </trkpt>
      <trkpt lat="43.42907" lon="6.08476">
        <ele>281.15368652344</ele>
        <time>2014-11-05T15:21:14Z</time>
      </trkpt>
      <trkpt lat="43.42904" lon="6.08471">
        <ele>281.52230834961</ele>
        <time>2014-11-05T15:21:15Z</time>
      </trkpt>
      <trkpt lat="43.42897" lon="6.08461">
        <ele>282.2109375</ele>
        <time>2014-11-05T15:21:17Z</time>
      </trkpt>
      <trkpt lat="43.42889" lon="6.0845">
        <ele>282.74655151367</ele>
        <time>2014-11-05T15:21:19Z</time>
      </trkpt>
      <trkpt lat="43.42882" lon="6.08438">
        <ele>283.1184387207</ele>
        <time>2014-11-05T15:21:21Z</time>
      </trkpt>
      <trkpt lat="43.42878" lon="6.08432">
        <ele>283.30944824219</ele>
        <time>2014-11-05T15:21:22Z</time>
      </trkpt>
      <trkpt lat="43.42874" lon="6.08426">
        <ele>283.45080566406</ele>
        <time>2014-11-05T15:21:23Z</time>
      </trkpt>
      <trkpt lat="43.42865" lon="6.08415">
        <ele>283.66110229492</ele>
        <time>2014-11-05T15:21:25Z</time>
      </trkpt>
      <trkpt lat="43.42859" lon="6.08401">
        <ele>283.60342407227</ele>
        <time>2014-11-05T15:21:27Z</time>
      </trkpt>
      <trkpt lat="43.42855" lon="6.08386">
        <ele>283.17395019531</ele>
        <time>2014-11-05T15:21:29Z</time>
      </trkpt>
      <trkpt lat="43.4285" lon="6.08369">
        <ele>282.64321899414</ele>
        <time>2014-11-05T15:21:31Z</time>
      </trkpt>
      <trkpt lat="43.42846" lon="6.08354">
        <ele>282.01528930664</ele>
        <time>2014-11-05T15:21:33Z</time>
      </trkpt>
      <trkpt lat="43.42843" lon="6.08339">
        <ele>281.28530883789</ele>
        <time>2014-11-05T15:21:35Z</time>
      </trkpt>
      <trkpt lat="43.42841" lon="6.08331">
        <ele>280.98425292969</ele>
        <time>2014-11-05T15:21:36Z</time>
      </trkpt>
      <trkpt lat="43.42839" lon="6.08323">
        <ele>280.90289306641</ele>
        <time>2014-11-05T15:21:37Z</time>
      </trkpt>
      <trkpt lat="43.42836" lon="6.08307">
        <ele>280.71792602539</ele>
        <time>2014-11-05T15:21:39Z</time>
      </trkpt>
      <trkpt lat="43.42835" lon="6.08299">
        <ele>280.61074829102</ele>
        <time>2014-11-05T15:21:40Z</time>
      </trkpt>
      <trkpt lat="43.42834" lon="6.0829">
        <ele>280.50631713867</ele>
        <time>2014-11-05T15:21:41Z</time>
      </trkpt>
      <trkpt lat="43.42831" lon="6.08276">
        <ele>280.42492675781</ele>
        <time>2014-11-05T15:21:43Z</time>
      </trkpt>
      <trkpt lat="43.42825" lon="6.08263">
        <ele>280.47610473633</ele>
        <time>2014-11-05T15:21:45Z</time>
      </trkpt>
      <trkpt lat="43.42816" lon="6.08254">
        <ele>280.53643798828</ele>
        <time>2014-11-05T15:21:47Z</time>
      </trkpt>
      <trkpt lat="43.42796" lon="6.08252">
        <ele>280.99713134766</ele>
        <time>2014-11-05T15:21:51Z</time>
      </trkpt>
      <trkpt lat="43.42789" lon="6.08242">
        <ele>280.95294189453</ele>
        <time>2014-11-05T15:21:53Z</time>
      </trkpt>
      <trkpt lat="43.42787" lon="6.0823">
        <ele>280.84225463867</ele>
        <time>2014-11-05T15:21:55Z</time>
      </trkpt>
      <trkpt lat="43.42784" lon="6.08218">
        <ele>280.72830200195</ele>
        <time>2014-11-05T15:21:57Z</time>
      </trkpt>
      <trkpt lat="43.42783" lon="6.08211">
        <ele>280.64419555664</ele>
        <time>2014-11-05T15:21:58Z</time>
      </trkpt>
      <trkpt lat="43.42783" lon="6.08196">
        <ele>280.42779541016</ele>
        <time>2014-11-05T15:22:00Z</time>
      </trkpt>
      <trkpt lat="43.42781" lon="6.08188">
        <ele>280.31607055664</ele>
        <time>2014-11-05T15:22:01Z</time>
      </trkpt>
      <trkpt lat="43.42776" lon="6.08172">
        <ele>280.087890625</ele>
        <time>2014-11-05T15:22:03Z</time>
      </trkpt>
      <trkpt lat="43.42772" lon="6.08166">
        <ele>280</ele>
        <time>2014-11-05T15:22:04Z</time>
      </trkpt>
      <trkpt lat="43.42767" lon="6.0816">
        <ele>280</ele>
        <time>2014-11-05T15:22:05Z</time>
      </trkpt>
      <trkpt lat="43.42762" lon="6.08154">
        <ele>280</ele>
        <time>2014-11-05T15:22:06Z</time>
      </trkpt>
      <trkpt lat="43.42758" lon="6.08147">
        <ele>280</ele>
        <time>2014-11-05T15:22:07Z</time>
      </trkpt>
      <trkpt lat="43.42754" lon="6.08141">
        <ele>280</ele>
        <time>2014-11-05T15:22:08Z</time>
      </trkpt>
      <trkpt lat="43.42749" lon="6.08138">
        <ele>280.0036315918</ele>
        <time>2014-11-05T15:22:09Z</time>
      </trkpt>
      <trkpt lat="43.42744" lon="6.08138">
        <ele>280.02124023438</ele>
        <time>2014-11-05T15:22:10Z</time>
      </trkpt>
      <trkpt lat="43.42739" lon="6.08137">
        <ele>280.03601074219</ele>
        <time>2014-11-05T15:22:11Z</time>
      </trkpt>
      <trkpt lat="43.42732" lon="6.08128">
        <ele>280.01473999023</ele>
        <time>2014-11-05T15:22:13Z</time>
      </trkpt>
      <trkpt lat="43.42729" lon="6.08122">
        <ele>279.98178100586</ele>
        <time>2014-11-05T15:22:14Z</time>
      </trkpt>
      <trkpt lat="43.42725" lon="6.08117">
        <ele>279.93841552734</ele>
        <time>2014-11-05T15:22:15Z</time>
      </trkpt>
      <trkpt lat="43.4272" lon="6.08112">
        <ele>279.89151000977</ele>
        <time>2014-11-05T15:22:16Z</time>
      </trkpt>
      <trkpt lat="43.42714" lon="6.08108">
        <ele>279.82815551758</ele>
        <time>2014-11-05T15:22:17Z</time>
      </trkpt>
      <trkpt lat="43.42703" lon="6.08101">
        <ele>279.68243408203</ele>
        <time>2014-11-05T15:22:19Z</time>
      </trkpt>
      <trkpt lat="43.42692" lon="6.08094">
        <ele>279.47842407227</ele>
        <time>2014-11-05T15:22:21Z</time>
      </trkpt>
      <trkpt lat="43.42682" lon="6.08084">
        <ele>279.19235229492</ele>
        <time>2014-11-05T15:22:23Z</time>
      </trkpt>
      <trkpt lat="43.42671" lon="6.08073">
        <ele>279.06826782227</ele>
        <time>2014-11-05T15:22:25Z</time>
      </trkpt>
      <trkpt lat="43.42659" lon="6.08068">
        <ele>278.63272094727</ele>
        <time>2014-11-05T15:22:27Z</time>
      </trkpt>
      <trkpt lat="43.42648" lon="6.08073">
        <ele>278.26513671875</ele>
        <time>2014-11-05T15:22:29Z</time>
      </trkpt>
      <trkpt lat="43.42645" lon="6.08078">
        <ele>278.28265380859</ele>
        <time>2014-11-05T15:22:30Z</time>
      </trkpt>
      <trkpt lat="43.4264" lon="6.08082">
        <ele>278.28048706055</ele>
        <time>2014-11-05T15:22:31Z</time>
      </trkpt>
      <trkpt lat="43.42629" lon="6.08081">
        <ele>277.98156738281</ele>
        <time>2014-11-05T15:22:33Z</time>
      </trkpt>
      <trkpt lat="43.42622" lon="6.08071">
        <ele>277.09335327148</ele>
        <time>2014-11-05T15:22:35Z</time>
      </trkpt>
      <trkpt lat="43.4262" lon="6.08064">
        <ele>276.55862426758</ele>
        <time>2014-11-05T15:22:36Z</time>
      </trkpt>
      <trkpt lat="43.42619" lon="6.08056">
        <ele>275.98226928711</ele>
        <time>2014-11-05T15:22:37Z</time>
      </trkpt>
      <trkpt lat="43.42619" lon="6.08047">
        <ele>275.39102172852</ele>
        <time>2014-11-05T15:22:38Z</time>
      </trkpt>
      <trkpt lat="43.42619" lon="6.08039">
        <ele>274.81848144531</ele>
        <time>2014-11-05T15:22:39Z</time>
      </trkpt>
      <trkpt lat="43.4262" lon="6.0803">
        <ele>274.28143310547</ele>
        <time>2014-11-05T15:22:40Z</time>
      </trkpt>
      <trkpt lat="43.4262" lon="6.08021">
        <ele>273.64294433594</ele>
        <time>2014-11-05T15:22:41Z</time>
      </trkpt>
      <trkpt lat="43.42619" lon="6.08003">
        <ele>272.28033447266</ele>
        <time>2014-11-05T15:22:43Z</time>
      </trkpt>
      <trkpt lat="43.42617" lon="6.07994">
        <ele>271.76779174805</ele>
        <time>2014-11-05T15:22:44Z</time>
      </trkpt>
      <trkpt lat="43.42614" lon="6.07986">
        <ele>271.32244873047</ele>
        <time>2014-11-05T15:22:45Z</time>
      </trkpt>
      <trkpt lat="43.42604" lon="6.07974">
        <ele>269.72915649414</ele>
        <time>2014-11-05T15:22:47Z</time>
      </trkpt>
      <trkpt lat="43.426" lon="6.07969">
        <ele>268.92956542969</ele>
        <time>2014-11-05T15:22:48Z</time>
      </trkpt>
      <trkpt lat="43.42587" lon="6.07952">
        <ele>266.40454101562</ele>
        <time>2014-11-05T15:22:51Z</time>
      </trkpt>
      <trkpt lat="43.42577" lon="6.07943">
        <ele>265.26208496094</ele>
        <time>2014-11-05T15:22:53Z</time>
      </trkpt>
      <trkpt lat="43.42566" lon="6.07933">
        <ele>264.39932250977</ele>
        <time>2014-11-05T15:22:55Z</time>
      </trkpt>
      <trkpt lat="43.42562" lon="6.07927">
        <ele>263.98056030273</ele>
        <time>2014-11-05T15:22:56Z</time>
      </trkpt>
      <trkpt lat="43.42559" lon="6.0792">
        <ele>263.6516418457</ele>
        <time>2014-11-05T15:22:57Z</time>
      </trkpt>
      <trkpt lat="43.42554" lon="6.07905">
        <ele>263.36297607422</ele>
        <time>2014-11-05T15:22:59Z</time>
      </trkpt>
      <trkpt lat="43.42545" lon="6.07897">
        <ele>262.93969726562</ele>
        <time>2014-11-05T15:23:01Z</time>
      </trkpt>
      <trkpt lat="43.42533" lon="6.07892">
        <ele>262.36175537109</ele>
        <time>2014-11-05T15:23:03Z</time>
      </trkpt>
      <trkpt lat="43.42521" lon="6.07893">
        <ele>261.65795898438</ele>
        <time>2014-11-05T15:23:05Z</time>
      </trkpt>
      <trkpt lat="43.42506" lon="6.07895">
        <ele>260.83462524414</ele>
        <time>2014-11-05T15:23:07Z</time>
      </trkpt>
      <trkpt lat="43.42499" lon="6.07896">
        <ele>260.48468017578</ele>
        <time>2014-11-05T15:23:08Z</time>
      </trkpt>
      <trkpt lat="43.42492" lon="6.07898">
        <ele>260.45037841797</ele>
        <time>2014-11-05T15:23:09Z</time>
      </trkpt>
      <trkpt lat="43.42485" lon="6.079">
        <ele>260.40573120117</ele>
        <time>2014-11-05T15:23:10Z</time>
      </trkpt>
      <trkpt lat="43.42479" lon="6.07902">
        <ele>260.35537719727</ele>
        <time>2014-11-05T15:23:11Z</time>
      </trkpt>
      <trkpt lat="43.42474" lon="6.07904">
        <ele>260.29815673828</ele>
        <time>2014-11-05T15:23:12Z</time>
      </trkpt>
      <trkpt lat="43.4247" lon="6.07908">
        <ele>260.19973754883</ele>
        <time>2014-11-05T15:23:13Z</time>
      </trkpt>
      <trkpt lat="43.42461" lon="6.07917">
        <ele>260.00405883789</ele>
        <time>2014-11-05T15:23:15Z</time>
      </trkpt>
      <trkpt lat="43.42457" lon="6.07918">
        <ele>260.02850341797</ele>
        <time>2014-11-05T15:23:16Z</time>
      </trkpt>
      <trkpt lat="43.42453" lon="6.07918">
        <ele>260.01812744141</ele>
        <time>2014-11-05T15:23:17Z</time>
      </trkpt>
      <trkpt lat="43.42443" lon="6.07916">
        <ele>260.009765625</ele>
        <time>2014-11-05T15:23:19Z</time>
      </trkpt>
      <trkpt lat="43.42433" lon="6.07914">
        <ele>260.06698608398</ele>
        <time>2014-11-05T15:23:21Z</time>
      </trkpt>
      <trkpt lat="43.42428" lon="6.07913">
        <ele>260.08642578125</ele>
        <time>2014-11-05T15:23:22Z</time>
      </trkpt>
      <trkpt lat="43.42423" lon="6.07913">
        <ele>260.09674072266</ele>
        <time>2014-11-05T15:23:23Z</time>
      </trkpt>
      <trkpt lat="43.42408" lon="6.07914">
        <ele>259.96231079102</ele>
        <time>2014-11-05T15:23:26Z</time>
      </trkpt>
      <trkpt lat="43.42403" lon="6.07915">
        <ele>259.86703491211</ele>
        <time>2014-11-05T15:23:27Z</time>
      </trkpt>
      <trkpt lat="43.42393" lon="6.0792">
        <ele>259.71276855469</ele>
        <time>2014-11-05T15:23:29Z</time>
      </trkpt>
      <trkpt lat="43.42384" lon="6.07928">
        <ele>259.61206054688</ele>
        <time>2014-11-05T15:23:31Z</time>
      </trkpt>
      <trkpt lat="43.42381" lon="6.07933">
        <ele>259.57086181641</ele>
        <time>2014-11-05T15:23:32Z</time>
      </trkpt>
      <trkpt lat="43.42377" lon="6.07938">
        <ele>259.52508544922</ele>
        <time>2014-11-05T15:23:33Z</time>
      </trkpt>
      <trkpt lat="43.4237" lon="6.07946">
        <ele>259.43811035156</ele>
        <time>2014-11-05T15:23:35Z</time>
      </trkpt>
      <trkpt lat="43.42366" lon="6.0795">
        <ele>259.39691162109</ele>
        <time>2014-11-05T15:23:36Z</time>
      </trkpt>
      <trkpt lat="43.42363" lon="6.07954">
        <ele>259.35113525391</ele>
        <time>2014-11-05T15:23:37Z</time>
      </trkpt>
      <trkpt lat="43.42352" lon="6.0797">
        <ele>259.21838378906</ele>
        <time>2014-11-05T15:23:41Z</time>
      </trkpt>
      <trkpt lat="43.42345" lon="6.07976">
        <ele>259.14514160156</ele>
        <time>2014-11-05T15:23:43Z</time>
      </trkpt>
      <trkpt lat="43.42342" lon="6.07984">
        <ele>259.10394287109</ele>
        <time>2014-11-05T15:23:45Z</time>
      </trkpt>
      <trkpt lat="43.4234" lon="6.0799">
        <ele>259.07647705078</ele>
        <time>2014-11-05T15:23:47Z</time>
      </trkpt>
      <trkpt lat="43.42339" lon="6.07993">
        <ele>259.06274414062</ele>
        <time>2014-11-05T15:23:49Z</time>
      </trkpt>
      <trkpt lat="43.42339" lon="6.07993">
        <ele>259.06732177734</ele>
        <time>2014-11-05T15:23:51Z</time>
      </trkpt>
      <trkpt lat="43.42339" lon="6.07993">
        <ele>259.06732177734</ele>
        <time>2014-11-05T15:23:52Z</time>
      </trkpt>
      <trkpt lat="43.42339" lon="6.07993">
        <ele>259.06732177734</ele>
        <time>2014-11-05T15:23:53Z</time>
      </trkpt>
      <trkpt lat="43.42339" lon="6.07992">
        <ele>259.07189941406</ele>
        <time>2014-11-05T15:23:55Z</time>
      </trkpt>
      <trkpt lat="43.42339" lon="6.07992">
        <ele>259.07189941406</ele>
        <time>2014-11-05T15:23:59Z</time>
      </trkpt>
      <trkpt lat="43.42339" lon="6.07992">
        <ele>259.06732177734</ele>
        <time>2014-11-05T15:24:01Z</time>
      </trkpt>
      <trkpt lat="43.42339" lon="6.07992">
        <ele>259.06732177734</ele>
        <time>2014-11-05T15:24:03Z</time>
      </trkpt>
      <trkpt lat="43.42339" lon="6.07992">
        <ele>259.07189941406</ele>
        <time>2014-11-05T15:24:05Z</time>
      </trkpt>
      <trkpt lat="43.42339" lon="6.07992">
        <ele>259.06732177734</ele>
        <time>2014-11-05T15:24:11Z</time>
      </trkpt>
      <trkpt lat="43.42339" lon="6.07992">
        <ele>259.06732177734</ele>
        <time>2014-11-05T15:24:13Z</time>
      </trkpt>
      <trkpt lat="43.42339" lon="6.07992">
        <ele>259.06732177734</ele>
        <time>2014-11-05T15:24:17Z</time>
      </trkpt>
      <trkpt lat="43.42339" lon="6.07992">
        <ele>259.06732177734</ele>
        <time>2014-11-05T15:24:21Z</time>
      </trkpt>
      <trkpt lat="43.42339" lon="6.07992">
        <ele>259.06732177734</ele>
        <time>2014-11-05T15:24:25Z</time>
      </trkpt>
      <trkpt lat="43.42339" lon="6.07993">
        <ele>259.06732177734</ele>
        <time>2014-11-05T15:24:27Z</time>
      </trkpt>
      <trkpt lat="43.42339" lon="6.07993">
        <ele>259.06732177734</ele>
        <time>2014-11-05T15:24:29Z</time>
      </trkpt>
      <trkpt lat="43.42339" lon="6.07993">
        <ele>259.06732177734</ele>
        <time>2014-11-05T15:24:31Z</time>
      </trkpt>
      <trkpt lat="43.42339" lon="6.07993">
        <ele>259.06732177734</ele>
        <time>2014-11-05T15:24:33Z</time>
      </trkpt>
      <trkpt lat="43.42339" lon="6.07993">
        <ele>259.06732177734</ele>
        <time>2014-11-05T15:24:37Z</time>
      </trkpt>
      <trkpt lat="43.42339" lon="6.07993">
        <ele>259.07189941406</ele>
        <time>2014-11-05T15:24:39Z</time>
      </trkpt>
      <trkpt lat="43.42339" lon="6.07993">
        <ele>259.07189941406</ele>
        <time>2014-11-05T15:24:41Z</time>
      </trkpt>
      <trkpt lat="43.42339" lon="6.07993">
        <ele>259.07189941406</ele>
        <time>2014-11-05T15:24:43Z</time>
      </trkpt>
      <trkpt lat="43.42339" lon="6.07993">
        <ele>259.07189941406</ele>
        <time>2014-11-05T15:24:49Z</time>
      </trkpt>
      <trkpt lat="43.42339" lon="6.07993">
        <ele>259.07189941406</ele>
        <time>2014-11-05T15:24:53Z</time>
      </trkpt>
      <trkpt lat="43.4234" lon="6.07993">
        <ele>259.07647705078</ele>
        <time>2014-11-05T15:24:55Z</time>
      </trkpt>
      <trkpt lat="43.4234" lon="6.07993">
        <ele>259.07647705078</ele>
        <time>2014-11-05T15:24:57Z</time>
      </trkpt>
      <trkpt lat="43.42339" lon="6.07993">
        <ele>259.07189941406</ele>
        <time>2014-11-05T15:25:01Z</time>
      </trkpt>
      <trkpt lat="43.42339" lon="6.07994">
        <ele>259.06732177734</ele>
        <time>2014-11-05T15:25:05Z</time>
      </trkpt>
      <trkpt lat="43.42339" lon="6.07994">
        <ele>259.06732177734</ele>
        <time>2014-11-05T15:25:07Z</time>
      </trkpt>
      <trkpt lat="43.42339" lon="6.07994">
        <ele>259.06732177734</ele>
        <time>2014-11-05T15:25:09Z</time>
      </trkpt>
      <trkpt lat="43.42339" lon="6.07994">
        <ele>259.06732177734</ele>
        <time>2014-11-05T15:25:11Z</time>
      </trkpt>
      <trkpt lat="43.42338" lon="6.07995">
        <ele>259.05816650391</ele>
        <time>2014-11-05T15:25:13Z</time>
      </trkpt>
      <trkpt lat="43.42337" lon="6.07995">
        <ele>259.04901123047</ele>
        <time>2014-11-05T15:25:14Z</time>
      </trkpt>
      <trkpt lat="43.42336" lon="6.07997">
        <ele>259.03070068359</ele>
        <time>2014-11-05T15:25:15Z</time>
      </trkpt>
      <trkpt lat="43.42332" lon="6.07999">
        <ele>258.89526367188</ele>
        <time>2014-11-05T15:25:17Z</time>
      </trkpt>
      <trkpt lat="43.4233" lon="6.07998">
        <ele>258.705078125</ele>
        <time>2014-11-05T15:25:18Z</time>
      </trkpt>
      <trkpt lat="43.42327" lon="6.07997">
        <ele>258.51718139648</ele>
        <time>2014-11-05T15:25:19Z</time>
      </trkpt>
      <trkpt lat="43.42322" lon="6.07994">
        <ele>258.08877563477</ele>
        <time>2014-11-05T15:25:21Z</time>
      </trkpt>
      <trkpt lat="43.42319" lon="6.07992">
        <ele>257.88641357422</ele>
        <time>2014-11-05T15:25:22Z</time>
      </trkpt>
      <trkpt lat="43.42316" lon="6.07988">
        <ele>257.66845703125</ele>
        <time>2014-11-05T15:25:23Z</time>
      </trkpt>
      <trkpt lat="43.42313" lon="6.07984">
        <ele>257.43182373047</ele>
        <time>2014-11-05T15:25:24Z</time>
      </trkpt>
      <trkpt lat="43.42309" lon="6.0798">
        <ele>257.15512084961</ele>
        <time>2014-11-05T15:25:25Z</time>
      </trkpt>
      <trkpt lat="43.42305" lon="6.07975">
        <ele>256.9521484375</ele>
        <time>2014-11-05T15:25:26Z</time>
      </trkpt>
      <trkpt lat="43.42302" lon="6.07971">
        <ele>256.78164672852</ele>
        <time>2014-11-05T15:25:27Z</time>
      </trkpt>
      <trkpt lat="43.42299" lon="6.07968">
        <ele>256.56185913086</ele>
        <time>2014-11-05T15:25:28Z</time>
      </trkpt>
      <trkpt lat="43.42295" lon="6.07965">
        <ele>256.39346313477</ele>
        <time>2014-11-05T15:25:29Z</time>
      </trkpt>
      <trkpt lat="43.4229" lon="6.07963">
        <ele>256.04193115234</ele>
        <time>2014-11-05T15:25:31Z</time>
      </trkpt>
      <trkpt lat="43.42284" lon="6.07962">
        <ele>255.67095947266</ele>
        <time>2014-11-05T15:25:33Z</time>
      </trkpt>
      <trkpt lat="43.42275" lon="6.07964">
        <ele>255.02610778809</ele>
        <time>2014-11-05T15:25:35Z</time>
      </trkpt>
      <trkpt lat="43.42266" lon="6.07968">
        <ele>254.26649475098</ele>
        <time>2014-11-05T15:25:37Z</time>
      </trkpt>
      <trkpt lat="43.42262" lon="6.07968">
        <ele>253.94616699219</ele>
        <time>2014-11-05T15:25:38Z</time>
      </trkpt>
      <trkpt lat="43.42257" lon="6.07968">
        <ele>253.66345214844</ele>
        <time>2014-11-05T15:25:39Z</time>
      </trkpt>
      <trkpt lat="43.42254" lon="6.07966">
        <ele>253.53068542481</ele>
        <time>2014-11-05T15:25:40Z</time>
      </trkpt>
      <trkpt lat="43.42248" lon="6.07953">
        <ele>253.55058288574</ele>
        <time>2014-11-05T15:25:43Z</time>
      </trkpt>
      <trkpt lat="43.42247" lon="6.07945">
        <ele>253.80868530273</ele>
        <time>2014-11-05T15:25:45Z</time>
      </trkpt>
      <trkpt lat="43.42247" lon="6.07942">
        <ele>253.92083740234</ele>
        <time>2014-11-05T15:25:46Z</time>
      </trkpt>
      <trkpt lat="43.42247" lon="6.07938">
        <ele>254</ele>
        <time>2014-11-05T15:25:47Z</time>
      </trkpt>
      <trkpt lat="43.42245" lon="6.0793">
        <ele>254.16534423828</ele>
        <time>2014-11-05T15:25:49Z</time>
      </trkpt>
      <trkpt lat="43.42244" lon="6.07922">
        <ele>254.42240905762</ele>
        <time>2014-11-05T15:25:51Z</time>
      </trkpt>
      <trkpt lat="43.42243" lon="6.07913">
        <ele>254.47090148926</ele>
        <time>2014-11-05T15:25:53Z</time>
      </trkpt>
      <trkpt lat="43.42242" lon="6.07903">
        <ele>254.17793273926</ele>
        <time>2014-11-05T15:25:55Z</time>
      </trkpt>
      <trkpt lat="43.42239" lon="6.07896">
        <ele>253.83003234863</ele>
        <time>2014-11-05T15:25:57Z</time>
      </trkpt>
      <trkpt lat="43.42233" lon="6.07892">
        <ele>253.36540222168</ele>
        <time>2014-11-05T15:25:59Z</time>
      </trkpt>
      <trkpt lat="43.42231" lon="6.07892">
        <ele>253.23837280273</ele>
        <time>2014-11-05T15:26:00Z</time>
      </trkpt>
      <trkpt lat="43.42229" lon="6.07892">
        <ele>253.16398620606</ele>
        <time>2014-11-05T15:26:01Z</time>
      </trkpt>
      <trkpt lat="43.42228" lon="6.07891">
        <ele>253.07815551758</ele>
        <time>2014-11-05T15:26:02Z</time>
      </trkpt>
      <trkpt lat="43.42226" lon="6.07891">
        <ele>252.95684814453</ele>
        <time>2014-11-05T15:26:03Z</time>
      </trkpt>
      <trkpt lat="43.42223" lon="6.07889">
        <ele>252.72338867188</ele>
        <time>2014-11-05T15:26:05Z</time>
      </trkpt>
      <trkpt lat="43.42219" lon="6.07887">
        <ele>252.412109375</ele>
        <time>2014-11-05T15:26:07Z</time>
      </trkpt>
      <trkpt lat="43.42213" lon="6.07886">
        <ele>252.01271057129</ele>
        <time>2014-11-05T15:26:09Z</time>
      </trkpt>
      <trkpt lat="43.42206" lon="6.07883">
        <ele>251.5446472168</ele>
        <time>2014-11-05T15:26:11Z</time>
      </trkpt>
      <trkpt lat="43.42199" lon="6.07881">
        <ele>251.05484008789</ele>
        <time>2014-11-05T15:26:13Z</time>
      </trkpt>
      <trkpt lat="43.42195" lon="6.0788">
        <ele>250.83511352539</ele>
        <time>2014-11-05T15:26:14Z</time>
      </trkpt>
      <trkpt lat="43.42191" lon="6.0788">
        <ele>250.59135437012</ele>
        <time>2014-11-05T15:26:15Z</time>
      </trkpt>
      <trkpt lat="43.42184" lon="6.0788">
        <ele>250.18966674805</ele>
        <time>2014-11-05T15:26:17Z</time>
      </trkpt>
      <trkpt lat="43.42178" lon="6.0788">
        <ele>249.78454589844</ele>
        <time>2014-11-05T15:26:19Z</time>
      </trkpt>
      <trkpt lat="43.42171" lon="6.07881">
        <ele>249.38171386719</ele>
        <time>2014-11-05T15:26:21Z</time>
      </trkpt>
      <trkpt lat="43.42165" lon="6.07881">
        <ele>249.10192871094</ele>
        <time>2014-11-05T15:26:23Z</time>
      </trkpt>
      <trkpt lat="43.4216" lon="6.07881">
        <ele>248.93898010254</ele>
        <time>2014-11-05T15:26:25Z</time>
      </trkpt>
      <trkpt lat="43.42155" lon="6.07881">
        <ele>248.78565979004</ele>
        <time>2014-11-05T15:26:27Z</time>
      </trkpt>
      <trkpt lat="43.4215" lon="6.07881">
        <ele>248.63612365723</ele>
        <time>2014-11-05T15:26:29Z</time>
      </trkpt>
      <trkpt lat="43.42145" lon="6.07882">
        <ele>248.49353027344</ele>
        <time>2014-11-05T15:26:31Z</time>
      </trkpt>
      <trkpt lat="43.42141" lon="6.07883">
        <ele>248.37594604492</ele>
        <time>2014-11-05T15:26:33Z</time>
      </trkpt>
      <trkpt lat="43.42135" lon="6.07886">
        <ele>248.25340270996</ele>
        <time>2014-11-05T15:26:35Z</time>
      </trkpt>
      <trkpt lat="43.42129" lon="6.07887">
        <ele>248.09243774414</ele>
        <time>2014-11-05T15:26:37Z</time>
      </trkpt>
      <trkpt lat="43.42123" lon="6.07886">
        <ele>247.89668273926</ele>
        <time>2014-11-05T15:26:39Z</time>
      </trkpt>
      <trkpt lat="43.4212" lon="6.07886">
        <ele>247.7833404541</ele>
        <time>2014-11-05T15:26:40Z</time>
      </trkpt>
      <trkpt lat="43.42116" lon="6.07885">
        <ele>247.64625549316</ele>
        <time>2014-11-05T15:26:41Z</time>
      </trkpt>
      <trkpt lat="43.42109" lon="6.07883">
        <ele>247.39561462402</ele>
        <time>2014-11-05T15:26:43Z</time>
      </trkpt>
      <trkpt lat="43.42106" lon="6.07881">
        <ele>247.27589416504</ele>
        <time>2014-11-05T15:26:44Z</time>
      </trkpt>
      <trkpt lat="43.42104" lon="6.07878">
        <ele>247.17193603516</ele>
        <time>2014-11-05T15:26:45Z</time>
      </trkpt>
      <trkpt lat="43.42102" lon="6.07872">
        <ele>247.01327514648</ele>
        <time>2014-11-05T15:26:47Z</time>
      </trkpt>
      <trkpt lat="43.421" lon="6.07868">
        <ele>246.90409851074</ele>
        <time>2014-11-05T15:26:49Z</time>
      </trkpt>
      <trkpt lat="43.42099" lon="6.07864">
        <ele>246.81721496582</ele>
        <time>2014-11-05T15:26:51Z</time>
      </trkpt>
      <trkpt lat="43.42097" lon="6.0786">
        <ele>246.70159912109</ele>
        <time>2014-11-05T15:26:53Z</time>
      </trkpt>
      <trkpt lat="43.42096" lon="6.07855">
        <ele>246.58499145508</ele>
        <time>2014-11-05T15:26:55Z</time>
      </trkpt>
      <trkpt lat="43.42096" lon="6.07848">
        <ele>246.50505065918</ele>
        <time>2014-11-05T15:26:57Z</time>
      </trkpt>
      <trkpt lat="43.42097" lon="6.07841">
        <ele>246.44784545898</ele>
        <time>2014-11-05T15:26:59Z</time>
      </trkpt>
      <trkpt lat="43.421" lon="6.07827">
        <ele>246.22891235352</ele>
        <time>2014-11-05T15:27:02Z</time>
      </trkpt>
      <trkpt lat="43.42102" lon="6.07822">
        <ele>246.10179138184</ele>
        <time>2014-11-05T15:27:03Z</time>
      </trkpt>
      <trkpt lat="43.42104" lon="6.07815">
        <ele>245.95257568359</ele>
        <time>2014-11-05T15:27:04Z</time>
      </trkpt>
      <trkpt lat="43.42105" lon="6.07808">
        <ele>245.77268981934</ele>
        <time>2014-11-05T15:27:05Z</time>
      </trkpt>
      <trkpt lat="43.4211" lon="6.07794">
        <ele>245.38078308106</ele>
        <time>2014-11-05T15:27:07Z</time>
      </trkpt>
      <trkpt lat="43.42112" lon="6.07786">
        <ele>245.15896606445</ele>
        <time>2014-11-05T15:27:08Z</time>
      </trkpt>
      <trkpt lat="43.42114" lon="6.07778">
        <ele>244.91754150391</ele>
        <time>2014-11-05T15:27:09Z</time>
      </trkpt>
      <trkpt lat="43.42118" lon="6.07761">
        <ele>244.37857055664</ele>
        <time>2014-11-05T15:27:11Z</time>
      </trkpt>
      <trkpt lat="43.42126" lon="6.07734">
        <ele>243.43157958984</ele>
        <time>2014-11-05T15:27:14Z</time>
      </trkpt>
      <trkpt lat="43.42128" lon="6.07725">
        <ele>243.07572937012</ele>
        <time>2014-11-05T15:27:15Z</time>
      </trkpt>
      <trkpt lat="43.42131" lon="6.07716">
        <ele>242.72889709473</ele>
        <time>2014-11-05T15:27:16Z</time>
      </trkpt>
      <trkpt lat="43.42135" lon="6.07706">
        <ele>242.30491638184</ele>
        <time>2014-11-05T15:27:17Z</time>
      </trkpt>
      <trkpt lat="43.42141" lon="6.07686">
        <ele>241.42794799805</ele>
        <time>2014-11-05T15:27:19Z</time>
      </trkpt>
      <trkpt lat="43.42144" lon="6.07676">
        <ele>240.9559173584</ele>
        <time>2014-11-05T15:27:20Z</time>
      </trkpt>
      <trkpt lat="43.42152" lon="6.07646">
        <ele>240.05569458008</ele>
        <time>2014-11-05T15:27:23Z</time>
      </trkpt>
      <trkpt lat="43.42158" lon="6.07626">
        <ele>239.67588806152</ele>
        <time>2014-11-05T15:27:25Z</time>
      </trkpt>
      <trkpt lat="43.4216" lon="6.07616">
        <ele>239.50210571289</ele>
        <time>2014-11-05T15:27:26Z</time>
      </trkpt>
      <trkpt lat="43.42162" lon="6.07606">
        <ele>239.33746337891</ele>
        <time>2014-11-05T15:27:27Z</time>
      </trkpt>
      <trkpt lat="43.42166" lon="6.07586">
        <ele>239.04376220703</ele>
        <time>2014-11-05T15:27:29Z</time>
      </trkpt>
      <trkpt lat="43.4217" lon="6.07568">
        <ele>238.94229125977</ele>
        <time>2014-11-05T15:27:31Z</time>
      </trkpt>
      <trkpt lat="43.42173" lon="6.0755">
        <ele>238.83200073242</ele>
        <time>2014-11-05T15:27:33Z</time>
      </trkpt>
      <trkpt lat="43.42175" lon="6.07534">
        <ele>238.69299316406</ele>
        <time>2014-11-05T15:27:35Z</time>
      </trkpt>
      <trkpt lat="43.42179" lon="6.07517">
        <ele>238.55180358887</ele>
        <time>2014-11-05T15:27:37Z</time>
      </trkpt>
      <trkpt lat="43.42184" lon="6.07492">
        <ele>238.4267578125</ele>
        <time>2014-11-05T15:27:40Z</time>
      </trkpt>
      <trkpt lat="43.42187" lon="6.07482">
        <ele>238.48168945312</ele>
        <time>2014-11-05T15:27:41Z</time>
      </trkpt>
      <trkpt lat="43.42191" lon="6.07464">
        <ele>238.58239746094</ele>
        <time>2014-11-05T15:27:43Z</time>
      </trkpt>
      <trkpt lat="43.42193" lon="6.07455">
        <ele>238.62817382812</ele>
        <time>2014-11-05T15:27:44Z</time>
      </trkpt>
      <trkpt lat="43.42194" lon="6.07446">
        <ele>238.66479492188</ele>
        <time>2014-11-05T15:27:45Z</time>
      </trkpt>
      <trkpt lat="43.42196" lon="6.07438">
        <ele>238.69226074219</ele>
        <time>2014-11-05T15:27:46Z</time>
      </trkpt>
      <trkpt lat="43.42197" lon="6.07429">
        <ele>238.7197265625</ele>
        <time>2014-11-05T15:27:47Z</time>
      </trkpt>
      <trkpt lat="43.42199" lon="6.07411">
        <ele>238.73091125488</ele>
        <time>2014-11-05T15:27:49Z</time>
      </trkpt>
      <trkpt lat="43.42202" lon="6.07393">
        <ele>238.67535400391</ele>
        <time>2014-11-05T15:27:51Z</time>
      </trkpt>
      <trkpt lat="43.42204" lon="6.07377">
        <ele>238.63984680176</ele>
        <time>2014-11-05T15:27:53Z</time>
      </trkpt>
      <trkpt lat="43.42207" lon="6.07346">
        <ele>238.544921875</ele>
        <time>2014-11-05T15:27:57Z</time>
      </trkpt>
      <trkpt lat="43.42209" lon="6.07333">
        <ele>238.52256774902</ele>
        <time>2014-11-05T15:27:59Z</time>
      </trkpt>
      <trkpt lat="43.4221" lon="6.07326">
        <ele>238.58992004394</ele>
        <time>2014-11-05T15:28:00Z</time>
      </trkpt>
      <trkpt lat="43.42211" lon="6.07319">
        <ele>238.67980957031</ele>
        <time>2014-11-05T15:28:01Z</time>
      </trkpt>
      <trkpt lat="43.42213" lon="6.07303">
        <ele>238.87593078613</ele>
        <time>2014-11-05T15:28:03Z</time>
      </trkpt>
      <trkpt lat="43.42215" lon="6.07286">
        <ele>239.08648681641</ele>
        <time>2014-11-05T15:28:05Z</time>
      </trkpt>
      <trkpt lat="43.42218" lon="6.07268">
        <ele>239.33174133301</ele>
        <time>2014-11-05T15:28:07Z</time>
      </trkpt>
      <trkpt lat="43.42223" lon="6.07231">
        <ele>240.09762573242</ele>
        <time>2014-11-05T15:28:11Z</time>
      </trkpt>
      <trkpt lat="43.42226" lon="6.07212">
        <ele>240.65315246582</ele>
        <time>2014-11-05T15:28:13Z</time>
      </trkpt>
      <trkpt lat="43.42229" lon="6.07192">
        <ele>241.21929931641</ele>
        <time>2014-11-05T15:28:15Z</time>
      </trkpt>
      <trkpt lat="43.42232" lon="6.07172">
        <ele>241.78569030762</ele>
        <time>2014-11-05T15:28:17Z</time>
      </trkpt>
      <trkpt lat="43.42234" lon="6.07154">
        <ele>242.34317016602</ele>
        <time>2014-11-05T15:28:19Z</time>
      </trkpt>
      <trkpt lat="43.42237" lon="6.07137">
        <ele>242.88415527344</ele>
        <time>2014-11-05T15:28:21Z</time>
      </trkpt>
      <trkpt lat="43.42239" lon="6.07121">
        <ele>243.32876586914</ele>
        <time>2014-11-05T15:28:23Z</time>
      </trkpt>
      <trkpt lat="43.42241" lon="6.07108">
        <ele>243.75569152832</ele>
        <time>2014-11-05T15:28:25Z</time>
      </trkpt>
      <trkpt lat="43.42241" lon="6.07097">
        <ele>244.0725402832</ele>
        <time>2014-11-05T15:28:27Z</time>
      </trkpt>
      <trkpt lat="43.42241" lon="6.07087">
        <ele>244.29054260254</ele>
        <time>2014-11-05T15:28:29Z</time>
      </trkpt>
      <trkpt lat="43.42241" lon="6.0708">
        <ele>244.38671875</ele>
        <time>2014-11-05T15:28:31Z</time>
      </trkpt>
      <trkpt lat="43.42239" lon="6.07076">
        <ele>244.35696411133</ele>
        <time>2014-11-05T15:28:33Z</time>
      </trkpt>
      <trkpt lat="43.42236" lon="6.07072">
        <ele>244.25053405762</ele>
        <time>2014-11-05T15:28:35Z</time>
      </trkpt>
      <trkpt lat="43.42234" lon="6.07071">
        <ele>244.16355895996</ele>
        <time>2014-11-05T15:28:36Z</time>
      </trkpt>
      <trkpt lat="43.4223" lon="6.0707">
        <ele>243.90034484863</ele>
        <time>2014-11-05T15:28:39Z</time>
      </trkpt>
      <trkpt lat="43.42227" lon="6.07069">
        <ele>243.69664001465</ele>
        <time>2014-11-05T15:28:41Z</time>
      </trkpt>
      <trkpt lat="43.42225" lon="6.07069">
        <ele>243.57418823242</ele>
        <time>2014-11-05T15:28:43Z</time>
      </trkpt>
      <trkpt lat="43.42223" lon="6.07068">
        <ele>243.45631408691</ele>
        <time>2014-11-05T15:28:45Z</time>
      </trkpt>
      <trkpt lat="43.42219" lon="6.07068">
        <ele>243.12901306152</ele>
        <time>2014-11-05T15:28:47Z</time>
      </trkpt>
      <trkpt lat="43.42217" lon="6.07067">
        <ele>243.0065612793</ele>
        <time>2014-11-05T15:28:49Z</time>
      </trkpt>
      <trkpt lat="43.42215" lon="6.07066">
        <ele>242.91271972656</ele>
        <time>2014-11-05T15:28:50Z</time>
      </trkpt>
      <trkpt lat="43.42214" lon="6.07066">
        <ele>242.81887817383</ele>
        <time>2014-11-05T15:28:51Z</time>
      </trkpt>
      <trkpt lat="43.42209" lon="6.07064">
        <ele>242.51904296875</ele>
        <time>2014-11-05T15:28:53Z</time>
      </trkpt>
      <trkpt lat="43.422" lon="6.07063">
        <ele>241.86787414551</ele>
        <time>2014-11-05T15:28:55Z</time>
      </trkpt>
      <trkpt lat="43.42196" lon="6.07063">
        <ele>241.62640380859</ele>
        <time>2014-11-05T15:28:56Z</time>
      </trkpt>
      <trkpt lat="43.42192" lon="6.07064">
        <ele>241.27049255371</ele>
        <time>2014-11-05T15:28:57Z</time>
      </trkpt>
      <trkpt lat="43.42186" lon="6.07063">
        <ele>240.88368225098</ele>
        <time>2014-11-05T15:28:58Z</time>
      </trkpt>
      <trkpt lat="43.42181" lon="6.07062">
        <ele>240.56095886231</ele>
        <time>2014-11-05T15:28:59Z</time>
      </trkpt>
      <trkpt lat="43.42174" lon="6.07064">
        <ele>240.00134277344</ele>
        <time>2014-11-05T15:29:01Z</time>
      </trkpt>
      <trkpt lat="43.42168" lon="6.07067">
        <ele>239.52297973633</ele>
        <time>2014-11-05T15:29:03Z</time>
      </trkpt>
      <trkpt lat="43.42165" lon="6.0707">
        <ele>239.25477600098</ele>
        <time>2014-11-05T15:29:05Z</time>
      </trkpt>
      <trkpt lat="43.42163" lon="6.07072">
        <ele>239.16780090332</ele>
        <time>2014-11-05T15:29:06Z</time>
      </trkpt>
      <trkpt lat="43.42163" lon="6.07073">
        <ele>239.1014251709</ele>
        <time>2014-11-05T15:29:07Z</time>
      </trkpt>
      <trkpt lat="43.42162" lon="6.07074">
        <ele>239.07281494141</ele>
        <time>2014-11-05T15:29:09Z</time>
      </trkpt>
      <trkpt lat="43.42162" lon="6.07074">
        <ele>239.06938171387</ele>
        <time>2014-11-05T15:29:10Z</time>
      </trkpt>
      <trkpt lat="43.42162" lon="6.07074">
        <ele>239.06480407715</ele>
        <time>2014-11-05T15:29:11Z</time>
      </trkpt>
      <trkpt lat="43.42162" lon="6.07074">
        <ele>239.06480407715</ele>
        <time>2014-11-05T15:29:13Z</time>
      </trkpt>
      <trkpt lat="43.42162" lon="6.07074">
        <ele>239.02932739258</ele>
        <time>2014-11-05T15:29:17Z</time>
      </trkpt>
      <trkpt lat="43.42162" lon="6.07075">
        <ele>239.0224609375</ele>
        <time>2014-11-05T15:29:21Z</time>
      </trkpt>
      <trkpt lat="43.42162" lon="6.07075">
        <ele>239.02131652832</ele>
        <time>2014-11-05T15:29:23Z</time>
      </trkpt>
      <trkpt lat="43.42162" lon="6.07075">
        <ele>239.03619384766</ele>
        <time>2014-11-05T15:29:25Z</time>
      </trkpt>
      <trkpt lat="43.42162" lon="6.07075">
        <ele>239.03504943848</ele>
        <time>2014-11-05T15:29:27Z</time>
      </trkpt>
      <trkpt lat="43.42162" lon="6.07075">
        <ele>239.01902770996</ele>
        <time>2014-11-05T15:29:29Z</time>
      </trkpt>
      <trkpt lat="43.42162" lon="6.07077">
        <ele>238.98812866211</ele>
        <time>2014-11-05T15:29:31Z</time>
      </trkpt>
      <trkpt lat="43.42163" lon="6.07081">
        <ele>238.93891906738</ele>
        <time>2014-11-05T15:29:33Z</time>
      </trkpt>
      <trkpt lat="43.42164" lon="6.07087">
        <ele>238.85020446777</ele>
        <time>2014-11-05T15:29:35Z</time>
      </trkpt>
      <trkpt lat="43.42165" lon="6.07091">
        <ele>238.83003234863</ele>
        <time>2014-11-05T15:29:36Z</time>
      </trkpt>
      <trkpt lat="43.42165" lon="6.07097">
        <ele>238.78804016113</ele>
        <time>2014-11-05T15:29:37Z</time>
      </trkpt>
      <trkpt lat="43.42168" lon="6.07108">
        <ele>238.79635620117</ele>
        <time>2014-11-05T15:29:39Z</time>
      </trkpt>
      <trkpt lat="43.42169" lon="6.07114">
        <ele>238.77987670898</ele>
        <time>2014-11-05T15:29:40Z</time>
      </trkpt>
      <trkpt lat="43.4217" lon="6.0712">
        <ele>238.74975585938</ele>
        <time>2014-11-05T15:29:41Z</time>
      </trkpt>
      <trkpt lat="43.42171" lon="6.07132">
        <ele>238.72863769531</ele>
        <time>2014-11-05T15:29:43Z</time>
      </trkpt>
      <trkpt lat="43.42176" lon="6.07143">
        <ele>238.85488891602</ele>
        <time>2014-11-05T15:29:45Z</time>
      </trkpt>
      <trkpt lat="43.42177" lon="6.07154">
        <ele>238.79888916016</ele>
        <time>2014-11-05T15:29:47Z</time>
      </trkpt>
      <trkpt lat="43.42177" lon="6.07165">
        <ele>238.64935302734</ele>
        <time>2014-11-05T15:29:49Z</time>
      </trkpt>
      <trkpt lat="43.42176" lon="6.07176">
        <ele>238.44294738769</ele>
        <time>2014-11-05T15:29:51Z</time>
      </trkpt>
      <trkpt lat="43.42175" lon="6.07186">
        <ele>238.21311950684</ele>
        <time>2014-11-05T15:29:53Z</time>
      </trkpt>
      <trkpt lat="43.42174" lon="6.07191">
        <ele>238.10305786133</ele>
        <time>2014-11-05T15:29:54Z</time>
      </trkpt>
      <trkpt lat="43.42173" lon="6.07197">
        <ele>238.01165771484</ele>
        <time>2014-11-05T15:29:55Z</time>
      </trkpt>
      <trkpt lat="43.42173" lon="6.07207">
        <ele>237.83493041992</ele>
        <time>2014-11-05T15:29:57Z</time>
      </trkpt>
      <trkpt lat="43.42172" lon="6.07212">
        <ele>237.75262451172</ele>
        <time>2014-11-05T15:29:58Z</time>
      </trkpt>
      <trkpt lat="43.42171" lon="6.07218">
        <ele>237.59664916992</ele>
        <time>2014-11-05T15:29:59Z</time>
      </trkpt>
      <trkpt lat="43.42169" lon="6.07231">
        <ele>237.33609008789</ele>
        <time>2014-11-05T15:30:01Z</time>
      </trkpt>
      <trkpt lat="43.42166" lon="6.07246">
        <ele>237.02125549316</ele>
        <time>2014-11-05T15:30:03Z</time>
      </trkpt>
      <trkpt lat="43.42163" lon="6.07262">
        <ele>236.85762023926</ele>
        <time>2014-11-05T15:30:05Z</time>
      </trkpt>
      <trkpt lat="43.42162" lon="6.0727">
        <ele>236.80047607422</ele>
        <time>2014-11-05T15:30:06Z</time>
      </trkpt>
      <trkpt lat="43.4216" lon="6.07279">
        <ele>236.73770141602</ele>
        <time>2014-11-05T15:30:07Z</time>
      </trkpt>
      <trkpt lat="43.42157" lon="6.07298">
        <ele>236.66928100586</ele>
        <time>2014-11-05T15:30:09Z</time>
      </trkpt>
      <trkpt lat="43.42155" lon="6.07308">
        <ele>236.64811706543</ele>
        <time>2014-11-05T15:30:10Z</time>
      </trkpt>
      <trkpt lat="43.42151" lon="6.07338">
        <ele>236.68225097656</ele>
        <time>2014-11-05T15:30:13Z</time>
      </trkpt>
      <trkpt lat="43.42148" lon="6.07358">
        <ele>236.9133605957</ele>
        <time>2014-11-05T15:30:15Z</time>
      </trkpt>
      <trkpt lat="43.42146" lon="6.07378">
        <ele>237.17660522461</ele>
        <time>2014-11-05T15:30:17Z</time>
      </trkpt>
      <trkpt lat="43.42143" lon="6.074">
        <ele>237.44976806641</ele>
        <time>2014-11-05T15:30:19Z</time>
      </trkpt>
      <trkpt lat="43.4214" lon="6.0742">
        <ele>237.70738220215</ele>
        <time>2014-11-05T15:30:21Z</time>
      </trkpt>
      <trkpt lat="43.42136" lon="6.07441">
        <ele>237.84857177734</ele>
        <time>2014-11-05T15:30:23Z</time>
      </trkpt>
      <trkpt lat="43.42134" lon="6.07451">
        <ele>237.93084716797</ele>
        <time>2014-11-05T15:30:24Z</time>
      </trkpt>
      <trkpt lat="43.42132" lon="6.07461">
        <ele>238.02653503418</ele>
        <time>2014-11-05T15:30:25Z</time>
      </trkpt>
      <trkpt lat="43.4213" lon="6.0747">
        <ele>238.12979125977</ele>
        <time>2014-11-05T15:30:26Z</time>
      </trkpt>
      <trkpt lat="43.42128" lon="6.07479">
        <ele>238.23338317871</ele>
        <time>2014-11-05T15:30:27Z</time>
      </trkpt>
      <trkpt lat="43.42122" lon="6.07493">
        <ele>238.44229125977</ele>
        <time>2014-11-05T15:30:29Z</time>
      </trkpt>
      <trkpt lat="43.42118" lon="6.07497">
        <ele>238.54081726074</ele>
        <time>2014-11-05T15:30:30Z</time>
      </trkpt>
      <trkpt lat="43.42113" lon="6.075">
        <ele>238.6395111084</ele>
        <time>2014-11-05T15:30:31Z</time>
      </trkpt>
      <trkpt lat="43.42108" lon="6.07501">
        <ele>238.71392822266</ele>
        <time>2014-11-05T15:30:32Z</time>
      </trkpt>
      <trkpt lat="43.42103" lon="6.07501">
        <ele>238.78146362305</ele>
        <time>2014-11-05T15:30:33Z</time>
      </trkpt>
      <trkpt lat="43.42094" lon="6.07501">
        <ele>238.88903808594</ele>
        <time>2014-11-05T15:30:35Z</time>
      </trkpt>
      <trkpt lat="43.42085" lon="6.07501">
        <ele>238.99488830566</ele>
        <time>2014-11-05T15:30:37Z</time>
      </trkpt>
      <trkpt lat="43.42076" lon="6.07501">
        <ele>239.099609375</ele>
        <time>2014-11-05T15:30:39Z</time>
      </trkpt>
      <trkpt lat="43.42067" lon="6.07501">
        <ele>239.2180480957</ele>
        <time>2014-11-05T15:30:41Z</time>
      </trkpt>
      <trkpt lat="43.42057" lon="6.07501">
        <ele>239.33190917969</ele>
        <time>2014-11-05T15:30:43Z</time>
      </trkpt>
      <trkpt lat="43.42047" lon="6.07502">
        <ele>239.45379638672</ele>
        <time>2014-11-05T15:30:45Z</time>
      </trkpt>
      <trkpt lat="43.42038" lon="6.07502">
        <ele>239.57395935059</ele>
        <time>2014-11-05T15:30:47Z</time>
      </trkpt>
      <trkpt lat="43.42028" lon="6.07502">
        <ele>239.68382263184</ele>
        <time>2014-11-05T15:30:49Z</time>
      </trkpt>
      <trkpt lat="43.42024" lon="6.07501">
        <ele>239.7255859375</ele>
        <time>2014-11-05T15:30:50Z</time>
      </trkpt>
      <trkpt lat="43.42017" lon="6.07493">
        <ele>239.70155334473</ele>
        <time>2014-11-05T15:30:52Z</time>
      </trkpt>
      <trkpt lat="43.42014" lon="6.07488">
        <ele>239.65634155273</ele>
        <time>2014-11-05T15:30:53Z</time>
      </trkpt>
      <trkpt lat="43.42009" lon="6.0747">
        <ele>239.49404907227</ele>
        <time>2014-11-05T15:30:56Z</time>
      </trkpt>
      <trkpt lat="43.42007" lon="6.07465">
        <ele>239.45378112793</ele>
        <time>2014-11-05T15:30:57Z</time>
      </trkpt>
      <trkpt lat="43.42005" lon="6.07452">
        <ele>239.33146667481</ele>
        <time>2014-11-05T15:30:59Z</time>
      </trkpt>
      <trkpt lat="43.42003" lon="6.0744">
        <ele>239.22131347656</ele>
        <time>2014-11-05T15:31:01Z</time>
      </trkpt>
      <trkpt lat="43.42001" lon="6.07435">
        <ele>239.18594360352</ele>
        <time>2014-11-05T15:31:02Z</time>
      </trkpt>
      <trkpt lat="43.41999" lon="6.0743">
        <ele>239.10722351074</ele>
        <time>2014-11-05T15:31:03Z</time>
      </trkpt>
      <trkpt lat="43.41992" lon="6.07427">
        <ele>238.67546081543</ele>
        <time>2014-11-05T15:31:05Z</time>
      </trkpt>
      <trkpt lat="43.41983" lon="6.07428">
        <ele>238.16571044922</ele>
        <time>2014-11-05T15:31:07Z</time>
      </trkpt>
      <trkpt lat="43.41972" lon="6.07429">
        <ele>237.59448242188</ele>
        <time>2014-11-05T15:31:09Z</time>
      </trkpt>
      <trkpt lat="43.4196" lon="6.07433">
        <ele>236.96055603027</ele>
        <time>2014-11-05T15:31:11Z</time>
      </trkpt>
      <trkpt lat="43.41954" lon="6.07434">
        <ele>236.66458129883</ele>
        <time>2014-11-05T15:31:12Z</time>
      </trkpt>
      <trkpt lat="43.41946" lon="6.07436">
        <ele>236.31344604492</ele>
        <time>2014-11-05T15:31:13Z</time>
      </trkpt>
      <trkpt lat="43.4194" lon="6.07438">
        <ele>235.98725891113</ele>
        <time>2014-11-05T15:31:14Z</time>
      </trkpt>
      <trkpt lat="43.41932" lon="6.07438">
        <ele>235.58747863769</ele>
        <time>2014-11-05T15:31:15Z</time>
      </trkpt>
      <trkpt lat="43.41916" lon="6.07438">
        <ele>234.69659423828</ele>
        <time>2014-11-05T15:31:17Z</time>
      </trkpt>
      <trkpt lat="43.41908" lon="6.07438">
        <ele>234.11294555664</ele>
        <time>2014-11-05T15:31:18Z</time>
      </trkpt>
      <trkpt lat="43.41898" lon="6.07438">
        <ele>233.46408081055</ele>
        <time>2014-11-05T15:31:19Z</time>
      </trkpt>
      <trkpt lat="43.41889" lon="6.07439">
        <ele>232.78085327148</ele>
        <time>2014-11-05T15:31:20Z</time>
      </trkpt>
      <trkpt lat="43.41879" lon="6.07439">
        <ele>232.07705688477</ele>
        <time>2014-11-05T15:31:21Z</time>
      </trkpt>
      <trkpt lat="43.4187" lon="6.0744">
        <ele>231.44876098633</ele>
        <time>2014-11-05T15:31:22Z</time>
      </trkpt>
      <trkpt lat="43.41859" lon="6.0744">
        <ele>230.70547485352</ele>
        <time>2014-11-05T15:31:23Z</time>
      </trkpt>
      <trkpt lat="43.4185" lon="6.07442">
        <ele>230.08749389648</ele>
        <time>2014-11-05T15:31:24Z</time>
      </trkpt>
      <trkpt lat="43.41842" lon="6.07442">
        <ele>229.51586914062</ele>
        <time>2014-11-05T15:31:25Z</time>
      </trkpt>
      <trkpt lat="43.4183" lon="6.07444">
        <ele>228.79669189453</ele>
        <time>2014-11-05T15:31:27Z</time>
      </trkpt>
      <trkpt lat="43.41824" lon="6.07444">
        <ele>228.54379272461</ele>
        <time>2014-11-05T15:31:29Z</time>
      </trkpt>
      <trkpt lat="43.41823" lon="6.07444">
        <ele>228.48713684082</ele>
        <time>2014-11-05T15:31:30Z</time>
      </trkpt>
      <trkpt lat="43.41822" lon="6.07444">
        <ele>228.44250488281</ele>
        <time>2014-11-05T15:31:31Z</time>
      </trkpt>
      <trkpt lat="43.41821" lon="6.07444">
        <ele>228.41445922852</ele>
        <time>2014-11-05T15:31:33Z</time>
      </trkpt>
      <trkpt lat="43.41821" lon="6.07444">
        <ele>228.42304992676</ele>
        <time>2014-11-05T15:31:35Z</time>
      </trkpt>
      <trkpt lat="43.41821" lon="6.07445">
        <ele>228.4264831543</ele>
        <time>2014-11-05T15:31:36Z</time>
      </trkpt>
      <trkpt lat="43.41821" lon="6.07445">
        <ele>228.40646362305</ele>
        <time>2014-11-05T15:31:37Z</time>
      </trkpt>
      <trkpt lat="43.41821" lon="6.07445">
        <ele>228.40646362305</ele>
        <time>2014-11-05T15:31:39Z</time>
      </trkpt>
      <trkpt lat="43.41821" lon="6.07445">
        <ele>228.40817260742</ele>
        <time>2014-11-05T15:31:43Z</time>
      </trkpt>
      <trkpt lat="43.41821" lon="6.07445">
        <ele>228.41160583496</ele>
        <time>2014-11-05T15:31:55Z</time>
      </trkpt>
      <trkpt lat="43.41821" lon="6.07445">
        <ele>228.4150390625</ele>
        <time>2014-11-05T15:31:57Z</time>
      </trkpt>
      <trkpt lat="43.41821" lon="6.07445">
        <ele>228.4150390625</ele>
        <time>2014-11-05T15:32:03Z</time>
      </trkpt>
      <trkpt lat="43.41821" lon="6.07445">
        <ele>228.4150390625</ele>
        <time>2014-11-05T15:32:09Z</time>
      </trkpt>
      <trkpt lat="43.41821" lon="6.07445">
        <ele>228.4201965332</ele>
        <time>2014-11-05T15:32:17Z</time>
      </trkpt>
      <trkpt lat="43.41821" lon="6.07445">
        <ele>228.4201965332</ele>
        <time>2014-11-05T15:32:21Z</time>
      </trkpt>
      <trkpt lat="43.41821" lon="6.07445">
        <ele>228.4201965332</ele>
        <time>2014-11-05T15:32:29Z</time>
      </trkpt>
      <trkpt lat="43.41821" lon="6.07445">
        <ele>228.4201965332</ele>
        <time>2014-11-05T15:32:31Z</time>
      </trkpt>
      <trkpt lat="43.41821" lon="6.07444">
        <ele>228.38470458984</ele>
        <time>2014-11-05T15:32:33Z</time>
      </trkpt>
      <trkpt lat="43.41821" lon="6.07444">
        <ele>228.38642883301</ele>
        <time>2014-11-05T15:32:35Z</time>
      </trkpt>
      <trkpt lat="43.41821" lon="6.07445">
        <ele>228.38815307617</ele>
        <time>2014-11-05T15:32:39Z</time>
      </trkpt>
      <trkpt lat="43.41821" lon="6.07445">
        <ele>228.39329528809</ele>
        <time>2014-11-05T15:32:53Z</time>
      </trkpt>
      <trkpt lat="43.41821" lon="6.07445">
        <ele>228.39501953125</ele>
        <time>2014-11-05T15:32:59Z</time>
      </trkpt>
      <trkpt lat="43.41821" lon="6.07445">
        <ele>228.39501953125</ele>
        <time>2014-11-05T15:33:05Z</time>
      </trkpt>
      <trkpt lat="43.41821" lon="6.07445">
        <ele>228.39329528809</ele>
        <time>2014-11-05T15:33:11Z</time>
      </trkpt>
      <trkpt lat="43.41821" lon="6.07444">
        <ele>228.38642883301</ele>
        <time>2014-11-05T15:33:41Z</time>
      </trkpt>
      <trkpt lat="43.41821" lon="6.07444">
        <ele>228.38470458984</ele>
        <time>2014-11-05T15:34:01Z</time>
      </trkpt>
      <trkpt lat="43.41821" lon="6.07444">
        <ele>228.38470458984</ele>
        <time>2014-11-05T15:34:07Z</time>
      </trkpt>
      <trkpt lat="43.41821" lon="6.07444">
        <ele>228.38470458984</ele>
        <time>2014-11-05T15:34:15Z</time>
      </trkpt>
      <trkpt lat="43.41821" lon="6.07444">
        <ele>228.37783813477</ele>
        <time>2014-11-05T15:34:17Z</time>
      </trkpt>
      <trkpt lat="43.4182" lon="6.07443">
        <ele>228.30001831055</ele>
        <time>2014-11-05T15:34:18Z</time>
      </trkpt>
      <trkpt lat="43.41819" lon="6.07441">
        <ele>228.16441345215</ele>
        <time>2014-11-05T15:34:19Z</time>
      </trkpt>
      <trkpt lat="43.41815" lon="6.07434">
        <ele>227.76959228516</ele>
        <time>2014-11-05T15:34:21Z</time>
      </trkpt>
      <trkpt lat="43.41812" lon="6.07424">
        <ele>227.21856689453</ele>
        <time>2014-11-05T15:34:23Z</time>
      </trkpt>
      <trkpt lat="43.41809" lon="6.07419">
        <ele>226.9221496582</ele>
        <time>2014-11-05T15:34:24Z</time>
      </trkpt>
      <trkpt lat="43.41806" lon="6.07415">
        <ele>226.63627624512</ele>
        <time>2014-11-05T15:34:25Z</time>
      </trkpt>
      <trkpt lat="43.41798" lon="6.07411">
        <ele>226.13868713379</ele>
        <time>2014-11-05T15:34:27Z</time>
      </trkpt>
      <trkpt lat="43.41789" lon="6.07411">
        <ele>225.71160888672</ele>
        <time>2014-11-05T15:34:29Z</time>
      </trkpt>
      <trkpt lat="43.41778" lon="6.07411">
        <ele>225.18522644043</ele>
        <time>2014-11-05T15:34:31Z</time>
      </trkpt>
      <trkpt lat="43.41765" lon="6.07413">
        <ele>224.64308166504</ele>
        <time>2014-11-05T15:34:33Z</time>
      </trkpt>
      <trkpt lat="43.41754" lon="6.07415">
        <ele>224.16313171387</ele>
        <time>2014-11-05T15:34:35Z</time>
      </trkpt>
      <trkpt lat="43.41748" lon="6.07416">
        <ele>223.94546508789</ele>
        <time>2014-11-05T15:34:36Z</time>
      </trkpt>
      <trkpt lat="43.41742" lon="6.07417">
        <ele>223.84355163574</ele>
        <time>2014-11-05T15:34:37Z</time>
      </trkpt>
      <trkpt lat="43.41736" lon="6.07418">
        <ele>223.72158813477</ele>
        <time>2014-11-05T15:34:38Z</time>
      </trkpt>
      <trkpt lat="43.4173" lon="6.07419">
        <ele>223.59460449219</ele>
        <time>2014-11-05T15:34:39Z</time>
      </trkpt>
      <trkpt lat="43.41725" lon="6.07419">
        <ele>223.46347045898</ele>
        <time>2014-11-05T15:34:40Z</time>
      </trkpt>
      <trkpt lat="43.41718" lon="6.0742">
        <ele>223.32514953613</ele>
        <time>2014-11-05T15:34:41Z</time>
      </trkpt>
      <trkpt lat="43.41703" lon="6.07424">
        <ele>223.03727722168</ele>
        <time>2014-11-05T15:34:43Z</time>
      </trkpt>
      <trkpt lat="43.41696" lon="6.07425">
        <ele>222.86529541016</ele>
        <time>2014-11-05T15:34:44Z</time>
      </trkpt>
      <trkpt lat="43.41687" lon="6.07426">
        <ele>222.67071533203</ele>
        <time>2014-11-05T15:34:45Z</time>
      </trkpt>
      <trkpt lat="43.41679" lon="6.07428">
        <ele>222.47636413574</ele>
        <time>2014-11-05T15:34:46Z</time>
      </trkpt>
      <trkpt lat="43.4167" lon="6.07429">
        <ele>222.24520874023</ele>
        <time>2014-11-05T15:34:47Z</time>
      </trkpt>
      <trkpt lat="43.41662" lon="6.0743">
        <ele>222.03616333008</ele>
        <time>2014-11-05T15:34:48Z</time>
      </trkpt>
      <trkpt lat="43.41652" lon="6.07431">
        <ele>221.80158996582</ele>
        <time>2014-11-05T15:34:49Z</time>
      </trkpt>
      <trkpt lat="43.41635" lon="6.07433">
        <ele>221.36204528809</ele>
        <time>2014-11-05T15:34:51Z</time>
      </trkpt>
      <trkpt lat="43.41619" lon="6.07433">
        <ele>220.9532623291</ele>
        <time>2014-11-05T15:34:53Z</time>
      </trkpt>
      <trkpt lat="43.41613" lon="6.07434">
        <ele>220.77586364746</ele>
        <time>2014-11-05T15:34:54Z</time>
      </trkpt>
      <trkpt lat="43.41605" lon="6.07435">
        <ele>220.5763092041</ele>
        <time>2014-11-05T15:34:55Z</time>
      </trkpt>
      <trkpt lat="43.4159" lon="6.07437">
        <ele>220.19267272949</ele>
        <time>2014-11-05T15:34:57Z</time>
      </trkpt>
      <trkpt lat="43.41576" lon="6.07439">
        <ele>219.75970458984</ele>
        <time>2014-11-05T15:34:59Z</time>
      </trkpt>
      <trkpt lat="43.41569" lon="6.0744">
        <ele>219.52449035644</ele>
        <time>2014-11-05T15:35:00Z</time>
      </trkpt>
      <trkpt lat="43.41562" lon="6.07441">
        <ele>219.3162689209</ele>
        <time>2014-11-05T15:35:01Z</time>
      </trkpt>
      <trkpt lat="43.41557" lon="6.07442">
        <ele>219.15814208984</ele>
        <time>2014-11-05T15:35:02Z</time>
      </trkpt>
      <trkpt lat="43.41553" lon="6.07443">
        <ele>219.03739929199</ele>
        <time>2014-11-05T15:35:03Z</time>
      </trkpt>
      <trkpt lat="43.41546" lon="6.07442">
        <ele>218.79974365234</ele>
        <time>2014-11-05T15:35:05Z</time>
      </trkpt>
      <trkpt lat="43.41543" lon="6.07438">
        <ele>218.66607666016</ele>
        <time>2014-11-05T15:35:06Z</time>
      </trkpt>
      <trkpt lat="43.4154" lon="6.07432">
        <ele>218.54347229004</ele>
        <time>2014-11-05T15:35:07Z</time>
      </trkpt>
      <trkpt lat="43.41536" lon="6.0742">
        <ele>218.30644226074</ele>
        <time>2014-11-05T15:35:09Z</time>
      </trkpt>
      <trkpt lat="43.41531" lon="6.07409">
        <ele>218.08166503906</ele>
        <time>2014-11-05T15:35:11Z</time>
      </trkpt>
      <trkpt lat="43.41526" lon="6.07397">
        <ele>217.86514282227</ele>
        <time>2014-11-05T15:35:13Z</time>
      </trkpt>
      <trkpt lat="43.4152" lon="6.07387">
        <ele>217.64457702637</ele>
        <time>2014-11-05T15:35:15Z</time>
      </trkpt>
      <trkpt lat="43.41514" lon="6.07378">
        <ele>217.42127990723</ele>
        <time>2014-11-05T15:35:17Z</time>
      </trkpt>
      <trkpt lat="43.41507" lon="6.07371">
        <ele>217.2155456543</ele>
        <time>2014-11-05T15:35:19Z</time>
      </trkpt>
      <trkpt lat="43.41504" lon="6.07367">
        <ele>217.12342834473</ele>
        <time>2014-11-05T15:35:20Z</time>
      </trkpt>
      <trkpt lat="43.41502" lon="6.07363">
        <ele>217.0456237793</ele>
        <time>2014-11-05T15:35:21Z</time>
      </trkpt>
      <trkpt lat="43.41497" lon="6.07355">
        <ele>216.87969970703</ele>
        <time>2014-11-05T15:35:23Z</time>
      </trkpt>
      <trkpt lat="43.41492" lon="6.0735">
        <ele>216.72863769531</ele>
        <time>2014-11-05T15:35:25Z</time>
      </trkpt>
      <trkpt lat="43.41491" lon="6.07347">
        <ele>216.68743896484</ele>
        <time>2014-11-05T15:35:27Z</time>
      </trkpt>
      <trkpt lat="43.41491" lon="6.07346">
        <ele>216.65997314453</ele>
        <time>2014-11-05T15:35:29Z</time>
      </trkpt>
      <trkpt lat="43.41491" lon="6.07345">
        <ele>216.67370605469</ele>
        <time>2014-11-05T15:35:31Z</time>
      </trkpt>
      <trkpt lat="43.41491" lon="6.07344">
        <ele>216.68743896484</ele>
        <time>2014-11-05T15:35:32Z</time>
      </trkpt>
      <trkpt lat="43.41492" lon="6.07343">
        <ele>216.701171875</ele>
        <time>2014-11-05T15:35:33Z</time>
      </trkpt>
      <trkpt lat="43.41494" lon="6.0734">
        <ele>216.79730224609</ele>
        <time>2014-11-05T15:35:37Z</time>
      </trkpt>
      <trkpt lat="43.41495" lon="6.07338">
        <ele>216.81103515625</ele>
        <time>2014-11-05T15:35:39Z</time>
      </trkpt>
      <trkpt lat="43.41495" lon="6.07336">
        <ele>216.82476806641</ele>
        <time>2014-11-05T15:35:40Z</time>
      </trkpt>
      <trkpt lat="43.41495" lon="6.07334">
        <ele>216.82476806641</ele>
        <time>2014-11-05T15:35:41Z</time>
      </trkpt>
      <trkpt lat="43.41494" lon="6.07329">
        <ele>216.75134277344</ele>
        <time>2014-11-05T15:35:43Z</time>
      </trkpt>
      <trkpt lat="43.41494" lon="6.07324">
        <ele>216.66093444824</ele>
        <time>2014-11-05T15:35:45Z</time>
      </trkpt>
      <trkpt lat="43.41494" lon="6.07318">
        <ele>216.61199951172</ele>
        <time>2014-11-05T15:35:47Z</time>
      </trkpt>
      <trkpt lat="43.41494" lon="6.07313">
        <ele>216.54205322266</ele>
        <time>2014-11-05T15:35:49Z</time>
      </trkpt>
      <trkpt lat="43.41496" lon="6.07307">
        <ele>216.53578186035</ele>
        <time>2014-11-05T15:35:51Z</time>
      </trkpt>
      <trkpt lat="43.415" lon="6.07302">
        <ele>216.61427307129</ele>
        <time>2014-11-05T15:35:53Z</time>
      </trkpt>
      <trkpt lat="43.41505" lon="6.07301">
        <ele>216.76045227051</ele>
        <time>2014-11-05T15:35:55Z</time>
      </trkpt>
      <trkpt lat="43.41513" lon="6.07301">
        <ele>216.99108886719</ele>
        <time>2014-11-05T15:35:58Z</time>
      </trkpt>
      <trkpt lat="43.41515" lon="6.07302">
        <ele>217.05978393555</ele>
        <time>2014-11-05T15:35:59Z</time>
      </trkpt>
      <trkpt lat="43.4152" lon="6.07302">
        <ele>217.20477294922</ele>
        <time>2014-11-05T15:36:01Z</time>
      </trkpt>
      <trkpt lat="43.41525" lon="6.07302">
        <ele>217.32591247559</ele>
        <time>2014-11-05T15:36:03Z</time>
      </trkpt>
      <trkpt lat="43.41529" lon="6.073">
        <ele>217.42619323731</ele>
        <time>2014-11-05T15:36:05Z</time>
      </trkpt>
      <trkpt lat="43.41532" lon="6.07296">
        <ele>217.49276733398</ele>
        <time>2014-11-05T15:36:07Z</time>
      </trkpt>
      <trkpt lat="43.41533" lon="6.0729">
        <ele>217.48933410644</ele>
        <time>2014-11-05T15:36:09Z</time>
      </trkpt>
      <trkpt lat="43.41533" lon="6.07287">
        <ele>217.46356201172</ele>
        <time>2014-11-05T15:36:11Z</time>
      </trkpt>
      <trkpt lat="43.41533" lon="6.07284">
        <ele>217.4289855957</ele>
        <time>2014-11-05T15:36:13Z</time>
      </trkpt>
      <trkpt lat="43.41533" lon="6.07281">
        <ele>217.39791870117</ele>
        <time>2014-11-05T15:36:15Z</time>
      </trkpt>
      <trkpt lat="43.41533" lon="6.07278">
        <ele>217.37489318848</ele>
        <time>2014-11-05T15:36:17Z</time>
      </trkpt>
      <trkpt lat="43.41532" lon="6.07277">
        <ele>217.34057617188</ele>
        <time>2014-11-05T15:36:18Z</time>
      </trkpt>
      <trkpt lat="43.41531" lon="6.07275">
        <ele>217.29360961914</ele>
        <time>2014-11-05T15:36:19Z</time>
      </trkpt>
      <trkpt lat="43.41529" lon="6.07271">
        <ele>217.22735595703</ele>
        <time>2014-11-05T15:36:21Z</time>
      </trkpt>
      <trkpt lat="43.41529" lon="6.0727">
        <ele>217.20065307617</ele>
        <time>2014-11-05T15:36:22Z</time>
      </trkpt>
      <trkpt lat="43.41529" lon="6.07267">
        <ele>217.18313598633</ele>
        <time>2014-11-05T15:36:23Z</time>
      </trkpt>
      <trkpt lat="43.41528" lon="6.07256">
        <ele>217.06504821777</ele>
        <time>2014-11-05T15:36:28Z</time>
      </trkpt>
      <trkpt lat="43.41529" lon="6.07248">
        <ele>217.05111694336</ele>
        <time>2014-11-05T15:36:31Z</time>
      </trkpt>
      <trkpt lat="43.41529" lon="6.07239">
        <ele>216.98960876465</ele>
        <time>2014-11-05T15:36:34Z</time>
      </trkpt>
      <trkpt lat="43.41528" lon="6.07231">
        <ele>216.91571044922</ele>
        <time>2014-11-05T15:36:37Z</time>
      </trkpt>
      <trkpt lat="43.41528" lon="6.07224">
        <ele>216.89073181152</ele>
        <time>2014-11-05T15:36:39Z</time>
      </trkpt>
      <trkpt lat="43.41529" lon="6.07219">
        <ele>216.92750549316</ele>
        <time>2014-11-05T15:36:41Z</time>
      </trkpt>
      <trkpt lat="43.4153" lon="6.07213">
        <ele>216.9157409668</ele>
        <time>2014-11-05T15:36:43Z</time>
      </trkpt>
      <trkpt lat="43.41529" lon="6.07207">
        <ele>216.86895751953</ele>
        <time>2014-11-05T15:36:45Z</time>
      </trkpt>
      <trkpt lat="43.41527" lon="6.07204">
        <ele>216.78677368164</ele>
        <time>2014-11-05T15:36:47Z</time>
      </trkpt>
      <trkpt lat="43.41525" lon="6.072">
        <ele>216.70526123047</ele>
        <time>2014-11-05T15:36:49Z</time>
      </trkpt>
      <trkpt lat="43.41525" lon="6.07195">
        <ele>216.70866394043</ele>
        <time>2014-11-05T15:36:51Z</time>
      </trkpt>
      <trkpt lat="43.41526" lon="6.07191">
        <ele>216.72750854492</ele>
        <time>2014-11-05T15:36:53Z</time>
      </trkpt>
      <trkpt lat="43.41526" lon="6.07189">
        <ele>216.69787597656</ele>
        <time>2014-11-05T15:36:55Z</time>
      </trkpt>
      <trkpt lat="43.41518" lon="6.07185">
        <ele>216.4688873291</ele>
        <time>2014-11-05T15:37:00Z</time>
      </trkpt>
      <trkpt lat="43.41513" lon="6.0718">
        <ele>216.34783935547</ele>
        <time>2014-11-05T15:37:03Z</time>
      </trkpt>
      <trkpt lat="43.41513" lon="6.07177">
        <ele>216.33348083496</ele>
        <time>2014-11-05T15:37:04Z</time>
      </trkpt>
      <trkpt lat="43.41513" lon="6.07174">
        <ele>216.31852722168</ele>
        <time>2014-11-05T15:37:05Z</time>
      </trkpt>
      <trkpt lat="43.41512" lon="6.07169">
        <ele>216.29035949707</ele>
        <time>2014-11-05T15:37:07Z</time>
      </trkpt>
      <trkpt lat="43.41512" lon="6.07165">
        <ele>216.29516601562</ele>
        <time>2014-11-05T15:37:09Z</time>
      </trkpt>
      <trkpt lat="43.41513" lon="6.07161">
        <ele>216.32263183594</ele>
        <time>2014-11-05T15:37:11Z</time>
      </trkpt>
      <trkpt lat="43.41516" lon="6.07155">
        <ele>216.38671875</ele>
        <time>2014-11-05T15:37:15Z</time>
      </trkpt>
      <trkpt lat="43.41518" lon="6.07153">
        <ele>216.42333984375</ele>
        <time>2014-11-05T15:37:17Z</time>
      </trkpt>
      <trkpt lat="43.41518" lon="6.07153">
        <ele>216.42333984375</ele>
        <time>2014-11-05T15:37:19Z</time>
      </trkpt>
      <trkpt lat="43.41517" lon="6.07153">
        <ele>216.41418457031</ele>
        <time>2014-11-05T15:37:21Z</time>
      </trkpt>
      <trkpt lat="43.41517" lon="6.07153">
        <ele>216.41418457031</ele>
        <time>2014-11-05T15:37:23Z</time>
      </trkpt>
      <trkpt lat="43.41517" lon="6.07153">
        <ele>216.41418457031</ele>
        <time>2014-11-05T15:37:25Z</time>
      </trkpt>
      <trkpt lat="43.41518" lon="6.07153">
        <ele>216.42333984375</ele>
        <time>2014-11-05T15:37:27Z</time>
      </trkpt>
      <trkpt lat="43.41518" lon="6.07153">
        <ele>216.43249511719</ele>
        <time>2014-11-05T15:37:28Z</time>
      </trkpt>
      <trkpt lat="43.41519" lon="6.07153">
        <ele>216.45080566406</ele>
        <time>2014-11-05T15:37:29Z</time>
      </trkpt>
      <trkpt lat="43.41519" lon="6.07153">
        <ele>216.45080566406</ele>
        <time>2014-11-05T15:37:31Z</time>
      </trkpt>
      <trkpt lat="43.41519" lon="6.07153">
        <ele>216.45080566406</ele>
        <time>2014-11-05T15:37:33Z</time>
      </trkpt>
      <trkpt lat="43.41519" lon="6.07153">
        <ele>216.4599609375</ele>
        <time>2014-11-05T15:37:35Z</time>
      </trkpt>
      <trkpt lat="43.4152" lon="6.07153">
        <ele>216.46911621094</ele>
        <time>2014-11-05T15:37:37Z</time>
      </trkpt>
      <trkpt lat="43.4152" lon="6.07152">
        <ele>216.47827148438</ele>
        <time>2014-11-05T15:37:39Z</time>
      </trkpt>
      <trkpt lat="43.41521" lon="6.07152">
        <ele>216.51489257812</ele>
        <time>2014-11-05T15:37:41Z</time>
      </trkpt>
      <trkpt lat="43.41523" lon="6.07152">
        <ele>216.54235839844</ele>
        <time>2014-11-05T15:37:43Z</time>
      </trkpt>
      <trkpt lat="43.41524" lon="6.07152">
        <ele>216.56982421875</ele>
        <time>2014-11-05T15:37:45Z</time>
      </trkpt>
      <trkpt lat="43.41526" lon="6.07151">
        <ele>216.62475585938</ele>
        <time>2014-11-05T15:37:49Z</time>
      </trkpt>
      <trkpt lat="43.41528" lon="6.07151">
        <ele>216.66137695312</ele>
        <time>2014-11-05T15:37:51Z</time>
      </trkpt>
      <trkpt lat="43.41529" lon="6.07151">
        <ele>216.68884277344</ele>
        <time>2014-11-05T15:37:53Z</time>
      </trkpt>
      <trkpt lat="43.4153" lon="6.0715">
        <ele>216.71630859375</ele>
        <time>2014-11-05T15:37:55Z</time>
      </trkpt>
      <trkpt lat="43.41531" lon="6.07151">
        <ele>216.74377441406</ele>
        <time>2014-11-05T15:37:57Z</time>
      </trkpt>
      <trkpt lat="43.41533" lon="6.07151">
        <ele>216.78955078125</ele>
        <time>2014-11-05T15:37:59Z</time>
      </trkpt>
      <trkpt lat="43.41534" lon="6.07151">
        <ele>216.826171875</ele>
        <time>2014-11-05T15:38:03Z</time>
      </trkpt>
      <trkpt lat="43.41535" lon="6.07151">
        <ele>216.84448242188</ele>
        <time>2014-11-05T15:38:04Z</time>
      </trkpt>
      <trkpt lat="43.41537" lon="6.07151">
        <ele>216.8994140625</ele>
        <time>2014-11-05T15:38:07Z</time>
      </trkpt>
      <trkpt lat="43.41538" lon="6.0715">
        <ele>216.91772460938</ele>
        <time>2014-11-05T15:38:08Z</time>
      </trkpt>
      <trkpt lat="43.41539" lon="6.0715">
        <ele>216.94519042969</ele>
        <time>2014-11-05T15:38:09Z</time>
      </trkpt>
      <trkpt lat="43.41541" lon="6.07147">
        <ele>216.97265625</ele>
        <time>2014-11-05T15:38:11Z</time>
      </trkpt>
      <trkpt lat="43.41541" lon="6.07145">
        <ele>216.98181152344</ele>
        <time>2014-11-05T15:38:13Z</time>
      </trkpt>
      <trkpt lat="43.41541" lon="6.07144">
        <ele>216.99096679688</ele>
        <time>2014-11-05T15:38:15Z</time>
      </trkpt>
      <trkpt lat="43.41542" lon="6.07143">
        <ele>217.00012207031</ele>
        <time>2014-11-05T15:38:17Z</time>
      </trkpt>
      <trkpt lat="43.41543" lon="6.07141">
        <ele>217.02758789062</ele>
        <time>2014-11-05T15:38:19Z</time>
      </trkpt>
      <trkpt lat="43.41544" lon="6.07141">
        <ele>217.05505371094</ele>
        <time>2014-11-05T15:38:21Z</time>
      </trkpt>
      <trkpt lat="43.41545" lon="6.07141">
        <ele>217.08251953125</ele>
        <time>2014-11-05T15:38:25Z</time>
      </trkpt>
      <trkpt lat="43.41545" lon="6.07141">
        <ele>217.09167480469</ele>
        <time>2014-11-05T15:38:27Z</time>
      </trkpt>
      <trkpt lat="43.41546" lon="6.07142">
        <ele>217.10998535156</ele>
        <time>2014-11-05T15:38:29Z</time>
      </trkpt>
      <trkpt lat="43.41546" lon="6.07144">
        <ele>217.10998535156</ele>
        <time>2014-11-05T15:38:33Z</time>
      </trkpt>
      <trkpt lat="43.41546" lon="6.07145">
        <ele>217.10998535156</ele>
        <time>2014-11-05T15:38:35Z</time>
      </trkpt>
      <trkpt lat="43.41547" lon="6.07145">
        <ele>217.12829589844</ele>
        <time>2014-11-05T15:38:37Z</time>
      </trkpt>
      <trkpt lat="43.41547" lon="6.07145">
        <ele>217.12829589844</ele>
        <time>2014-11-05T15:38:39Z</time>
      </trkpt>
      <trkpt lat="43.41547" lon="6.07145">
        <ele>217.12829589844</ele>
        <time>2014-11-05T15:38:41Z</time>
      </trkpt>
      <trkpt lat="43.41547" lon="6.07144">
        <ele>217.12829589844</ele>
        <time>2014-11-05T15:38:43Z</time>
      </trkpt>
      <trkpt lat="43.41547" lon="6.07144">
        <ele>217.13745117188</ele>
        <time>2014-11-05T15:38:45Z</time>
      </trkpt>
      <trkpt lat="43.41547" lon="6.07144">
        <ele>217.12829589844</ele>
        <time>2014-11-05T15:38:47Z</time>
      </trkpt>
      <trkpt lat="43.41547" lon="6.07144">
        <ele>217.13745117188</ele>
        <time>2014-11-05T15:38:49Z</time>
      </trkpt>
      <trkpt lat="43.41548" lon="6.07144">
        <ele>217.14660644531</ele>
        <time>2014-11-05T15:38:51Z</time>
      </trkpt>
      <trkpt lat="43.41549" lon="6.07142">
        <ele>217.17407226562</ele>
        <time>2014-11-05T15:38:53Z</time>
      </trkpt>
      <trkpt lat="43.41549" lon="6.07142">
        <ele>217.18322753906</ele>
        <time>2014-11-05T15:38:55Z</time>
      </trkpt>
      <trkpt lat="43.4155" lon="6.0714">
        <ele>217.20153808594</ele>
        <time>2014-11-05T15:38:57Z</time>
      </trkpt>
      <trkpt lat="43.41551" lon="6.07137">
        <ele>217.22900390625</ele>
        <time>2014-11-05T15:38:59Z</time>
      </trkpt>
      <trkpt lat="43.41553" lon="6.07133">
        <ele>217.28393554688</ele>
        <time>2014-11-05T15:39:01Z</time>
      </trkpt>
      <trkpt lat="43.41557" lon="6.0713">
        <ele>217.35717773438</ele>
        <time>2014-11-05T15:39:03Z</time>
      </trkpt>
      <trkpt lat="43.41558" lon="6.07128">
        <ele>217.40295410156</ele>
        <time>2014-11-05T15:39:04Z</time>
      </trkpt>
      <trkpt lat="43.4156" lon="6.07126">
        <ele>217.44873046875</ele>
        <time>2014-11-05T15:39:05Z</time>
      </trkpt>
      <trkpt lat="43.41564" lon="6.07123">
        <ele>217.54028320312</ele>
        <time>2014-11-05T15:39:07Z</time>
      </trkpt>
      <trkpt lat="43.41568" lon="6.07119">
        <ele>217.6318359375</ele>
        <time>2014-11-05T15:39:09Z</time>
      </trkpt>
      <trkpt lat="43.41576" lon="6.07113">
        <ele>217.82409667969</ele>
        <time>2014-11-05T15:39:13Z</time>
      </trkpt>
      <trkpt lat="43.41579" lon="6.07109">
        <ele>217.89733886719</ele>
        <time>2014-11-05T15:39:15Z</time>
      </trkpt>
      <trkpt lat="43.41582" lon="6.07105">
        <ele>217.97973632812</ele>
        <time>2014-11-05T15:39:17Z</time>
      </trkpt>
      <trkpt lat="43.41583" lon="6.07102">
        <ele>217.998046875</ele>
        <time>2014-11-05T15:39:18Z</time>
      </trkpt>
      <trkpt lat="43.41584" lon="6.071">
        <ele>218.01635742188</ele>
        <time>2014-11-05T15:39:19Z</time>
      </trkpt>
      <trkpt lat="43.41584" lon="6.07094">
        <ele>218.01635742188</ele>
        <time>2014-11-05T15:39:21Z</time>
      </trkpt>
      <trkpt lat="43.41583" lon="6.07087">
        <ele>217.98889160156</ele>
        <time>2014-11-05T15:39:23Z</time>
      </trkpt>
      <trkpt lat="43.41582" lon="6.0708">
        <ele>218.01879882812</ele>
        <time>2014-11-05T15:39:25Z</time>
      </trkpt>
      <trkpt lat="43.41582" lon="6.07067">
        <ele>218.16012573242</ele>
        <time>2014-11-05T15:39:29Z</time>
      </trkpt>
      <trkpt lat="43.41581" lon="6.0706">
        <ele>218.22994995117</ele>
        <time>2014-11-05T15:39:31Z</time>
      </trkpt>
      <trkpt lat="43.41581" lon="6.07057">
        <ele>218.2625579834</ele>
        <time>2014-11-05T15:39:32Z</time>
      </trkpt>
      <trkpt lat="43.41581" lon="6.07053">
        <ele>218.30261230469</ele>
        <time>2014-11-05T15:39:33Z</time>
      </trkpt>
      <trkpt lat="43.4158" lon="6.07047">
        <ele>218.35925292969</ele>
        <time>2014-11-05T15:39:35Z</time>
      </trkpt>
      <trkpt lat="43.41581" lon="6.07043">
        <ele>218.42735290527</ele>
        <time>2014-11-05T15:39:37Z</time>
      </trkpt>
      <trkpt lat="43.41581" lon="6.07042">
        <ele>218.43193054199</ele>
        <time>2014-11-05T15:39:41Z</time>
      </trkpt>
      <trkpt lat="43.41581" lon="6.07041">
        <ele>218.43765258789</ele>
        <time>2014-11-05T15:39:43Z</time>
      </trkpt>
      <trkpt lat="43.41581" lon="6.07041">
        <ele>218.43879699707</ele>
        <time>2014-11-05T15:39:47Z</time>
      </trkpt>
      <trkpt lat="43.41581" lon="6.07041">
        <ele>218.44909667969</ele>
        <time>2014-11-05T15:39:51Z</time>
      </trkpt>
      <trkpt lat="43.41581" lon="6.07041">
        <ele>218.44967651367</ele>
        <time>2014-11-05T15:39:53Z</time>
      </trkpt>
      <trkpt lat="43.41581" lon="6.07041">
        <ele>218.44967651367</ele>
        <time>2014-11-05T15:39:57Z</time>
      </trkpt>
      <trkpt lat="43.41581" lon="6.07041">
        <ele>218.45196533203</ele>
        <time>2014-11-05T15:40:22Z</time>
      </trkpt>
    </trkseg>
  </trk>
</gpx>